<?xml version="1.0" encoding="UTF-8" standalone="no" ?>
<gpx xmlns="http://www.topografix.com/GPX/1/1" xmlns:xsi="http://www.w3.org/2001/XMLSchema-instance" xsi:schemaLocation="http://www.topografix.com/GPX/1/1 http://www.topografix.com/GPX/1/1/gpx.xsd" version="1.1" creator="VisuGPX - https://www.visugpx.com">
  <metadata>
    <name>2021 Peyrieu jour 1</name>
  </metadata>
  <trk>
    <name><![CDATA[SityTrail - 2021 juin Peyrieu]]></name>
    <trkseg>
      <trkpt lat="45.62627" lon="5.72644">
        <ele>662</ele>
        <time>2021-06-05T08:35:37.522Z</time>
      </trkpt>
      <trkpt lat="45.62627" lon="5.72645">
        <ele>662</ele>
        <time>2021-06-05T08:35:38.505Z</time>
      </trkpt>
      <trkpt lat="45.62629" lon="5.72646">
        <ele>662</ele>
        <time>2021-06-05T08:35:42.556Z</time>
      </trkpt>
      <trkpt lat="45.62636" lon="5.72636">
        <ele>662</ele>
        <time>2021-06-05T08:35:47.539Z</time>
      </trkpt>
      <trkpt lat="45.62641" lon="5.72632">
        <ele>662</ele>
        <time>2021-06-05T08:35:51.545Z</time>
      </trkpt>
      <trkpt lat="45.62647" lon="5.72619">
        <ele>668</ele>
        <time>2021-06-05T08:36:11.558Z</time>
      </trkpt>
      <trkpt lat="45.62641" lon="5.7262">
        <ele>668</ele>
        <time>2021-06-05T08:36:16.553Z</time>
      </trkpt>
      <trkpt lat="45.62635" lon="5.7262">
        <ele>668</ele>
        <time>2021-06-05T08:36:21.527Z</time>
      </trkpt>
      <trkpt lat="45.62629" lon="5.72621">
        <ele>668</ele>
        <time>2021-06-05T08:36:25.564Z</time>
      </trkpt>
      <trkpt lat="45.62624" lon="5.7262">
        <ele>670</ele>
        <time>2021-06-05T08:36:30.570Z</time>
      </trkpt>
      <trkpt lat="45.62616" lon="5.72623">
        <ele>670</ele>
        <time>2021-06-05T08:36:35.560Z</time>
      </trkpt>
      <trkpt lat="45.6261" lon="5.72625">
        <ele>670</ele>
        <time>2021-06-05T08:36:40.558Z</time>
      </trkpt>
      <trkpt lat="45.62604" lon="5.72626">
        <ele>664</ele>
        <time>2021-06-05T08:36:44.563Z</time>
      </trkpt>
      <trkpt lat="45.62597" lon="5.72626">
        <ele>665</ele>
        <time>2021-06-05T08:36:49.556Z</time>
      </trkpt>
      <trkpt lat="45.6259" lon="5.72627">
        <ele>665</ele>
        <time>2021-06-05T08:36:54.567Z</time>
      </trkpt>
      <trkpt lat="45.62583" lon="5.72628">
        <ele>665</ele>
        <time>2021-06-05T08:36:59.549Z</time>
      </trkpt>
      <trkpt lat="45.62575" lon="5.72629">
        <ele>665</ele>
        <time>2021-06-05T08:37:04.563Z</time>
      </trkpt>
      <trkpt lat="45.62569" lon="5.72629">
        <ele>667</ele>
        <time>2021-06-05T08:37:09.560Z</time>
      </trkpt>
      <trkpt lat="45.62561" lon="5.72631">
        <ele>667</ele>
        <time>2021-06-05T08:37:14.537Z</time>
      </trkpt>
      <trkpt lat="45.62555" lon="5.72632">
        <ele>667</ele>
        <time>2021-06-05T08:37:18.552Z</time>
      </trkpt>
      <trkpt lat="45.62551" lon="5.72633">
        <ele>667</ele>
        <time>2021-06-05T08:37:22.562Z</time>
      </trkpt>
      <trkpt lat="45.62545" lon="5.72639">
        <ele>667</ele>
        <time>2021-06-05T08:37:27.545Z</time>
      </trkpt>
      <trkpt lat="45.62541" lon="5.72636">
        <ele>670</ele>
        <time>2021-06-05T08:37:32.546Z</time>
      </trkpt>
      <trkpt lat="45.62547" lon="5.72629">
        <ele>667</ele>
        <time>2021-06-05T08:37:37.545Z</time>
      </trkpt>
      <trkpt lat="45.62552" lon="5.72627">
        <ele>667</ele>
        <time>2021-06-05T08:37:42.541Z</time>
      </trkpt>
      <trkpt lat="45.62556" lon="5.72624">
        <ele>675</ele>
        <time>2021-06-05T08:37:47.546Z</time>
      </trkpt>
      <trkpt lat="45.62562" lon="5.72617">
        <ele>675</ele>
        <time>2021-06-05T08:37:52.537Z</time>
      </trkpt>
      <trkpt lat="45.62567" lon="5.72615">
        <ele>675</ele>
        <time>2021-06-05T08:37:57.543Z</time>
      </trkpt>
      <trkpt lat="45.62571" lon="5.72613">
        <ele>672</ele>
        <time>2021-06-05T08:38:02.537Z</time>
      </trkpt>
      <trkpt lat="45.62572" lon="5.72613">
        <ele>672</ele>
        <time>2021-06-05T08:38:07.546Z</time>
      </trkpt>
      <trkpt lat="45.62573" lon="5.7261">
        <ele>672</ele>
        <time>2021-06-05T08:38:45.509Z</time>
      </trkpt>
      <trkpt lat="45.62577" lon="5.7261">
        <ele>672</ele>
        <time>2021-06-05T08:38:50.489Z</time>
      </trkpt>
      <trkpt lat="45.6258" lon="5.72608">
        <ele>672</ele>
        <time>2021-06-05T08:38:54.551Z</time>
      </trkpt>
      <trkpt lat="45.62579" lon="5.72604">
        <ele>672</ele>
        <time>2021-06-05T08:38:59.548Z</time>
      </trkpt>
      <trkpt lat="45.6258" lon="5.72603">
        <ele>672</ele>
        <time>2021-06-05T08:39:04.552Z</time>
      </trkpt>
      <trkpt lat="45.62585" lon="5.72603">
        <ele>672</ele>
        <time>2021-06-05T08:39:42.547Z</time>
      </trkpt>
      <trkpt lat="45.62587" lon="5.72602">
        <ele>672</ele>
        <time>2021-06-05T08:39:47.555Z</time>
      </trkpt>
      <trkpt lat="45.6259" lon="5.72598">
        <ele>672</ele>
        <time>2021-06-05T08:39:52.551Z</time>
      </trkpt>
      <trkpt lat="45.62596" lon="5.72597">
        <ele>672</ele>
        <time>2021-06-05T08:39:57.550Z</time>
      </trkpt>
      <trkpt lat="45.62602" lon="5.72593">
        <ele>677</ele>
        <time>2021-06-05T08:40:02.550Z</time>
      </trkpt>
      <trkpt lat="45.62607" lon="5.72591">
        <ele>677</ele>
        <time>2021-06-05T08:40:07.554Z</time>
      </trkpt>
      <trkpt lat="45.62612" lon="5.72587">
        <ele>677</ele>
        <time>2021-06-05T08:40:12.538Z</time>
      </trkpt>
      <trkpt lat="45.62616" lon="5.72584">
        <ele>677</ele>
        <time>2021-06-05T08:40:17.538Z</time>
      </trkpt>
      <trkpt lat="45.62626" lon="5.72576">
        <ele>673</ele>
        <time>2021-06-05T08:40:22.558Z</time>
      </trkpt>
      <trkpt lat="45.62631" lon="5.72573">
        <ele>673</ele>
        <time>2021-06-05T08:40:27.551Z</time>
      </trkpt>
      <trkpt lat="45.62636" lon="5.7257">
        <ele>673</ele>
        <time>2021-06-05T08:40:32.531Z</time>
      </trkpt>
      <trkpt lat="45.62638" lon="5.72563">
        <ele>680</ele>
        <time>2021-06-05T08:40:36.540Z</time>
      </trkpt>
      <trkpt lat="45.62646" lon="5.72552">
        <ele>680</ele>
        <time>2021-06-05T08:40:41.544Z</time>
      </trkpt>
      <trkpt lat="45.6265" lon="5.72546">
        <ele>680</ele>
        <time>2021-06-05T08:40:46.545Z</time>
      </trkpt>
      <trkpt lat="45.62653" lon="5.7254">
        <ele>685</ele>
        <time>2021-06-05T08:40:51.555Z</time>
      </trkpt>
      <trkpt lat="45.62663" lon="5.72538">
        <ele>685</ele>
        <time>2021-06-05T08:40:56.554Z</time>
      </trkpt>
      <trkpt lat="45.62668" lon="5.72533">
        <ele>685</ele>
        <time>2021-06-05T08:41:01.543Z</time>
      </trkpt>
      <trkpt lat="45.62672" lon="5.72528">
        <ele>685</ele>
        <time>2021-06-05T08:41:06.540Z</time>
      </trkpt>
      <trkpt lat="45.62677" lon="5.72523">
        <ele>685</ele>
        <time>2021-06-05T08:41:10.560Z</time>
      </trkpt>
      <trkpt lat="45.62685" lon="5.72518">
        <ele>682</ele>
        <time>2021-06-05T08:41:15.531Z</time>
      </trkpt>
      <trkpt lat="45.62689" lon="5.72513">
        <ele>688</ele>
        <time>2021-06-05T08:41:19.553Z</time>
      </trkpt>
      <trkpt lat="45.62693" lon="5.72509">
        <ele>688</ele>
        <time>2021-06-05T08:41:24.547Z</time>
      </trkpt>
      <trkpt lat="45.627" lon="5.72503">
        <ele>688</ele>
        <time>2021-06-05T08:41:28.556Z</time>
      </trkpt>
      <trkpt lat="45.62704" lon="5.72497">
        <ele>688</ele>
        <time>2021-06-05T08:41:33.548Z</time>
      </trkpt>
      <trkpt lat="45.62711" lon="5.72493">
        <ele>684</ele>
        <time>2021-06-05T08:41:38.551Z</time>
      </trkpt>
      <trkpt lat="45.62716" lon="5.7249">
        <ele>684</ele>
        <time>2021-06-05T08:41:43.545Z</time>
      </trkpt>
      <trkpt lat="45.62722" lon="5.72486">
        <ele>684</ele>
        <time>2021-06-05T08:41:48.542Z</time>
      </trkpt>
      <trkpt lat="45.62729" lon="5.72484">
        <ele>689</ele>
        <time>2021-06-05T08:41:53.535Z</time>
      </trkpt>
      <trkpt lat="45.62736" lon="5.72481">
        <ele>689</ele>
        <time>2021-06-05T08:41:57.534Z</time>
      </trkpt>
      <trkpt lat="45.62741" lon="5.72479">
        <ele>685</ele>
        <time>2021-06-05T08:42:02.552Z</time>
      </trkpt>
      <trkpt lat="45.62745" lon="5.72474">
        <ele>685</ele>
        <time>2021-06-05T08:42:07.546Z</time>
      </trkpt>
      <trkpt lat="45.6275" lon="5.7247">
        <ele>685</ele>
        <time>2021-06-05T08:42:12.531Z</time>
      </trkpt>
      <trkpt lat="45.62759" lon="5.72466">
        <ele>685</ele>
        <time>2021-06-05T08:42:17.553Z</time>
      </trkpt>
      <trkpt lat="45.62766" lon="5.72462">
        <ele>684</ele>
        <time>2021-06-05T08:42:22.552Z</time>
      </trkpt>
      <trkpt lat="45.62771" lon="5.72461">
        <ele>684</ele>
        <time>2021-06-05T08:42:27.567Z</time>
      </trkpt>
      <trkpt lat="45.62774" lon="5.7246">
        <ele>684</ele>
        <time>2021-06-05T08:42:32.537Z</time>
      </trkpt>
      <trkpt lat="45.62778" lon="5.72458">
        <ele>689</ele>
        <time>2021-06-05T08:42:36.560Z</time>
      </trkpt>
      <trkpt lat="45.62788" lon="5.72453">
        <ele>689</ele>
        <time>2021-06-05T08:42:41.549Z</time>
      </trkpt>
      <trkpt lat="45.62791" lon="5.72451">
        <ele>689</ele>
        <time>2021-06-05T08:42:45.555Z</time>
      </trkpt>
      <trkpt lat="45.62793" lon="5.7245">
        <ele>689</ele>
        <time>2021-06-05T08:42:50.548Z</time>
      </trkpt>
      <trkpt lat="45.62798" lon="5.72447">
        <ele>689</ele>
        <time>2021-06-05T08:42:55.554Z</time>
      </trkpt>
      <trkpt lat="45.62806" lon="5.72441">
        <ele>689</ele>
        <time>2021-06-05T08:42:59.558Z</time>
      </trkpt>
      <trkpt lat="45.62815" lon="5.72435">
        <ele>689</ele>
        <time>2021-06-05T08:43:04.551Z</time>
      </trkpt>
      <trkpt lat="45.62823" lon="5.72428">
        <ele>692</ele>
        <time>2021-06-05T08:43:09.545Z</time>
      </trkpt>
      <trkpt lat="45.62828" lon="5.72423">
        <ele>692</ele>
        <time>2021-06-05T08:43:13.565Z</time>
      </trkpt>
      <trkpt lat="45.62837" lon="5.72415">
        <ele>692</ele>
        <time>2021-06-05T08:43:18.545Z</time>
      </trkpt>
      <trkpt lat="45.62843" lon="5.72407">
        <ele>692</ele>
        <time>2021-06-05T08:43:23.537Z</time>
      </trkpt>
      <trkpt lat="45.62847" lon="5.72403">
        <ele>692</ele>
        <time>2021-06-05T08:43:27.561Z</time>
      </trkpt>
      <trkpt lat="45.62853" lon="5.72393">
        <ele>693</ele>
        <time>2021-06-05T08:43:32.541Z</time>
      </trkpt>
      <trkpt lat="45.62856" lon="5.72386">
        <ele>693</ele>
        <time>2021-06-05T08:43:36.548Z</time>
      </trkpt>
      <trkpt lat="45.62863" lon="5.7238">
        <ele>693</ele>
        <time>2021-06-05T08:43:41.538Z</time>
      </trkpt>
      <trkpt lat="45.62867" lon="5.72375">
        <ele>696</ele>
        <time>2021-06-05T08:43:45.548Z</time>
      </trkpt>
      <trkpt lat="45.62871" lon="5.72366">
        <ele>696</ele>
        <time>2021-06-05T08:43:50.553Z</time>
      </trkpt>
      <trkpt lat="45.6288" lon="5.7236">
        <ele>695</ele>
        <time>2021-06-05T08:43:55.536Z</time>
      </trkpt>
      <trkpt lat="45.62886" lon="5.72353">
        <ele>695</ele>
        <time>2021-06-05T08:44:00.541Z</time>
      </trkpt>
      <trkpt lat="45.6289" lon="5.72346">
        <ele>697</ele>
        <time>2021-06-05T08:44:05.532Z</time>
      </trkpt>
      <trkpt lat="45.62894" lon="5.72344">
        <ele>697</ele>
        <time>2021-06-05T08:44:09.538Z</time>
      </trkpt>
      <trkpt lat="45.62899" lon="5.72339">
        <ele>697</ele>
        <time>2021-06-05T08:44:14.551Z</time>
      </trkpt>
      <trkpt lat="45.62903" lon="5.72336">
        <ele>697</ele>
        <time>2021-06-05T08:44:19.544Z</time>
      </trkpt>
      <trkpt lat="45.62909" lon="5.72335">
        <ele>694</ele>
        <time>2021-06-05T08:44:24.545Z</time>
      </trkpt>
      <trkpt lat="45.62914" lon="5.72333">
        <ele>694</ele>
        <time>2021-06-05T08:44:28.557Z</time>
      </trkpt>
      <trkpt lat="45.62921" lon="5.72333">
        <ele>694</ele>
        <time>2021-06-05T08:44:33.550Z</time>
      </trkpt>
      <trkpt lat="45.62926" lon="5.72335">
        <ele>694</ele>
        <time>2021-06-05T08:44:38.532Z</time>
      </trkpt>
      <trkpt lat="45.62931" lon="5.72336">
        <ele>690</ele>
        <time>2021-06-05T08:44:42.558Z</time>
      </trkpt>
      <trkpt lat="45.6294" lon="5.72338">
        <ele>690</ele>
        <time>2021-06-05T08:44:47.527Z</time>
      </trkpt>
      <trkpt lat="45.62946" lon="5.7234">
        <ele>690</ele>
        <time>2021-06-05T08:44:51.544Z</time>
      </trkpt>
      <trkpt lat="45.62953" lon="5.72342">
        <ele>690</ele>
        <time>2021-06-05T08:44:56.546Z</time>
      </trkpt>
      <trkpt lat="45.62961" lon="5.72343">
        <ele>687</ele>
        <time>2021-06-05T08:45:00.557Z</time>
      </trkpt>
      <trkpt lat="45.62968" lon="5.72345">
        <ele>687</ele>
        <time>2021-06-05T08:45:05.554Z</time>
      </trkpt>
      <trkpt lat="45.62975" lon="5.72347">
        <ele>687</ele>
        <time>2021-06-05T08:45:09.562Z</time>
      </trkpt>
      <trkpt lat="45.62982" lon="5.72345">
        <ele>687</ele>
        <time>2021-06-05T08:45:14.542Z</time>
      </trkpt>
      <trkpt lat="45.62987" lon="5.72344">
        <ele>682</ele>
        <time>2021-06-05T08:45:18.547Z</time>
      </trkpt>
      <trkpt lat="45.62993" lon="5.72342">
        <ele>682</ele>
        <time>2021-06-05T08:45:23.545Z</time>
      </trkpt>
      <trkpt lat="45.62999" lon="5.72339">
        <ele>682</ele>
        <time>2021-06-05T08:45:28.552Z</time>
      </trkpt>
      <trkpt lat="45.63002" lon="5.72337">
        <ele>682</ele>
        <time>2021-06-05T08:45:33.539Z</time>
      </trkpt>
      <trkpt lat="45.63009" lon="5.7233">
        <ele>682</ele>
        <time>2021-06-05T08:45:38.532Z</time>
      </trkpt>
      <trkpt lat="45.63012" lon="5.72328">
        <ele>682</ele>
        <time>2021-06-05T08:45:42.554Z</time>
      </trkpt>
      <trkpt lat="45.63019" lon="5.72321">
        <ele>679</ele>
        <time>2021-06-05T08:45:52.543Z</time>
      </trkpt>
      <trkpt lat="45.63019" lon="5.72319">
        <ele>681</ele>
        <time>2021-06-05T08:45:56.553Z</time>
      </trkpt>
      <trkpt lat="45.63022" lon="5.72317">
        <ele>681</ele>
        <time>2021-06-05T08:46:01.551Z</time>
      </trkpt>
      <trkpt lat="45.63024" lon="5.72314">
        <ele>681</ele>
        <time>2021-06-05T08:46:06.553Z</time>
      </trkpt>
      <trkpt lat="45.63029" lon="5.72307">
        <ele>681</ele>
        <time>2021-06-05T08:46:11.541Z</time>
      </trkpt>
      <trkpt lat="45.63031" lon="5.72305">
        <ele>681</ele>
        <time>2021-06-05T08:46:21.551Z</time>
      </trkpt>
      <trkpt lat="45.63031" lon="5.72304">
        <ele>681</ele>
        <time>2021-06-05T08:46:26.540Z</time>
      </trkpt>
      <trkpt lat="45.63033" lon="5.72304">
        <ele>681</ele>
        <time>2021-06-05T08:46:31.533Z</time>
      </trkpt>
      <trkpt lat="45.63037" lon="5.72303">
        <ele>681</ele>
        <time>2021-06-05T08:46:35.563Z</time>
      </trkpt>
      <trkpt lat="45.63046" lon="5.72303">
        <ele>678</ele>
        <time>2021-06-05T08:46:40.558Z</time>
      </trkpt>
      <trkpt lat="45.63055" lon="5.72304">
        <ele>678</ele>
        <time>2021-06-05T08:46:45.547Z</time>
      </trkpt>
      <trkpt lat="45.63061" lon="5.72303">
        <ele>678</ele>
        <time>2021-06-05T08:46:50.530Z</time>
      </trkpt>
      <trkpt lat="45.63062" lon="5.72303">
        <ele>678</ele>
        <time>2021-06-05T08:46:54.538Z</time>
      </trkpt>
      <trkpt lat="45.63069" lon="5.72304">
        <ele>678</ele>
        <time>2021-06-05T08:46:58.556Z</time>
      </trkpt>
      <trkpt lat="45.6308" lon="5.72304">
        <ele>675</ele>
        <time>2021-06-05T08:47:03.557Z</time>
      </trkpt>
      <trkpt lat="45.63085" lon="5.72303">
        <ele>675</ele>
        <time>2021-06-05T08:47:08.540Z</time>
      </trkpt>
      <trkpt lat="45.63092" lon="5.723">
        <ele>675</ele>
        <time>2021-06-05T08:47:12.553Z</time>
      </trkpt>
      <trkpt lat="45.63099" lon="5.72297">
        <ele>675</ele>
        <time>2021-06-05T08:47:17.544Z</time>
      </trkpt>
      <trkpt lat="45.63104" lon="5.72292">
        <ele>675</ele>
        <time>2021-06-05T08:47:22.536Z</time>
      </trkpt>
      <trkpt lat="45.6311" lon="5.72285">
        <ele>679</ele>
        <time>2021-06-05T08:47:26.536Z</time>
      </trkpt>
      <trkpt lat="45.63117" lon="5.72278">
        <ele>679</ele>
        <time>2021-06-05T08:47:31.552Z</time>
      </trkpt>
      <trkpt lat="45.63123" lon="5.72279">
        <ele>679</ele>
        <time>2021-06-05T08:47:36.535Z</time>
      </trkpt>
      <trkpt lat="45.63132" lon="5.7228">
        <ele>677</ele>
        <time>2021-06-05T08:47:41.536Z</time>
      </trkpt>
      <trkpt lat="45.63141" lon="5.72283">
        <ele>677</ele>
        <time>2021-06-05T08:47:46.550Z</time>
      </trkpt>
      <trkpt lat="45.63153" lon="5.72288">
        <ele>677</ele>
        <time>2021-06-05T08:47:51.549Z</time>
      </trkpt>
      <trkpt lat="45.63158" lon="5.7229">
        <ele>677</ele>
        <time>2021-06-05T08:47:56.551Z</time>
      </trkpt>
      <trkpt lat="45.63164" lon="5.72291">
        <ele>677</ele>
        <time>2021-06-05T08:48:01.545Z</time>
      </trkpt>
      <trkpt lat="45.63173" lon="5.72291">
        <ele>677</ele>
        <time>2021-06-05T08:48:06.556Z</time>
      </trkpt>
      <trkpt lat="45.63178" lon="5.72291">
        <ele>677</ele>
        <time>2021-06-05T08:48:11.544Z</time>
      </trkpt>
      <trkpt lat="45.63185" lon="5.72289">
        <ele>678</ele>
        <time>2021-06-05T08:48:16.544Z</time>
      </trkpt>
      <trkpt lat="45.63189" lon="5.72289">
        <ele>678</ele>
        <time>2021-06-05T08:48:21.531Z</time>
      </trkpt>
      <trkpt lat="45.63197" lon="5.72289">
        <ele>678</ele>
        <time>2021-06-05T08:48:25.560Z</time>
      </trkpt>
      <trkpt lat="45.632" lon="5.72288">
        <ele>678</ele>
        <time>2021-06-05T08:48:30.538Z</time>
      </trkpt>
      <trkpt lat="45.63202" lon="5.72288">
        <ele>678</ele>
        <time>2021-06-05T08:48:35.541Z</time>
      </trkpt>
      <trkpt lat="45.63214" lon="5.72292">
        <ele>672</ele>
        <time>2021-06-05T08:48:40.545Z</time>
      </trkpt>
      <trkpt lat="45.63222" lon="5.72292">
        <ele>672</ele>
        <time>2021-06-05T08:48:45.548Z</time>
      </trkpt>
      <trkpt lat="45.63226" lon="5.72293">
        <ele>672</ele>
        <time>2021-06-05T08:48:50.537Z</time>
      </trkpt>
      <trkpt lat="45.63234" lon="5.72293">
        <ele>672</ele>
        <time>2021-06-05T08:48:54.552Z</time>
      </trkpt>
      <trkpt lat="45.63245" lon="5.72291">
        <ele>676</ele>
        <time>2021-06-05T08:48:59.548Z</time>
      </trkpt>
      <trkpt lat="45.63255" lon="5.72291">
        <ele>676</ele>
        <time>2021-06-05T08:49:04.554Z</time>
      </trkpt>
      <trkpt lat="45.63264" lon="5.72288">
        <ele>676</ele>
        <time>2021-06-05T08:49:09.549Z</time>
      </trkpt>
      <trkpt lat="45.63272" lon="5.72286">
        <ele>675</ele>
        <time>2021-06-05T08:49:13.564Z</time>
      </trkpt>
      <trkpt lat="45.63281" lon="5.72282">
        <ele>675</ele>
        <time>2021-06-05T08:49:18.550Z</time>
      </trkpt>
      <trkpt lat="45.63287" lon="5.72279">
        <ele>675</ele>
        <time>2021-06-05T08:49:23.558Z</time>
      </trkpt>
      <trkpt lat="45.63289" lon="5.72279">
        <ele>675</ele>
        <time>2021-06-05T08:49:28.551Z</time>
      </trkpt>
      <trkpt lat="45.63299" lon="5.7228">
        <ele>675</ele>
        <time>2021-06-05T08:49:33.560Z</time>
      </trkpt>
      <trkpt lat="45.63307" lon="5.72281">
        <ele>675</ele>
        <time>2021-06-05T08:49:38.545Z</time>
      </trkpt>
      <trkpt lat="45.63315" lon="5.72281">
        <ele>675</ele>
        <time>2021-06-05T08:49:43.542Z</time>
      </trkpt>
      <trkpt lat="45.6332" lon="5.7228">
        <ele>671</ele>
        <time>2021-06-05T08:49:48.535Z</time>
      </trkpt>
      <trkpt lat="45.63323" lon="5.72276">
        <ele>671</ele>
        <time>2021-06-05T08:49:52.552Z</time>
      </trkpt>
      <trkpt lat="45.63326" lon="5.7227">
        <ele>671</ele>
        <time>2021-06-05T08:49:57.540Z</time>
      </trkpt>
      <trkpt lat="45.63331" lon="5.72263">
        <ele>676</ele>
        <time>2021-06-05T08:50:02.550Z</time>
      </trkpt>
      <trkpt lat="45.63338" lon="5.72258">
        <ele>676</ele>
        <time>2021-06-05T08:50:07.539Z</time>
      </trkpt>
      <trkpt lat="45.63342" lon="5.72252">
        <ele>676</ele>
        <time>2021-06-05T08:50:11.564Z</time>
      </trkpt>
      <trkpt lat="45.63348" lon="5.72244">
        <ele>672</ele>
        <time>2021-06-05T08:50:16.548Z</time>
      </trkpt>
      <trkpt lat="45.63356" lon="5.72242">
        <ele>672</ele>
        <time>2021-06-05T08:50:21.538Z</time>
      </trkpt>
      <trkpt lat="45.63365" lon="5.72242">
        <ele>672</ele>
        <time>2021-06-05T08:50:26.576Z</time>
      </trkpt>
      <trkpt lat="45.63373" lon="5.72239">
        <ele>672</ele>
        <time>2021-06-05T08:50:31.543Z</time>
      </trkpt>
      <trkpt lat="45.63379" lon="5.72237">
        <ele>670</ele>
        <time>2021-06-05T08:50:36.556Z</time>
      </trkpt>
      <trkpt lat="45.63383" lon="5.72233">
        <ele>672</ele>
        <time>2021-06-05T08:50:41.549Z</time>
      </trkpt>
      <trkpt lat="45.63385" lon="5.72231">
        <ele>672</ele>
        <time>2021-06-05T08:50:46.537Z</time>
      </trkpt>
      <trkpt lat="45.6339" lon="5.72225">
        <ele>672</ele>
        <time>2021-06-05T08:50:51.542Z</time>
      </trkpt>
      <trkpt lat="45.63396" lon="5.72214">
        <ele>672</ele>
        <time>2021-06-05T08:50:56.556Z</time>
      </trkpt>
      <trkpt lat="45.634" lon="5.72207">
        <ele>674</ele>
        <time>2021-06-05T08:51:01.548Z</time>
      </trkpt>
      <trkpt lat="45.63403" lon="5.72206">
        <ele>674</ele>
        <time>2021-06-05T08:51:05.562Z</time>
      </trkpt>
      <trkpt lat="45.63407" lon="5.72205">
        <ele>672</ele>
        <time>2021-06-05T08:51:10.552Z</time>
      </trkpt>
      <trkpt lat="45.63413" lon="5.72209">
        <ele>671</ele>
        <time>2021-06-05T08:51:15.547Z</time>
      </trkpt>
      <trkpt lat="45.63414" lon="5.72214">
        <ele>671</ele>
        <time>2021-06-05T08:51:20.556Z</time>
      </trkpt>
      <trkpt lat="45.63414" lon="5.72216">
        <ele>671</ele>
        <time>2021-06-05T08:51:25.574Z</time>
      </trkpt>
      <trkpt lat="45.63411" lon="5.72222">
        <ele>671</ele>
        <time>2021-06-05T08:51:30.543Z</time>
      </trkpt>
      <trkpt lat="45.63412" lon="5.72232">
        <ele>671</ele>
        <time>2021-06-05T08:51:39.556Z</time>
      </trkpt>
      <trkpt lat="45.63414" lon="5.72231">
        <ele>671</ele>
        <time>2021-06-05T08:51:44.544Z</time>
      </trkpt>
      <trkpt lat="45.63416" lon="5.72229">
        <ele>671</ele>
        <time>2021-06-05T08:51:48.550Z</time>
      </trkpt>
      <trkpt lat="45.63418" lon="5.72231">
        <ele>671</ele>
        <time>2021-06-05T08:51:53.536Z</time>
      </trkpt>
      <trkpt lat="45.6342" lon="5.72233">
        <ele>671</ele>
        <time>2021-06-05T08:51:58.542Z</time>
      </trkpt>
      <trkpt lat="45.63421" lon="5.72235">
        <ele>671</ele>
        <time>2021-06-05T08:52:03.547Z</time>
      </trkpt>
      <trkpt lat="45.63421" lon="5.72239">
        <ele>668</ele>
        <time>2021-06-05T08:52:08.535Z</time>
      </trkpt>
      <trkpt lat="45.63424" lon="5.72245">
        <ele>668</ele>
        <time>2021-06-05T08:52:13.544Z</time>
      </trkpt>
      <trkpt lat="45.63426" lon="5.72251">
        <ele>668</ele>
        <time>2021-06-05T08:52:18.543Z</time>
      </trkpt>
      <trkpt lat="45.63428" lon="5.72257">
        <ele>668</ele>
        <time>2021-06-05T08:52:23.543Z</time>
      </trkpt>
      <trkpt lat="45.63432" lon="5.72262">
        <ele>668</ele>
        <time>2021-06-05T08:52:28.539Z</time>
      </trkpt>
      <trkpt lat="45.63436" lon="5.72263">
        <ele>668</ele>
        <time>2021-06-05T08:52:32.555Z</time>
      </trkpt>
      <trkpt lat="45.63443" lon="5.72265">
        <ele>661</ele>
        <time>2021-06-05T08:52:37.540Z</time>
      </trkpt>
      <trkpt lat="45.63448" lon="5.72264">
        <ele>668</ele>
        <time>2021-06-05T08:52:42.543Z</time>
      </trkpt>
      <trkpt lat="45.63453" lon="5.72264">
        <ele>668</ele>
        <time>2021-06-05T08:52:46.566Z</time>
      </trkpt>
      <trkpt lat="45.63458" lon="5.72262">
        <ele>668</ele>
        <time>2021-06-05T08:52:51.538Z</time>
      </trkpt>
      <trkpt lat="45.63466" lon="5.72261">
        <ele>669</ele>
        <time>2021-06-05T08:52:56.543Z</time>
      </trkpt>
      <trkpt lat="45.63471" lon="5.72258">
        <ele>669</ele>
        <time>2021-06-05T08:53:01.528Z</time>
      </trkpt>
      <trkpt lat="45.63473" lon="5.72258">
        <ele>669</ele>
        <time>2021-06-05T08:53:05.552Z</time>
      </trkpt>
      <trkpt lat="45.63483" lon="5.72266">
        <ele>662</ele>
        <time>2021-06-05T08:53:10.543Z</time>
      </trkpt>
      <trkpt lat="45.63492" lon="5.72274">
        <ele>664</ele>
        <time>2021-06-05T08:53:15.548Z</time>
      </trkpt>
      <trkpt lat="45.63497" lon="5.72282">
        <ele>664</ele>
        <time>2021-06-05T08:53:20.552Z</time>
      </trkpt>
      <trkpt lat="45.63501" lon="5.72289">
        <ele>664</ele>
        <time>2021-06-05T08:53:25.551Z</time>
      </trkpt>
      <trkpt lat="45.63504" lon="5.72301">
        <ele>656</ele>
        <time>2021-06-05T08:53:30.544Z</time>
      </trkpt>
      <trkpt lat="45.63506" lon="5.72309">
        <ele>656</ele>
        <time>2021-06-05T08:53:34.570Z</time>
      </trkpt>
      <trkpt lat="45.63513" lon="5.72319">
        <ele>656</ele>
        <time>2021-06-05T08:53:39.550Z</time>
      </trkpt>
      <trkpt lat="45.63517" lon="5.72325">
        <ele>650</ele>
        <time>2021-06-05T08:53:44.532Z</time>
      </trkpt>
      <trkpt lat="45.63522" lon="5.72331">
        <ele>650</ele>
        <time>2021-06-05T08:53:48.553Z</time>
      </trkpt>
      <trkpt lat="45.63529" lon="5.72336">
        <ele>650</ele>
        <time>2021-06-05T08:53:53.531Z</time>
      </trkpt>
      <trkpt lat="45.63534" lon="5.72341">
        <ele>650</ele>
        <time>2021-06-05T08:53:57.554Z</time>
      </trkpt>
      <trkpt lat="45.63538" lon="5.72349">
        <ele>644</ele>
        <time>2021-06-05T08:54:02.542Z</time>
      </trkpt>
      <trkpt lat="45.63544" lon="5.72354">
        <ele>643</ele>
        <time>2021-06-05T08:54:07.535Z</time>
      </trkpt>
      <trkpt lat="45.6355" lon="5.72355">
        <ele>643</ele>
        <time>2021-06-05T08:54:11.541Z</time>
      </trkpt>
      <trkpt lat="45.63554" lon="5.72354">
        <ele>643</ele>
        <time>2021-06-05T08:54:15.562Z</time>
      </trkpt>
      <trkpt lat="45.63561" lon="5.72352">
        <ele>643</ele>
        <time>2021-06-05T08:54:20.565Z</time>
      </trkpt>
      <trkpt lat="45.63569" lon="5.72353">
        <ele>643</ele>
        <time>2021-06-05T08:54:25.557Z</time>
      </trkpt>
      <trkpt lat="45.63574" lon="5.72355">
        <ele>647</ele>
        <time>2021-06-05T08:54:30.559Z</time>
      </trkpt>
      <trkpt lat="45.63582" lon="5.72354">
        <ele>647</ele>
        <time>2021-06-05T08:54:35.545Z</time>
      </trkpt>
      <trkpt lat="45.63589" lon="5.72351">
        <ele>647</ele>
        <time>2021-06-05T08:54:40.556Z</time>
      </trkpt>
      <trkpt lat="45.63595" lon="5.72349">
        <ele>647</ele>
        <time>2021-06-05T08:54:45.546Z</time>
      </trkpt>
      <trkpt lat="45.63601" lon="5.72348">
        <ele>648</ele>
        <time>2021-06-05T08:54:50.553Z</time>
      </trkpt>
      <trkpt lat="45.63607" lon="5.72347">
        <ele>657</ele>
        <time>2021-06-05T08:54:55.551Z</time>
      </trkpt>
      <trkpt lat="45.63615" lon="5.72346">
        <ele>657</ele>
        <time>2021-06-05T08:55:00.544Z</time>
      </trkpt>
      <trkpt lat="45.63621" lon="5.72347">
        <ele>657</ele>
        <time>2021-06-05T08:55:05.555Z</time>
      </trkpt>
      <trkpt lat="45.63629" lon="5.72346">
        <ele>659</ele>
        <time>2021-06-05T08:55:10.554Z</time>
      </trkpt>
      <trkpt lat="45.63637" lon="5.72346">
        <ele>659</ele>
        <time>2021-06-05T08:55:15.553Z</time>
      </trkpt>
      <trkpt lat="45.63644" lon="5.72345">
        <ele>659</ele>
        <time>2021-06-05T08:55:20.554Z</time>
      </trkpt>
      <trkpt lat="45.63651" lon="5.72342">
        <ele>659</ele>
        <time>2021-06-05T08:55:25.551Z</time>
      </trkpt>
      <trkpt lat="45.63656" lon="5.72339">
        <ele>659</ele>
        <time>2021-06-05T08:55:30.552Z</time>
      </trkpt>
      <trkpt lat="45.63661" lon="5.72336">
        <ele>659</ele>
        <time>2021-06-05T08:55:34.557Z</time>
      </trkpt>
      <trkpt lat="45.63667" lon="5.72336">
        <ele>659</ele>
        <time>2021-06-05T08:55:39.532Z</time>
      </trkpt>
      <trkpt lat="45.63672" lon="5.72334">
        <ele>659</ele>
        <time>2021-06-05T08:55:43.550Z</time>
      </trkpt>
      <trkpt lat="45.63684" lon="5.72333">
        <ele>657</ele>
        <time>2021-06-05T08:55:48.556Z</time>
      </trkpt>
      <trkpt lat="45.63697" lon="5.72328">
        <ele>657</ele>
        <time>2021-06-05T08:55:53.543Z</time>
      </trkpt>
      <trkpt lat="45.63706" lon="5.72327">
        <ele>657</ele>
        <time>2021-06-05T08:55:57.552Z</time>
      </trkpt>
      <trkpt lat="45.63721" lon="5.72326">
        <ele>657</ele>
        <time>2021-06-05T08:56:02.554Z</time>
      </trkpt>
      <trkpt lat="45.63734" lon="5.72324">
        <ele>657</ele>
        <time>2021-06-05T08:56:07.556Z</time>
      </trkpt>
      <trkpt lat="45.63744" lon="5.72325">
        <ele>659</ele>
        <time>2021-06-05T08:56:12.555Z</time>
      </trkpt>
      <trkpt lat="45.63754" lon="5.72326">
        <ele>659</ele>
        <time>2021-06-05T08:56:17.532Z</time>
      </trkpt>
      <trkpt lat="45.63766" lon="5.72325">
        <ele>659</ele>
        <time>2021-06-05T08:56:22.545Z</time>
      </trkpt>
      <trkpt lat="45.63775" lon="5.72326">
        <ele>659</ele>
        <time>2021-06-05T08:56:26.545Z</time>
      </trkpt>
      <trkpt lat="45.63785" lon="5.72327">
        <ele>659</ele>
        <time>2021-06-05T08:56:31.549Z</time>
      </trkpt>
      <trkpt lat="45.63792" lon="5.72326">
        <ele>659</ele>
        <time>2021-06-05T08:56:36.542Z</time>
      </trkpt>
      <trkpt lat="45.638" lon="5.72324">
        <ele>659</ele>
        <time>2021-06-05T08:56:41.552Z</time>
      </trkpt>
      <trkpt lat="45.63806" lon="5.72323">
        <ele>659</ele>
        <time>2021-06-05T08:56:46.554Z</time>
      </trkpt>
      <trkpt lat="45.63813" lon="5.72324">
        <ele>659</ele>
        <time>2021-06-05T08:56:51.553Z</time>
      </trkpt>
      <trkpt lat="45.63821" lon="5.72322">
        <ele>662</ele>
        <time>2021-06-05T08:56:56.537Z</time>
      </trkpt>
      <trkpt lat="45.63827" lon="5.7232">
        <ele>662</ele>
        <time>2021-06-05T08:57:00.554Z</time>
      </trkpt>
      <trkpt lat="45.63833" lon="5.72321">
        <ele>662</ele>
        <time>2021-06-05T08:57:04.563Z</time>
      </trkpt>
      <trkpt lat="45.6384" lon="5.72319">
        <ele>668</ele>
        <time>2021-06-05T08:57:09.537Z</time>
      </trkpt>
      <trkpt lat="45.63846" lon="5.72322">
        <ele>662</ele>
        <time>2021-06-05T08:57:14.547Z</time>
      </trkpt>
      <trkpt lat="45.63855" lon="5.72326">
        <ele>662</ele>
        <time>2021-06-05T08:57:19.535Z</time>
      </trkpt>
      <trkpt lat="45.63863" lon="5.72326">
        <ele>662</ele>
        <time>2021-06-05T08:57:24.552Z</time>
      </trkpt>
      <trkpt lat="45.6387" lon="5.72325">
        <ele>662</ele>
        <time>2021-06-05T08:57:29.536Z</time>
      </trkpt>
      <trkpt lat="45.63876" lon="5.72322">
        <ele>660</ele>
        <time>2021-06-05T08:57:34.556Z</time>
      </trkpt>
      <trkpt lat="45.63883" lon="5.7232">
        <ele>660</ele>
        <time>2021-06-05T08:57:39.552Z</time>
      </trkpt>
      <trkpt lat="45.63891" lon="5.72318">
        <ele>666</ele>
        <time>2021-06-05T08:57:44.544Z</time>
      </trkpt>
      <trkpt lat="45.63898" lon="5.72318">
        <ele>666</ele>
        <time>2021-06-05T08:57:49.543Z</time>
      </trkpt>
      <trkpt lat="45.63905" lon="5.72318">
        <ele>665</ele>
        <time>2021-06-05T08:57:54.549Z</time>
      </trkpt>
      <trkpt lat="45.6391" lon="5.72319">
        <ele>665</ele>
        <time>2021-06-05T08:57:59.541Z</time>
      </trkpt>
      <trkpt lat="45.63912" lon="5.7232">
        <ele>658</ele>
        <time>2021-06-05T08:58:04.538Z</time>
      </trkpt>
      <trkpt lat="45.63913" lon="5.7232">
        <ele>658</ele>
        <time>2021-06-05T08:58:08.547Z</time>
      </trkpt>
      <trkpt lat="45.63916" lon="5.7232">
        <ele>658</ele>
        <time>2021-06-05T08:58:13.543Z</time>
      </trkpt>
      <trkpt lat="45.63919" lon="5.7232">
        <ele>658</ele>
        <time>2021-06-05T08:58:17.550Z</time>
      </trkpt>
      <trkpt lat="45.63925" lon="5.72319">
        <ele>665</ele>
        <time>2021-06-05T08:58:22.539Z</time>
      </trkpt>
      <trkpt lat="45.63937" lon="5.72316">
        <ele>665</ele>
        <time>2021-06-05T08:58:27.544Z</time>
      </trkpt>
      <trkpt lat="45.6395" lon="5.72314">
        <ele>665</ele>
        <time>2021-06-05T08:58:32.530Z</time>
      </trkpt>
      <trkpt lat="45.63956" lon="5.72315">
        <ele>665</ele>
        <time>2021-06-05T08:58:36.538Z</time>
      </trkpt>
      <trkpt lat="45.63961" lon="5.72318">
        <ele>664</ele>
        <time>2021-06-05T08:58:40.550Z</time>
      </trkpt>
      <trkpt lat="45.63968" lon="5.72322">
        <ele>659</ele>
        <time>2021-06-05T08:58:45.539Z</time>
      </trkpt>
      <trkpt lat="45.63975" lon="5.72321">
        <ele>659</ele>
        <time>2021-06-05T08:58:50.542Z</time>
      </trkpt>
      <trkpt lat="45.6398" lon="5.72319">
        <ele>664</ele>
        <time>2021-06-05T08:58:55.536Z</time>
      </trkpt>
      <trkpt lat="45.63989" lon="5.72316">
        <ele>663</ele>
        <time>2021-06-05T08:59:00.540Z</time>
      </trkpt>
      <trkpt lat="45.63995" lon="5.72316">
        <ele>663</ele>
        <time>2021-06-05T08:59:04.550Z</time>
      </trkpt>
      <trkpt lat="45.63997" lon="5.72317">
        <ele>663</ele>
        <time>2021-06-05T08:59:09.550Z</time>
      </trkpt>
      <trkpt lat="45.64007" lon="5.72319">
        <ele>663</ele>
        <time>2021-06-05T08:59:14.551Z</time>
      </trkpt>
      <trkpt lat="45.6401" lon="5.7232">
        <ele>658</ele>
        <time>2021-06-05T08:59:19.540Z</time>
      </trkpt>
      <trkpt lat="45.64016" lon="5.72322">
        <ele>657</ele>
        <time>2021-06-05T08:59:23.561Z</time>
      </trkpt>
      <trkpt lat="45.64018" lon="5.72323">
        <ele>657</ele>
        <time>2021-06-05T08:59:28.539Z</time>
      </trkpt>
      <trkpt lat="45.64022" lon="5.72324">
        <ele>657</ele>
        <time>2021-06-05T08:59:33.560Z</time>
      </trkpt>
      <trkpt lat="45.64028" lon="5.72325">
        <ele>657</ele>
        <time>2021-06-05T08:59:38.569Z</time>
      </trkpt>
      <trkpt lat="45.64034" lon="5.72327">
        <ele>657</ele>
        <time>2021-06-05T08:59:43.555Z</time>
      </trkpt>
      <trkpt lat="45.64043" lon="5.72331">
        <ele>657</ele>
        <time>2021-06-05T08:59:48.537Z</time>
      </trkpt>
      <trkpt lat="45.64053" lon="5.72339">
        <ele>657</ele>
        <time>2021-06-05T08:59:53.557Z</time>
      </trkpt>
      <trkpt lat="45.6406" lon="5.7235">
        <ele>655</ele>
        <time>2021-06-05T08:59:58.543Z</time>
      </trkpt>
      <trkpt lat="45.64067" lon="5.72357">
        <ele>655</ele>
        <time>2021-06-05T09:00:03.540Z</time>
      </trkpt>
      <trkpt lat="45.6407" lon="5.72363">
        <ele>657</ele>
        <time>2021-06-05T09:00:07.547Z</time>
      </trkpt>
      <trkpt lat="45.64079" lon="5.72371">
        <ele>657</ele>
        <time>2021-06-05T09:00:12.542Z</time>
      </trkpt>
      <trkpt lat="45.64088" lon="5.72372">
        <ele>657</ele>
        <time>2021-06-05T09:00:16.549Z</time>
      </trkpt>
      <trkpt lat="45.64095" lon="5.72374">
        <ele>657</ele>
        <time>2021-06-05T09:00:21.547Z</time>
      </trkpt>
      <trkpt lat="45.64103" lon="5.72377">
        <ele>657</ele>
        <time>2021-06-05T09:00:26.539Z</time>
      </trkpt>
      <trkpt lat="45.64108" lon="5.72379">
        <ele>657</ele>
        <time>2021-06-05T09:00:30.552Z</time>
      </trkpt>
      <trkpt lat="45.64115" lon="5.72382">
        <ele>657</ele>
        <time>2021-06-05T09:00:35.532Z</time>
      </trkpt>
      <trkpt lat="45.64121" lon="5.72387">
        <ele>657</ele>
        <time>2021-06-05T09:00:39.552Z</time>
      </trkpt>
      <trkpt lat="45.64127" lon="5.7239">
        <ele>660</ele>
        <time>2021-06-05T09:00:44.552Z</time>
      </trkpt>
      <trkpt lat="45.6413" lon="5.7239">
        <ele>660</ele>
        <time>2021-06-05T09:00:49.541Z</time>
      </trkpt>
      <trkpt lat="45.64135" lon="5.72393">
        <ele>660</ele>
        <time>2021-06-05T09:00:53.557Z</time>
      </trkpt>
      <trkpt lat="45.64144" lon="5.72395">
        <ele>660</ele>
        <time>2021-06-05T09:00:58.556Z</time>
      </trkpt>
      <trkpt lat="45.64153" lon="5.72398">
        <ele>663</ele>
        <time>2021-06-05T09:01:03.542Z</time>
      </trkpt>
      <trkpt lat="45.64159" lon="5.724">
        <ele>663</ele>
        <time>2021-06-05T09:01:08.554Z</time>
      </trkpt>
      <trkpt lat="45.64167" lon="5.72401">
        <ele>663</ele>
        <time>2021-06-05T09:01:13.543Z</time>
      </trkpt>
      <trkpt lat="45.64173" lon="5.72402">
        <ele>663</ele>
        <time>2021-06-05T09:01:17.562Z</time>
      </trkpt>
      <trkpt lat="45.6418" lon="5.724">
        <ele>663</ele>
        <time>2021-06-05T09:01:22.550Z</time>
      </trkpt>
      <trkpt lat="45.64184" lon="5.72399">
        <ele>663</ele>
        <time>2021-06-05T09:01:26.559Z</time>
      </trkpt>
      <trkpt lat="45.64189" lon="5.72398">
        <ele>663</ele>
        <time>2021-06-05T09:01:31.542Z</time>
      </trkpt>
      <trkpt lat="45.64197" lon="5.72398">
        <ele>663</ele>
        <time>2021-06-05T09:01:36.559Z</time>
      </trkpt>
      <trkpt lat="45.64207" lon="5.72396">
        <ele>663</ele>
        <time>2021-06-05T09:01:41.541Z</time>
      </trkpt>
      <trkpt lat="45.64216" lon="5.72396">
        <ele>661</ele>
        <time>2021-06-05T09:01:46.550Z</time>
      </trkpt>
      <trkpt lat="45.64223" lon="5.72396">
        <ele>661</ele>
        <time>2021-06-05T09:01:50.557Z</time>
      </trkpt>
      <trkpt lat="45.64231" lon="5.72396">
        <ele>661</ele>
        <time>2021-06-05T09:01:55.561Z</time>
      </trkpt>
      <trkpt lat="45.64239" lon="5.72397">
        <ele>660</ele>
        <time>2021-06-05T09:02:00.569Z</time>
      </trkpt>
      <trkpt lat="45.64247" lon="5.72399">
        <ele>660</ele>
        <time>2021-06-05T09:02:05.543Z</time>
      </trkpt>
      <trkpt lat="45.64255" lon="5.72399">
        <ele>660</ele>
        <time>2021-06-05T09:02:10.545Z</time>
      </trkpt>
      <trkpt lat="45.64262" lon="5.724">
        <ele>660</ele>
        <time>2021-06-05T09:02:15.538Z</time>
      </trkpt>
      <trkpt lat="45.6427" lon="5.72403">
        <ele>660</ele>
        <time>2021-06-05T09:02:19.548Z</time>
      </trkpt>
      <trkpt lat="45.64276" lon="5.72406">
        <ele>660</ele>
        <time>2021-06-05T09:02:24.537Z</time>
      </trkpt>
      <trkpt lat="45.64282" lon="5.72409">
        <ele>660</ele>
        <time>2021-06-05T09:02:29.554Z</time>
      </trkpt>
      <trkpt lat="45.64289" lon="5.72412">
        <ele>660</ele>
        <time>2021-06-05T09:02:34.535Z</time>
      </trkpt>
      <trkpt lat="45.64298" lon="5.72415">
        <ele>664</ele>
        <time>2021-06-05T09:02:39.538Z</time>
      </trkpt>
      <trkpt lat="45.6431" lon="5.72419">
        <ele>664</ele>
        <time>2021-06-05T09:02:43.547Z</time>
      </trkpt>
      <trkpt lat="45.64322" lon="5.72422">
        <ele>666</ele>
        <time>2021-06-05T09:02:48.556Z</time>
      </trkpt>
      <trkpt lat="45.6433" lon="5.72422">
        <ele>666</ele>
        <time>2021-06-05T09:02:53.545Z</time>
      </trkpt>
      <trkpt lat="45.64335" lon="5.72422">
        <ele>666</ele>
        <time>2021-06-05T09:02:58.552Z</time>
      </trkpt>
      <trkpt lat="45.64342" lon="5.72422">
        <ele>666</ele>
        <time>2021-06-05T09:03:03.554Z</time>
      </trkpt>
      <trkpt lat="45.64348" lon="5.72424">
        <ele>668</ele>
        <time>2021-06-05T09:03:08.550Z</time>
      </trkpt>
      <trkpt lat="45.64354" lon="5.72426">
        <ele>668</ele>
        <time>2021-06-05T09:03:13.540Z</time>
      </trkpt>
      <trkpt lat="45.64359" lon="5.72428">
        <ele>668</ele>
        <time>2021-06-05T09:03:17.547Z</time>
      </trkpt>
      <trkpt lat="45.64366" lon="5.72432">
        <ele>665</ele>
        <time>2021-06-05T09:03:22.546Z</time>
      </trkpt>
      <trkpt lat="45.64373" lon="5.72436">
        <ele>665</ele>
        <time>2021-06-05T09:03:27.547Z</time>
      </trkpt>
      <trkpt lat="45.64379" lon="5.7244">
        <ele>666</ele>
        <time>2021-06-05T09:03:32.543Z</time>
      </trkpt>
      <trkpt lat="45.64384" lon="5.72443">
        <ele>666</ele>
        <time>2021-06-05T09:03:36.559Z</time>
      </trkpt>
      <trkpt lat="45.6439" lon="5.72446">
        <ele>666</ele>
        <time>2021-06-05T09:03:41.551Z</time>
      </trkpt>
      <trkpt lat="45.64398" lon="5.72449">
        <ele>666</ele>
        <time>2021-06-05T09:03:46.549Z</time>
      </trkpt>
      <trkpt lat="45.64403" lon="5.72453">
        <ele>666</ele>
        <time>2021-06-05T09:03:51.563Z</time>
      </trkpt>
      <trkpt lat="45.64408" lon="5.72457">
        <ele>666</ele>
        <time>2021-06-05T09:03:56.547Z</time>
      </trkpt>
      <trkpt lat="45.64414" lon="5.7246">
        <ele>659</ele>
        <time>2021-06-05T09:04:01.550Z</time>
      </trkpt>
      <trkpt lat="45.64421" lon="5.72463">
        <ele>659</ele>
        <time>2021-06-05T09:04:06.544Z</time>
      </trkpt>
      <trkpt lat="45.64426" lon="5.72465">
        <ele>659</ele>
        <time>2021-06-05T09:04:11.539Z</time>
      </trkpt>
      <trkpt lat="45.64427" lon="5.72465">
        <ele>659</ele>
        <time>2021-06-05T09:04:15.562Z</time>
      </trkpt>
      <trkpt lat="45.64434" lon="5.72469">
        <ele>658</ele>
        <time>2021-06-05T09:04:20.551Z</time>
      </trkpt>
      <trkpt lat="45.64441" lon="5.72472">
        <ele>658</ele>
        <time>2021-06-05T09:04:25.556Z</time>
      </trkpt>
      <trkpt lat="45.64449" lon="5.72475">
        <ele>658</ele>
        <time>2021-06-05T09:04:30.541Z</time>
      </trkpt>
      <trkpt lat="45.64456" lon="5.72478">
        <ele>658</ele>
        <time>2021-06-05T09:04:35.547Z</time>
      </trkpt>
      <trkpt lat="45.64463" lon="5.72481">
        <ele>656</ele>
        <time>2021-06-05T09:04:40.549Z</time>
      </trkpt>
      <trkpt lat="45.64471" lon="5.72484">
        <ele>656</ele>
        <time>2021-06-05T09:04:45.540Z</time>
      </trkpt>
      <trkpt lat="45.64478" lon="5.72486">
        <ele>656</ele>
        <time>2021-06-05T09:04:50.550Z</time>
      </trkpt>
      <trkpt lat="45.64484" lon="5.72487">
        <ele>648</ele>
        <time>2021-06-05T09:04:54.555Z</time>
      </trkpt>
      <trkpt lat="45.64488" lon="5.72489">
        <ele>649</ele>
        <time>2021-06-05T09:04:58.574Z</time>
      </trkpt>
      <trkpt lat="45.64495" lon="5.7249">
        <ele>649</ele>
        <time>2021-06-05T09:05:03.542Z</time>
      </trkpt>
      <trkpt lat="45.64502" lon="5.7249">
        <ele>649</ele>
        <time>2021-06-05T09:05:08.547Z</time>
      </trkpt>
      <trkpt lat="45.6451" lon="5.72491">
        <ele>649</ele>
        <time>2021-06-05T09:05:13.547Z</time>
      </trkpt>
      <trkpt lat="45.64515" lon="5.72491">
        <ele>647</ele>
        <time>2021-06-05T09:05:17.550Z</time>
      </trkpt>
      <trkpt lat="45.64522" lon="5.72492">
        <ele>647</ele>
        <time>2021-06-05T09:05:22.556Z</time>
      </trkpt>
      <trkpt lat="45.64529" lon="5.72493">
        <ele>647</ele>
        <time>2021-06-05T09:05:27.546Z</time>
      </trkpt>
      <trkpt lat="45.64536" lon="5.72493">
        <ele>647</ele>
        <time>2021-06-05T09:05:32.553Z</time>
      </trkpt>
      <trkpt lat="45.64544" lon="5.72491">
        <ele>647</ele>
        <time>2021-06-05T09:05:37.549Z</time>
      </trkpt>
      <trkpt lat="45.6455" lon="5.72491">
        <ele>647</ele>
        <time>2021-06-05T09:05:42.550Z</time>
      </trkpt>
      <trkpt lat="45.64558" lon="5.72489">
        <ele>647</ele>
        <time>2021-06-05T09:05:47.546Z</time>
      </trkpt>
      <trkpt lat="45.64564" lon="5.72487">
        <ele>647</ele>
        <time>2021-06-05T09:05:52.530Z</time>
      </trkpt>
      <trkpt lat="45.64571" lon="5.72486">
        <ele>644</ele>
        <time>2021-06-05T09:05:56.546Z</time>
      </trkpt>
      <trkpt lat="45.64579" lon="5.72487">
        <ele>644</ele>
        <time>2021-06-05T09:06:01.547Z</time>
      </trkpt>
      <trkpt lat="45.64586" lon="5.72486">
        <ele>644</ele>
        <time>2021-06-05T09:06:06.545Z</time>
      </trkpt>
      <trkpt lat="45.64592" lon="5.72482">
        <ele>648</ele>
        <time>2021-06-05T09:06:11.549Z</time>
      </trkpt>
      <trkpt lat="45.64595" lon="5.72474">
        <ele>648</ele>
        <time>2021-06-05T09:06:16.541Z</time>
      </trkpt>
      <trkpt lat="45.64593" lon="5.72466">
        <ele>648</ele>
        <time>2021-06-05T09:06:21.547Z</time>
      </trkpt>
      <trkpt lat="45.64592" lon="5.72457">
        <ele>651</ele>
        <time>2021-06-05T09:06:26.557Z</time>
      </trkpt>
      <trkpt lat="45.64593" lon="5.72448">
        <ele>651</ele>
        <time>2021-06-05T09:06:31.546Z</time>
      </trkpt>
      <trkpt lat="45.64592" lon="5.7244">
        <ele>651</ele>
        <time>2021-06-05T09:06:35.574Z</time>
      </trkpt>
      <trkpt lat="45.64592" lon="5.72431">
        <ele>651</ele>
        <time>2021-06-05T09:06:40.561Z</time>
      </trkpt>
      <trkpt lat="45.64592" lon="5.72419">
        <ele>652</ele>
        <time>2021-06-05T09:06:45.541Z</time>
      </trkpt>
      <trkpt lat="45.64591" lon="5.72408">
        <ele>652</ele>
        <time>2021-06-05T09:06:49.552Z</time>
      </trkpt>
      <trkpt lat="45.64593" lon="5.72397">
        <ele>655</ele>
        <time>2021-06-05T09:06:54.559Z</time>
      </trkpt>
      <trkpt lat="45.64596" lon="5.72384">
        <ele>655</ele>
        <time>2021-06-05T09:06:59.546Z</time>
      </trkpt>
      <trkpt lat="45.646" lon="5.72373">
        <ele>659</ele>
        <time>2021-06-05T09:07:04.552Z</time>
      </trkpt>
      <trkpt lat="45.64604" lon="5.72367">
        <ele>659</ele>
        <time>2021-06-05T09:07:09.543Z</time>
      </trkpt>
      <trkpt lat="45.64608" lon="5.72363">
        <ele>659</ele>
        <time>2021-06-05T09:07:13.549Z</time>
      </trkpt>
      <trkpt lat="45.64618" lon="5.7236">
        <ele>659</ele>
        <time>2021-06-05T09:07:18.550Z</time>
      </trkpt>
      <trkpt lat="45.64625" lon="5.72359">
        <ele>659</ele>
        <time>2021-06-05T09:07:23.540Z</time>
      </trkpt>
      <trkpt lat="45.64634" lon="5.72352">
        <ele>660</ele>
        <time>2021-06-05T09:07:28.543Z</time>
      </trkpt>
      <trkpt lat="45.64638" lon="5.72341">
        <ele>664</ele>
        <time>2021-06-05T09:07:33.550Z</time>
      </trkpt>
      <trkpt lat="45.64643" lon="5.72332">
        <ele>664</ele>
        <time>2021-06-05T09:07:38.551Z</time>
      </trkpt>
      <trkpt lat="45.64648" lon="5.72325">
        <ele>664</ele>
        <time>2021-06-05T09:07:43.540Z</time>
      </trkpt>
      <trkpt lat="45.64653" lon="5.7232">
        <ele>664</ele>
        <time>2021-06-05T09:07:47.545Z</time>
      </trkpt>
      <trkpt lat="45.64658" lon="5.72314">
        <ele>667</ele>
        <time>2021-06-05T09:07:52.540Z</time>
      </trkpt>
      <trkpt lat="45.64665" lon="5.72308">
        <ele>667</ele>
        <time>2021-06-05T09:07:57.541Z</time>
      </trkpt>
      <trkpt lat="45.64671" lon="5.72303">
        <ele>667</ele>
        <time>2021-06-05T09:08:02.557Z</time>
      </trkpt>
      <trkpt lat="45.64678" lon="5.72299">
        <ele>667</ele>
        <time>2021-06-05T09:08:07.545Z</time>
      </trkpt>
      <trkpt lat="45.64683" lon="5.72296">
        <ele>666</ele>
        <time>2021-06-05T09:08:12.539Z</time>
      </trkpt>
      <trkpt lat="45.6469" lon="5.72291">
        <ele>672</ele>
        <time>2021-06-05T09:08:17.539Z</time>
      </trkpt>
      <trkpt lat="45.64695" lon="5.72287">
        <ele>672</ele>
        <time>2021-06-05T09:08:21.550Z</time>
      </trkpt>
      <trkpt lat="45.647" lon="5.72279">
        <ele>672</ele>
        <time>2021-06-05T09:08:26.542Z</time>
      </trkpt>
      <trkpt lat="45.64702" lon="5.72272">
        <ele>672</ele>
        <time>2021-06-05T09:08:30.539Z</time>
      </trkpt>
      <trkpt lat="45.64706" lon="5.72266">
        <ele>672</ele>
        <time>2021-06-05T09:08:35.539Z</time>
      </trkpt>
      <trkpt lat="45.64711" lon="5.72263">
        <ele>679</ele>
        <time>2021-06-05T09:08:39.553Z</time>
      </trkpt>
      <trkpt lat="45.64717" lon="5.72263">
        <ele>679</ele>
        <time>2021-06-05T09:08:44.540Z</time>
      </trkpt>
      <trkpt lat="45.64726" lon="5.72265">
        <ele>673</ele>
        <time>2021-06-05T09:08:49.535Z</time>
      </trkpt>
      <trkpt lat="45.64731" lon="5.72266">
        <ele>673</ele>
        <time>2021-06-05T09:08:53.550Z</time>
      </trkpt>
      <trkpt lat="45.64738" lon="5.72266">
        <ele>671</ele>
        <time>2021-06-05T09:08:58.560Z</time>
      </trkpt>
      <trkpt lat="45.64744" lon="5.72267">
        <ele>671</ele>
        <time>2021-06-05T09:09:03.547Z</time>
      </trkpt>
      <trkpt lat="45.6475" lon="5.72266">
        <ele>671</ele>
        <time>2021-06-05T09:09:08.544Z</time>
      </trkpt>
      <trkpt lat="45.64754" lon="5.72266">
        <ele>671</ele>
        <time>2021-06-05T09:09:13.554Z</time>
      </trkpt>
      <trkpt lat="45.64761" lon="5.72267">
        <ele>671</ele>
        <time>2021-06-05T09:09:18.542Z</time>
      </trkpt>
      <trkpt lat="45.64771" lon="5.72268">
        <ele>670</ele>
        <time>2021-06-05T09:09:23.549Z</time>
      </trkpt>
      <trkpt lat="45.64779" lon="5.7227">
        <ele>670</ele>
        <time>2021-06-05T09:09:28.535Z</time>
      </trkpt>
      <trkpt lat="45.64786" lon="5.72268">
        <ele>670</ele>
        <time>2021-06-05T09:09:33.539Z</time>
      </trkpt>
      <trkpt lat="45.64795" lon="5.72263">
        <ele>678</ele>
        <time>2021-06-05T09:09:38.549Z</time>
      </trkpt>
      <trkpt lat="45.648" lon="5.72259">
        <ele>678</ele>
        <time>2021-06-05T09:09:43.545Z</time>
      </trkpt>
      <trkpt lat="45.64802" lon="5.72257">
        <ele>678</ele>
        <time>2021-06-05T09:09:48.544Z</time>
      </trkpt>
      <trkpt lat="45.64804" lon="5.72257">
        <ele>678</ele>
        <time>2021-06-05T09:09:53.545Z</time>
      </trkpt>
      <trkpt lat="45.64805" lon="5.72255">
        <ele>678</ele>
        <time>2021-06-05T09:09:58.541Z</time>
      </trkpt>
      <trkpt lat="45.64809" lon="5.7225">
        <ele>678</ele>
        <time>2021-06-05T09:10:03.553Z</time>
      </trkpt>
      <trkpt lat="45.64819" lon="5.72241">
        <ele>678</ele>
        <time>2021-06-05T09:10:08.550Z</time>
      </trkpt>
      <trkpt lat="45.64826" lon="5.72235">
        <ele>685</ele>
        <time>2021-06-05T09:10:13.517Z</time>
      </trkpt>
      <trkpt lat="45.64835" lon="5.72228">
        <ele>685</ele>
        <time>2021-06-05T09:10:18.511Z</time>
      </trkpt>
      <trkpt lat="45.64844" lon="5.72221">
        <ele>685</ele>
        <time>2021-06-05T09:10:23.511Z</time>
      </trkpt>
      <trkpt lat="45.64846" lon="5.72219">
        <ele>685</ele>
        <time>2021-06-05T09:10:28.506Z</time>
      </trkpt>
      <trkpt lat="45.64847" lon="5.72219">
        <ele>685</ele>
        <time>2021-06-05T09:10:33.510Z</time>
      </trkpt>
      <trkpt lat="45.64851" lon="5.72218">
        <ele>683</ele>
        <time>2021-06-05T09:10:37.515Z</time>
      </trkpt>
      <trkpt lat="45.64861" lon="5.72216">
        <ele>683</ele>
        <time>2021-06-05T09:10:41.541Z</time>
      </trkpt>
      <trkpt lat="45.64874" lon="5.72212">
        <ele>683</ele>
        <time>2021-06-05T09:10:46.540Z</time>
      </trkpt>
      <trkpt lat="45.64884" lon="5.72211">
        <ele>682</ele>
        <time>2021-06-05T09:10:50.545Z</time>
      </trkpt>
      <trkpt lat="45.64891" lon="5.72209">
        <ele>682</ele>
        <time>2021-06-05T09:10:55.549Z</time>
      </trkpt>
      <trkpt lat="45.64898" lon="5.72207">
        <ele>686</ele>
        <time>2021-06-05T09:10:59.548Z</time>
      </trkpt>
      <trkpt lat="45.64904" lon="5.72205">
        <ele>686</ele>
        <time>2021-06-05T09:11:03.582Z</time>
      </trkpt>
      <trkpt lat="45.64911" lon="5.72208">
        <ele>686</ele>
        <time>2021-06-05T09:11:08.559Z</time>
      </trkpt>
      <trkpt lat="45.64918" lon="5.72211">
        <ele>683</ele>
        <time>2021-06-05T09:11:13.541Z</time>
      </trkpt>
      <trkpt lat="45.64923" lon="5.72214">
        <ele>683</ele>
        <time>2021-06-05T09:11:18.538Z</time>
      </trkpt>
      <trkpt lat="45.64929" lon="5.72216">
        <ele>683</ele>
        <time>2021-06-05T09:11:23.561Z</time>
      </trkpt>
      <trkpt lat="45.64937" lon="5.72219">
        <ele>683</ele>
        <time>2021-06-05T09:11:28.551Z</time>
      </trkpt>
      <trkpt lat="45.64943" lon="5.72219">
        <ele>683</ele>
        <time>2021-06-05T09:11:32.558Z</time>
      </trkpt>
      <trkpt lat="45.6495" lon="5.72221">
        <ele>683</ele>
        <time>2021-06-05T09:11:37.565Z</time>
      </trkpt>
      <trkpt lat="45.64956" lon="5.72221">
        <ele>683</ele>
        <time>2021-06-05T09:11:42.538Z</time>
      </trkpt>
      <trkpt lat="45.64962" lon="5.72221">
        <ele>685</ele>
        <time>2021-06-05T09:11:46.552Z</time>
      </trkpt>
      <trkpt lat="45.64971" lon="5.72221">
        <ele>685</ele>
        <time>2021-06-05T09:11:51.547Z</time>
      </trkpt>
      <trkpt lat="45.64977" lon="5.7222">
        <ele>685</ele>
        <time>2021-06-05T09:11:56.540Z</time>
      </trkpt>
      <trkpt lat="45.64985" lon="5.7222">
        <ele>685</ele>
        <time>2021-06-05T09:12:01.540Z</time>
      </trkpt>
      <trkpt lat="45.64991" lon="5.72219">
        <ele>685</ele>
        <time>2021-06-05T09:12:05.563Z</time>
      </trkpt>
      <trkpt lat="45.64999" lon="5.72218">
        <ele>685</ele>
        <time>2021-06-05T09:12:10.546Z</time>
      </trkpt>
      <trkpt lat="45.65004" lon="5.72215">
        <ele>685</ele>
        <time>2021-06-05T09:12:15.542Z</time>
      </trkpt>
      <trkpt lat="45.6501" lon="5.72213">
        <ele>685</ele>
        <time>2021-06-05T09:12:19.555Z</time>
      </trkpt>
      <trkpt lat="45.65016" lon="5.72208">
        <ele>685</ele>
        <time>2021-06-05T09:12:24.543Z</time>
      </trkpt>
      <trkpt lat="45.65021" lon="5.72206">
        <ele>689</ele>
        <time>2021-06-05T09:12:29.542Z</time>
      </trkpt>
      <trkpt lat="45.65027" lon="5.72204">
        <ele>689</ele>
        <time>2021-06-05T09:12:34.556Z</time>
      </trkpt>
      <trkpt lat="45.65034" lon="5.72202">
        <ele>689</ele>
        <time>2021-06-05T09:12:39.536Z</time>
      </trkpt>
      <trkpt lat="45.6504" lon="5.72201">
        <ele>689</ele>
        <time>2021-06-05T09:12:44.558Z</time>
      </trkpt>
      <trkpt lat="45.65047" lon="5.722">
        <ele>687</ele>
        <time>2021-06-05T09:12:49.539Z</time>
      </trkpt>
      <trkpt lat="45.65054" lon="5.72199">
        <ele>687</ele>
        <time>2021-06-05T09:12:53.575Z</time>
      </trkpt>
      <trkpt lat="45.65064" lon="5.72196">
        <ele>687</ele>
        <time>2021-06-05T09:12:58.542Z</time>
      </trkpt>
      <trkpt lat="45.6507" lon="5.72193">
        <ele>683</ele>
        <time>2021-06-05T09:13:03.540Z</time>
      </trkpt>
      <trkpt lat="45.65074" lon="5.72191">
        <ele>683</ele>
        <time>2021-06-05T09:13:07.558Z</time>
      </trkpt>
      <trkpt lat="45.65079" lon="5.7219">
        <ele>683</ele>
        <time>2021-06-05T09:13:12.554Z</time>
      </trkpt>
      <trkpt lat="45.65083" lon="5.72191">
        <ele>683</ele>
        <time>2021-06-05T09:13:17.543Z</time>
      </trkpt>
      <trkpt lat="45.65089" lon="5.72189">
        <ele>683</ele>
        <time>2021-06-05T09:13:22.558Z</time>
      </trkpt>
      <trkpt lat="45.65096" lon="5.72188">
        <ele>683</ele>
        <time>2021-06-05T09:13:27.549Z</time>
      </trkpt>
      <trkpt lat="45.65103" lon="5.72186">
        <ele>678</ele>
        <time>2021-06-05T09:13:32.539Z</time>
      </trkpt>
      <trkpt lat="45.6511" lon="5.72184">
        <ele>678</ele>
        <time>2021-06-05T09:13:37.538Z</time>
      </trkpt>
      <trkpt lat="45.65117" lon="5.72183">
        <ele>678</ele>
        <time>2021-06-05T09:13:41.544Z</time>
      </trkpt>
      <trkpt lat="45.6512" lon="5.72181">
        <ele>678</ele>
        <time>2021-06-05T09:13:46.546Z</time>
      </trkpt>
      <trkpt lat="45.65127" lon="5.7218">
        <ele>681</ele>
        <time>2021-06-05T09:13:51.545Z</time>
      </trkpt>
      <trkpt lat="45.65135" lon="5.72178">
        <ele>681</ele>
        <time>2021-06-05T09:13:56.542Z</time>
      </trkpt>
      <trkpt lat="45.65142" lon="5.72176">
        <ele>681</ele>
        <time>2021-06-05T09:14:01.540Z</time>
      </trkpt>
      <trkpt lat="45.65147" lon="5.72173">
        <ele>681</ele>
        <time>2021-06-05T09:14:05.552Z</time>
      </trkpt>
      <trkpt lat="45.65154" lon="5.72171">
        <ele>680</ele>
        <time>2021-06-05T09:14:10.551Z</time>
      </trkpt>
      <trkpt lat="45.6516" lon="5.7217">
        <ele>680</ele>
        <time>2021-06-05T09:14:15.547Z</time>
      </trkpt>
      <trkpt lat="45.65166" lon="5.72168">
        <ele>680</ele>
        <time>2021-06-05T09:14:20.541Z</time>
      </trkpt>
      <trkpt lat="45.65173" lon="5.72167">
        <ele>680</ele>
        <time>2021-06-05T09:14:25.534Z</time>
      </trkpt>
      <trkpt lat="45.65179" lon="5.72164">
        <ele>680</ele>
        <time>2021-06-05T09:14:30.543Z</time>
      </trkpt>
      <trkpt lat="45.65184" lon="5.72165">
        <ele>677</ele>
        <time>2021-06-05T09:14:35.541Z</time>
      </trkpt>
      <trkpt lat="45.6519" lon="5.72167">
        <ele>677</ele>
        <time>2021-06-05T09:14:39.550Z</time>
      </trkpt>
      <trkpt lat="45.65197" lon="5.72172">
        <ele>677</ele>
        <time>2021-06-05T09:14:44.547Z</time>
      </trkpt>
      <trkpt lat="45.652" lon="5.72175">
        <ele>677</ele>
        <time>2021-06-05T09:14:49.546Z</time>
      </trkpt>
      <trkpt lat="45.65205" lon="5.72177">
        <ele>677</ele>
        <time>2021-06-05T09:14:53.556Z</time>
      </trkpt>
      <trkpt lat="45.65209" lon="5.72178">
        <ele>672</ele>
        <time>2021-06-05T09:14:58.571Z</time>
      </trkpt>
      <trkpt lat="45.65213" lon="5.7218">
        <ele>672</ele>
        <time>2021-06-05T09:15:03.551Z</time>
      </trkpt>
      <trkpt lat="45.65214" lon="5.72181">
        <ele>672</ele>
        <time>2021-06-05T09:15:08.544Z</time>
      </trkpt>
      <trkpt lat="45.65218" lon="5.72183">
        <ele>672</ele>
        <time>2021-06-05T09:15:13.558Z</time>
      </trkpt>
      <trkpt lat="45.65225" lon="5.72187">
        <ele>672</ele>
        <time>2021-06-05T09:15:18.554Z</time>
      </trkpt>
      <trkpt lat="45.65231" lon="5.7219">
        <ele>672</ele>
        <time>2021-06-05T09:15:23.542Z</time>
      </trkpt>
      <trkpt lat="45.65236" lon="5.7219">
        <ele>672</ele>
        <time>2021-06-05T09:15:27.555Z</time>
      </trkpt>
      <trkpt lat="45.65239" lon="5.72191">
        <ele>666</ele>
        <time>2021-06-05T09:15:32.545Z</time>
      </trkpt>
      <trkpt lat="45.65245" lon="5.72193">
        <ele>666</ele>
        <time>2021-06-05T09:15:36.555Z</time>
      </trkpt>
      <trkpt lat="45.65253" lon="5.72197">
        <ele>666</ele>
        <time>2021-06-05T09:15:41.541Z</time>
      </trkpt>
      <trkpt lat="45.65261" lon="5.72198">
        <ele>666</ele>
        <time>2021-06-05T09:15:46.546Z</time>
      </trkpt>
      <trkpt lat="45.65268" lon="5.72197">
        <ele>663</ele>
        <time>2021-06-05T09:15:51.539Z</time>
      </trkpt>
      <trkpt lat="45.65271" lon="5.72202">
        <ele>663</ele>
        <time>2021-06-05T09:15:55.550Z</time>
      </trkpt>
      <trkpt lat="45.65273" lon="5.72208">
        <ele>663</ele>
        <time>2021-06-05T09:16:00.546Z</time>
      </trkpt>
      <trkpt lat="45.65275" lon="5.72215">
        <ele>661</ele>
        <time>2021-06-05T09:16:04.559Z</time>
      </trkpt>
      <trkpt lat="45.65276" lon="5.72226">
        <ele>661</ele>
        <time>2021-06-05T09:16:09.552Z</time>
      </trkpt>
      <trkpt lat="45.65277" lon="5.72235">
        <ele>661</ele>
        <time>2021-06-05T09:16:14.541Z</time>
      </trkpt>
      <trkpt lat="45.65277" lon="5.72246">
        <ele>659</ele>
        <time>2021-06-05T09:16:19.548Z</time>
      </trkpt>
      <trkpt lat="45.65277" lon="5.72257">
        <ele>659</ele>
        <time>2021-06-05T09:16:24.538Z</time>
      </trkpt>
      <trkpt lat="45.65277" lon="5.72264">
        <ele>656</ele>
        <time>2021-06-05T09:16:28.554Z</time>
      </trkpt>
      <trkpt lat="45.65277" lon="5.72272">
        <ele>656</ele>
        <time>2021-06-05T09:16:33.558Z</time>
      </trkpt>
      <trkpt lat="45.65277" lon="5.72281">
        <ele>656</ele>
        <time>2021-06-05T09:16:38.552Z</time>
      </trkpt>
      <trkpt lat="45.65277" lon="5.72291">
        <ele>656</ele>
        <time>2021-06-05T09:16:43.559Z</time>
      </trkpt>
      <trkpt lat="45.65278" lon="5.72299">
        <ele>654</ele>
        <time>2021-06-05T09:16:48.535Z</time>
      </trkpt>
      <trkpt lat="45.65277" lon="5.72307">
        <ele>654</ele>
        <time>2021-06-05T09:16:52.555Z</time>
      </trkpt>
      <trkpt lat="45.65276" lon="5.72314">
        <ele>654</ele>
        <time>2021-06-05T09:16:56.555Z</time>
      </trkpt>
      <trkpt lat="45.65274" lon="5.72322">
        <ele>652</ele>
        <time>2021-06-05T09:17:01.550Z</time>
      </trkpt>
      <trkpt lat="45.65273" lon="5.72329">
        <ele>652</ele>
        <time>2021-06-05T09:17:06.544Z</time>
      </trkpt>
      <trkpt lat="45.65273" lon="5.72338">
        <ele>652</ele>
        <time>2021-06-05T09:17:11.554Z</time>
      </trkpt>
      <trkpt lat="45.65274" lon="5.72344">
        <ele>652</ele>
        <time>2021-06-05T09:17:15.566Z</time>
      </trkpt>
      <trkpt lat="45.65276" lon="5.72347">
        <ele>649</ele>
        <time>2021-06-05T09:17:20.541Z</time>
      </trkpt>
      <trkpt lat="45.65278" lon="5.7235">
        <ele>649</ele>
        <time>2021-06-05T09:17:25.543Z</time>
      </trkpt>
      <trkpt lat="45.65282" lon="5.72356">
        <ele>649</ele>
        <time>2021-06-05T09:17:30.562Z</time>
      </trkpt>
      <trkpt lat="45.65292" lon="5.72369">
        <ele>648</ele>
        <time>2021-06-05T09:19:06.504Z</time>
      </trkpt>
      <trkpt lat="45.65292" lon="5.72369">
        <ele>648</ele>
        <time>2021-06-05T09:19:10.513Z</time>
      </trkpt>
      <trkpt lat="45.65292" lon="5.72369">
        <ele>648</ele>
        <time>2021-06-05T09:19:15.510Z</time>
      </trkpt>
      <trkpt lat="45.65293" lon="5.72369">
        <ele>648</ele>
        <time>2021-06-05T09:19:20.506Z</time>
      </trkpt>
      <trkpt lat="45.65298" lon="5.72364">
        <ele>648</ele>
        <time>2021-06-05T09:19:24.553Z</time>
      </trkpt>
      <trkpt lat="45.65317" lon="5.72358">
        <ele>648</ele>
        <time>2021-06-05T09:19:53.537Z</time>
      </trkpt>
      <trkpt lat="45.65322" lon="5.72357">
        <ele>645</ele>
        <time>2021-06-05T09:19:58.536Z</time>
      </trkpt>
      <trkpt lat="45.65329" lon="5.72354">
        <ele>645</ele>
        <time>2021-06-05T09:20:03.557Z</time>
      </trkpt>
      <trkpt lat="45.65337" lon="5.72353">
        <ele>645</ele>
        <time>2021-06-05T09:20:08.537Z</time>
      </trkpt>
      <trkpt lat="45.65343" lon="5.72351">
        <ele>645</ele>
        <time>2021-06-05T09:20:12.550Z</time>
      </trkpt>
      <trkpt lat="45.6535" lon="5.72349">
        <ele>642</ele>
        <time>2021-06-05T09:20:17.537Z</time>
      </trkpt>
      <trkpt lat="45.65353" lon="5.72347">
        <ele>646</ele>
        <time>2021-06-05T09:20:21.567Z</time>
      </trkpt>
      <trkpt lat="45.65359" lon="5.72344">
        <ele>646</ele>
        <time>2021-06-05T09:20:26.550Z</time>
      </trkpt>
      <trkpt lat="45.65366" lon="5.72342">
        <ele>646</ele>
        <time>2021-06-05T09:20:31.544Z</time>
      </trkpt>
      <trkpt lat="45.65374" lon="5.72338">
        <ele>646</ele>
        <time>2021-06-05T09:20:36.543Z</time>
      </trkpt>
      <trkpt lat="45.6538" lon="5.72336">
        <ele>645</ele>
        <time>2021-06-05T09:20:41.539Z</time>
      </trkpt>
      <trkpt lat="45.65385" lon="5.72333">
        <ele>645</ele>
        <time>2021-06-05T09:20:46.567Z</time>
      </trkpt>
      <trkpt lat="45.65387" lon="5.72332">
        <ele>645</ele>
        <time>2021-06-05T09:20:51.536Z</time>
      </trkpt>
      <trkpt lat="45.65389" lon="5.72331">
        <ele>645</ele>
        <time>2021-06-05T09:20:56.540Z</time>
      </trkpt>
      <trkpt lat="45.65394" lon="5.72328">
        <ele>645</ele>
        <time>2021-06-05T09:21:00.540Z</time>
      </trkpt>
      <trkpt lat="45.65398" lon="5.72324">
        <ele>645</ele>
        <time>2021-06-05T09:21:04.554Z</time>
      </trkpt>
      <trkpt lat="45.65403" lon="5.72321">
        <ele>645</ele>
        <time>2021-06-05T09:21:09.554Z</time>
      </trkpt>
      <trkpt lat="45.65409" lon="5.72318">
        <ele>648</ele>
        <time>2021-06-05T09:21:13.564Z</time>
      </trkpt>
      <trkpt lat="45.65416" lon="5.72314">
        <ele>648</ele>
        <time>2021-06-05T09:21:18.540Z</time>
      </trkpt>
      <trkpt lat="45.65422" lon="5.72309">
        <ele>648</ele>
        <time>2021-06-05T09:21:23.543Z</time>
      </trkpt>
      <trkpt lat="45.65425" lon="5.72306">
        <ele>648</ele>
        <time>2021-06-05T09:21:28.537Z</time>
      </trkpt>
      <trkpt lat="45.65433" lon="5.72301">
        <ele>646</ele>
        <time>2021-06-05T09:21:33.559Z</time>
      </trkpt>
      <trkpt lat="45.6544" lon="5.72296">
        <ele>646</ele>
        <time>2021-06-05T09:21:38.557Z</time>
      </trkpt>
      <trkpt lat="45.65447" lon="5.72293">
        <ele>646</ele>
        <time>2021-06-05T09:21:43.548Z</time>
      </trkpt>
      <trkpt lat="45.65455" lon="5.72287">
        <ele>648</ele>
        <time>2021-06-05T09:21:47.552Z</time>
      </trkpt>
      <trkpt lat="45.65458" lon="5.72278">
        <ele>648</ele>
        <time>2021-06-05T09:21:52.553Z</time>
      </trkpt>
      <trkpt lat="45.65461" lon="5.72266">
        <ele>646</ele>
        <time>2021-06-05T09:21:57.557Z</time>
      </trkpt>
      <trkpt lat="45.65462" lon="5.72257">
        <ele>651</ele>
        <time>2021-06-05T09:22:02.570Z</time>
      </trkpt>
      <trkpt lat="45.65463" lon="5.72248">
        <ele>651</ele>
        <time>2021-06-05T09:22:07.570Z</time>
      </trkpt>
      <trkpt lat="45.65462" lon="5.72246">
        <ele>651</ele>
        <time>2021-06-05T09:22:12.563Z</time>
      </trkpt>
      <trkpt lat="45.65462" lon="5.72244">
        <ele>651</ele>
        <time>2021-06-05T09:22:17.565Z</time>
      </trkpt>
      <trkpt lat="45.65463" lon="5.72244">
        <ele>651</ele>
        <time>2021-06-05T09:22:22.554Z</time>
      </trkpt>
      <trkpt lat="45.65464" lon="5.72235">
        <ele>656</ele>
        <time>2021-06-05T09:22:27.561Z</time>
      </trkpt>
      <trkpt lat="45.65467" lon="5.72226">
        <ele>656</ele>
        <time>2021-06-05T09:22:32.568Z</time>
      </trkpt>
      <trkpt lat="45.65473" lon="5.72221">
        <ele>656</ele>
        <time>2021-06-05T09:22:37.556Z</time>
      </trkpt>
      <trkpt lat="45.6548" lon="5.72217">
        <ele>656</ele>
        <time>2021-06-05T09:22:41.568Z</time>
      </trkpt>
      <trkpt lat="45.65488" lon="5.72213">
        <ele>652</ele>
        <time>2021-06-05T09:22:46.570Z</time>
      </trkpt>
      <trkpt lat="45.65492" lon="5.72207">
        <ele>656</ele>
        <time>2021-06-05T09:22:51.564Z</time>
      </trkpt>
      <trkpt lat="45.65496" lon="5.72203">
        <ele>656</ele>
        <time>2021-06-05T09:22:56.569Z</time>
      </trkpt>
      <trkpt lat="45.655" lon="5.72199">
        <ele>656</ele>
        <time>2021-06-05T09:23:01.557Z</time>
      </trkpt>
      <trkpt lat="45.65504" lon="5.72194">
        <ele>656</ele>
        <time>2021-06-05T09:23:05.577Z</time>
      </trkpt>
      <trkpt lat="45.65511" lon="5.72189">
        <ele>656</ele>
        <time>2021-06-05T09:23:10.610Z</time>
      </trkpt>
      <trkpt lat="45.65515" lon="5.72185">
        <ele>653</ele>
        <time>2021-06-05T09:23:15.570Z</time>
      </trkpt>
      <trkpt lat="45.6552" lon="5.7218">
        <ele>660</ele>
        <time>2021-06-05T09:23:20.563Z</time>
      </trkpt>
      <trkpt lat="45.65525" lon="5.72176">
        <ele>660</ele>
        <time>2021-06-05T09:23:24.575Z</time>
      </trkpt>
      <trkpt lat="45.6553" lon="5.72169">
        <ele>660</ele>
        <time>2021-06-05T09:23:29.569Z</time>
      </trkpt>
      <trkpt lat="45.65534" lon="5.72165">
        <ele>660</ele>
        <time>2021-06-05T09:23:34.565Z</time>
      </trkpt>
      <trkpt lat="45.65537" lon="5.7216">
        <ele>660</ele>
        <time>2021-06-05T09:23:38.580Z</time>
      </trkpt>
      <trkpt lat="45.65542" lon="5.72157">
        <ele>657</ele>
        <time>2021-06-05T09:23:43.549Z</time>
      </trkpt>
      <trkpt lat="45.65548" lon="5.72151">
        <ele>664</ele>
        <time>2021-06-05T09:23:47.561Z</time>
      </trkpt>
      <trkpt lat="45.65554" lon="5.72145">
        <ele>664</ele>
        <time>2021-06-05T09:23:52.564Z</time>
      </trkpt>
      <trkpt lat="45.65559" lon="5.72141">
        <ele>664</ele>
        <time>2021-06-05T09:23:57.576Z</time>
      </trkpt>
      <trkpt lat="45.65564" lon="5.72137">
        <ele>664</ele>
        <time>2021-06-05T09:24:02.570Z</time>
      </trkpt>
      <trkpt lat="45.6557" lon="5.72133">
        <ele>663</ele>
        <time>2021-06-05T09:24:07.576Z</time>
      </trkpt>
      <trkpt lat="45.65576" lon="5.72128">
        <ele>663</ele>
        <time>2021-06-05T09:24:12.550Z</time>
      </trkpt>
      <trkpt lat="45.65577" lon="5.72126">
        <ele>663</ele>
        <time>2021-06-05T09:24:17.558Z</time>
      </trkpt>
      <trkpt lat="45.65577" lon="5.72126">
        <ele>663</ele>
        <time>2021-06-05T09:24:22.564Z</time>
      </trkpt>
      <trkpt lat="45.65582" lon="5.72123">
        <ele>669</ele>
        <time>2021-06-05T09:24:27.559Z</time>
      </trkpt>
      <trkpt lat="45.65589" lon="5.72118">
        <ele>669</ele>
        <time>2021-06-05T09:24:32.571Z</time>
      </trkpt>
      <trkpt lat="45.65596" lon="5.72115">
        <ele>669</ele>
        <time>2021-06-05T09:24:37.550Z</time>
      </trkpt>
      <trkpt lat="45.65602" lon="5.72114">
        <ele>671</ele>
        <time>2021-06-05T09:24:41.567Z</time>
      </trkpt>
      <trkpt lat="45.65608" lon="5.72112">
        <ele>671</ele>
        <time>2021-06-05T09:24:46.555Z</time>
      </trkpt>
      <trkpt lat="45.65612" lon="5.72111">
        <ele>671</ele>
        <time>2021-06-05T09:24:50.571Z</time>
      </trkpt>
      <trkpt lat="45.65619" lon="5.72107">
        <ele>671</ele>
        <time>2021-06-05T09:24:55.559Z</time>
      </trkpt>
      <trkpt lat="45.65624" lon="5.72105">
        <ele>671</ele>
        <time>2021-06-05T09:25:00.564Z</time>
      </trkpt>
      <trkpt lat="45.65629" lon="5.72104">
        <ele>671</ele>
        <time>2021-06-05T09:25:05.554Z</time>
      </trkpt>
      <trkpt lat="45.65636" lon="5.72105">
        <ele>671</ele>
        <time>2021-06-05T09:25:10.556Z</time>
      </trkpt>
      <trkpt lat="45.65642" lon="5.72105">
        <ele>671</ele>
        <time>2021-06-05T09:25:14.574Z</time>
      </trkpt>
      <trkpt lat="45.65643" lon="5.72105">
        <ele>671</ele>
        <time>2021-06-05T09:25:19.570Z</time>
      </trkpt>
      <trkpt lat="45.65647" lon="5.72105">
        <ele>671</ele>
        <time>2021-06-05T09:25:24.560Z</time>
      </trkpt>
      <trkpt lat="45.65656" lon="5.72106">
        <ele>668</ele>
        <time>2021-06-05T09:25:29.564Z</time>
      </trkpt>
      <trkpt lat="45.65662" lon="5.72106">
        <ele>668</ele>
        <time>2021-06-05T09:25:34.565Z</time>
      </trkpt>
      <trkpt lat="45.65669" lon="5.72105">
        <ele>668</ele>
        <time>2021-06-05T09:25:39.577Z</time>
      </trkpt>
      <trkpt lat="45.65679" lon="5.72101">
        <ele>668</ele>
        <time>2021-06-05T09:25:44.569Z</time>
      </trkpt>
      <trkpt lat="45.65683" lon="5.72093">
        <ele>673</ele>
        <time>2021-06-05T09:25:49.562Z</time>
      </trkpt>
      <trkpt lat="45.65686" lon="5.72083">
        <ele>673</ele>
        <time>2021-06-05T09:25:54.551Z</time>
      </trkpt>
      <trkpt lat="45.65689" lon="5.72077">
        <ele>673</ele>
        <time>2021-06-05T09:25:58.558Z</time>
      </trkpt>
      <trkpt lat="45.65692" lon="5.7207">
        <ele>673</ele>
        <time>2021-06-05T09:26:03.561Z</time>
      </trkpt>
      <trkpt lat="45.65694" lon="5.72068">
        <ele>679</ele>
        <time>2021-06-05T09:26:07.570Z</time>
      </trkpt>
      <trkpt lat="45.657" lon="5.72063">
        <ele>679</ele>
        <time>2021-06-05T09:26:12.567Z</time>
      </trkpt>
      <trkpt lat="45.65704" lon="5.72057">
        <ele>679</ele>
        <time>2021-06-05T09:26:17.581Z</time>
      </trkpt>
      <trkpt lat="45.65708" lon="5.7205">
        <ele>676</ele>
        <time>2021-06-05T09:26:22.572Z</time>
      </trkpt>
      <trkpt lat="45.65713" lon="5.72041">
        <ele>680</ele>
        <time>2021-06-05T09:26:27.550Z</time>
      </trkpt>
      <trkpt lat="45.65718" lon="5.72033">
        <ele>680</ele>
        <time>2021-06-05T09:26:32.549Z</time>
      </trkpt>
      <trkpt lat="45.65722" lon="5.7203">
        <ele>680</ele>
        <time>2021-06-05T09:26:37.553Z</time>
      </trkpt>
      <trkpt lat="45.65728" lon="5.72026">
        <ele>680</ele>
        <time>2021-06-05T09:26:42.552Z</time>
      </trkpt>
      <trkpt lat="45.65732" lon="5.7202">
        <ele>680</ele>
        <time>2021-06-05T09:26:47.568Z</time>
      </trkpt>
      <trkpt lat="45.65736" lon="5.72014">
        <ele>675</ele>
        <time>2021-06-05T09:26:52.557Z</time>
      </trkpt>
      <trkpt lat="45.65742" lon="5.72007">
        <ele>680</ele>
        <time>2021-06-05T09:26:57.567Z</time>
      </trkpt>
      <trkpt lat="45.65743" lon="5.72">
        <ele>680</ele>
        <time>2021-06-05T09:27:02.551Z</time>
      </trkpt>
      <trkpt lat="45.65747" lon="5.71993">
        <ele>680</ele>
        <time>2021-06-05T09:27:07.562Z</time>
      </trkpt>
      <trkpt lat="45.65751" lon="5.71986">
        <ele>686</ele>
        <time>2021-06-05T09:27:11.567Z</time>
      </trkpt>
      <trkpt lat="45.65756" lon="5.71978">
        <ele>686</ele>
        <time>2021-06-05T09:27:16.568Z</time>
      </trkpt>
      <trkpt lat="45.65761" lon="5.71969">
        <ele>686</ele>
        <time>2021-06-05T09:27:21.571Z</time>
      </trkpt>
      <trkpt lat="45.65766" lon="5.71961">
        <ele>684</ele>
        <time>2021-06-05T09:27:26.572Z</time>
      </trkpt>
      <trkpt lat="45.6577" lon="5.71956">
        <ele>686</ele>
        <time>2021-06-05T09:27:31.558Z</time>
      </trkpt>
      <trkpt lat="45.65773" lon="5.71951">
        <ele>686</ele>
        <time>2021-06-05T09:27:36.555Z</time>
      </trkpt>
      <trkpt lat="45.65775" lon="5.71946">
        <ele>686</ele>
        <time>2021-06-05T09:27:40.570Z</time>
      </trkpt>
      <trkpt lat="45.65779" lon="5.71939">
        <ele>686</ele>
        <time>2021-06-05T09:27:45.547Z</time>
      </trkpt>
      <trkpt lat="45.65782" lon="5.71934">
        <ele>686</ele>
        <time>2021-06-05T09:27:49.563Z</time>
      </trkpt>
      <trkpt lat="45.65786" lon="5.71926">
        <ele>689</ele>
        <time>2021-06-05T09:27:54.563Z</time>
      </trkpt>
      <trkpt lat="45.65789" lon="5.71919">
        <ele>689</ele>
        <time>2021-06-05T09:27:59.555Z</time>
      </trkpt>
      <trkpt lat="45.6579" lon="5.71914">
        <ele>689</ele>
        <time>2021-06-05T09:28:03.568Z</time>
      </trkpt>
      <trkpt lat="45.65789" lon="5.71908">
        <ele>689</ele>
        <time>2021-06-05T09:28:08.550Z</time>
      </trkpt>
      <trkpt lat="45.65791" lon="5.71898">
        <ele>692</ele>
        <time>2021-06-05T09:28:13.558Z</time>
      </trkpt>
      <trkpt lat="45.65795" lon="5.71897">
        <ele>688</ele>
        <time>2021-06-05T09:28:17.561Z</time>
      </trkpt>
      <trkpt lat="45.65802" lon="5.71897">
        <ele>688</ele>
        <time>2021-06-05T09:28:21.571Z</time>
      </trkpt>
      <trkpt lat="45.6581" lon="5.71894">
        <ele>688</ele>
        <time>2021-06-05T09:28:26.564Z</time>
      </trkpt>
      <trkpt lat="45.65814" lon="5.71891">
        <ele>688</ele>
        <time>2021-06-05T09:28:31.550Z</time>
      </trkpt>
      <trkpt lat="45.65817" lon="5.71889">
        <ele>688</ele>
        <time>2021-06-05T09:28:35.562Z</time>
      </trkpt>
      <trkpt lat="45.6582" lon="5.71885">
        <ele>688</ele>
        <time>2021-06-05T09:28:40.565Z</time>
      </trkpt>
      <trkpt lat="45.65823" lon="5.71882">
        <ele>688</ele>
        <time>2021-06-05T09:28:44.569Z</time>
      </trkpt>
      <trkpt lat="45.65826" lon="5.71876">
        <ele>688</ele>
        <time>2021-06-05T09:28:49.548Z</time>
      </trkpt>
      <trkpt lat="45.65828" lon="5.71869">
        <ele>692</ele>
        <time>2021-06-05T09:28:53.567Z</time>
      </trkpt>
      <trkpt lat="45.65831" lon="5.7186">
        <ele>692</ele>
        <time>2021-06-05T09:28:58.573Z</time>
      </trkpt>
      <trkpt lat="45.65835" lon="5.71853">
        <ele>692</ele>
        <time>2021-06-05T09:29:03.549Z</time>
      </trkpt>
      <trkpt lat="45.6584" lon="5.71849">
        <ele>692</ele>
        <time>2021-06-05T09:29:08.540Z</time>
      </trkpt>
      <trkpt lat="45.65843" lon="5.71844">
        <ele>697</ele>
        <time>2021-06-05T09:29:12.572Z</time>
      </trkpt>
      <trkpt lat="45.65849" lon="5.71836">
        <ele>697</ele>
        <time>2021-06-05T09:29:17.576Z</time>
      </trkpt>
      <trkpt lat="45.65855" lon="5.71828">
        <ele>697</ele>
        <time>2021-06-05T09:29:22.562Z</time>
      </trkpt>
      <trkpt lat="45.65858" lon="5.71824">
        <ele>697</ele>
        <time>2021-06-05T09:29:26.579Z</time>
      </trkpt>
      <trkpt lat="45.65863" lon="5.71822">
        <ele>697</ele>
        <time>2021-06-05T09:29:31.565Z</time>
      </trkpt>
      <trkpt lat="45.65868" lon="5.71821">
        <ele>697</ele>
        <time>2021-06-05T09:29:36.579Z</time>
      </trkpt>
      <trkpt lat="45.65872" lon="5.71816">
        <ele>700</ele>
        <time>2021-06-05T09:29:41.554Z</time>
      </trkpt>
      <trkpt lat="45.65878" lon="5.71812">
        <ele>701</ele>
        <time>2021-06-05T09:29:46.559Z</time>
      </trkpt>
      <trkpt lat="45.65884" lon="5.71808">
        <ele>701</ele>
        <time>2021-06-05T09:29:51.556Z</time>
      </trkpt>
      <trkpt lat="45.65892" lon="5.71807">
        <ele>701</ele>
        <time>2021-06-05T09:29:56.553Z</time>
      </trkpt>
      <trkpt lat="45.65898" lon="5.71806">
        <ele>701</ele>
        <time>2021-06-05T09:30:00.580Z</time>
      </trkpt>
      <trkpt lat="45.65903" lon="5.71806">
        <ele>700</ele>
        <time>2021-06-05T09:30:05.580Z</time>
      </trkpt>
      <trkpt lat="45.65911" lon="5.71802">
        <ele>700</ele>
        <time>2021-06-05T09:30:10.583Z</time>
      </trkpt>
      <trkpt lat="45.6592" lon="5.71801">
        <ele>700</ele>
        <time>2021-06-05T09:30:15.579Z</time>
      </trkpt>
      <trkpt lat="45.65925" lon="5.71803">
        <ele>700</ele>
        <time>2021-06-05T09:30:20.572Z</time>
      </trkpt>
      <trkpt lat="45.65931" lon="5.71802">
        <ele>698</ele>
        <time>2021-06-05T09:30:25.576Z</time>
      </trkpt>
      <trkpt lat="45.65935" lon="5.71803">
        <ele>698</ele>
        <time>2021-06-05T09:30:30.567Z</time>
      </trkpt>
      <trkpt lat="45.65937" lon="5.71801">
        <ele>698</ele>
        <time>2021-06-05T09:30:34.591Z</time>
      </trkpt>
      <trkpt lat="45.65939" lon="5.71797">
        <ele>698</ele>
        <time>2021-06-05T09:30:39.560Z</time>
      </trkpt>
      <trkpt lat="45.6594" lon="5.71796">
        <ele>698</ele>
        <time>2021-06-05T09:30:43.581Z</time>
      </trkpt>
      <trkpt lat="45.65941" lon="5.7179">
        <ele>697</ele>
        <time>2021-06-05T09:30:48.571Z</time>
      </trkpt>
      <trkpt lat="45.65941" lon="5.71786">
        <ele>697</ele>
        <time>2021-06-05T09:30:52.585Z</time>
      </trkpt>
      <trkpt lat="45.65941" lon="5.71782">
        <ele>697</ele>
        <time>2021-06-05T09:30:57.576Z</time>
      </trkpt>
      <trkpt lat="45.6594" lon="5.71772">
        <ele>697</ele>
        <time>2021-06-05T09:31:05.585Z</time>
      </trkpt>
      <trkpt lat="45.65938" lon="5.71768">
        <ele>697</ele>
        <time>2021-06-05T09:31:10.587Z</time>
      </trkpt>
      <trkpt lat="45.65939" lon="5.71766">
        <ele>697</ele>
        <time>2021-06-05T09:31:15.579Z</time>
      </trkpt>
      <trkpt lat="45.65938" lon="5.71764">
        <ele>697</ele>
        <time>2021-06-05T09:31:20.590Z</time>
      </trkpt>
      <trkpt lat="45.65938" lon="5.71756">
        <ele>696</ele>
        <time>2021-06-05T09:31:25.568Z</time>
      </trkpt>
      <trkpt lat="45.65937" lon="5.7175">
        <ele>696</ele>
        <time>2021-06-05T09:31:30.582Z</time>
      </trkpt>
      <trkpt lat="45.65937" lon="5.71743">
        <ele>696</ele>
        <time>2021-06-05T09:31:35.572Z</time>
      </trkpt>
      <trkpt lat="45.65937" lon="5.71737">
        <ele>696</ele>
        <time>2021-06-05T09:31:39.588Z</time>
      </trkpt>
      <trkpt lat="45.65936" lon="5.71735">
        <ele>693</ele>
        <time>2021-06-05T09:31:44.575Z</time>
      </trkpt>
      <trkpt lat="45.65936" lon="5.71732">
        <ele>693</ele>
        <time>2021-06-05T09:31:49.564Z</time>
      </trkpt>
      <trkpt lat="45.65937" lon="5.71726">
        <ele>693</ele>
        <time>2021-06-05T09:31:54.563Z</time>
      </trkpt>
      <trkpt lat="45.6594" lon="5.71722">
        <ele>693</ele>
        <time>2021-06-05T09:31:58.581Z</time>
      </trkpt>
      <trkpt lat="45.65941" lon="5.7172">
        <ele>693</ele>
        <time>2021-06-05T09:32:03.586Z</time>
      </trkpt>
      <trkpt lat="45.65944" lon="5.71713">
        <ele>693</ele>
        <time>2021-06-05T09:32:08.575Z</time>
      </trkpt>
      <trkpt lat="45.65945" lon="5.71706">
        <ele>689</ele>
        <time>2021-06-05T09:32:13.552Z</time>
      </trkpt>
      <trkpt lat="45.65947" lon="5.71698">
        <ele>689</ele>
        <time>2021-06-05T09:32:18.564Z</time>
      </trkpt>
      <trkpt lat="45.65948" lon="5.71694">
        <ele>689</ele>
        <time>2021-06-05T09:32:23.557Z</time>
      </trkpt>
      <trkpt lat="45.65948" lon="5.71688">
        <ele>689</ele>
        <time>2021-06-05T09:32:28.555Z</time>
      </trkpt>
      <trkpt lat="45.65947" lon="5.71681">
        <ele>689</ele>
        <time>2021-06-05T09:32:33.567Z</time>
      </trkpt>
      <trkpt lat="45.65947" lon="5.7167">
        <ele>685</ele>
        <time>2021-06-05T09:32:38.567Z</time>
      </trkpt>
      <trkpt lat="45.65947" lon="5.71661">
        <ele>685</ele>
        <time>2021-06-05T09:32:43.582Z</time>
      </trkpt>
      <trkpt lat="45.65945" lon="5.71655">
        <ele>685</ele>
        <time>2021-06-05T09:32:48.568Z</time>
      </trkpt>
      <trkpt lat="45.6594" lon="5.71651">
        <ele>681</ele>
        <time>2021-06-05T09:32:53.557Z</time>
      </trkpt>
      <trkpt lat="45.65935" lon="5.71649">
        <ele>681</ele>
        <time>2021-06-05T09:32:57.580Z</time>
      </trkpt>
      <trkpt lat="45.6593" lon="5.71645">
        <ele>693</ele>
        <time>2021-06-05T09:33:02.557Z</time>
      </trkpt>
      <trkpt lat="45.65926" lon="5.7164">
        <ele>693</ele>
        <time>2021-06-05T09:33:07.552Z</time>
      </trkpt>
      <trkpt lat="45.65923" lon="5.71636">
        <ele>693</ele>
        <time>2021-06-05T09:33:12.571Z</time>
      </trkpt>
      <trkpt lat="45.65922" lon="5.71628">
        <ele>693</ele>
        <time>2021-06-05T09:33:17.561Z</time>
      </trkpt>
      <trkpt lat="45.65923" lon="5.71621">
        <ele>688</ele>
        <time>2021-06-05T09:33:22.554Z</time>
      </trkpt>
      <trkpt lat="45.65922" lon="5.71611">
        <ele>688</ele>
        <time>2021-06-05T09:33:27.552Z</time>
      </trkpt>
      <trkpt lat="45.65922" lon="5.71608">
        <ele>688</ele>
        <time>2021-06-05T09:33:31.574Z</time>
      </trkpt>
      <trkpt lat="45.65923" lon="5.71597">
        <ele>684</ele>
        <time>2021-06-05T09:33:36.554Z</time>
      </trkpt>
      <trkpt lat="45.65923" lon="5.71586">
        <ele>684</ele>
        <time>2021-06-05T09:33:41.561Z</time>
      </trkpt>
      <trkpt lat="45.65922" lon="5.71581">
        <ele>684</ele>
        <time>2021-06-05T09:33:46.550Z</time>
      </trkpt>
      <trkpt lat="45.65919" lon="5.71574">
        <ele>684</ele>
        <time>2021-06-05T09:33:51.556Z</time>
      </trkpt>
      <trkpt lat="45.65919" lon="5.71564">
        <ele>680</ele>
        <time>2021-06-05T09:33:55.573Z</time>
      </trkpt>
      <trkpt lat="45.65915" lon="5.71554">
        <ele>680</ele>
        <time>2021-06-05T09:34:00.550Z</time>
      </trkpt>
      <trkpt lat="45.65913" lon="5.71549">
        <ele>680</ele>
        <time>2021-06-05T09:34:04.558Z</time>
      </trkpt>
      <trkpt lat="45.65913" lon="5.71548">
        <ele>680</ele>
        <time>2021-06-05T09:34:09.571Z</time>
      </trkpt>
      <trkpt lat="45.65908" lon="5.71537">
        <ele>676</ele>
        <time>2021-06-05T09:34:14.557Z</time>
      </trkpt>
      <trkpt lat="45.65905" lon="5.71532">
        <ele>676</ele>
        <time>2021-06-05T09:34:19.555Z</time>
      </trkpt>
      <trkpt lat="45.659" lon="5.71528">
        <ele>683</ele>
        <time>2021-06-05T09:34:23.574Z</time>
      </trkpt>
      <trkpt lat="45.65896" lon="5.71524">
        <ele>683</ele>
        <time>2021-06-05T09:34:28.543Z</time>
      </trkpt>
      <trkpt lat="45.65891" lon="5.71521">
        <ele>683</ele>
        <time>2021-06-05T09:34:32.574Z</time>
      </trkpt>
      <trkpt lat="45.65888" lon="5.71514">
        <ele>683</ele>
        <time>2021-06-05T09:34:37.558Z</time>
      </trkpt>
      <trkpt lat="45.65885" lon="5.71504">
        <ele>679</ele>
        <time>2021-06-05T09:34:42.562Z</time>
      </trkpt>
      <trkpt lat="45.65885" lon="5.71498">
        <ele>679</ele>
        <time>2021-06-05T09:34:47.555Z</time>
      </trkpt>
      <trkpt lat="45.65885" lon="5.71491">
        <ele>679</ele>
        <time>2021-06-05T09:34:52.555Z</time>
      </trkpt>
      <trkpt lat="45.65885" lon="5.71484">
        <ele>676</ele>
        <time>2021-06-05T09:34:57.573Z</time>
      </trkpt>
      <trkpt lat="45.65885" lon="5.71479">
        <ele>676</ele>
        <time>2021-06-05T09:35:02.556Z</time>
      </trkpt>
      <trkpt lat="45.65882" lon="5.71472">
        <ele>676</ele>
        <time>2021-06-05T09:35:07.551Z</time>
      </trkpt>
      <trkpt lat="45.6588" lon="5.71462">
        <ele>676</ele>
        <time>2021-06-05T09:35:12.549Z</time>
      </trkpt>
      <trkpt lat="45.6588" lon="5.71453">
        <ele>674</ele>
        <time>2021-06-05T09:35:16.562Z</time>
      </trkpt>
      <trkpt lat="45.65881" lon="5.71443">
        <ele>674</ele>
        <time>2021-06-05T09:35:21.549Z</time>
      </trkpt>
      <trkpt lat="45.65883" lon="5.71437">
        <ele>674</ele>
        <time>2021-06-05T09:35:25.579Z</time>
      </trkpt>
      <trkpt lat="45.65887" lon="5.71433">
        <ele>674</ele>
        <time>2021-06-05T09:35:30.556Z</time>
      </trkpt>
      <trkpt lat="45.65893" lon="5.71431">
        <ele>674</ele>
        <time>2021-06-05T09:35:35.555Z</time>
      </trkpt>
      <trkpt lat="45.659" lon="5.71428">
        <ele>673</ele>
        <time>2021-06-05T09:35:40.544Z</time>
      </trkpt>
      <trkpt lat="45.65902" lon="5.71424">
        <ele>673</ele>
        <time>2021-06-05T09:35:44.569Z</time>
      </trkpt>
      <trkpt lat="45.65902" lon="5.71418">
        <ele>673</ele>
        <time>2021-06-05T09:35:49.551Z</time>
      </trkpt>
      <trkpt lat="45.65902" lon="5.71414">
        <ele>673</ele>
        <time>2021-06-05T09:35:53.560Z</time>
      </trkpt>
      <trkpt lat="45.65902" lon="5.71406">
        <ele>673</ele>
        <time>2021-06-05T09:35:58.557Z</time>
      </trkpt>
      <trkpt lat="45.65899" lon="5.714">
        <ele>669</ele>
        <time>2021-06-05T09:36:03.572Z</time>
      </trkpt>
      <trkpt lat="45.65896" lon="5.71394">
        <ele>669</ele>
        <time>2021-06-05T09:36:08.553Z</time>
      </trkpt>
      <trkpt lat="45.65893" lon="5.71391">
        <ele>669</ele>
        <time>2021-06-05T09:36:12.557Z</time>
      </trkpt>
      <trkpt lat="45.65889" lon="5.7139">
        <ele>669</ele>
        <time>2021-06-05T09:36:17.568Z</time>
      </trkpt>
      <trkpt lat="45.65882" lon="5.71388">
        <ele>669</ele>
        <time>2021-06-05T09:36:22.571Z</time>
      </trkpt>
      <trkpt lat="45.65877" lon="5.71386">
        <ele>669</ele>
        <time>2021-06-05T09:36:27.578Z</time>
      </trkpt>
      <trkpt lat="45.65874" lon="5.71386">
        <ele>672</ele>
        <time>2021-06-05T09:36:32.554Z</time>
      </trkpt>
      <trkpt lat="45.65871" lon="5.71384">
        <ele>672</ele>
        <time>2021-06-05T09:36:36.571Z</time>
      </trkpt>
      <trkpt lat="45.65866" lon="5.71381">
        <ele>672</ele>
        <time>2021-06-05T09:36:41.554Z</time>
      </trkpt>
      <trkpt lat="45.65862" lon="5.71375">
        <ele>672</ele>
        <time>2021-06-05T09:36:46.558Z</time>
      </trkpt>
      <trkpt lat="45.6586" lon="5.7137">
        <ele>668</ele>
        <time>2021-06-05T09:36:51.560Z</time>
      </trkpt>
      <trkpt lat="45.65859" lon="5.71365">
        <ele>668</ele>
        <time>2021-06-05T09:36:56.562Z</time>
      </trkpt>
      <trkpt lat="45.65857" lon="5.7136">
        <ele>668</ele>
        <time>2021-06-05T09:37:01.551Z</time>
      </trkpt>
      <trkpt lat="45.65855" lon="5.71356">
        <ele>668</ele>
        <time>2021-06-05T09:37:06.553Z</time>
      </trkpt>
      <trkpt lat="45.65854" lon="5.71354">
        <ele>668</ele>
        <time>2021-06-05T09:37:11.572Z</time>
      </trkpt>
      <trkpt lat="45.65854" lon="5.71353">
        <ele>668</ele>
        <time>2021-06-05T09:37:16.569Z</time>
      </trkpt>
      <trkpt lat="45.65854" lon="5.71346">
        <ele>664</ele>
        <time>2021-06-05T09:37:21.558Z</time>
      </trkpt>
      <trkpt lat="45.65854" lon="5.71342">
        <ele>664</ele>
        <time>2021-06-05T09:37:26.559Z</time>
      </trkpt>
      <trkpt lat="45.65852" lon="5.7133">
        <ele>664</ele>
        <time>2021-06-05T09:37:31.548Z</time>
      </trkpt>
      <trkpt lat="45.65846" lon="5.71321">
        <ele>669</ele>
        <time>2021-06-05T09:37:36.555Z</time>
      </trkpt>
      <trkpt lat="45.6584" lon="5.71317">
        <ele>666</ele>
        <time>2021-06-05T09:37:40.566Z</time>
      </trkpt>
      <trkpt lat="45.65837" lon="5.71312">
        <ele>666</ele>
        <time>2021-06-05T09:37:45.570Z</time>
      </trkpt>
      <trkpt lat="45.65833" lon="5.71306">
        <ele>666</ele>
        <time>2021-06-05T09:37:50.548Z</time>
      </trkpt>
      <trkpt lat="45.65832" lon="5.713">
        <ele>666</ele>
        <time>2021-06-05T09:37:54.567Z</time>
      </trkpt>
      <trkpt lat="45.65831" lon="5.71299">
        <ele>666</ele>
        <time>2021-06-05T09:37:59.572Z</time>
      </trkpt>
      <trkpt lat="45.6583" lon="5.71296">
        <ele>666</ele>
        <time>2021-06-05T09:38:04.576Z</time>
      </trkpt>
      <trkpt lat="45.65829" lon="5.71285">
        <ele>663</ele>
        <time>2021-06-05T09:38:09.553Z</time>
      </trkpt>
      <trkpt lat="45.65827" lon="5.71279">
        <ele>663</ele>
        <time>2021-06-05T09:38:13.566Z</time>
      </trkpt>
      <trkpt lat="45.65824" lon="5.71259">
        <ele>662</ele>
        <time>2021-06-05T09:38:23.550Z</time>
      </trkpt>
      <trkpt lat="45.65824" lon="5.71257">
        <ele>662</ele>
        <time>2021-06-05T09:38:27.551Z</time>
      </trkpt>
      <trkpt lat="45.65824" lon="5.71254">
        <ele>662</ele>
        <time>2021-06-05T09:38:32.564Z</time>
      </trkpt>
      <trkpt lat="45.65824" lon="5.71252">
        <ele>662</ele>
        <time>2021-06-05T09:38:37.558Z</time>
      </trkpt>
      <trkpt lat="45.65825" lon="5.7125">
        <ele>662</ele>
        <time>2021-06-05T09:38:42.582Z</time>
      </trkpt>
      <trkpt lat="45.65824" lon="5.71239">
        <ele>662</ele>
        <time>2021-06-05T09:38:47.556Z</time>
      </trkpt>
      <trkpt lat="45.65824" lon="5.71226">
        <ele>661</ele>
        <time>2021-06-05T09:38:51.571Z</time>
      </trkpt>
      <trkpt lat="45.65824" lon="5.71211">
        <ele>661</ele>
        <time>2021-06-05T09:38:56.553Z</time>
      </trkpt>
      <trkpt lat="45.65825" lon="5.71198">
        <ele>659</ele>
        <time>2021-06-05T09:39:01.571Z</time>
      </trkpt>
      <trkpt lat="45.65827" lon="5.71191">
        <ele>659</ele>
        <time>2021-06-05T09:39:06.568Z</time>
      </trkpt>
      <trkpt lat="45.65831" lon="5.71187">
        <ele>659</ele>
        <time>2021-06-05T09:39:11.571Z</time>
      </trkpt>
      <trkpt lat="45.65838" lon="5.71187">
        <ele>659</ele>
        <time>2021-06-05T09:39:16.562Z</time>
      </trkpt>
      <trkpt lat="45.65839" lon="5.71188">
        <ele>659</ele>
        <time>2021-06-05T09:39:21.569Z</time>
      </trkpt>
      <trkpt lat="45.65842" lon="5.71186">
        <ele>659</ele>
        <time>2021-06-05T09:39:26.562Z</time>
      </trkpt>
      <trkpt lat="45.65844" lon="5.71185">
        <ele>659</ele>
        <time>2021-06-05T09:39:30.572Z</time>
      </trkpt>
      <trkpt lat="45.65849" lon="5.71181">
        <ele>655</ele>
        <time>2021-06-05T09:39:35.559Z</time>
      </trkpt>
      <trkpt lat="45.65852" lon="5.71177">
        <ele>653</ele>
        <time>2021-06-05T09:39:39.584Z</time>
      </trkpt>
      <trkpt lat="45.65849" lon="5.71171">
        <ele>653</ele>
        <time>2021-06-05T09:39:44.561Z</time>
      </trkpt>
      <trkpt lat="45.65851" lon="5.71166">
        <ele>653</ele>
        <time>2021-06-05T09:39:49.554Z</time>
      </trkpt>
      <trkpt lat="45.65857" lon="5.71157">
        <ele>653</ele>
        <time>2021-06-05T09:39:54.566Z</time>
      </trkpt>
      <trkpt lat="45.65862" lon="5.71155">
        <ele>653</ele>
        <time>2021-06-05T09:39:59.555Z</time>
      </trkpt>
      <trkpt lat="45.65863" lon="5.71157">
        <ele>653</ele>
        <time>2021-06-05T09:40:04.548Z</time>
      </trkpt>
      <trkpt lat="45.65868" lon="5.71164">
        <ele>653</ele>
        <time>2021-06-05T09:40:08.577Z</time>
      </trkpt>
      <trkpt lat="45.65875" lon="5.71173">
        <ele>646</ele>
        <time>2021-06-05T09:40:13.544Z</time>
      </trkpt>
      <trkpt lat="45.6588" lon="5.71178">
        <ele>646</ele>
        <time>2021-06-05T09:40:17.558Z</time>
      </trkpt>
      <trkpt lat="45.65887" lon="5.71186">
        <ele>649</ele>
        <time>2021-06-05T09:40:22.553Z</time>
      </trkpt>
      <trkpt lat="45.6589" lon="5.71192">
        <ele>649</ele>
        <time>2021-06-05T09:40:26.571Z</time>
      </trkpt>
      <trkpt lat="45.65893" lon="5.712">
        <ele>649</ele>
        <time>2021-06-05T09:40:31.567Z</time>
      </trkpt>
      <trkpt lat="45.65895" lon="5.71206">
        <ele>649</ele>
        <time>2021-06-05T09:40:36.578Z</time>
      </trkpt>
      <trkpt lat="45.65898" lon="5.71214">
        <ele>652</ele>
        <time>2021-06-05T09:40:41.562Z</time>
      </trkpt>
      <trkpt lat="45.65902" lon="5.71221">
        <ele>652</ele>
        <time>2021-06-05T09:40:46.567Z</time>
      </trkpt>
      <trkpt lat="45.65905" lon="5.71226">
        <ele>647</ele>
        <time>2021-06-05T09:40:51.555Z</time>
      </trkpt>
      <trkpt lat="45.6591" lon="5.71233">
        <ele>647</ele>
        <time>2021-06-05T09:40:56.558Z</time>
      </trkpt>
      <trkpt lat="45.65914" lon="5.71239">
        <ele>650</ele>
        <time>2021-06-05T09:41:01.558Z</time>
      </trkpt>
      <trkpt lat="45.65917" lon="5.71247">
        <ele>650</ele>
        <time>2021-06-05T09:41:05.564Z</time>
      </trkpt>
      <trkpt lat="45.65921" lon="5.71254">
        <ele>650</ele>
        <time>2021-06-05T09:41:10.542Z</time>
      </trkpt>
      <trkpt lat="45.65923" lon="5.71256">
        <ele>650</ele>
        <time>2021-06-05T09:41:14.564Z</time>
      </trkpt>
      <trkpt lat="45.6593" lon="5.71262">
        <ele>650</ele>
        <time>2021-06-05T09:41:19.561Z</time>
      </trkpt>
      <trkpt lat="45.65934" lon="5.71269">
        <ele>650</ele>
        <time>2021-06-05T09:41:24.548Z</time>
      </trkpt>
      <trkpt lat="45.65938" lon="5.71276">
        <ele>650</ele>
        <time>2021-06-05T09:41:29.553Z</time>
      </trkpt>
      <trkpt lat="45.65944" lon="5.71282">
        <ele>650</ele>
        <time>2021-06-05T09:41:34.556Z</time>
      </trkpt>
      <trkpt lat="45.65947" lon="5.71288">
        <ele>650</ele>
        <time>2021-06-05T09:41:39.568Z</time>
      </trkpt>
      <trkpt lat="45.65949" lon="5.71294">
        <ele>650</ele>
        <time>2021-06-05T09:41:44.561Z</time>
      </trkpt>
      <trkpt lat="45.65949" lon="5.71295">
        <ele>650</ele>
        <time>2021-06-05T09:41:49.560Z</time>
      </trkpt>
      <trkpt lat="45.65954" lon="5.71304">
        <ele>650</ele>
        <time>2021-06-05T09:41:54.565Z</time>
      </trkpt>
      <trkpt lat="45.65956" lon="5.71313">
        <ele>650</ele>
        <time>2021-06-05T09:41:58.575Z</time>
      </trkpt>
      <trkpt lat="45.65956" lon="5.71315">
        <ele>650</ele>
        <time>2021-06-05T09:42:03.566Z</time>
      </trkpt>
      <trkpt lat="45.6596" lon="5.71324">
        <ele>646</ele>
        <time>2021-06-05T09:42:08.565Z</time>
      </trkpt>
      <trkpt lat="45.65963" lon="5.71336">
        <ele>646</ele>
        <time>2021-06-05T09:42:13.567Z</time>
      </trkpt>
      <trkpt lat="45.65966" lon="5.71345">
        <ele>646</ele>
        <time>2021-06-05T09:42:17.581Z</time>
      </trkpt>
      <trkpt lat="45.65969" lon="5.71352">
        <ele>645</ele>
        <time>2021-06-05T09:42:22.569Z</time>
      </trkpt>
      <trkpt lat="45.65971" lon="5.71358">
        <ele>645</ele>
        <time>2021-06-05T09:42:27.563Z</time>
      </trkpt>
      <trkpt lat="45.65973" lon="5.71367">
        <ele>645</ele>
        <time>2021-06-05T09:42:32.546Z</time>
      </trkpt>
      <trkpt lat="45.65976" lon="5.71374">
        <ele>645</ele>
        <time>2021-06-05T09:42:37.574Z</time>
      </trkpt>
      <trkpt lat="45.65978" lon="5.71378">
        <ele>645</ele>
        <time>2021-06-05T09:42:42.549Z</time>
      </trkpt>
      <trkpt lat="45.65982" lon="5.71383">
        <ele>645</ele>
        <time>2021-06-05T09:42:46.550Z</time>
      </trkpt>
      <trkpt lat="45.65985" lon="5.71391">
        <ele>645</ele>
        <time>2021-06-05T09:42:51.553Z</time>
      </trkpt>
      <trkpt lat="45.65986" lon="5.714">
        <ele>643</ele>
        <time>2021-06-05T09:42:56.574Z</time>
      </trkpt>
      <trkpt lat="45.65988" lon="5.71407">
        <ele>644</ele>
        <time>2021-06-05T09:43:01.550Z</time>
      </trkpt>
      <trkpt lat="45.65989" lon="5.71417">
        <ele>644</ele>
        <time>2021-06-05T09:43:06.541Z</time>
      </trkpt>
      <trkpt lat="45.65992" lon="5.71423">
        <ele>644</ele>
        <time>2021-06-05T09:43:10.558Z</time>
      </trkpt>
      <trkpt lat="45.65997" lon="5.71425">
        <ele>644</ele>
        <time>2021-06-05T09:43:15.572Z</time>
      </trkpt>
      <trkpt lat="45.66" lon="5.71423">
        <ele>644</ele>
        <time>2021-06-05T09:43:20.567Z</time>
      </trkpt>
      <trkpt lat="45.66005" lon="5.71417">
        <ele>644</ele>
        <time>2021-06-05T09:43:25.564Z</time>
      </trkpt>
      <trkpt lat="45.66009" lon="5.71409">
        <ele>644</ele>
        <time>2021-06-05T09:43:30.571Z</time>
      </trkpt>
      <trkpt lat="45.66012" lon="5.71401">
        <ele>643</ele>
        <time>2021-06-05T09:43:35.555Z</time>
      </trkpt>
      <trkpt lat="45.66013" lon="5.71397">
        <ele>643</ele>
        <time>2021-06-05T09:43:40.563Z</time>
      </trkpt>
      <trkpt lat="45.66014" lon="5.71396">
        <ele>643</ele>
        <time>2021-06-05T09:43:45.556Z</time>
      </trkpt>
      <trkpt lat="45.66014" lon="5.71392">
        <ele>642</ele>
        <time>2021-06-05T09:43:50.571Z</time>
      </trkpt>
      <trkpt lat="45.66016" lon="5.71384">
        <ele>642</ele>
        <time>2021-06-05T09:43:55.563Z</time>
      </trkpt>
      <trkpt lat="45.66017" lon="5.71369">
        <ele>641</ele>
        <time>2021-06-05T09:44:00.555Z</time>
      </trkpt>
      <trkpt lat="45.66018" lon="5.71358">
        <ele>641</ele>
        <time>2021-06-05T09:44:04.568Z</time>
      </trkpt>
      <trkpt lat="45.66018" lon="5.71346">
        <ele>641</ele>
        <time>2021-06-05T09:44:09.565Z</time>
      </trkpt>
      <trkpt lat="45.66019" lon="5.71336">
        <ele>641</ele>
        <time>2021-06-05T09:44:14.559Z</time>
      </trkpt>
      <trkpt lat="45.66022" lon="5.7133">
        <ele>641</ele>
        <time>2021-06-05T09:44:19.575Z</time>
      </trkpt>
      <trkpt lat="45.66022" lon="5.71329">
        <ele>641</ele>
        <time>2021-06-05T09:44:24.561Z</time>
      </trkpt>
      <trkpt lat="45.66027" lon="5.71322">
        <ele>641</ele>
        <time>2021-06-05T09:44:29.559Z</time>
      </trkpt>
      <trkpt lat="45.66033" lon="5.71311">
        <ele>641</ele>
        <time>2021-06-05T09:44:34.534Z</time>
      </trkpt>
      <trkpt lat="45.66037" lon="5.71306">
        <ele>641</ele>
        <time>2021-06-05T09:44:39.545Z</time>
      </trkpt>
      <trkpt lat="45.66038" lon="5.71305">
        <ele>641</ele>
        <time>2021-06-05T09:44:44.536Z</time>
      </trkpt>
      <trkpt lat="45.66043" lon="5.71297">
        <ele>634</ele>
        <time>2021-06-05T09:44:49.593Z</time>
      </trkpt>
      <trkpt lat="45.66045" lon="5.71296">
        <ele>634</ele>
        <time>2021-06-05T09:44:54.540Z</time>
      </trkpt>
      <trkpt lat="45.6605" lon="5.71289">
        <ele>635</ele>
        <time>2021-06-05T09:44:58.560Z</time>
      </trkpt>
      <trkpt lat="45.66052" lon="5.71288">
        <ele>635</ele>
        <time>2021-06-05T09:45:03.556Z</time>
      </trkpt>
      <trkpt lat="45.66058" lon="5.71283">
        <ele>635</ele>
        <time>2021-06-05T09:45:08.540Z</time>
      </trkpt>
      <trkpt lat="45.66068" lon="5.71271">
        <ele>635</ele>
        <time>2021-06-05T09:45:13.535Z</time>
      </trkpt>
      <trkpt lat="45.66073" lon="5.7127">
        <ele>631</ele>
        <time>2021-06-05T09:45:17.557Z</time>
      </trkpt>
      <trkpt lat="45.66082" lon="5.71276">
        <ele>631</ele>
        <time>2021-06-05T09:45:22.526Z</time>
      </trkpt>
      <trkpt lat="45.66086" lon="5.71282">
        <ele>631</ele>
        <time>2021-06-05T09:45:26.547Z</time>
      </trkpt>
      <trkpt lat="45.66095" lon="5.71289">
        <ele>631</ele>
        <time>2021-06-05T09:45:31.549Z</time>
      </trkpt>
      <trkpt lat="45.66101" lon="5.71292">
        <ele>628</ele>
        <time>2021-06-05T09:45:36.540Z</time>
      </trkpt>
      <trkpt lat="45.66103" lon="5.71292">
        <ele>628</ele>
        <time>2021-06-05T09:45:40.560Z</time>
      </trkpt>
      <trkpt lat="45.66104" lon="5.71292">
        <ele>628</ele>
        <time>2021-06-05T09:45:45.536Z</time>
      </trkpt>
      <trkpt lat="45.66108" lon="5.71293">
        <ele>628</ele>
        <time>2021-06-05T09:45:50.551Z</time>
      </trkpt>
      <trkpt lat="45.66115" lon="5.71296">
        <ele>628</ele>
        <time>2021-06-05T09:45:55.550Z</time>
      </trkpt>
      <trkpt lat="45.66117" lon="5.71297">
        <ele>628</ele>
        <time>2021-06-05T09:46:00.529Z</time>
      </trkpt>
      <trkpt lat="45.66118" lon="5.71297">
        <ele>628</ele>
        <time>2021-06-05T09:46:04.542Z</time>
      </trkpt>
      <trkpt lat="45.66122" lon="5.71298">
        <ele>628</ele>
        <time>2021-06-05T09:46:09.539Z</time>
      </trkpt>
      <trkpt lat="45.66129" lon="5.71299">
        <ele>627</ele>
        <time>2021-06-05T09:46:13.540Z</time>
      </trkpt>
      <trkpt lat="45.66136" lon="5.713">
        <ele>627</ele>
        <time>2021-06-05T09:46:18.533Z</time>
      </trkpt>
      <trkpt lat="45.66137" lon="5.71301">
        <ele>627</ele>
        <time>2021-06-05T09:46:23.548Z</time>
      </trkpt>
      <trkpt lat="45.66146" lon="5.71311">
        <ele>627</ele>
        <time>2021-06-05T09:46:28.527Z</time>
      </trkpt>
      <trkpt lat="45.66152" lon="5.71312">
        <ele>627</ele>
        <time>2021-06-05T09:46:33.553Z</time>
      </trkpt>
      <trkpt lat="45.66161" lon="5.71314">
        <ele>625</ele>
        <time>2021-06-05T09:47:12.537Z</time>
      </trkpt>
      <trkpt lat="45.66161" lon="5.71314">
        <ele>625</ele>
        <time>2021-06-05T09:47:17.502Z</time>
      </trkpt>
      <trkpt lat="45.66161" lon="5.71314">
        <ele>625</ele>
        <time>2021-06-05T09:47:22.509Z</time>
      </trkpt>
      <trkpt lat="45.66163" lon="5.71314">
        <ele>625</ele>
        <time>2021-06-05T09:47:27.500Z</time>
      </trkpt>
      <trkpt lat="45.66169" lon="5.71316">
        <ele>625</ele>
        <time>2021-06-05T09:47:31.493Z</time>
      </trkpt>
      <trkpt lat="45.66177" lon="5.71316">
        <ele>625</ele>
        <time>2021-06-05T09:47:35.555Z</time>
      </trkpt>
      <trkpt lat="45.66186" lon="5.71319">
        <ele>623</ele>
        <time>2021-06-05T09:47:40.538Z</time>
      </trkpt>
      <trkpt lat="45.66189" lon="5.71319">
        <ele>623</ele>
        <time>2021-06-05T09:47:44.554Z</time>
      </trkpt>
      <trkpt lat="45.6619" lon="5.7132">
        <ele>624</ele>
        <time>2021-06-05T09:47:49.555Z</time>
      </trkpt>
      <trkpt lat="45.66193" lon="5.71322">
        <ele>624</ele>
        <time>2021-06-05T09:47:54.544Z</time>
      </trkpt>
      <trkpt lat="45.66198" lon="5.71326">
        <ele>624</ele>
        <time>2021-06-05T09:47:59.553Z</time>
      </trkpt>
      <trkpt lat="45.66199" lon="5.71327">
        <ele>624</ele>
        <time>2021-06-05T09:48:04.543Z</time>
      </trkpt>
      <trkpt lat="45.66202" lon="5.71334">
        <ele>624</ele>
        <time>2021-06-05T09:48:09.552Z</time>
      </trkpt>
      <trkpt lat="45.66211" lon="5.71342">
        <ele>619</ele>
        <time>2021-06-05T09:48:14.554Z</time>
      </trkpt>
      <trkpt lat="45.66219" lon="5.71346">
        <ele>619</ele>
        <time>2021-06-05T09:48:19.561Z</time>
      </trkpt>
      <trkpt lat="45.66223" lon="5.71349">
        <ele>620</ele>
        <time>2021-06-05T09:48:24.558Z</time>
      </trkpt>
      <trkpt lat="45.66231" lon="5.71357">
        <ele>620</ele>
        <time>2021-06-05T09:48:29.538Z</time>
      </trkpt>
      <trkpt lat="45.66237" lon="5.71364">
        <ele>614</ele>
        <time>2021-06-05T09:48:34.541Z</time>
      </trkpt>
      <trkpt lat="45.66239" lon="5.71365">
        <ele>614</ele>
        <time>2021-06-05T09:48:39.541Z</time>
      </trkpt>
      <trkpt lat="45.66241" lon="5.71366">
        <ele>614</ele>
        <time>2021-06-05T09:48:44.549Z</time>
      </trkpt>
      <trkpt lat="45.66244" lon="5.71368">
        <ele>614</ele>
        <time>2021-06-05T09:48:49.563Z</time>
      </trkpt>
      <trkpt lat="45.66252" lon="5.71377">
        <ele>614</ele>
        <time>2021-06-05T09:48:54.544Z</time>
      </trkpt>
      <trkpt lat="45.66259" lon="5.71384">
        <ele>614</ele>
        <time>2021-06-05T09:48:59.535Z</time>
      </trkpt>
      <trkpt lat="45.66267" lon="5.71389">
        <ele>610</ele>
        <time>2021-06-05T09:49:03.539Z</time>
      </trkpt>
      <trkpt lat="45.66273" lon="5.7139">
        <ele>610</ele>
        <time>2021-06-05T09:49:07.553Z</time>
      </trkpt>
      <trkpt lat="45.66279" lon="5.7139">
        <ele>610</ele>
        <time>2021-06-05T09:49:12.553Z</time>
      </trkpt>
      <trkpt lat="45.66284" lon="5.7139">
        <ele>610</ele>
        <time>2021-06-05T09:49:17.539Z</time>
      </trkpt>
      <trkpt lat="45.66294" lon="5.71391">
        <ele>608</ele>
        <time>2021-06-05T09:49:22.545Z</time>
      </trkpt>
      <trkpt lat="45.66302" lon="5.71398">
        <ele>608</ele>
        <time>2021-06-05T09:49:27.535Z</time>
      </trkpt>
      <trkpt lat="45.66305" lon="5.71401">
        <ele>608</ele>
        <time>2021-06-05T09:49:32.541Z</time>
      </trkpt>
      <trkpt lat="45.6631" lon="5.71405">
        <ele>606</ele>
        <time>2021-06-05T09:49:37.547Z</time>
      </trkpt>
      <trkpt lat="45.66313" lon="5.71409">
        <ele>606</ele>
        <time>2021-06-05T09:49:42.539Z</time>
      </trkpt>
      <trkpt lat="45.66318" lon="5.71412">
        <ele>606</ele>
        <time>2021-06-05T09:49:46.545Z</time>
      </trkpt>
      <trkpt lat="45.66323" lon="5.71415">
        <ele>604</ele>
        <time>2021-06-05T09:49:51.545Z</time>
      </trkpt>
      <trkpt lat="45.66328" lon="5.71419">
        <ele>604</ele>
        <time>2021-06-05T09:49:56.539Z</time>
      </trkpt>
      <trkpt lat="45.66333" lon="5.71423">
        <ele>604</ele>
        <time>2021-06-05T09:50:01.544Z</time>
      </trkpt>
      <trkpt lat="45.66339" lon="5.71425">
        <ele>604</ele>
        <time>2021-06-05T09:50:06.544Z</time>
      </trkpt>
      <trkpt lat="45.66345" lon="5.71426">
        <ele>604</ele>
        <time>2021-06-05T09:50:11.547Z</time>
      </trkpt>
      <trkpt lat="45.66352" lon="5.71428">
        <ele>603</ele>
        <time>2021-06-05T09:50:16.537Z</time>
      </trkpt>
      <trkpt lat="45.66358" lon="5.71429">
        <ele>603</ele>
        <time>2021-06-05T09:50:21.530Z</time>
      </trkpt>
      <trkpt lat="45.66364" lon="5.71431">
        <ele>600</ele>
        <time>2021-06-05T09:50:25.541Z</time>
      </trkpt>
      <trkpt lat="45.66371" lon="5.71433">
        <ele>600</ele>
        <time>2021-06-05T09:50:30.536Z</time>
      </trkpt>
      <trkpt lat="45.66377" lon="5.71437">
        <ele>599</ele>
        <time>2021-06-05T09:50:35.550Z</time>
      </trkpt>
      <trkpt lat="45.66384" lon="5.71443">
        <ele>599</ele>
        <time>2021-06-05T09:50:40.539Z</time>
      </trkpt>
      <trkpt lat="45.66388" lon="5.7145">
        <ele>599</ele>
        <time>2021-06-05T09:50:44.553Z</time>
      </trkpt>
      <trkpt lat="45.66392" lon="5.71455">
        <ele>599</ele>
        <time>2021-06-05T09:50:49.541Z</time>
      </trkpt>
      <trkpt lat="45.66398" lon="5.71464">
        <ele>597</ele>
        <time>2021-06-05T09:50:54.553Z</time>
      </trkpt>
      <trkpt lat="45.66403" lon="5.7147">
        <ele>599</ele>
        <time>2021-06-05T09:50:59.538Z</time>
      </trkpt>
      <trkpt lat="45.66409" lon="5.71475">
        <ele>599</ele>
        <time>2021-06-05T09:51:03.549Z</time>
      </trkpt>
      <trkpt lat="45.66413" lon="5.71476">
        <ele>599</ele>
        <time>2021-06-05T09:51:08.541Z</time>
      </trkpt>
      <trkpt lat="45.66419" lon="5.71477">
        <ele>599</ele>
        <time>2021-06-05T09:51:13.539Z</time>
      </trkpt>
      <trkpt lat="45.66426" lon="5.71478">
        <ele>599</ele>
        <time>2021-06-05T09:51:17.549Z</time>
      </trkpt>
      <trkpt lat="45.66434" lon="5.71476">
        <ele>600</ele>
        <time>2021-06-05T09:51:22.545Z</time>
      </trkpt>
      <trkpt lat="45.66442" lon="5.71477">
        <ele>600</ele>
        <time>2021-06-05T09:51:27.540Z</time>
      </trkpt>
      <trkpt lat="45.66447" lon="5.71478">
        <ele>600</ele>
        <time>2021-06-05T09:51:32.542Z</time>
      </trkpt>
      <trkpt lat="45.66451" lon="5.71479">
        <ele>600</ele>
        <time>2021-06-05T09:51:37.544Z</time>
      </trkpt>
      <trkpt lat="45.66458" lon="5.71482">
        <ele>600</ele>
        <time>2021-06-05T09:51:42.562Z</time>
      </trkpt>
      <trkpt lat="45.66463" lon="5.71486">
        <ele>598</ele>
        <time>2021-06-05T09:51:47.541Z</time>
      </trkpt>
      <trkpt lat="45.66468" lon="5.7149">
        <ele>598</ele>
        <time>2021-06-05T09:51:51.552Z</time>
      </trkpt>
      <trkpt lat="45.66474" lon="5.71494">
        <ele>598</ele>
        <time>2021-06-05T09:51:56.541Z</time>
      </trkpt>
      <trkpt lat="45.66481" lon="5.71502">
        <ele>598</ele>
        <time>2021-06-05T09:52:01.551Z</time>
      </trkpt>
      <trkpt lat="45.66488" lon="5.71511">
        <ele>595</ele>
        <time>2021-06-05T09:52:06.555Z</time>
      </trkpt>
      <trkpt lat="45.66493" lon="5.71519">
        <ele>595</ele>
        <time>2021-06-05T09:52:11.534Z</time>
      </trkpt>
      <trkpt lat="45.66499" lon="5.71528">
        <ele>595</ele>
        <time>2021-06-05T09:52:16.559Z</time>
      </trkpt>
      <trkpt lat="45.66503" lon="5.7154">
        <ele>595</ele>
        <time>2021-06-05T09:52:21.547Z</time>
      </trkpt>
      <trkpt lat="45.66507" lon="5.71549">
        <ele>595</ele>
        <time>2021-06-05T09:52:26.534Z</time>
      </trkpt>
      <trkpt lat="45.66511" lon="5.71553">
        <ele>595</ele>
        <time>2021-06-05T09:52:30.546Z</time>
      </trkpt>
      <trkpt lat="45.66517" lon="5.71556">
        <ele>590</ele>
        <time>2021-06-05T09:52:35.537Z</time>
      </trkpt>
      <trkpt lat="45.66525" lon="5.71558">
        <ele>590</ele>
        <time>2021-06-05T09:52:40.538Z</time>
      </trkpt>
      <trkpt lat="45.66532" lon="5.71563">
        <ele>590</ele>
        <time>2021-06-05T09:52:45.546Z</time>
      </trkpt>
      <trkpt lat="45.66539" lon="5.71566">
        <ele>590</ele>
        <time>2021-06-05T09:52:50.536Z</time>
      </trkpt>
      <trkpt lat="45.66544" lon="5.71569">
        <ele>587</ele>
        <time>2021-06-05T09:52:55.538Z</time>
      </trkpt>
      <trkpt lat="45.66551" lon="5.7157">
        <ele>587</ele>
        <time>2021-06-05T09:53:00.534Z</time>
      </trkpt>
      <trkpt lat="45.66558" lon="5.71569">
        <ele>587</ele>
        <time>2021-06-05T09:53:04.533Z</time>
      </trkpt>
      <trkpt lat="45.66566" lon="5.71571">
        <ele>587</ele>
        <time>2021-06-05T09:53:09.535Z</time>
      </trkpt>
      <trkpt lat="45.66575" lon="5.71575">
        <ele>584</ele>
        <time>2021-06-05T09:53:14.563Z</time>
      </trkpt>
      <trkpt lat="45.66581" lon="5.71581">
        <ele>584</ele>
        <time>2021-06-05T09:53:19.547Z</time>
      </trkpt>
      <trkpt lat="45.66588" lon="5.71585">
        <ele>584</ele>
        <time>2021-06-05T09:53:24.536Z</time>
      </trkpt>
      <trkpt lat="45.66592" lon="5.71591">
        <ele>584</ele>
        <time>2021-06-05T09:53:28.560Z</time>
      </trkpt>
      <trkpt lat="45.666" lon="5.71597">
        <ele>579</ele>
        <time>2021-06-05T09:53:33.545Z</time>
      </trkpt>
      <trkpt lat="45.66608" lon="5.71606">
        <ele>580</ele>
        <time>2021-06-05T09:53:38.535Z</time>
      </trkpt>
      <trkpt lat="45.66615" lon="5.7161">
        <ele>580</ele>
        <time>2021-06-05T09:53:42.548Z</time>
      </trkpt>
      <trkpt lat="45.6662" lon="5.71612">
        <ele>580</ele>
        <time>2021-06-05T09:53:47.538Z</time>
      </trkpt>
      <trkpt lat="45.66625" lon="5.71618">
        <ele>580</ele>
        <time>2021-06-05T09:53:52.540Z</time>
      </trkpt>
      <trkpt lat="45.6663" lon="5.71626">
        <ele>575</ele>
        <time>2021-06-05T09:53:57.534Z</time>
      </trkpt>
      <trkpt lat="45.66633" lon="5.71637">
        <ele>575</ele>
        <time>2021-06-05T09:54:02.537Z</time>
      </trkpt>
      <trkpt lat="45.66637" lon="5.71645">
        <ele>575</ele>
        <time>2021-06-05T09:54:06.546Z</time>
      </trkpt>
      <trkpt lat="45.66641" lon="5.71655">
        <ele>575</ele>
        <time>2021-06-05T09:54:11.536Z</time>
      </trkpt>
      <trkpt lat="45.66645" lon="5.71661">
        <ele>575</ele>
        <time>2021-06-05T09:54:15.547Z</time>
      </trkpt>
      <trkpt lat="45.66649" lon="5.71668">
        <ele>575</ele>
        <time>2021-06-05T09:54:20.541Z</time>
      </trkpt>
      <trkpt lat="45.66654" lon="5.71675">
        <ele>572</ele>
        <time>2021-06-05T09:54:25.547Z</time>
      </trkpt>
      <trkpt lat="45.66658" lon="5.71682">
        <ele>573</ele>
        <time>2021-06-05T09:54:30.534Z</time>
      </trkpt>
      <trkpt lat="45.66662" lon="5.71687">
        <ele>573</ele>
        <time>2021-06-05T09:54:34.561Z</time>
      </trkpt>
      <trkpt lat="45.66667" lon="5.71695">
        <ele>573</ele>
        <time>2021-06-05T09:54:39.537Z</time>
      </trkpt>
      <trkpt lat="45.66672" lon="5.71704">
        <ele>573</ele>
        <time>2021-06-05T09:54:44.530Z</time>
      </trkpt>
      <trkpt lat="45.66673" lon="5.71711">
        <ele>572</ele>
        <time>2021-06-05T09:54:49.533Z</time>
      </trkpt>
      <trkpt lat="45.66675" lon="5.7172">
        <ele>572</ele>
        <time>2021-06-05T09:54:54.533Z</time>
      </trkpt>
      <trkpt lat="45.66677" lon="5.71729">
        <ele>572</ele>
        <time>2021-06-05T09:54:59.553Z</time>
      </trkpt>
      <trkpt lat="45.66675" lon="5.71745">
        <ele>571</ele>
        <time>2021-06-05T09:55:04.534Z</time>
      </trkpt>
      <trkpt lat="45.66674" lon="5.71761">
        <ele>571</ele>
        <time>2021-06-05T09:55:09.542Z</time>
      </trkpt>
      <trkpt lat="45.66676" lon="5.71774">
        <ele>571</ele>
        <time>2021-06-05T09:55:14.540Z</time>
      </trkpt>
      <trkpt lat="45.66675" lon="5.71779">
        <ele>571</ele>
        <time>2021-06-05T09:55:19.542Z</time>
      </trkpt>
      <trkpt lat="45.66674" lon="5.71782">
        <ele>571</ele>
        <time>2021-06-05T09:55:47.536Z</time>
      </trkpt>
      <trkpt lat="45.66674" lon="5.71782">
        <ele>571</ele>
        <time>2021-06-05T09:55:52.515Z</time>
      </trkpt>
      <trkpt lat="45.66674" lon="5.71782">
        <ele>571</ele>
        <time>2021-06-05T09:55:57.503Z</time>
      </trkpt>
      <trkpt lat="45.66673" lon="5.71786">
        <ele>571</ele>
        <time>2021-06-05T09:56:02.510Z</time>
      </trkpt>
      <trkpt lat="45.66675" lon="5.71796">
        <ele>570</ele>
        <time>2021-06-05T09:56:06.544Z</time>
      </trkpt>
      <trkpt lat="45.66676" lon="5.7181">
        <ele>570</ele>
        <time>2021-06-05T09:56:11.536Z</time>
      </trkpt>
      <trkpt lat="45.66676" lon="5.71816">
        <ele>570</ele>
        <time>2021-06-05T09:56:16.549Z</time>
      </trkpt>
      <trkpt lat="45.66678" lon="5.71821">
        <ele>569</ele>
        <time>2021-06-05T09:56:21.548Z</time>
      </trkpt>
      <trkpt lat="45.66679" lon="5.7183">
        <ele>569</ele>
        <time>2021-06-05T09:56:26.533Z</time>
      </trkpt>
      <trkpt lat="45.66681" lon="5.7184">
        <ele>567</ele>
        <time>2021-06-05T09:56:31.535Z</time>
      </trkpt>
      <trkpt lat="45.66684" lon="5.71851">
        <ele>565</ele>
        <time>2021-06-05T09:56:36.531Z</time>
      </trkpt>
      <trkpt lat="45.66687" lon="5.71862">
        <ele>565</ele>
        <time>2021-06-05T09:56:41.534Z</time>
      </trkpt>
      <trkpt lat="45.66687" lon="5.71871">
        <ele>565</ele>
        <time>2021-06-05T09:56:45.536Z</time>
      </trkpt>
      <trkpt lat="45.66686" lon="5.71878">
        <ele>562</ele>
        <time>2021-06-05T09:56:50.530Z</time>
      </trkpt>
      <trkpt lat="45.66685" lon="5.71886">
        <ele>562</ele>
        <time>2021-06-05T09:56:54.549Z</time>
      </trkpt>
      <trkpt lat="45.66684" lon="5.71891">
        <ele>562</ele>
        <time>2021-06-05T09:56:59.540Z</time>
      </trkpt>
      <trkpt lat="45.66684" lon="5.71902">
        <ele>562</ele>
        <time>2021-06-05T09:57:04.553Z</time>
      </trkpt>
      <trkpt lat="45.66686" lon="5.71914">
        <ele>557</ele>
        <time>2021-06-05T09:57:09.533Z</time>
      </trkpt>
      <trkpt lat="45.66687" lon="5.71921">
        <ele>557</ele>
        <time>2021-06-05T09:57:13.549Z</time>
      </trkpt>
      <trkpt lat="45.66688" lon="5.71928">
        <ele>557</ele>
        <time>2021-06-05T09:57:18.542Z</time>
      </trkpt>
      <trkpt lat="45.66691" lon="5.71936">
        <ele>553</ele>
        <time>2021-06-05T09:57:23.532Z</time>
      </trkpt>
      <trkpt lat="45.66692" lon="5.71943">
        <ele>553</ele>
        <time>2021-06-05T09:57:27.539Z</time>
      </trkpt>
      <trkpt lat="45.66694" lon="5.71954">
        <ele>553</ele>
        <time>2021-06-05T09:57:32.549Z</time>
      </trkpt>
      <trkpt lat="45.66694" lon="5.71959">
        <ele>551</ele>
        <time>2021-06-05T09:57:37.536Z</time>
      </trkpt>
      <trkpt lat="45.66694" lon="5.71968">
        <ele>551</ele>
        <time>2021-06-05T09:57:42.530Z</time>
      </trkpt>
      <trkpt lat="45.66693" lon="5.71975">
        <ele>551</ele>
        <time>2021-06-05T09:57:46.550Z</time>
      </trkpt>
      <trkpt lat="45.66689" lon="5.71987">
        <ele>550</ele>
        <time>2021-06-05T09:57:51.540Z</time>
      </trkpt>
      <trkpt lat="45.66684" lon="5.71993">
        <ele>550</ele>
        <time>2021-06-05T09:57:56.549Z</time>
      </trkpt>
      <trkpt lat="45.6668" lon="5.71997">
        <ele>549</ele>
        <time>2021-06-05T09:58:01.533Z</time>
      </trkpt>
      <trkpt lat="45.66676" lon="5.72001">
        <ele>549</ele>
        <time>2021-06-05T09:58:05.545Z</time>
      </trkpt>
      <trkpt lat="45.6667" lon="5.72001">
        <ele>549</ele>
        <time>2021-06-05T09:58:10.530Z</time>
      </trkpt>
      <trkpt lat="45.66661" lon="5.72004">
        <ele>549</ele>
        <time>2021-06-05T09:58:15.535Z</time>
      </trkpt>
      <trkpt lat="45.66655" lon="5.72006">
        <ele>549</ele>
        <time>2021-06-05T09:58:19.559Z</time>
      </trkpt>
      <trkpt lat="45.6665" lon="5.72013">
        <ele>548</ele>
        <time>2021-06-05T09:58:24.536Z</time>
      </trkpt>
      <trkpt lat="45.66649" lon="5.72023">
        <ele>547</ele>
        <time>2021-06-05T09:58:29.535Z</time>
      </trkpt>
      <trkpt lat="45.66648" lon="5.7203">
        <ele>547</ele>
        <time>2021-06-05T09:58:34.539Z</time>
      </trkpt>
      <trkpt lat="45.66648" lon="5.72033">
        <ele>547</ele>
        <time>2021-06-05T09:58:39.535Z</time>
      </trkpt>
      <trkpt lat="45.66647" lon="5.72049">
        <ele>546</ele>
        <time>2021-06-05T09:59:14.528Z</time>
      </trkpt>
      <trkpt lat="45.66647" lon="5.72053">
        <ele>546</ele>
        <time>2021-06-05T09:59:18.542Z</time>
      </trkpt>
      <trkpt lat="45.66644" lon="5.72061">
        <ele>546</ele>
        <time>2021-06-05T09:59:23.538Z</time>
      </trkpt>
      <trkpt lat="45.66643" lon="5.72066">
        <ele>546</ele>
        <time>2021-06-05T09:59:28.538Z</time>
      </trkpt>
      <trkpt lat="45.66643" lon="5.72068">
        <ele>546</ele>
        <time>2021-06-05T09:59:33.536Z</time>
      </trkpt>
      <trkpt lat="45.66641" lon="5.72069">
        <ele>546</ele>
        <time>2021-06-05T10:07:06.532Z</time>
      </trkpt>
      <trkpt lat="45.6664" lon="5.72066">
        <ele>546</ele>
        <time>2021-06-05T10:07:10.547Z</time>
      </trkpt>
      <trkpt lat="45.66644" lon="5.72055">
        <ele>546</ele>
        <time>2021-06-05T10:07:15.544Z</time>
      </trkpt>
      <trkpt lat="45.66646" lon="5.72046">
        <ele>546</ele>
        <time>2021-06-05T10:07:20.542Z</time>
      </trkpt>
      <trkpt lat="45.66646" lon="5.72043">
        <ele>546</ele>
        <time>2021-06-05T10:07:25.541Z</time>
      </trkpt>
      <trkpt lat="45.66645" lon="5.72043">
        <ele>546</ele>
        <time>2021-06-05T10:08:14.536Z</time>
      </trkpt>
      <trkpt lat="45.66644" lon="5.72032">
        <ele>547</ele>
        <time>2021-06-05T10:08:18.550Z</time>
      </trkpt>
      <trkpt lat="45.66641" lon="5.72028">
        <ele>547</ele>
        <time>2021-06-05T10:08:23.543Z</time>
      </trkpt>
      <trkpt lat="45.66634" lon="5.72029">
        <ele>547</ele>
        <time>2021-06-05T10:08:27.549Z</time>
      </trkpt>
      <trkpt lat="45.6663" lon="5.7203">
        <ele>547</ele>
        <time>2021-06-05T10:08:32.534Z</time>
      </trkpt>
      <trkpt lat="45.66629" lon="5.72017">
        <ele>547</ele>
        <time>2021-06-05T10:10:13.536Z</time>
      </trkpt>
      <trkpt lat="45.66629" lon="5.72016">
        <ele>547</ele>
        <time>2021-06-05T10:10:18.536Z</time>
      </trkpt>
      <trkpt lat="45.66629" lon="5.72016">
        <ele>547</ele>
        <time>2021-06-05T10:10:23.529Z</time>
      </trkpt>
      <trkpt lat="45.6663" lon="5.72016">
        <ele>547</ele>
        <time>2021-06-05T10:10:28.521Z</time>
      </trkpt>
      <trkpt lat="45.6663" lon="5.72016">
        <ele>547</ele>
        <time>2021-06-05T10:10:33.505Z</time>
      </trkpt>
      <trkpt lat="45.66632" lon="5.72019">
        <ele>547</ele>
        <time>2021-06-05T10:16:19.499Z</time>
      </trkpt>
      <trkpt lat="45.66633" lon="5.72019">
        <ele>547</ele>
        <time>2021-06-05T10:16:24.509Z</time>
      </trkpt>
      <trkpt lat="45.66633" lon="5.72019">
        <ele>547</ele>
        <time>2021-06-05T10:16:29.499Z</time>
      </trkpt>
      <trkpt lat="45.66637" lon="5.72022">
        <ele>547</ele>
        <time>2021-06-05T10:16:34.537Z</time>
      </trkpt>
      <trkpt lat="45.66643" lon="5.72024">
        <ele>547</ele>
        <time>2021-06-05T10:16:39.529Z</time>
      </trkpt>
      <trkpt lat="45.6665" lon="5.72025">
        <ele>547</ele>
        <time>2021-06-05T10:19:13.509Z</time>
      </trkpt>
      <trkpt lat="45.6665" lon="5.72024">
        <ele>547</ele>
        <time>2021-06-05T10:19:18.499Z</time>
      </trkpt>
      <trkpt lat="45.6665" lon="5.72023">
        <ele>547</ele>
        <time>2021-06-05T10:19:23.502Z</time>
      </trkpt>
      <trkpt lat="45.66653" lon="5.72019">
        <ele>548</ele>
        <time>2021-06-05T10:19:27.546Z</time>
      </trkpt>
      <trkpt lat="45.66658" lon="5.72011">
        <ele>549</ele>
        <time>2021-06-05T10:19:32.547Z</time>
      </trkpt>
      <trkpt lat="45.66662" lon="5.72004">
        <ele>549</ele>
        <time>2021-06-05T10:19:36.562Z</time>
      </trkpt>
      <trkpt lat="45.66665" lon="5.71998">
        <ele>549</ele>
        <time>2021-06-05T10:19:41.535Z</time>
      </trkpt>
      <trkpt lat="45.66671" lon="5.71992">
        <ele>549</ele>
        <time>2021-06-05T10:19:46.529Z</time>
      </trkpt>
      <trkpt lat="45.66675" lon="5.7199">
        <ele>549</ele>
        <time>2021-06-05T10:19:50.546Z</time>
      </trkpt>
      <trkpt lat="45.6668" lon="5.71984">
        <ele>551</ele>
        <time>2021-06-05T10:19:55.531Z</time>
      </trkpt>
      <trkpt lat="45.66683" lon="5.71979">
        <ele>551</ele>
        <time>2021-06-05T10:20:00.534Z</time>
      </trkpt>
      <trkpt lat="45.66686" lon="5.71975">
        <ele>551</ele>
        <time>2021-06-05T10:20:04.541Z</time>
      </trkpt>
      <trkpt lat="45.66689" lon="5.71969">
        <ele>551</ele>
        <time>2021-06-05T10:20:09.542Z</time>
      </trkpt>
      <trkpt lat="45.66691" lon="5.71962">
        <ele>551</ele>
        <time>2021-06-05T10:20:18.539Z</time>
      </trkpt>
      <trkpt lat="45.66691" lon="5.71964">
        <ele>551</ele>
        <time>2021-06-05T10:20:23.533Z</time>
      </trkpt>
      <trkpt lat="45.66692" lon="5.71962">
        <ele>551</ele>
        <time>2021-06-05T10:20:28.533Z</time>
      </trkpt>
      <trkpt lat="45.66693" lon="5.71957">
        <ele>553</ele>
        <time>2021-06-05T10:20:32.540Z</time>
      </trkpt>
      <trkpt lat="45.66694" lon="5.71951">
        <ele>553</ele>
        <time>2021-06-05T10:20:37.531Z</time>
      </trkpt>
      <trkpt lat="45.66694" lon="5.71947">
        <ele>553</ele>
        <time>2021-06-05T10:20:42.529Z</time>
      </trkpt>
      <trkpt lat="45.66691" lon="5.71941">
        <ele>553</ele>
        <time>2021-06-05T10:20:47.527Z</time>
      </trkpt>
      <trkpt lat="45.66687" lon="5.71933">
        <ele>553</ele>
        <time>2021-06-05T10:20:52.534Z</time>
      </trkpt>
      <trkpt lat="45.66684" lon="5.71927">
        <ele>557</ele>
        <time>2021-06-05T10:20:57.535Z</time>
      </trkpt>
      <trkpt lat="45.66685" lon="5.71921">
        <ele>557</ele>
        <time>2021-06-05T10:21:02.534Z</time>
      </trkpt>
      <trkpt lat="45.66682" lon="5.71912">
        <ele>557</ele>
        <time>2021-06-05T10:21:07.527Z</time>
      </trkpt>
      <trkpt lat="45.66682" lon="5.71911">
        <ele>557</ele>
        <time>2021-06-05T10:21:12.539Z</time>
      </trkpt>
      <trkpt lat="45.66683" lon="5.71907">
        <ele>557</ele>
        <time>2021-06-05T10:21:17.541Z</time>
      </trkpt>
      <trkpt lat="45.66681" lon="5.71899">
        <ele>562</ele>
        <time>2021-06-05T10:21:22.532Z</time>
      </trkpt>
      <trkpt lat="45.66682" lon="5.71892">
        <ele>562</ele>
        <time>2021-06-05T10:21:27.529Z</time>
      </trkpt>
      <trkpt lat="45.6668" lon="5.71885">
        <ele>565</ele>
        <time>2021-06-05T10:21:31.544Z</time>
      </trkpt>
      <trkpt lat="45.6668" lon="5.71877">
        <ele>565</ele>
        <time>2021-06-05T10:21:36.532Z</time>
      </trkpt>
      <trkpt lat="45.66679" lon="5.7187">
        <ele>568</ele>
        <time>2021-06-05T10:21:41.542Z</time>
      </trkpt>
      <trkpt lat="45.66679" lon="5.71861">
        <ele>568</ele>
        <time>2021-06-05T10:21:46.534Z</time>
      </trkpt>
      <trkpt lat="45.6668" lon="5.71853">
        <ele>568</ele>
        <time>2021-06-05T10:21:50.547Z</time>
      </trkpt>
      <trkpt lat="45.66681" lon="5.71845">
        <ele>567</ele>
        <time>2021-06-05T10:21:55.532Z</time>
      </trkpt>
      <trkpt lat="45.66681" lon="5.71836">
        <ele>567</ele>
        <time>2021-06-05T10:22:00.534Z</time>
      </trkpt>
      <trkpt lat="45.66681" lon="5.71827">
        <ele>569</ele>
        <time>2021-06-05T10:22:05.533Z</time>
      </trkpt>
      <trkpt lat="45.66677" lon="5.71821">
        <ele>569</ele>
        <time>2021-06-05T10:22:10.532Z</time>
      </trkpt>
      <trkpt lat="45.66676" lon="5.71814">
        <ele>570</ele>
        <time>2021-06-05T10:22:15.537Z</time>
      </trkpt>
      <trkpt lat="45.66678" lon="5.7181">
        <ele>570</ele>
        <time>2021-06-05T10:22:29.526Z</time>
      </trkpt>
      <trkpt lat="45.66678" lon="5.7181">
        <ele>570</ele>
        <time>2021-06-05T10:22:34.528Z</time>
      </trkpt>
      <trkpt lat="45.66674" lon="5.71806">
        <ele>570</ele>
        <time>2021-06-05T10:22:39.537Z</time>
      </trkpt>
      <trkpt lat="45.66669" lon="5.71798">
        <ele>570</ele>
        <time>2021-06-05T10:22:44.541Z</time>
      </trkpt>
      <trkpt lat="45.66666" lon="5.71789">
        <ele>571</ele>
        <time>2021-06-05T10:22:49.525Z</time>
      </trkpt>
      <trkpt lat="45.66663" lon="5.71782">
        <ele>571</ele>
        <time>2021-06-05T10:22:54.539Z</time>
      </trkpt>
      <trkpt lat="45.66661" lon="5.7178">
        <ele>571</ele>
        <time>2021-06-05T10:22:59.542Z</time>
      </trkpt>
      <trkpt lat="45.66659" lon="5.71778">
        <ele>571</ele>
        <time>2021-06-05T10:23:04.539Z</time>
      </trkpt>
      <trkpt lat="45.66657" lon="5.71771">
        <ele>571</ele>
        <time>2021-06-05T10:23:09.527Z</time>
      </trkpt>
      <trkpt lat="45.66664" lon="5.71767">
        <ele>571</ele>
        <time>2021-06-05T10:25:03.501Z</time>
      </trkpt>
      <trkpt lat="45.66665" lon="5.71767">
        <ele>571</ele>
        <time>2021-06-05T10:25:07.524Z</time>
      </trkpt>
      <trkpt lat="45.66666" lon="5.71765">
        <ele>571</ele>
        <time>2021-06-05T10:25:11.546Z</time>
      </trkpt>
      <trkpt lat="45.66667" lon="5.71763">
        <ele>571</ele>
        <time>2021-06-05T10:25:16.536Z</time>
      </trkpt>
      <trkpt lat="45.66666" lon="5.7176">
        <ele>571</ele>
        <time>2021-06-05T10:25:21.540Z</time>
      </trkpt>
      <trkpt lat="45.66662" lon="5.71766">
        <ele>571</ele>
        <time>2021-06-05T10:29:25.540Z</time>
      </trkpt>
      <trkpt lat="45.66662" lon="5.71768">
        <ele>571</ele>
        <time>2021-06-05T10:29:30.536Z</time>
      </trkpt>
      <trkpt lat="45.66661" lon="5.71768">
        <ele>571</ele>
        <time>2021-06-05T10:29:35.526Z</time>
      </trkpt>
      <trkpt lat="45.6666" lon="5.71769">
        <ele>571</ele>
        <time>2021-06-05T10:29:39.532Z</time>
      </trkpt>
      <trkpt lat="45.6666" lon="5.7177">
        <ele>571</ele>
        <time>2021-06-05T10:29:43.534Z</time>
      </trkpt>
      <trkpt lat="45.6666" lon="5.71771">
        <ele>571</ele>
        <time>2021-06-05T10:29:53.498Z</time>
      </trkpt>
      <trkpt lat="45.66661" lon="5.71772">
        <ele>571</ele>
        <time>2021-06-05T10:29:57.526Z</time>
      </trkpt>
      <trkpt lat="45.66663" lon="5.71775">
        <ele>571</ele>
        <time>2021-06-05T10:30:01.536Z</time>
      </trkpt>
      <trkpt lat="45.66666" lon="5.71778">
        <ele>571</ele>
        <time>2021-06-05T10:30:06.539Z</time>
      </trkpt>
      <trkpt lat="45.66667" lon="5.71779">
        <ele>571</ele>
        <time>2021-06-05T10:30:11.522Z</time>
      </trkpt>
      <trkpt lat="45.66669" lon="5.71769">
        <ele>571</ele>
        <time>2021-06-05T10:37:19.541Z</time>
      </trkpt>
      <trkpt lat="45.66669" lon="5.71769">
        <ele>571</ele>
        <time>2021-06-05T10:37:24.532Z</time>
      </trkpt>
      <trkpt lat="45.66669" lon="5.71769">
        <ele>571</ele>
        <time>2021-06-05T10:37:28.533Z</time>
      </trkpt>
      <trkpt lat="45.66669" lon="5.71768">
        <ele>571</ele>
        <time>2021-06-05T10:37:33.536Z</time>
      </trkpt>
      <trkpt lat="45.66668" lon="5.71764">
        <ele>571</ele>
        <time>2021-06-05T10:37:38.542Z</time>
      </trkpt>
      <trkpt lat="45.66668" lon="5.71765">
        <ele>571</ele>
        <time>2021-06-05T10:37:58.537Z</time>
      </trkpt>
      <trkpt lat="45.66666" lon="5.71767">
        <ele>571</ele>
        <time>2021-06-05T10:38:03.534Z</time>
      </trkpt>
      <trkpt lat="45.66665" lon="5.71774">
        <ele>571</ele>
        <time>2021-06-05T10:38:08.536Z</time>
      </trkpt>
      <trkpt lat="45.66664" lon="5.71778">
        <ele>571</ele>
        <time>2021-06-05T10:38:13.534Z</time>
      </trkpt>
      <trkpt lat="45.66664" lon="5.7178">
        <ele>571</ele>
        <time>2021-06-05T10:38:18.538Z</time>
      </trkpt>
      <trkpt lat="45.66668" lon="5.71775">
        <ele>571</ele>
        <time>2021-06-05T10:40:08.543Z</time>
      </trkpt>
      <trkpt lat="45.66668" lon="5.71773">
        <ele>571</ele>
        <time>2021-06-05T10:40:13.524Z</time>
      </trkpt>
      <trkpt lat="45.66668" lon="5.71772">
        <ele>571</ele>
        <time>2021-06-05T10:40:17.547Z</time>
      </trkpt>
      <trkpt lat="45.66669" lon="5.71771">
        <ele>571</ele>
        <time>2021-06-05T10:40:22.542Z</time>
      </trkpt>
      <trkpt lat="45.6667" lon="5.71768">
        <ele>571</ele>
        <time>2021-06-05T10:40:27.530Z</time>
      </trkpt>
      <trkpt lat="45.66672" lon="5.71771">
        <ele>571</ele>
        <time>2021-06-05T10:41:00.526Z</time>
      </trkpt>
      <trkpt lat="45.66674" lon="5.71773">
        <ele>571</ele>
        <time>2021-06-05T10:41:04.558Z</time>
      </trkpt>
      <trkpt lat="45.66673" lon="5.71776">
        <ele>571</ele>
        <time>2021-06-05T10:41:09.522Z</time>
      </trkpt>
      <trkpt lat="45.66673" lon="5.71779">
        <ele>571</ele>
        <time>2021-06-05T10:41:13.535Z</time>
      </trkpt>
      <trkpt lat="45.66673" lon="5.7178">
        <ele>571</ele>
        <time>2021-06-05T10:41:18.536Z</time>
      </trkpt>
      <trkpt lat="45.6667" lon="5.71771">
        <ele>571</ele>
        <time>2021-06-05T10:44:46.533Z</time>
      </trkpt>
      <trkpt lat="45.6667" lon="5.71769">
        <ele>571</ele>
        <time>2021-06-05T10:44:51.534Z</time>
      </trkpt>
      <trkpt lat="45.6667" lon="5.71768">
        <ele>571</ele>
        <time>2021-06-05T10:44:56.536Z</time>
      </trkpt>
      <trkpt lat="45.66671" lon="5.71766">
        <ele>571</ele>
        <time>2021-06-05T10:45:01.519Z</time>
      </trkpt>
      <trkpt lat="45.6667" lon="5.71764">
        <ele>571</ele>
        <time>2021-06-05T10:45:06.524Z</time>
      </trkpt>
      <trkpt lat="45.66656" lon="5.71775">
        <ele>571</ele>
        <time>2021-06-05T10:51:56.541Z</time>
      </trkpt>
      <trkpt lat="45.66656" lon="5.71775">
        <ele>571</ele>
        <time>2021-06-05T10:52:01.533Z</time>
      </trkpt>
      <trkpt lat="45.66656" lon="5.71775">
        <ele>571</ele>
        <time>2021-06-05T10:52:06.531Z</time>
      </trkpt>
      <trkpt lat="45.66655" lon="5.71775">
        <ele>571</ele>
        <time>2021-06-05T10:52:11.524Z</time>
      </trkpt>
      <trkpt lat="45.66654" lon="5.71775">
        <ele>571</ele>
        <time>2021-06-05T10:52:16.547Z</time>
      </trkpt>
      <trkpt lat="45.66663" lon="5.71789">
        <ele>571</ele>
        <time>2021-06-05T10:57:03.536Z</time>
      </trkpt>
      <trkpt lat="45.66663" lon="5.71788">
        <ele>571</ele>
        <time>2021-06-05T10:57:08.529Z</time>
      </trkpt>
      <trkpt lat="45.66663" lon="5.7179">
        <ele>571</ele>
        <time>2021-06-05T10:57:13.543Z</time>
      </trkpt>
      <trkpt lat="45.66663" lon="5.7179">
        <ele>571</ele>
        <time>2021-06-05T10:57:18.549Z</time>
      </trkpt>
      <trkpt lat="45.66666" lon="5.71787">
        <ele>571</ele>
        <time>2021-06-05T10:57:23.534Z</time>
      </trkpt>
      <trkpt lat="45.66665" lon="5.7179">
        <ele>571</ele>
        <time>2021-06-05T10:59:26.538Z</time>
      </trkpt>
      <trkpt lat="45.66666" lon="5.71792">
        <ele>570</ele>
        <time>2021-06-05T10:59:31.533Z</time>
      </trkpt>
      <trkpt lat="45.66667" lon="5.71793">
        <ele>570</ele>
        <time>2021-06-05T10:59:36.536Z</time>
      </trkpt>
      <trkpt lat="45.66664" lon="5.71798">
        <ele>570</ele>
        <time>2021-06-05T10:59:40.539Z</time>
      </trkpt>
      <trkpt lat="45.66663" lon="5.71801">
        <ele>570</ele>
        <time>2021-06-05T10:59:45.538Z</time>
      </trkpt>
      <trkpt lat="45.66667" lon="5.71791">
        <ele>571</ele>
        <time>2021-06-05T11:02:49.533Z</time>
      </trkpt>
      <trkpt lat="45.66665" lon="5.7179">
        <ele>571</ele>
        <time>2021-06-05T11:02:54.537Z</time>
      </trkpt>
      <trkpt lat="45.66664" lon="5.71787">
        <ele>571</ele>
        <time>2021-06-05T11:02:59.540Z</time>
      </trkpt>
      <trkpt lat="45.66663" lon="5.71786">
        <ele>571</ele>
        <time>2021-06-05T11:03:04.545Z</time>
      </trkpt>
      <trkpt lat="45.66663" lon="5.71786">
        <ele>571</ele>
        <time>2021-06-05T11:03:09.535Z</time>
      </trkpt>
      <trkpt lat="45.66667" lon="5.71784">
        <ele>571</ele>
        <time>2021-06-05T11:06:54.528Z</time>
      </trkpt>
      <trkpt lat="45.66667" lon="5.71786">
        <ele>571</ele>
        <time>2021-06-05T11:06:59.532Z</time>
      </trkpt>
      <trkpt lat="45.66668" lon="5.71788">
        <ele>571</ele>
        <time>2021-06-05T11:07:03.532Z</time>
      </trkpt>
      <trkpt lat="45.66669" lon="5.71789">
        <ele>571</ele>
        <time>2021-06-05T11:07:08.530Z</time>
      </trkpt>
      <trkpt lat="45.66671" lon="5.71788">
        <ele>571</ele>
        <time>2021-06-05T11:07:13.531Z</time>
      </trkpt>
      <trkpt lat="45.66672" lon="5.7179">
        <ele>571</ele>
        <time>2021-06-05T11:07:18.544Z</time>
      </trkpt>
      <trkpt lat="45.66672" lon="5.71793">
        <ele>570</ele>
        <time>2021-06-05T11:07:23.533Z</time>
      </trkpt>
      <trkpt lat="45.66673" lon="5.71794">
        <ele>570</ele>
        <time>2021-06-05T11:07:28.531Z</time>
      </trkpt>
      <trkpt lat="45.66671" lon="5.71797">
        <ele>570</ele>
        <time>2021-06-05T11:07:33.536Z</time>
      </trkpt>
      <trkpt lat="45.66666" lon="5.71802">
        <ele>570</ele>
        <time>2021-06-05T11:07:38.541Z</time>
      </trkpt>
      <trkpt lat="45.66665" lon="5.71791">
        <ele>571</ele>
        <time>2021-06-05T11:08:14.530Z</time>
      </trkpt>
      <trkpt lat="45.66665" lon="5.71791">
        <ele>571</ele>
        <time>2021-06-05T11:08:18.537Z</time>
      </trkpt>
      <trkpt lat="45.66665" lon="5.71791">
        <ele>571</ele>
        <time>2021-06-05T11:08:23.540Z</time>
      </trkpt>
      <trkpt lat="45.66665" lon="5.7179">
        <ele>571</ele>
        <time>2021-06-05T11:08:27.569Z</time>
      </trkpt>
      <trkpt lat="45.66665" lon="5.71789">
        <ele>571</ele>
        <time>2021-06-05T11:08:32.538Z</time>
      </trkpt>
      <trkpt lat="45.66669" lon="5.71778">
        <ele>571</ele>
        <time>2021-06-05T11:09:57.539Z</time>
      </trkpt>
      <trkpt lat="45.66667" lon="5.71775">
        <ele>571</ele>
        <time>2021-06-05T11:10:02.545Z</time>
      </trkpt>
      <trkpt lat="45.66667" lon="5.71773">
        <ele>571</ele>
        <time>2021-06-05T11:10:07.551Z</time>
      </trkpt>
      <trkpt lat="45.66666" lon="5.71772">
        <ele>571</ele>
        <time>2021-06-05T11:10:12.535Z</time>
      </trkpt>
      <trkpt lat="45.66666" lon="5.71771">
        <ele>571</ele>
        <time>2021-06-05T11:10:17.535Z</time>
      </trkpt>
      <trkpt lat="45.66667" lon="5.71775">
        <ele>571</ele>
        <time>2021-06-05T11:10:45.544Z</time>
      </trkpt>
      <trkpt lat="45.66667" lon="5.71777">
        <ele>571</ele>
        <time>2021-06-05T11:10:50.536Z</time>
      </trkpt>
      <trkpt lat="45.66666" lon="5.71779">
        <ele>571</ele>
        <time>2021-06-05T11:10:55.538Z</time>
      </trkpt>
      <trkpt lat="45.66665" lon="5.71783">
        <ele>571</ele>
        <time>2021-06-05T11:11:00.523Z</time>
      </trkpt>
      <trkpt lat="45.66666" lon="5.71787">
        <ele>571</ele>
        <time>2021-06-05T11:11:05.527Z</time>
      </trkpt>
      <trkpt lat="45.66668" lon="5.71786">
        <ele>571</ele>
        <time>2021-06-05T11:11:42.530Z</time>
      </trkpt>
      <trkpt lat="45.66666" lon="5.71781">
        <ele>571</ele>
        <time>2021-06-05T11:11:47.539Z</time>
      </trkpt>
      <trkpt lat="45.66666" lon="5.71779">
        <ele>571</ele>
        <time>2021-06-05T11:11:52.533Z</time>
      </trkpt>
      <trkpt lat="45.66666" lon="5.71778">
        <ele>571</ele>
        <time>2021-06-05T11:11:57.540Z</time>
      </trkpt>
      <trkpt lat="45.66666" lon="5.71778">
        <ele>571</ele>
        <time>2021-06-05T11:12:02.540Z</time>
      </trkpt>
      <trkpt lat="45.66661" lon="5.71769">
        <ele>571</ele>
        <time>2021-06-05T11:23:07.524Z</time>
      </trkpt>
      <trkpt lat="45.66661" lon="5.71768">
        <ele>571</ele>
        <time>2021-06-05T11:23:12.507Z</time>
      </trkpt>
      <trkpt lat="45.66661" lon="5.71768">
        <ele>571</ele>
        <time>2021-06-05T11:23:17.500Z</time>
      </trkpt>
      <trkpt lat="45.6666" lon="5.71768">
        <ele>571</ele>
        <time>2021-06-05T11:23:22.512Z</time>
      </trkpt>
      <trkpt lat="45.6666" lon="5.71768">
        <ele>571</ele>
        <time>2021-06-05T11:23:27.511Z</time>
      </trkpt>
      <trkpt lat="45.66657" lon="5.71773">
        <ele>571</ele>
        <time>2021-06-05T11:24:39.492Z</time>
      </trkpt>
      <trkpt lat="45.66659" lon="5.71775">
        <ele>571</ele>
        <time>2021-06-05T11:24:44.490Z</time>
      </trkpt>
      <trkpt lat="45.6666" lon="5.71777">
        <ele>571</ele>
        <time>2021-06-05T11:24:49.491Z</time>
      </trkpt>
      <trkpt lat="45.66662" lon="5.71777">
        <ele>571</ele>
        <time>2021-06-05T11:24:53.503Z</time>
      </trkpt>
      <trkpt lat="45.66663" lon="5.71781">
        <ele>571</ele>
        <time>2021-06-05T11:24:57.529Z</time>
      </trkpt>
      <trkpt lat="45.66667" lon="5.71781">
        <ele>571</ele>
        <time>2021-06-05T11:27:36.524Z</time>
      </trkpt>
      <trkpt lat="45.66667" lon="5.71782">
        <ele>571</ele>
        <time>2021-06-05T11:27:41.510Z</time>
      </trkpt>
      <trkpt lat="45.66668" lon="5.71778">
        <ele>571</ele>
        <time>2021-06-05T11:27:46.506Z</time>
      </trkpt>
      <trkpt lat="45.66668" lon="5.71778">
        <ele>571</ele>
        <time>2021-06-05T11:27:51.505Z</time>
      </trkpt>
      <trkpt lat="45.66671" lon="5.71771">
        <ele>571</ele>
        <time>2021-06-05T11:27:56.536Z</time>
      </trkpt>
      <trkpt lat="45.66677" lon="5.71768">
        <ele>571</ele>
        <time>2021-06-05T11:28:01.501Z</time>
      </trkpt>
      <trkpt lat="45.66678" lon="5.71764">
        <ele>571</ele>
        <time>2021-06-05T11:28:06.510Z</time>
      </trkpt>
      <trkpt lat="45.66674" lon="5.71762">
        <ele>571</ele>
        <time>2021-06-05T11:28:11.495Z</time>
      </trkpt>
      <trkpt lat="45.66671" lon="5.71759">
        <ele>571</ele>
        <time>2021-06-05T11:28:15.533Z</time>
      </trkpt>
      <trkpt lat="45.66669" lon="5.71756">
        <ele>571</ele>
        <time>2021-06-05T11:28:19.549Z</time>
      </trkpt>
      <trkpt lat="45.66669" lon="5.71744">
        <ele>571</ele>
        <time>2021-06-05T11:28:24.529Z</time>
      </trkpt>
      <trkpt lat="45.66667" lon="5.71734">
        <ele>572</ele>
        <time>2021-06-05T11:28:29.530Z</time>
      </trkpt>
      <trkpt lat="45.66665" lon="5.71728">
        <ele>572</ele>
        <time>2021-06-05T11:28:33.547Z</time>
      </trkpt>
      <trkpt lat="45.66664" lon="5.71718">
        <ele>572</ele>
        <time>2021-06-05T11:28:38.532Z</time>
      </trkpt>
      <trkpt lat="45.66665" lon="5.71707">
        <ele>573</ele>
        <time>2021-06-05T11:28:42.569Z</time>
      </trkpt>
      <trkpt lat="45.66664" lon="5.71694">
        <ele>573</ele>
        <time>2021-06-05T11:28:47.533Z</time>
      </trkpt>
      <trkpt lat="45.66665" lon="5.71686">
        <ele>573</ele>
        <time>2021-06-05T11:28:51.547Z</time>
      </trkpt>
      <trkpt lat="45.66666" lon="5.71672">
        <ele>572</ele>
        <time>2021-06-05T11:28:56.547Z</time>
      </trkpt>
      <trkpt lat="45.66667" lon="5.71665">
        <ele>572</ele>
        <time>2021-06-05T11:29:01.542Z</time>
      </trkpt>
      <trkpt lat="45.66668" lon="5.71655">
        <ele>572</ele>
        <time>2021-06-05T11:29:06.542Z</time>
      </trkpt>
      <trkpt lat="45.6667" lon="5.71648">
        <ele>571</ele>
        <time>2021-06-05T11:29:11.538Z</time>
      </trkpt>
      <trkpt lat="45.66671" lon="5.71638">
        <ele>571</ele>
        <time>2021-06-05T11:29:16.531Z</time>
      </trkpt>
      <trkpt lat="45.66672" lon="5.71626">
        <ele>571</ele>
        <time>2021-06-05T11:29:21.550Z</time>
      </trkpt>
      <trkpt lat="45.66672" lon="5.71615">
        <ele>570</ele>
        <time>2021-06-05T11:29:26.522Z</time>
      </trkpt>
      <trkpt lat="45.66669" lon="5.71606">
        <ele>570</ele>
        <time>2021-06-05T11:29:31.538Z</time>
      </trkpt>
      <trkpt lat="45.66668" lon="5.716">
        <ele>570</ele>
        <time>2021-06-05T11:29:36.542Z</time>
      </trkpt>
      <trkpt lat="45.66668" lon="5.71595">
        <ele>568</ele>
        <time>2021-06-05T11:29:41.530Z</time>
      </trkpt>
      <trkpt lat="45.66668" lon="5.71588">
        <ele>568</ele>
        <time>2021-06-05T11:29:46.547Z</time>
      </trkpt>
      <trkpt lat="45.66668" lon="5.7158">
        <ele>568</ele>
        <time>2021-06-05T11:29:51.524Z</time>
      </trkpt>
      <trkpt lat="45.66668" lon="5.71571">
        <ele>568</ele>
        <time>2021-06-05T11:29:55.544Z</time>
      </trkpt>
      <trkpt lat="45.66667" lon="5.71568">
        <ele>567</ele>
        <time>2021-06-05T11:29:59.551Z</time>
      </trkpt>
      <trkpt lat="45.66665" lon="5.71562">
        <ele>567</ele>
        <time>2021-06-05T11:30:04.537Z</time>
      </trkpt>
      <trkpt lat="45.66663" lon="5.71555">
        <ele>567</ele>
        <time>2021-06-05T11:30:08.556Z</time>
      </trkpt>
      <trkpt lat="45.66663" lon="5.71543">
        <ele>567</ele>
        <time>2021-06-05T11:30:13.543Z</time>
      </trkpt>
      <trkpt lat="45.66663" lon="5.71536">
        <ele>565</ele>
        <time>2021-06-05T11:30:18.541Z</time>
      </trkpt>
      <trkpt lat="45.66661" lon="5.71528">
        <ele>565</ele>
        <time>2021-06-05T11:30:23.537Z</time>
      </trkpt>
      <trkpt lat="45.66659" lon="5.71514">
        <ele>564</ele>
        <time>2021-06-05T11:30:28.537Z</time>
      </trkpt>
      <trkpt lat="45.66659" lon="5.71502">
        <ele>564</ele>
        <time>2021-06-05T11:30:33.526Z</time>
      </trkpt>
      <trkpt lat="45.66662" lon="5.71493">
        <ele>564</ele>
        <time>2021-06-05T11:30:38.530Z</time>
      </trkpt>
      <trkpt lat="45.66666" lon="5.71486">
        <ele>563</ele>
        <time>2021-06-05T11:30:43.524Z</time>
      </trkpt>
      <trkpt lat="45.66672" lon="5.7148">
        <ele>563</ele>
        <time>2021-06-05T11:30:47.546Z</time>
      </trkpt>
      <trkpt lat="45.66683" lon="5.7147">
        <ele>563</ele>
        <time>2021-06-05T11:30:52.540Z</time>
      </trkpt>
      <trkpt lat="45.66693" lon="5.71462">
        <ele>563</ele>
        <time>2021-06-05T11:30:57.529Z</time>
      </trkpt>
      <trkpt lat="45.66699" lon="5.71454">
        <ele>560</ele>
        <time>2021-06-05T11:31:02.543Z</time>
      </trkpt>
      <trkpt lat="45.66705" lon="5.71445">
        <ele>560</ele>
        <time>2021-06-05T11:31:07.536Z</time>
      </trkpt>
      <trkpt lat="45.66711" lon="5.7144">
        <ele>559</ele>
        <time>2021-06-05T11:31:11.556Z</time>
      </trkpt>
      <trkpt lat="45.66715" lon="5.71441">
        <ele>559</ele>
        <time>2021-06-05T11:31:16.543Z</time>
      </trkpt>
      <trkpt lat="45.6672" lon="5.71437">
        <ele>559</ele>
        <time>2021-06-05T11:31:21.536Z</time>
      </trkpt>
      <trkpt lat="45.66728" lon="5.71429">
        <ele>555</ele>
        <time>2021-06-05T11:31:26.536Z</time>
      </trkpt>
      <trkpt lat="45.66734" lon="5.71425">
        <ele>555</ele>
        <time>2021-06-05T11:31:31.530Z</time>
      </trkpt>
      <trkpt lat="45.66741" lon="5.71427">
        <ele>552</ele>
        <time>2021-06-05T11:31:36.533Z</time>
      </trkpt>
      <trkpt lat="45.66745" lon="5.71431">
        <ele>552</ele>
        <time>2021-06-05T11:31:41.543Z</time>
      </trkpt>
      <trkpt lat="45.66748" lon="5.71437">
        <ele>557</ele>
        <time>2021-06-05T11:31:46.545Z</time>
      </trkpt>
      <trkpt lat="45.66751" lon="5.71447">
        <ele>557</ele>
        <time>2021-06-05T11:31:51.539Z</time>
      </trkpt>
      <trkpt lat="45.66754" lon="5.71453">
        <ele>557</ele>
        <time>2021-06-05T11:31:56.541Z</time>
      </trkpt>
      <trkpt lat="45.66757" lon="5.71459">
        <ele>562</ele>
        <time>2021-06-05T11:32:01.545Z</time>
      </trkpt>
      <trkpt lat="45.66761" lon="5.71466">
        <ele>562</ele>
        <time>2021-06-05T11:32:06.549Z</time>
      </trkpt>
      <trkpt lat="45.66769" lon="5.71471">
        <ele>559</ele>
        <time>2021-06-05T11:32:11.548Z</time>
      </trkpt>
      <trkpt lat="45.66772" lon="5.71474">
        <ele>559</ele>
        <time>2021-06-05T11:32:16.548Z</time>
      </trkpt>
      <trkpt lat="45.66776" lon="5.71477">
        <ele>559</ele>
        <time>2021-06-05T11:32:21.550Z</time>
      </trkpt>
      <trkpt lat="45.66782" lon="5.71481">
        <ele>559</ele>
        <time>2021-06-05T11:32:26.550Z</time>
      </trkpt>
      <trkpt lat="45.66788" lon="5.71484">
        <ele>559</ele>
        <time>2021-06-05T11:32:31.548Z</time>
      </trkpt>
      <trkpt lat="45.66794" lon="5.71487">
        <ele>562</ele>
        <time>2021-06-05T11:32:36.546Z</time>
      </trkpt>
      <trkpt lat="45.668" lon="5.71489">
        <ele>562</ele>
        <time>2021-06-05T11:32:41.551Z</time>
      </trkpt>
      <trkpt lat="45.66804" lon="5.71493">
        <ele>562</ele>
        <time>2021-06-05T11:32:46.546Z</time>
      </trkpt>
      <trkpt lat="45.66806" lon="5.71494">
        <ele>562</ele>
        <time>2021-06-05T11:32:51.545Z</time>
      </trkpt>
      <trkpt lat="45.66813" lon="5.71498">
        <ele>562</ele>
        <time>2021-06-05T11:32:56.555Z</time>
      </trkpt>
      <trkpt lat="45.6682" lon="5.71502">
        <ele>558</ele>
        <time>2021-06-05T11:33:01.546Z</time>
      </trkpt>
      <trkpt lat="45.66828" lon="5.71505">
        <ele>558</ele>
        <time>2021-06-05T11:33:05.550Z</time>
      </trkpt>
      <trkpt lat="45.66836" lon="5.71504">
        <ele>558</ele>
        <time>2021-06-05T11:33:10.550Z</time>
      </trkpt>
      <trkpt lat="45.66843" lon="5.71506">
        <ele>558</ele>
        <time>2021-06-05T11:33:15.530Z</time>
      </trkpt>
      <trkpt lat="45.6685" lon="5.71507">
        <ele>554</ele>
        <time>2021-06-05T11:33:20.546Z</time>
      </trkpt>
      <trkpt lat="45.66854" lon="5.71508">
        <ele>554</ele>
        <time>2021-06-05T11:33:25.551Z</time>
      </trkpt>
      <trkpt lat="45.66857" lon="5.71509">
        <ele>554</ele>
        <time>2021-06-05T11:33:30.563Z</time>
      </trkpt>
      <trkpt lat="45.66862" lon="5.71511">
        <ele>554</ele>
        <time>2021-06-05T11:33:35.542Z</time>
      </trkpt>
      <trkpt lat="45.66866" lon="5.7151">
        <ele>554</ele>
        <time>2021-06-05T11:33:40.553Z</time>
      </trkpt>
      <trkpt lat="45.66874" lon="5.71508">
        <ele>554</ele>
        <time>2021-06-05T11:33:45.544Z</time>
      </trkpt>
      <trkpt lat="45.66881" lon="5.71507">
        <ele>550</ele>
        <time>2021-06-05T11:33:50.545Z</time>
      </trkpt>
      <trkpt lat="45.66888" lon="5.71506">
        <ele>550</ele>
        <time>2021-06-05T11:33:54.554Z</time>
      </trkpt>
      <trkpt lat="45.66896" lon="5.71507">
        <ele>550</ele>
        <time>2021-06-05T11:33:59.535Z</time>
      </trkpt>
      <trkpt lat="45.66903" lon="5.71511">
        <ele>548</ele>
        <time>2021-06-05T11:34:04.546Z</time>
      </trkpt>
      <trkpt lat="45.66909" lon="5.71519">
        <ele>553</ele>
        <time>2021-06-05T11:34:09.545Z</time>
      </trkpt>
      <trkpt lat="45.66914" lon="5.71526">
        <ele>553</ele>
        <time>2021-06-05T11:34:14.548Z</time>
      </trkpt>
      <trkpt lat="45.66922" lon="5.71532">
        <ele>553</ele>
        <time>2021-06-05T11:34:19.552Z</time>
      </trkpt>
      <trkpt lat="45.66925" lon="5.71539">
        <ele>553</ele>
        <time>2021-06-05T11:34:24.538Z</time>
      </trkpt>
      <trkpt lat="45.6693" lon="5.71543">
        <ele>559</ele>
        <time>2021-06-05T11:34:29.563Z</time>
      </trkpt>
      <trkpt lat="45.66935" lon="5.7155">
        <ele>557</ele>
        <time>2021-06-05T11:34:34.546Z</time>
      </trkpt>
      <trkpt lat="45.6694" lon="5.71553">
        <ele>557</ele>
        <time>2021-06-05T11:34:39.549Z</time>
      </trkpt>
      <trkpt lat="45.66946" lon="5.71559">
        <ele>557</ele>
        <time>2021-06-05T11:34:44.547Z</time>
      </trkpt>
      <trkpt lat="45.66951" lon="5.71569">
        <ele>557</ele>
        <time>2021-06-05T11:34:49.562Z</time>
      </trkpt>
      <trkpt lat="45.66954" lon="5.71577">
        <ele>564</ele>
        <time>2021-06-05T11:34:54.559Z</time>
      </trkpt>
      <trkpt lat="45.66957" lon="5.71581">
        <ele>564</ele>
        <time>2021-06-05T11:34:59.550Z</time>
      </trkpt>
      <trkpt lat="45.66958" lon="5.7159">
        <ele>564</ele>
        <time>2021-06-05T11:35:04.554Z</time>
      </trkpt>
      <trkpt lat="45.66963" lon="5.716">
        <ele>567</ele>
        <time>2021-06-05T11:35:09.548Z</time>
      </trkpt>
      <trkpt lat="45.6697" lon="5.71608">
        <ele>567</ele>
        <time>2021-06-05T11:35:14.550Z</time>
      </trkpt>
      <trkpt lat="45.66977" lon="5.71611">
        <ele>567</ele>
        <time>2021-06-05T11:35:19.554Z</time>
      </trkpt>
      <trkpt lat="45.66981" lon="5.71612">
        <ele>567</ele>
        <time>2021-06-05T11:35:24.550Z</time>
      </trkpt>
      <trkpt lat="45.66989" lon="5.71611">
        <ele>563</ele>
        <time>2021-06-05T11:35:29.545Z</time>
      </trkpt>
      <trkpt lat="45.66995" lon="5.7161">
        <ele>563</ele>
        <time>2021-06-05T11:35:34.545Z</time>
      </trkpt>
      <trkpt lat="45.66998" lon="5.71609">
        <ele>563</ele>
        <time>2021-06-05T11:35:39.550Z</time>
      </trkpt>
      <trkpt lat="45.67002" lon="5.71605">
        <ele>563</ele>
        <time>2021-06-05T11:35:44.536Z</time>
      </trkpt>
      <trkpt lat="45.67007" lon="5.71604">
        <ele>563</ele>
        <time>2021-06-05T11:35:49.553Z</time>
      </trkpt>
      <trkpt lat="45.67011" lon="5.71604">
        <ele>563</ele>
        <time>2021-06-05T11:35:54.540Z</time>
      </trkpt>
      <trkpt lat="45.67016" lon="5.71607">
        <ele>561</ele>
        <time>2021-06-05T11:35:59.537Z</time>
      </trkpt>
      <trkpt lat="45.67022" lon="5.71608">
        <ele>561</ele>
        <time>2021-06-05T11:36:03.555Z</time>
      </trkpt>
      <trkpt lat="45.67028" lon="5.71609">
        <ele>561</ele>
        <time>2021-06-05T11:36:08.551Z</time>
      </trkpt>
      <trkpt lat="45.67032" lon="5.71612">
        <ele>561</ele>
        <time>2021-06-05T11:36:13.540Z</time>
      </trkpt>
      <trkpt lat="45.67045" lon="5.71615">
        <ele>559</ele>
        <time>2021-06-05T11:36:18.559Z</time>
      </trkpt>
      <trkpt lat="45.67052" lon="5.71618">
        <ele>559</ele>
        <time>2021-06-05T11:36:23.541Z</time>
      </trkpt>
      <trkpt lat="45.67059" lon="5.71622">
        <ele>559</ele>
        <time>2021-06-05T11:36:28.537Z</time>
      </trkpt>
      <trkpt lat="45.67066" lon="5.71626">
        <ele>561</ele>
        <time>2021-06-05T11:36:33.541Z</time>
      </trkpt>
      <trkpt lat="45.67071" lon="5.71626">
        <ele>555</ele>
        <time>2021-06-05T11:36:37.547Z</time>
      </trkpt>
      <trkpt lat="45.67076" lon="5.71626">
        <ele>555</ele>
        <time>2021-06-05T11:36:41.614Z</time>
      </trkpt>
      <trkpt lat="45.67084" lon="5.71631">
        <ele>555</ele>
        <time>2021-06-05T11:36:46.546Z</time>
      </trkpt>
      <trkpt lat="45.6709" lon="5.71633">
        <ele>555</ele>
        <time>2021-06-05T11:36:51.539Z</time>
      </trkpt>
      <trkpt lat="45.67097" lon="5.71633">
        <ele>555</ele>
        <time>2021-06-05T11:36:56.550Z</time>
      </trkpt>
      <trkpt lat="45.67101" lon="5.71633">
        <ele>549</ele>
        <time>2021-06-05T11:37:00.562Z</time>
      </trkpt>
      <trkpt lat="45.67108" lon="5.71629">
        <ele>549</ele>
        <time>2021-06-05T11:37:05.550Z</time>
      </trkpt>
      <trkpt lat="45.67114" lon="5.71628">
        <ele>549</ele>
        <time>2021-06-05T11:37:10.555Z</time>
      </trkpt>
      <trkpt lat="45.67119" lon="5.71626">
        <ele>549</ele>
        <time>2021-06-05T11:37:15.536Z</time>
      </trkpt>
      <trkpt lat="45.67125" lon="5.71627">
        <ele>545</ele>
        <time>2021-06-05T11:37:20.547Z</time>
      </trkpt>
      <trkpt lat="45.67131" lon="5.71627">
        <ele>545</ele>
        <time>2021-06-05T11:37:24.558Z</time>
      </trkpt>
      <trkpt lat="45.67141" lon="5.71625">
        <ele>545</ele>
        <time>2021-06-05T11:37:29.546Z</time>
      </trkpt>
      <trkpt lat="45.67145" lon="5.71627">
        <ele>545</ele>
        <time>2021-06-05T11:37:34.556Z</time>
      </trkpt>
      <trkpt lat="45.67151" lon="5.71631">
        <ele>545</ele>
        <time>2021-06-05T11:37:39.544Z</time>
      </trkpt>
      <trkpt lat="45.67156" lon="5.71636">
        <ele>543</ele>
        <time>2021-06-05T11:37:43.550Z</time>
      </trkpt>
      <trkpt lat="45.67161" lon="5.71644">
        <ele>543</ele>
        <time>2021-06-05T11:37:48.542Z</time>
      </trkpt>
      <trkpt lat="45.67163" lon="5.71646">
        <ele>543</ele>
        <time>2021-06-05T11:37:53.550Z</time>
      </trkpt>
      <trkpt lat="45.67166" lon="5.71648">
        <ele>543</ele>
        <time>2021-06-05T11:37:58.554Z</time>
      </trkpt>
      <trkpt lat="45.67168" lon="5.7165">
        <ele>543</ele>
        <time>2021-06-05T11:38:03.551Z</time>
      </trkpt>
      <trkpt lat="45.67172" lon="5.71652">
        <ele>543</ele>
        <time>2021-06-05T11:38:07.553Z</time>
      </trkpt>
      <trkpt lat="45.67176" lon="5.71656">
        <ele>545</ele>
        <time>2021-06-05T11:38:12.549Z</time>
      </trkpt>
      <trkpt lat="45.67179" lon="5.71659">
        <ele>545</ele>
        <time>2021-06-05T11:38:16.554Z</time>
      </trkpt>
      <trkpt lat="45.67182" lon="5.71664">
        <ele>544</ele>
        <time>2021-06-05T11:38:21.545Z</time>
      </trkpt>
      <trkpt lat="45.67185" lon="5.71667">
        <ele>544</ele>
        <time>2021-06-05T11:38:26.553Z</time>
      </trkpt>
      <trkpt lat="45.67192" lon="5.71673">
        <ele>544</ele>
        <time>2021-06-05T11:38:31.547Z</time>
      </trkpt>
      <trkpt lat="45.67199" lon="5.71674">
        <ele>544</ele>
        <time>2021-06-05T11:38:36.552Z</time>
      </trkpt>
      <trkpt lat="45.67204" lon="5.7167">
        <ele>544</ele>
        <time>2021-06-05T11:38:41.552Z</time>
      </trkpt>
      <trkpt lat="45.67206" lon="5.71669">
        <ele>544</ele>
        <time>2021-06-05T11:38:46.554Z</time>
      </trkpt>
      <trkpt lat="45.67213" lon="5.71666">
        <ele>540</ele>
        <time>2021-06-05T11:38:51.553Z</time>
      </trkpt>
      <trkpt lat="45.67222" lon="5.7166">
        <ele>540</ele>
        <time>2021-06-05T11:38:56.559Z</time>
      </trkpt>
      <trkpt lat="45.67228" lon="5.71658">
        <ele>540</ele>
        <time>2021-06-05T11:39:01.543Z</time>
      </trkpt>
      <trkpt lat="45.67234" lon="5.71654">
        <ele>540</ele>
        <time>2021-06-05T11:39:06.543Z</time>
      </trkpt>
      <trkpt lat="45.67239" lon="5.71651">
        <ele>537</ele>
        <time>2021-06-05T11:39:10.554Z</time>
      </trkpt>
      <trkpt lat="45.67244" lon="5.7165">
        <ele>537</ele>
        <time>2021-06-05T11:39:15.548Z</time>
      </trkpt>
      <trkpt lat="45.67248" lon="5.71649">
        <ele>537</ele>
        <time>2021-06-05T11:39:20.539Z</time>
      </trkpt>
      <trkpt lat="45.67253" lon="5.71645">
        <ele>537</ele>
        <time>2021-06-05T11:39:25.543Z</time>
      </trkpt>
      <trkpt lat="45.6726" lon="5.7164">
        <ele>537</ele>
        <time>2021-06-05T11:39:30.546Z</time>
      </trkpt>
      <trkpt lat="45.67264" lon="5.71637">
        <ele>538</ele>
        <time>2021-06-05T11:39:35.554Z</time>
      </trkpt>
      <trkpt lat="45.67272" lon="5.71634">
        <ele>538</ele>
        <time>2021-06-05T11:39:40.541Z</time>
      </trkpt>
      <trkpt lat="45.67276" lon="5.71634">
        <ele>538</ele>
        <time>2021-06-05T11:39:45.550Z</time>
      </trkpt>
      <trkpt lat="45.67288" lon="5.71626">
        <ele>538</ele>
        <time>2021-06-05T11:39:50.547Z</time>
      </trkpt>
      <trkpt lat="45.67296" lon="5.71618">
        <ele>540</ele>
        <time>2021-06-05T11:39:55.548Z</time>
      </trkpt>
      <trkpt lat="45.67301" lon="5.71608">
        <ele>540</ele>
        <time>2021-06-05T11:40:00.551Z</time>
      </trkpt>
      <trkpt lat="45.67306" lon="5.71601">
        <ele>540</ele>
        <time>2021-06-05T11:40:05.558Z</time>
      </trkpt>
      <trkpt lat="45.67312" lon="5.71597">
        <ele>538</ele>
        <time>2021-06-05T11:40:10.561Z</time>
      </trkpt>
      <trkpt lat="45.67317" lon="5.71591">
        <ele>538</ele>
        <time>2021-06-05T11:40:15.545Z</time>
      </trkpt>
      <trkpt lat="45.67324" lon="5.71582">
        <ele>543</ele>
        <time>2021-06-05T11:40:20.541Z</time>
      </trkpt>
      <trkpt lat="45.67331" lon="5.71573">
        <ele>543</ele>
        <time>2021-06-05T11:40:25.540Z</time>
      </trkpt>
      <trkpt lat="45.67335" lon="5.71566">
        <ele>541</ele>
        <time>2021-06-05T11:40:29.549Z</time>
      </trkpt>
      <trkpt lat="45.67338" lon="5.71558">
        <ele>541</ele>
        <time>2021-06-05T11:40:34.549Z</time>
      </trkpt>
      <trkpt lat="45.67344" lon="5.71551">
        <ele>541</ele>
        <time>2021-06-05T11:40:39.539Z</time>
      </trkpt>
      <trkpt lat="45.67349" lon="5.71545">
        <ele>544</ele>
        <time>2021-06-05T11:40:44.547Z</time>
      </trkpt>
      <trkpt lat="45.67354" lon="5.71537">
        <ele>540</ele>
        <time>2021-06-05T11:40:49.546Z</time>
      </trkpt>
      <trkpt lat="45.6736" lon="5.7153">
        <ele>540</ele>
        <time>2021-06-05T11:40:54.548Z</time>
      </trkpt>
      <trkpt lat="45.67367" lon="5.71524">
        <ele>540</ele>
        <time>2021-06-05T11:40:59.569Z</time>
      </trkpt>
      <trkpt lat="45.67373" lon="5.71519">
        <ele>540</ele>
        <time>2021-06-05T11:41:04.541Z</time>
      </trkpt>
      <trkpt lat="45.67375" lon="5.71517">
        <ele>542</ele>
        <time>2021-06-05T11:41:09.547Z</time>
      </trkpt>
      <trkpt lat="45.67377" lon="5.71516">
        <ele>542</ele>
        <time>2021-06-05T11:41:14.544Z</time>
      </trkpt>
      <trkpt lat="45.67384" lon="5.71513">
        <ele>536</ele>
        <time>2021-06-05T11:41:19.542Z</time>
      </trkpt>
      <trkpt lat="45.67389" lon="5.71509">
        <ele>536</ele>
        <time>2021-06-05T11:41:23.551Z</time>
      </trkpt>
      <trkpt lat="45.67392" lon="5.71508">
        <ele>536</ele>
        <time>2021-06-05T11:41:28.540Z</time>
      </trkpt>
      <trkpt lat="45.67394" lon="5.71508">
        <ele>536</ele>
        <time>2021-06-05T11:41:32.549Z</time>
      </trkpt>
      <trkpt lat="45.67398" lon="5.71507">
        <ele>536</ele>
        <time>2021-06-05T11:41:37.536Z</time>
      </trkpt>
      <trkpt lat="45.67403" lon="5.71507">
        <ele>536</ele>
        <time>2021-06-05T11:41:41.544Z</time>
      </trkpt>
      <trkpt lat="45.67411" lon="5.71511">
        <ele>533</ele>
        <time>2021-06-05T11:41:46.543Z</time>
      </trkpt>
      <trkpt lat="45.67421" lon="5.71515">
        <ele>538</ele>
        <time>2021-06-05T11:41:51.542Z</time>
      </trkpt>
      <trkpt lat="45.6743" lon="5.71516">
        <ele>538</ele>
        <time>2021-06-05T11:41:56.549Z</time>
      </trkpt>
      <trkpt lat="45.67436" lon="5.71517">
        <ele>534</ele>
        <time>2021-06-05T11:42:00.563Z</time>
      </trkpt>
      <trkpt lat="45.67441" lon="5.7152">
        <ele>534</ele>
        <time>2021-06-05T11:42:05.541Z</time>
      </trkpt>
      <trkpt lat="45.6745" lon="5.71519">
        <ele>534</ele>
        <time>2021-06-05T11:42:10.535Z</time>
      </trkpt>
      <trkpt lat="45.6746" lon="5.71518">
        <ele>534</ele>
        <time>2021-06-05T11:42:15.558Z</time>
      </trkpt>
      <trkpt lat="45.67473" lon="5.71517">
        <ele>534</ele>
        <time>2021-06-05T11:42:20.543Z</time>
      </trkpt>
      <trkpt lat="45.67478" lon="5.71516">
        <ele>534</ele>
        <time>2021-06-05T11:42:24.549Z</time>
      </trkpt>
      <trkpt lat="45.67488" lon="5.71511">
        <ele>527</ele>
        <time>2021-06-05T11:42:28.552Z</time>
      </trkpt>
      <trkpt lat="45.67496" lon="5.71509">
        <ele>527</ele>
        <time>2021-06-05T11:42:33.567Z</time>
      </trkpt>
      <trkpt lat="45.67501" lon="5.71509">
        <ele>527</ele>
        <time>2021-06-05T11:42:38.543Z</time>
      </trkpt>
      <trkpt lat="45.67506" lon="5.7151">
        <ele>527</ele>
        <time>2021-06-05T11:42:42.551Z</time>
      </trkpt>
      <trkpt lat="45.67514" lon="5.71515">
        <ele>527</ele>
        <time>2021-06-05T11:42:47.531Z</time>
      </trkpt>
      <trkpt lat="45.67518" lon="5.71515">
        <ele>527</ele>
        <time>2021-06-05T11:42:51.548Z</time>
      </trkpt>
      <trkpt lat="45.67526" lon="5.71514">
        <ele>517</ele>
        <time>2021-06-05T11:42:56.553Z</time>
      </trkpt>
      <trkpt lat="45.67535" lon="5.71513">
        <ele>517</ele>
        <time>2021-06-05T11:43:01.543Z</time>
      </trkpt>
      <trkpt lat="45.6754" lon="5.71514">
        <ele>517</ele>
        <time>2021-06-05T11:43:05.560Z</time>
      </trkpt>
      <trkpt lat="45.67545" lon="5.71515">
        <ele>521</ele>
        <time>2021-06-05T11:43:10.556Z</time>
      </trkpt>
      <trkpt lat="45.67551" lon="5.7152">
        <ele>521</ele>
        <time>2021-06-05T11:43:15.541Z</time>
      </trkpt>
      <trkpt lat="45.67555" lon="5.71524">
        <ele>521</ele>
        <time>2021-06-05T11:43:20.552Z</time>
      </trkpt>
      <trkpt lat="45.6756" lon="5.71526">
        <ele>521</ele>
        <time>2021-06-05T11:43:25.544Z</time>
      </trkpt>
      <trkpt lat="45.67567" lon="5.71527">
        <ele>521</ele>
        <time>2021-06-05T11:43:29.556Z</time>
      </trkpt>
      <trkpt lat="45.67576" lon="5.7153">
        <ele>518</ele>
        <time>2021-06-05T11:43:34.535Z</time>
      </trkpt>
      <trkpt lat="45.6758" lon="5.7153">
        <ele>518</ele>
        <time>2021-06-05T11:43:38.551Z</time>
      </trkpt>
      <trkpt lat="45.67583" lon="5.7153">
        <ele>518</ele>
        <time>2021-06-05T11:43:43.557Z</time>
      </trkpt>
      <trkpt lat="45.6759" lon="5.7153">
        <ele>518</ele>
        <time>2021-06-05T11:43:48.548Z</time>
      </trkpt>
      <trkpt lat="45.67597" lon="5.7153">
        <ele>518</ele>
        <time>2021-06-05T11:43:53.548Z</time>
      </trkpt>
      <trkpt lat="45.67602" lon="5.71534">
        <ele>516</ele>
        <time>2021-06-05T11:43:57.568Z</time>
      </trkpt>
      <trkpt lat="45.67605" lon="5.71537">
        <ele>516</ele>
        <time>2021-06-05T11:44:02.535Z</time>
      </trkpt>
      <trkpt lat="45.67609" lon="5.71534">
        <ele>516</ele>
        <time>2021-06-05T11:44:07.566Z</time>
      </trkpt>
      <trkpt lat="45.67623" lon="5.71527">
        <ele>516</ele>
        <time>2021-06-05T11:44:12.547Z</time>
      </trkpt>
      <trkpt lat="45.67632" lon="5.71523">
        <ele>515</ele>
        <time>2021-06-05T11:44:17.542Z</time>
      </trkpt>
      <trkpt lat="45.67642" lon="5.71514">
        <ele>515</ele>
        <time>2021-06-05T11:44:21.548Z</time>
      </trkpt>
      <trkpt lat="45.67649" lon="5.71509">
        <ele>505</ele>
        <time>2021-06-05T11:44:26.557Z</time>
      </trkpt>
      <trkpt lat="45.67656" lon="5.71506">
        <ele>506</ele>
        <time>2021-06-05T11:44:31.537Z</time>
      </trkpt>
      <trkpt lat="45.67659" lon="5.71505">
        <ele>506</ele>
        <time>2021-06-05T11:44:35.549Z</time>
      </trkpt>
      <trkpt lat="45.67665" lon="5.71503">
        <ele>506</ele>
        <time>2021-06-05T11:44:40.553Z</time>
      </trkpt>
      <trkpt lat="45.67669" lon="5.71502">
        <ele>506</ele>
        <time>2021-06-05T11:44:45.551Z</time>
      </trkpt>
      <trkpt lat="45.67675" lon="5.71504">
        <ele>506</ele>
        <time>2021-06-05T11:44:50.539Z</time>
      </trkpt>
      <trkpt lat="45.67679" lon="5.71504">
        <ele>506</ele>
        <time>2021-06-05T11:44:54.555Z</time>
      </trkpt>
      <trkpt lat="45.67687" lon="5.71503">
        <ele>509</ele>
        <time>2021-06-05T11:44:59.563Z</time>
      </trkpt>
      <trkpt lat="45.67695" lon="5.71504">
        <ele>509</ele>
        <time>2021-06-05T11:45:04.568Z</time>
      </trkpt>
      <trkpt lat="45.67705" lon="5.71501">
        <ele>509</ele>
        <time>2021-06-05T11:45:09.540Z</time>
      </trkpt>
      <trkpt lat="45.6771" lon="5.715">
        <ele>514</ele>
        <time>2021-06-05T11:45:13.550Z</time>
      </trkpt>
      <trkpt lat="45.67718" lon="5.71495">
        <ele>514</ele>
        <time>2021-06-05T11:45:18.559Z</time>
      </trkpt>
      <trkpt lat="45.6772" lon="5.71493">
        <ele>514</ele>
        <time>2021-06-05T11:45:23.562Z</time>
      </trkpt>
      <trkpt lat="45.67721" lon="5.71488">
        <ele>514</ele>
        <time>2021-06-05T11:45:28.561Z</time>
      </trkpt>
      <trkpt lat="45.6772" lon="5.71479">
        <ele>506</ele>
        <time>2021-06-05T11:45:33.547Z</time>
      </trkpt>
      <trkpt lat="45.67716" lon="5.71472">
        <ele>506</ele>
        <time>2021-06-05T11:45:38.537Z</time>
      </trkpt>
      <trkpt lat="45.67713" lon="5.7147">
        <ele>506</ele>
        <time>2021-06-05T11:45:42.549Z</time>
      </trkpt>
      <trkpt lat="45.67706" lon="5.71469">
        <ele>501</ele>
        <time>2021-06-05T11:45:47.544Z</time>
      </trkpt>
      <trkpt lat="45.67701" lon="5.7147">
        <ele>501</ele>
        <time>2021-06-05T11:45:52.562Z</time>
      </trkpt>
      <trkpt lat="45.67694" lon="5.71471">
        <ele>501</ele>
        <time>2021-06-05T11:45:57.546Z</time>
      </trkpt>
      <trkpt lat="45.67688" lon="5.71473">
        <ele>501</ele>
        <time>2021-06-05T11:46:01.547Z</time>
      </trkpt>
      <trkpt lat="45.67685" lon="5.71475">
        <ele>501</ele>
        <time>2021-06-05T11:46:06.558Z</time>
      </trkpt>
      <trkpt lat="45.67679" lon="5.71476">
        <ele>497</ele>
        <time>2021-06-05T11:46:10.570Z</time>
      </trkpt>
      <trkpt lat="45.67673" lon="5.71478">
        <ele>497</ele>
        <time>2021-06-05T11:46:15.561Z</time>
      </trkpt>
      <trkpt lat="45.67668" lon="5.7148">
        <ele>497</ele>
        <time>2021-06-05T11:46:20.560Z</time>
      </trkpt>
      <trkpt lat="45.67663" lon="5.71481">
        <ele>497</ele>
        <time>2021-06-05T11:46:25.554Z</time>
      </trkpt>
      <trkpt lat="45.67653" lon="5.71484">
        <ele>497</ele>
        <time>2021-06-05T11:46:29.566Z</time>
      </trkpt>
      <trkpt lat="45.67645" lon="5.71483">
        <ele>496</ele>
        <time>2021-06-05T11:46:34.550Z</time>
      </trkpt>
      <trkpt lat="45.67639" lon="5.71485">
        <ele>496</ele>
        <time>2021-06-05T11:46:39.546Z</time>
      </trkpt>
      <trkpt lat="45.67634" lon="5.71486">
        <ele>496</ele>
        <time>2021-06-05T11:46:44.548Z</time>
      </trkpt>
      <trkpt lat="45.67629" lon="5.71484">
        <ele>496</ele>
        <time>2021-06-05T11:46:49.559Z</time>
      </trkpt>
      <trkpt lat="45.67623" lon="5.71479">
        <ele>497</ele>
        <time>2021-06-05T11:46:54.549Z</time>
      </trkpt>
      <trkpt lat="45.6762" lon="5.71474">
        <ele>497</ele>
        <time>2021-06-05T11:46:59.558Z</time>
      </trkpt>
      <trkpt lat="45.67613" lon="5.71468">
        <ele>497</ele>
        <time>2021-06-05T11:47:04.545Z</time>
      </trkpt>
      <trkpt lat="45.67608" lon="5.71463">
        <ele>497</ele>
        <time>2021-06-05T11:47:09.557Z</time>
      </trkpt>
      <trkpt lat="45.67602" lon="5.71461">
        <ele>497</ele>
        <time>2021-06-05T11:47:14.539Z</time>
      </trkpt>
      <trkpt lat="45.67595" lon="5.71457">
        <ele>489</ele>
        <time>2021-06-05T11:47:18.551Z</time>
      </trkpt>
      <trkpt lat="45.67586" lon="5.71453">
        <ele>489</ele>
        <time>2021-06-05T11:47:23.553Z</time>
      </trkpt>
      <trkpt lat="45.67579" lon="5.71452">
        <ele>489</ele>
        <time>2021-06-05T11:47:28.557Z</time>
      </trkpt>
      <trkpt lat="45.67577" lon="5.7145">
        <ele>489</ele>
        <time>2021-06-05T11:47:33.546Z</time>
      </trkpt>
      <trkpt lat="45.6757" lon="5.71444">
        <ele>489</ele>
        <time>2021-06-05T11:47:38.543Z</time>
      </trkpt>
      <trkpt lat="45.67565" lon="5.71439">
        <ele>491</ele>
        <time>2021-06-05T11:47:42.553Z</time>
      </trkpt>
      <trkpt lat="45.67561" lon="5.71437">
        <ele>491</ele>
        <time>2021-06-05T11:47:47.543Z</time>
      </trkpt>
      <trkpt lat="45.67557" lon="5.71435">
        <ele>491</ele>
        <time>2021-06-05T11:47:52.561Z</time>
      </trkpt>
      <trkpt lat="45.67554" lon="5.71432">
        <ele>491</ele>
        <time>2021-06-05T11:47:57.566Z</time>
      </trkpt>
      <trkpt lat="45.67547" lon="5.71422">
        <ele>483</ele>
        <time>2021-06-05T11:48:02.565Z</time>
      </trkpt>
      <trkpt lat="45.67541" lon="5.71411">
        <ele>487</ele>
        <time>2021-06-05T11:48:07.551Z</time>
      </trkpt>
      <trkpt lat="45.67538" lon="5.71403">
        <ele>480</ele>
        <time>2021-06-05T11:48:12.567Z</time>
      </trkpt>
      <trkpt lat="45.67534" lon="5.71396">
        <ele>480</ele>
        <time>2021-06-05T11:48:17.555Z</time>
      </trkpt>
      <trkpt lat="45.67524" lon="5.71387">
        <ele>480</ele>
        <time>2021-06-05T11:48:22.561Z</time>
      </trkpt>
      <trkpt lat="45.6752" lon="5.71386">
        <ele>480</ele>
        <time>2021-06-05T11:48:27.558Z</time>
      </trkpt>
      <trkpt lat="45.67515" lon="5.71385">
        <ele>480</ele>
        <time>2021-06-05T11:48:32.547Z</time>
      </trkpt>
      <trkpt lat="45.67506" lon="5.71381">
        <ele>484</ele>
        <time>2021-06-05T11:48:37.561Z</time>
      </trkpt>
      <trkpt lat="45.67497" lon="5.71372">
        <ele>478</ele>
        <time>2021-06-05T11:48:42.549Z</time>
      </trkpt>
      <trkpt lat="45.67492" lon="5.71366">
        <ele>478</ele>
        <time>2021-06-05T11:48:47.558Z</time>
      </trkpt>
      <trkpt lat="45.67488" lon="5.71362">
        <ele>478</ele>
        <time>2021-06-05T11:48:52.565Z</time>
      </trkpt>
      <trkpt lat="45.67481" lon="5.71357">
        <ele>481</ele>
        <time>2021-06-05T11:48:57.559Z</time>
      </trkpt>
      <trkpt lat="45.67475" lon="5.71356">
        <ele>481</ele>
        <time>2021-06-05T11:49:02.555Z</time>
      </trkpt>
      <trkpt lat="45.67472" lon="5.71355">
        <ele>481</ele>
        <time>2021-06-05T11:49:07.579Z</time>
      </trkpt>
      <trkpt lat="45.67471" lon="5.71354">
        <ele>481</ele>
        <time>2021-06-05T11:49:12.550Z</time>
      </trkpt>
      <trkpt lat="45.67466" lon="5.71353">
        <ele>481</ele>
        <time>2021-06-05T11:49:16.558Z</time>
      </trkpt>
      <trkpt lat="45.67459" lon="5.71349">
        <ele>481</ele>
        <time>2021-06-05T11:49:21.567Z</time>
      </trkpt>
      <trkpt lat="45.6745" lon="5.71344">
        <ele>473</ele>
        <time>2021-06-05T11:49:26.556Z</time>
      </trkpt>
      <trkpt lat="45.67445" lon="5.71342">
        <ele>473</ele>
        <time>2021-06-05T11:49:31.566Z</time>
      </trkpt>
      <trkpt lat="45.67438" lon="5.71331">
        <ele>473</ele>
        <time>2021-06-05T11:49:36.549Z</time>
      </trkpt>
      <trkpt lat="45.67429" lon="5.71325">
        <ele>473</ele>
        <time>2021-06-05T11:49:40.563Z</time>
      </trkpt>
      <trkpt lat="45.67425" lon="5.71324">
        <ele>473</ele>
        <time>2021-06-05T11:49:45.552Z</time>
      </trkpt>
      <trkpt lat="45.67421" lon="5.71321">
        <ele>473</ele>
        <time>2021-06-05T11:49:50.543Z</time>
      </trkpt>
      <trkpt lat="45.67419" lon="5.71314">
        <ele>471</ele>
        <time>2021-06-05T11:49:54.558Z</time>
      </trkpt>
      <trkpt lat="45.6742" lon="5.71305">
        <ele>471</ele>
        <time>2021-06-05T11:49:59.580Z</time>
      </trkpt>
      <trkpt lat="45.67424" lon="5.71299">
        <ele>471</ele>
        <time>2021-06-05T11:50:04.568Z</time>
      </trkpt>
      <trkpt lat="45.67427" lon="5.71296">
        <ele>471</ele>
        <time>2021-06-05T11:50:09.557Z</time>
      </trkpt>
      <trkpt lat="45.67432" lon="5.7129">
        <ele>464</ele>
        <time>2021-06-05T11:50:14.557Z</time>
      </trkpt>
      <trkpt lat="45.67434" lon="5.71288">
        <ele>464</ele>
        <time>2021-06-05T11:50:18.563Z</time>
      </trkpt>
      <trkpt lat="45.6744" lon="5.71281">
        <ele>464</ele>
        <time>2021-06-05T11:50:23.559Z</time>
      </trkpt>
      <trkpt lat="45.67447" lon="5.71276">
        <ele>464</ele>
        <time>2021-06-05T11:50:28.556Z</time>
      </trkpt>
      <trkpt lat="45.6745" lon="5.71274">
        <ele>464</ele>
        <time>2021-06-05T11:50:33.557Z</time>
      </trkpt>
      <trkpt lat="45.67453" lon="5.71273">
        <ele>464</ele>
        <time>2021-06-05T11:50:38.556Z</time>
      </trkpt>
      <trkpt lat="45.67455" lon="5.71273">
        <ele>464</ele>
        <time>2021-06-05T11:50:43.544Z</time>
      </trkpt>
      <trkpt lat="45.6746" lon="5.71272">
        <ele>460</ele>
        <time>2021-06-05T11:50:48.549Z</time>
      </trkpt>
      <trkpt lat="45.67463" lon="5.71274">
        <ele>460</ele>
        <time>2021-06-05T11:50:53.551Z</time>
      </trkpt>
      <trkpt lat="45.67466" lon="5.71276">
        <ele>460</ele>
        <time>2021-06-05T11:50:58.548Z</time>
      </trkpt>
      <trkpt lat="45.67468" lon="5.71277">
        <ele>460</ele>
        <time>2021-06-05T11:51:03.548Z</time>
      </trkpt>
      <trkpt lat="45.67472" lon="5.71275">
        <ele>460</ele>
        <time>2021-06-05T11:51:08.556Z</time>
      </trkpt>
      <trkpt lat="45.67475" lon="5.71276">
        <ele>460</ele>
        <time>2021-06-05T11:51:13.555Z</time>
      </trkpt>
      <trkpt lat="45.67485" lon="5.71275">
        <ele>460</ele>
        <time>2021-06-05T11:51:18.546Z</time>
      </trkpt>
      <trkpt lat="45.67491" lon="5.71275">
        <ele>457</ele>
        <time>2021-06-05T11:51:23.564Z</time>
      </trkpt>
      <trkpt lat="45.67497" lon="5.71279">
        <ele>457</ele>
        <time>2021-06-05T11:51:28.550Z</time>
      </trkpt>
      <trkpt lat="45.67502" lon="5.71284">
        <ele>457</ele>
        <time>2021-06-05T11:51:32.560Z</time>
      </trkpt>
      <trkpt lat="45.67509" lon="5.7129">
        <ele>457</ele>
        <time>2021-06-05T11:51:37.563Z</time>
      </trkpt>
      <trkpt lat="45.67514" lon="5.71294">
        <ele>460</ele>
        <time>2021-06-05T11:51:42.541Z</time>
      </trkpt>
      <trkpt lat="45.67519" lon="5.71301">
        <ele>460</ele>
        <time>2021-06-05T11:51:47.541Z</time>
      </trkpt>
      <trkpt lat="45.67525" lon="5.71307">
        <ele>460</ele>
        <time>2021-06-05T11:51:52.541Z</time>
      </trkpt>
      <trkpt lat="45.67529" lon="5.71312">
        <ele>460</ele>
        <time>2021-06-05T11:51:56.559Z</time>
      </trkpt>
      <trkpt lat="45.67532" lon="5.71313">
        <ele>460</ele>
        <time>2021-06-05T11:52:01.547Z</time>
      </trkpt>
      <trkpt lat="45.67538" lon="5.71313">
        <ele>460</ele>
        <time>2021-06-05T11:52:06.566Z</time>
      </trkpt>
      <trkpt lat="45.67544" lon="5.71316">
        <ele>454</ele>
        <time>2021-06-05T11:52:11.558Z</time>
      </trkpt>
      <trkpt lat="45.67552" lon="5.71318">
        <ele>454</ele>
        <time>2021-06-05T11:52:16.549Z</time>
      </trkpt>
      <trkpt lat="45.67559" lon="5.71317">
        <ele>454</ele>
        <time>2021-06-05T11:52:21.549Z</time>
      </trkpt>
      <trkpt lat="45.67565" lon="5.71318">
        <ele>454</ele>
        <time>2021-06-05T11:52:26.563Z</time>
      </trkpt>
      <trkpt lat="45.67567" lon="5.71318">
        <ele>454</ele>
        <time>2021-06-05T11:52:31.564Z</time>
      </trkpt>
      <trkpt lat="45.6757" lon="5.71317">
        <ele>446</ele>
        <time>2021-06-05T11:52:36.556Z</time>
      </trkpt>
      <trkpt lat="45.67573" lon="5.71316">
        <ele>446</ele>
        <time>2021-06-05T11:52:41.559Z</time>
      </trkpt>
      <trkpt lat="45.6758" lon="5.71316">
        <ele>446</ele>
        <time>2021-06-05T11:52:46.557Z</time>
      </trkpt>
      <trkpt lat="45.67588" lon="5.71315">
        <ele>446</ele>
        <time>2021-06-05T11:52:51.548Z</time>
      </trkpt>
      <trkpt lat="45.67597" lon="5.71314">
        <ele>446</ele>
        <time>2021-06-05T11:52:56.557Z</time>
      </trkpt>
      <trkpt lat="45.67602" lon="5.71311">
        <ele>441</ele>
        <time>2021-06-05T11:53:01.556Z</time>
      </trkpt>
      <trkpt lat="45.67604" lon="5.71312">
        <ele>441</ele>
        <time>2021-06-05T11:53:06.556Z</time>
      </trkpt>
      <trkpt lat="45.67605" lon="5.71314">
        <ele>441</ele>
        <time>2021-06-05T11:53:11.568Z</time>
      </trkpt>
      <trkpt lat="45.67607" lon="5.7131">
        <ele>441</ele>
        <time>2021-06-05T11:53:16.552Z</time>
      </trkpt>
      <trkpt lat="45.67615" lon="5.71306">
        <ele>441</ele>
        <time>2021-06-05T11:53:21.564Z</time>
      </trkpt>
      <trkpt lat="45.67621" lon="5.71306">
        <ele>441</ele>
        <time>2021-06-05T11:53:26.548Z</time>
      </trkpt>
      <trkpt lat="45.67628" lon="5.71307">
        <ele>434</ele>
        <time>2021-06-05T11:53:31.552Z</time>
      </trkpt>
      <trkpt lat="45.67633" lon="5.71306">
        <ele>434</ele>
        <time>2021-06-05T11:53:35.559Z</time>
      </trkpt>
      <trkpt lat="45.67638" lon="5.71304">
        <ele>434</ele>
        <time>2021-06-05T11:53:40.566Z</time>
      </trkpt>
      <trkpt lat="45.67642" lon="5.71303">
        <ele>434</ele>
        <time>2021-06-05T11:53:45.560Z</time>
      </trkpt>
      <trkpt lat="45.67645" lon="5.71304">
        <ele>434</ele>
        <time>2021-06-05T11:53:50.563Z</time>
      </trkpt>
      <trkpt lat="45.67651" lon="5.71303">
        <ele>434</ele>
        <time>2021-06-05T11:53:55.558Z</time>
      </trkpt>
      <trkpt lat="45.67656" lon="5.71304">
        <ele>430</ele>
        <time>2021-06-05T11:54:00.542Z</time>
      </trkpt>
      <trkpt lat="45.67663" lon="5.71305">
        <ele>430</ele>
        <time>2021-06-05T11:54:04.554Z</time>
      </trkpt>
      <trkpt lat="45.67668" lon="5.71306">
        <ele>430</ele>
        <time>2021-06-05T11:54:09.569Z</time>
      </trkpt>
      <trkpt lat="45.67673" lon="5.71308">
        <ele>430</ele>
        <time>2021-06-05T11:54:14.542Z</time>
      </trkpt>
      <trkpt lat="45.67679" lon="5.71307">
        <ele>430</ele>
        <time>2021-06-05T11:54:19.551Z</time>
      </trkpt>
      <trkpt lat="45.67683" lon="5.71311">
        <ele>428</ele>
        <time>2021-06-05T11:54:24.561Z</time>
      </trkpt>
      <trkpt lat="45.67686" lon="5.71313">
        <ele>428</ele>
        <time>2021-06-05T11:54:29.560Z</time>
      </trkpt>
      <trkpt lat="45.67693" lon="5.71314">
        <ele>428</ele>
        <time>2021-06-05T11:54:34.558Z</time>
      </trkpt>
      <trkpt lat="45.677" lon="5.71313">
        <ele>428</ele>
        <time>2021-06-05T11:54:39.540Z</time>
      </trkpt>
      <trkpt lat="45.67705" lon="5.71312">
        <ele>428</ele>
        <time>2021-06-05T11:54:44.559Z</time>
      </trkpt>
      <trkpt lat="45.67712" lon="5.71311">
        <ele>423</ele>
        <time>2021-06-05T11:54:49.560Z</time>
      </trkpt>
      <trkpt lat="45.67718" lon="5.71309">
        <ele>423</ele>
        <time>2021-06-05T11:54:53.567Z</time>
      </trkpt>
      <trkpt lat="45.67719" lon="5.71308">
        <ele>423</ele>
        <time>2021-06-05T11:54:58.554Z</time>
      </trkpt>
      <trkpt lat="45.67718" lon="5.71306">
        <ele>423</ele>
        <time>2021-06-05T11:55:02.566Z</time>
      </trkpt>
      <trkpt lat="45.67716" lon="5.71304">
        <ele>423</ele>
        <time>2021-06-05T11:55:07.548Z</time>
      </trkpt>
      <trkpt lat="45.67711" lon="5.71303">
        <ele>423</ele>
        <time>2021-06-05T11:55:12.543Z</time>
      </trkpt>
      <trkpt lat="45.67705" lon="5.71302">
        <ele>428</ele>
        <time>2021-06-05T11:55:17.544Z</time>
      </trkpt>
      <trkpt lat="45.677" lon="5.71298">
        <ele>428</ele>
        <time>2021-06-05T11:55:21.557Z</time>
      </trkpt>
      <trkpt lat="45.67693" lon="5.71294">
        <ele>428</ele>
        <time>2021-06-05T11:55:26.543Z</time>
      </trkpt>
      <trkpt lat="45.67688" lon="5.71288">
        <ele>420</ele>
        <time>2021-06-05T11:55:31.536Z</time>
      </trkpt>
      <trkpt lat="45.67684" lon="5.71287">
        <ele>420</ele>
        <time>2021-06-05T11:55:35.555Z</time>
      </trkpt>
      <trkpt lat="45.67679" lon="5.71281">
        <ele>421</ele>
        <time>2021-06-05T11:55:40.557Z</time>
      </trkpt>
      <trkpt lat="45.67674" lon="5.71274">
        <ele>421</ele>
        <time>2021-06-05T11:55:45.545Z</time>
      </trkpt>
      <trkpt lat="45.6767" lon="5.71269">
        <ele>421</ele>
        <time>2021-06-05T11:55:49.556Z</time>
      </trkpt>
      <trkpt lat="45.67664" lon="5.71262">
        <ele>414</ele>
        <time>2021-06-05T11:55:54.557Z</time>
      </trkpt>
      <trkpt lat="45.6766" lon="5.71257">
        <ele>414</ele>
        <time>2021-06-05T11:55:59.549Z</time>
      </trkpt>
      <trkpt lat="45.67656" lon="5.71253">
        <ele>414</ele>
        <time>2021-06-05T11:56:03.565Z</time>
      </trkpt>
      <trkpt lat="45.67652" lon="5.71246">
        <ele>420</ele>
        <time>2021-06-05T11:56:08.553Z</time>
      </trkpt>
      <trkpt lat="45.67649" lon="5.71237">
        <ele>420</ele>
        <time>2021-06-05T11:56:13.539Z</time>
      </trkpt>
      <trkpt lat="45.67647" lon="5.7123">
        <ele>415</ele>
        <time>2021-06-05T11:56:17.536Z</time>
      </trkpt>
      <trkpt lat="45.67645" lon="5.71225">
        <ele>415</ele>
        <time>2021-06-05T11:56:22.548Z</time>
      </trkpt>
      <trkpt lat="45.67642" lon="5.71217">
        <ele>415</ele>
        <time>2021-06-05T11:56:27.538Z</time>
      </trkpt>
      <trkpt lat="45.6764" lon="5.71212">
        <ele>415</ele>
        <time>2021-06-05T11:56:31.557Z</time>
      </trkpt>
      <trkpt lat="45.67639" lon="5.7121">
        <ele>415</ele>
        <time>2021-06-05T11:58:31.504Z</time>
      </trkpt>
      <trkpt lat="45.67639" lon="5.71209">
        <ele>415</ele>
        <time>2021-06-05T11:58:36.499Z</time>
      </trkpt>
      <trkpt lat="45.67638" lon="5.71209">
        <ele>415</ele>
        <time>2021-06-05T11:58:40.508Z</time>
      </trkpt>
      <trkpt lat="45.67631" lon="5.71211">
        <ele>415</ele>
        <time>2021-06-05T11:58:45.559Z</time>
      </trkpt>
      <trkpt lat="45.67623" lon="5.7121">
        <ele>420</ele>
        <time>2021-06-05T11:58:50.548Z</time>
      </trkpt>
      <trkpt lat="45.67617" lon="5.71206">
        <ele>414</ele>
        <time>2021-06-05T11:58:54.567Z</time>
      </trkpt>
      <trkpt lat="45.67609" lon="5.71204">
        <ele>414</ele>
        <time>2021-06-05T11:58:59.546Z</time>
      </trkpt>
      <trkpt lat="45.67603" lon="5.71203">
        <ele>414</ele>
        <time>2021-06-05T11:59:04.552Z</time>
      </trkpt>
      <trkpt lat="45.67595" lon="5.712">
        <ele>412</ele>
        <time>2021-06-05T11:59:09.553Z</time>
      </trkpt>
      <trkpt lat="45.67589" lon="5.71199">
        <ele>412</ele>
        <time>2021-06-05T11:59:14.546Z</time>
      </trkpt>
      <trkpt lat="45.67584" lon="5.71197">
        <ele>412</ele>
        <time>2021-06-05T11:59:19.560Z</time>
      </trkpt>
      <trkpt lat="45.67578" lon="5.71196">
        <ele>412</ele>
        <time>2021-06-05T11:59:24.564Z</time>
      </trkpt>
      <trkpt lat="45.67571" lon="5.71192">
        <ele>412</ele>
        <time>2021-06-05T11:59:29.560Z</time>
      </trkpt>
      <trkpt lat="45.67565" lon="5.71189">
        <ele>411</ele>
        <time>2021-06-05T11:59:34.561Z</time>
      </trkpt>
      <trkpt lat="45.67555" lon="5.71186">
        <ele>411</ele>
        <time>2021-06-05T11:59:39.559Z</time>
      </trkpt>
      <trkpt lat="45.67549" lon="5.71184">
        <ele>411</ele>
        <time>2021-06-05T11:59:44.557Z</time>
      </trkpt>
      <trkpt lat="45.67544" lon="5.71181">
        <ele>411</ele>
        <time>2021-06-05T11:59:49.558Z</time>
      </trkpt>
      <trkpt lat="45.67539" lon="5.71174">
        <ele>399</ele>
        <time>2021-06-05T11:59:54.557Z</time>
      </trkpt>
      <trkpt lat="45.67536" lon="5.7117">
        <ele>399</ele>
        <time>2021-06-05T11:59:59.555Z</time>
      </trkpt>
      <trkpt lat="45.67533" lon="5.71167">
        <ele>399</ele>
        <time>2021-06-05T12:00:03.555Z</time>
      </trkpt>
      <trkpt lat="45.67529" lon="5.71163">
        <ele>399</ele>
        <time>2021-06-05T12:00:08.560Z</time>
      </trkpt>
      <trkpt lat="45.67523" lon="5.7116">
        <ele>399</ele>
        <time>2021-06-05T12:00:13.548Z</time>
      </trkpt>
      <trkpt lat="45.67518" lon="5.71157">
        <ele>399</ele>
        <time>2021-06-05T12:00:18.540Z</time>
      </trkpt>
      <trkpt lat="45.67514" lon="5.71154">
        <ele>399</ele>
        <time>2021-06-05T12:00:22.554Z</time>
      </trkpt>
      <trkpt lat="45.67509" lon="5.71152">
        <ele>388</ele>
        <time>2021-06-05T12:00:27.567Z</time>
      </trkpt>
      <trkpt lat="45.67502" lon="5.71148">
        <ele>388</ele>
        <time>2021-06-05T12:00:32.553Z</time>
      </trkpt>
      <trkpt lat="45.67495" lon="5.71146">
        <ele>388</ele>
        <time>2021-06-05T12:00:37.553Z</time>
      </trkpt>
      <trkpt lat="45.6749" lon="5.71142">
        <ele>388</ele>
        <time>2021-06-05T12:00:42.550Z</time>
      </trkpt>
      <trkpt lat="45.67485" lon="5.71139">
        <ele>393</ele>
        <time>2021-06-05T12:00:47.556Z</time>
      </trkpt>
      <trkpt lat="45.67477" lon="5.71133">
        <ele>393</ele>
        <time>2021-06-05T12:00:52.563Z</time>
      </trkpt>
      <trkpt lat="45.67469" lon="5.71127">
        <ele>393</ele>
        <time>2021-06-05T12:00:57.548Z</time>
      </trkpt>
      <trkpt lat="45.67461" lon="5.71124">
        <ele>381</ele>
        <time>2021-06-05T12:01:02.546Z</time>
      </trkpt>
      <trkpt lat="45.67456" lon="5.7112">
        <ele>384</ele>
        <time>2021-06-05T12:01:07.556Z</time>
      </trkpt>
      <trkpt lat="45.67451" lon="5.71113">
        <ele>384</ele>
        <time>2021-06-05T12:01:12.544Z</time>
      </trkpt>
      <trkpt lat="45.67447" lon="5.71111">
        <ele>384</ele>
        <time>2021-06-05T12:01:17.550Z</time>
      </trkpt>
      <trkpt lat="45.67442" lon="5.71107">
        <ele>384</ele>
        <time>2021-06-05T12:01:22.561Z</time>
      </trkpt>
      <trkpt lat="45.67437" lon="5.71102">
        <ele>384</ele>
        <time>2021-06-05T12:01:27.558Z</time>
      </trkpt>
      <trkpt lat="45.67433" lon="5.71099">
        <ele>384</ele>
        <time>2021-06-05T12:01:32.556Z</time>
      </trkpt>
      <trkpt lat="45.67431" lon="5.71096">
        <ele>371</ele>
        <time>2021-06-05T12:01:36.566Z</time>
      </trkpt>
      <trkpt lat="45.67426" lon="5.71092">
        <ele>371</ele>
        <time>2021-06-05T12:01:41.558Z</time>
      </trkpt>
      <trkpt lat="45.6742" lon="5.71088">
        <ele>371</ele>
        <time>2021-06-05T12:01:46.545Z</time>
      </trkpt>
      <trkpt lat="45.67415" lon="5.71087">
        <ele>371</ele>
        <time>2021-06-05T12:01:51.559Z</time>
      </trkpt>
      <trkpt lat="45.6741" lon="5.71085">
        <ele>371</ele>
        <time>2021-06-05T12:01:55.556Z</time>
      </trkpt>
      <trkpt lat="45.67405" lon="5.71081">
        <ele>371</ele>
        <time>2021-06-05T12:02:00.552Z</time>
      </trkpt>
      <trkpt lat="45.67399" lon="5.71078">
        <ele>374</ele>
        <time>2021-06-05T12:02:05.541Z</time>
      </trkpt>
      <trkpt lat="45.67394" lon="5.71076">
        <ele>374</ele>
        <time>2021-06-05T12:02:09.557Z</time>
      </trkpt>
      <trkpt lat="45.67389" lon="5.71072">
        <ele>374</ele>
        <time>2021-06-05T12:02:14.562Z</time>
      </trkpt>
      <trkpt lat="45.67389" lon="5.71067">
        <ele>362</ele>
        <time>2021-06-05T12:02:19.564Z</time>
      </trkpt>
      <trkpt lat="45.67385" lon="5.71064">
        <ele>362</ele>
        <time>2021-06-05T12:02:24.557Z</time>
      </trkpt>
      <trkpt lat="45.67377" lon="5.71063">
        <ele>362</ele>
        <time>2021-06-05T12:02:29.552Z</time>
      </trkpt>
      <trkpt lat="45.67371" lon="5.71061">
        <ele>363</ele>
        <time>2021-06-05T12:02:34.558Z</time>
      </trkpt>
      <trkpt lat="45.67365" lon="5.71056">
        <ele>363</ele>
        <time>2021-06-05T12:02:39.558Z</time>
      </trkpt>
      <trkpt lat="45.67359" lon="5.71053">
        <ele>363</ele>
        <time>2021-06-05T12:02:44.544Z</time>
      </trkpt>
      <trkpt lat="45.67352" lon="5.7105">
        <ele>363</ele>
        <time>2021-06-05T12:02:49.549Z</time>
      </trkpt>
      <trkpt lat="45.67347" lon="5.71045">
        <ele>360</ele>
        <time>2021-06-05T12:02:54.561Z</time>
      </trkpt>
      <trkpt lat="45.67344" lon="5.71042">
        <ele>350</ele>
        <time>2021-06-05T12:02:59.552Z</time>
      </trkpt>
      <trkpt lat="45.67338" lon="5.71042">
        <ele>350</ele>
        <time>2021-06-05T12:03:03.562Z</time>
      </trkpt>
      <trkpt lat="45.67332" lon="5.71037">
        <ele>350</ele>
        <time>2021-06-05T12:03:08.568Z</time>
      </trkpt>
      <trkpt lat="45.67327" lon="5.71035">
        <ele>350</ele>
        <time>2021-06-05T12:03:13.539Z</time>
      </trkpt>
      <trkpt lat="45.67322" lon="5.71032">
        <ele>350</ele>
        <time>2021-06-05T12:03:18.563Z</time>
      </trkpt>
      <trkpt lat="45.67316" lon="5.71029">
        <ele>349</ele>
        <time>2021-06-05T12:03:23.564Z</time>
      </trkpt>
      <trkpt lat="45.6731" lon="5.71027">
        <ele>349</ele>
        <time>2021-06-05T12:03:28.548Z</time>
      </trkpt>
      <trkpt lat="45.67302" lon="5.71025">
        <ele>349</ele>
        <time>2021-06-05T12:03:33.549Z</time>
      </trkpt>
      <trkpt lat="45.67295" lon="5.71024">
        <ele>349</ele>
        <time>2021-06-05T12:03:37.566Z</time>
      </trkpt>
      <trkpt lat="45.67291" lon="5.71023">
        <ele>347</ele>
        <time>2021-06-05T12:03:42.549Z</time>
      </trkpt>
      <trkpt lat="45.67284" lon="5.71022">
        <ele>347</ele>
        <time>2021-06-05T12:03:46.572Z</time>
      </trkpt>
      <trkpt lat="45.67279" lon="5.71017">
        <ele>347</ele>
        <time>2021-06-05T12:03:51.549Z</time>
      </trkpt>
      <trkpt lat="45.67273" lon="5.71013">
        <ele>339</ele>
        <time>2021-06-05T12:03:56.571Z</time>
      </trkpt>
      <trkpt lat="45.67264" lon="5.71012">
        <ele>339</ele>
        <time>2021-06-05T12:04:01.563Z</time>
      </trkpt>
      <trkpt lat="45.67256" lon="5.71008">
        <ele>334</ele>
        <time>2021-06-05T12:04:06.562Z</time>
      </trkpt>
      <trkpt lat="45.6725" lon="5.71005">
        <ele>334</ele>
        <time>2021-06-05T12:04:11.543Z</time>
      </trkpt>
      <trkpt lat="45.67242" lon="5.71001">
        <ele>334</ele>
        <time>2021-06-05T12:04:16.550Z</time>
      </trkpt>
      <trkpt lat="45.67234" lon="5.71">
        <ele>330</ele>
        <time>2021-06-05T12:04:20.565Z</time>
      </trkpt>
      <trkpt lat="45.67226" lon="5.70999">
        <ele>330</ele>
        <time>2021-06-05T12:04:25.570Z</time>
      </trkpt>
      <trkpt lat="45.67219" lon="5.70998">
        <ele>330</ele>
        <time>2021-06-05T12:04:30.559Z</time>
      </trkpt>
      <trkpt lat="45.67216" lon="5.70996">
        <ele>330</ele>
        <time>2021-06-05T12:04:35.558Z</time>
      </trkpt>
      <trkpt lat="45.67216" lon="5.70991">
        <ele>330</ele>
        <time>2021-06-05T12:04:40.553Z</time>
      </trkpt>
      <trkpt lat="45.67212" lon="5.7099">
        <ele>330</ele>
        <time>2021-06-05T12:04:45.550Z</time>
      </trkpt>
      <trkpt lat="45.67205" lon="5.70989">
        <ele>326</ele>
        <time>2021-06-05T12:04:50.559Z</time>
      </trkpt>
      <trkpt lat="45.67199" lon="5.70995">
        <ele>326</ele>
        <time>2021-06-05T12:04:55.566Z</time>
      </trkpt>
      <trkpt lat="45.67194" lon="5.71002">
        <ele>326</ele>
        <time>2021-06-05T12:05:00.538Z</time>
      </trkpt>
      <trkpt lat="45.6719" lon="5.71007">
        <ele>326</ele>
        <time>2021-06-05T12:05:04.565Z</time>
      </trkpt>
      <trkpt lat="45.67186" lon="5.71013">
        <ele>326</ele>
        <time>2021-06-05T12:05:09.546Z</time>
      </trkpt>
      <trkpt lat="45.6718" lon="5.71017">
        <ele>336</ele>
        <time>2021-06-05T12:05:14.558Z</time>
      </trkpt>
      <trkpt lat="45.67176" lon="5.71017">
        <ele>336</ele>
        <time>2021-06-05T12:05:19.553Z</time>
      </trkpt>
      <trkpt lat="45.6717" lon="5.71017">
        <ele>336</ele>
        <time>2021-06-05T12:05:24.557Z</time>
      </trkpt>
      <trkpt lat="45.67162" lon="5.71014">
        <ele>336</ele>
        <time>2021-06-05T12:05:29.545Z</time>
      </trkpt>
      <trkpt lat="45.67156" lon="5.71006">
        <ele>326</ele>
        <time>2021-06-05T12:05:34.551Z</time>
      </trkpt>
      <trkpt lat="45.67153" lon="5.70997">
        <ele>326</ele>
        <time>2021-06-05T12:05:38.569Z</time>
      </trkpt>
      <trkpt lat="45.67147" lon="5.70985">
        <ele>320</ele>
        <time>2021-06-05T12:05:43.547Z</time>
      </trkpt>
      <trkpt lat="45.67143" lon="5.70977">
        <ele>320</ele>
        <time>2021-06-05T12:05:48.541Z</time>
      </trkpt>
      <trkpt lat="45.6714" lon="5.70969">
        <ele>320</ele>
        <time>2021-06-05T12:05:52.562Z</time>
      </trkpt>
      <trkpt lat="45.6714" lon="5.70958">
        <ele>306</ele>
        <time>2021-06-05T12:05:57.544Z</time>
      </trkpt>
      <trkpt lat="45.6714" lon="5.70955">
        <ele>306</ele>
        <time>2021-06-05T12:06:01.545Z</time>
      </trkpt>
      <trkpt lat="45.67135" lon="5.70949">
        <ele>306</ele>
        <time>2021-06-05T12:06:06.544Z</time>
      </trkpt>
      <trkpt lat="45.67131" lon="5.70948">
        <ele>306</ele>
        <time>2021-06-05T12:06:11.540Z</time>
      </trkpt>
      <trkpt lat="45.67127" lon="5.70944">
        <ele>306</ele>
        <time>2021-06-05T12:06:16.543Z</time>
      </trkpt>
      <trkpt lat="45.67122" lon="5.70939">
        <ele>316</ele>
        <time>2021-06-05T12:06:21.551Z</time>
      </trkpt>
      <trkpt lat="45.67115" lon="5.70936">
        <ele>316</ele>
        <time>2021-06-05T12:06:26.549Z</time>
      </trkpt>
      <trkpt lat="45.67109" lon="5.70932">
        <ele>316</ele>
        <time>2021-06-05T12:06:30.557Z</time>
      </trkpt>
      <trkpt lat="45.67101" lon="5.70928">
        <ele>304</ele>
        <time>2021-06-05T12:06:35.549Z</time>
      </trkpt>
      <trkpt lat="45.67094" lon="5.70925">
        <ele>313</ele>
        <time>2021-06-05T12:06:40.550Z</time>
      </trkpt>
      <trkpt lat="45.67088" lon="5.70919">
        <ele>313</ele>
        <time>2021-06-05T12:06:45.567Z</time>
      </trkpt>
      <trkpt lat="45.67082" lon="5.70913">
        <ele>313</ele>
        <time>2021-06-05T12:06:50.559Z</time>
      </trkpt>
      <trkpt lat="45.67076" lon="5.7091">
        <ele>313</ele>
        <time>2021-06-05T12:06:55.551Z</time>
      </trkpt>
      <trkpt lat="45.6707" lon="5.70907">
        <ele>313</ele>
        <time>2021-06-05T12:07:00.568Z</time>
      </trkpt>
      <trkpt lat="45.67063" lon="5.70905">
        <ele>315</ele>
        <time>2021-06-05T12:07:05.560Z</time>
      </trkpt>
      <trkpt lat="45.67058" lon="5.70903">
        <ele>315</ele>
        <time>2021-06-05T12:07:10.543Z</time>
      </trkpt>
      <trkpt lat="45.67056" lon="5.70902">
        <ele>301</ele>
        <time>2021-06-05T12:07:14.557Z</time>
      </trkpt>
      <trkpt lat="45.67054" lon="5.70898">
        <ele>301</ele>
        <time>2021-06-05T12:07:19.543Z</time>
      </trkpt>
      <trkpt lat="45.67052" lon="5.70895">
        <ele>301</ele>
        <time>2021-06-05T12:07:23.562Z</time>
      </trkpt>
      <trkpt lat="45.67046" lon="5.70894">
        <ele>301</ele>
        <time>2021-06-05T12:07:28.552Z</time>
      </trkpt>
      <trkpt lat="45.67041" lon="5.70893">
        <ele>302</ele>
        <time>2021-06-05T12:07:33.559Z</time>
      </trkpt>
      <trkpt lat="45.67035" lon="5.70891">
        <ele>302</ele>
        <time>2021-06-05T12:07:38.561Z</time>
      </trkpt>
      <trkpt lat="45.67024" lon="5.70886">
        <ele>302</ele>
        <time>2021-06-05T12:07:43.565Z</time>
      </trkpt>
      <trkpt lat="45.67017" lon="5.70884">
        <ele>302</ele>
        <time>2021-06-05T12:07:48.553Z</time>
      </trkpt>
      <trkpt lat="45.67009" lon="5.70883">
        <ele>304</ele>
        <time>2021-06-05T12:07:53.543Z</time>
      </trkpt>
      <trkpt lat="45.67002" lon="5.70879">
        <ele>304</ele>
        <time>2021-06-05T12:07:58.557Z</time>
      </trkpt>
      <trkpt lat="45.66997" lon="5.70875">
        <ele>288</ele>
        <time>2021-06-05T12:08:03.544Z</time>
      </trkpt>
      <trkpt lat="45.66991" lon="5.70871">
        <ele>288</ele>
        <time>2021-06-05T12:08:08.560Z</time>
      </trkpt>
      <trkpt lat="45.66987" lon="5.70868">
        <ele>288</ele>
        <time>2021-06-05T12:08:13.563Z</time>
      </trkpt>
      <trkpt lat="45.66978" lon="5.70861">
        <ele>298</ele>
        <time>2021-06-05T12:08:18.557Z</time>
      </trkpt>
      <trkpt lat="45.66972" lon="5.70856">
        <ele>298</ele>
        <time>2021-06-05T12:08:23.560Z</time>
      </trkpt>
      <trkpt lat="45.66969" lon="5.70852">
        <ele>298</ele>
        <time>2021-06-05T12:08:28.547Z</time>
      </trkpt>
      <trkpt lat="45.66964" lon="5.70848">
        <ele>298</ele>
        <time>2021-06-05T12:08:33.542Z</time>
      </trkpt>
      <trkpt lat="45.66957" lon="5.70847">
        <ele>292</ele>
        <time>2021-06-05T12:08:37.555Z</time>
      </trkpt>
      <trkpt lat="45.66951" lon="5.70845">
        <ele>292</ele>
        <time>2021-06-05T12:08:42.544Z</time>
      </trkpt>
      <trkpt lat="45.66945" lon="5.70843">
        <ele>292</ele>
        <time>2021-06-05T12:08:47.546Z</time>
      </trkpt>
      <trkpt lat="45.66941" lon="5.70841">
        <ele>292</ele>
        <time>2021-06-05T12:08:51.566Z</time>
      </trkpt>
      <trkpt lat="45.66935" lon="5.70839">
        <ele>292</ele>
        <time>2021-06-05T12:08:56.564Z</time>
      </trkpt>
      <trkpt lat="45.66931" lon="5.70837">
        <ele>292</ele>
        <time>2021-06-05T12:09:01.536Z</time>
      </trkpt>
      <trkpt lat="45.66928" lon="5.70836">
        <ele>295</ele>
        <time>2021-06-05T12:09:05.556Z</time>
      </trkpt>
      <trkpt lat="45.66921" lon="5.70836">
        <ele>295</ele>
        <time>2021-06-05T12:09:10.555Z</time>
      </trkpt>
      <trkpt lat="45.66916" lon="5.70835">
        <ele>295</ele>
        <time>2021-06-05T12:09:15.554Z</time>
      </trkpt>
      <trkpt lat="45.66909" lon="5.70833">
        <ele>295</ele>
        <time>2021-06-05T12:09:20.549Z</time>
      </trkpt>
      <trkpt lat="45.66904" lon="5.7083">
        <ele>295</ele>
        <time>2021-06-05T12:09:25.547Z</time>
      </trkpt>
      <trkpt lat="45.66898" lon="5.70826">
        <ele>300</ele>
        <time>2021-06-05T12:09:30.548Z</time>
      </trkpt>
      <trkpt lat="45.66893" lon="5.70824">
        <ele>300</ele>
        <time>2021-06-05T12:09:34.575Z</time>
      </trkpt>
      <trkpt lat="45.66885" lon="5.70821">
        <ele>300</ele>
        <time>2021-06-05T12:09:39.546Z</time>
      </trkpt>
      <trkpt lat="45.66879" lon="5.70815">
        <ele>286</ele>
        <time>2021-06-05T12:09:44.548Z</time>
      </trkpt>
      <trkpt lat="45.66873" lon="5.70804">
        <ele>290</ele>
        <time>2021-06-05T12:09:49.547Z</time>
      </trkpt>
      <trkpt lat="45.66869" lon="5.70797">
        <ele>290</ele>
        <time>2021-06-05T12:09:54.563Z</time>
      </trkpt>
      <trkpt lat="45.66866" lon="5.70794">
        <ele>290</ele>
        <time>2021-06-05T12:09:59.553Z</time>
      </trkpt>
      <trkpt lat="45.66858" lon="5.70789">
        <ele>280</ele>
        <time>2021-06-05T12:10:04.557Z</time>
      </trkpt>
      <trkpt lat="45.6685" lon="5.70782">
        <ele>280</ele>
        <time>2021-06-05T12:10:09.547Z</time>
      </trkpt>
      <trkpt lat="45.66848" lon="5.70778">
        <ele>280</ele>
        <time>2021-06-05T12:10:13.563Z</time>
      </trkpt>
      <trkpt lat="45.66845" lon="5.70777">
        <ele>283</ele>
        <time>2021-06-05T12:10:18.570Z</time>
      </trkpt>
      <trkpt lat="45.66839" lon="5.70776">
        <ele>283</ele>
        <time>2021-06-05T12:10:23.550Z</time>
      </trkpt>
      <trkpt lat="45.66831" lon="5.70773">
        <ele>283</ele>
        <time>2021-06-05T12:10:28.547Z</time>
      </trkpt>
      <trkpt lat="45.66825" lon="5.7077">
        <ele>283</ele>
        <time>2021-06-05T12:10:32.555Z</time>
      </trkpt>
      <trkpt lat="45.66818" lon="5.70765">
        <ele>286</ele>
        <time>2021-06-05T12:10:37.546Z</time>
      </trkpt>
      <trkpt lat="45.66809" lon="5.70757">
        <ele>277</ele>
        <time>2021-06-05T12:10:42.551Z</time>
      </trkpt>
      <trkpt lat="45.66803" lon="5.70753">
        <ele>277</ele>
        <time>2021-06-05T12:10:47.551Z</time>
      </trkpt>
      <trkpt lat="45.668" lon="5.70751">
        <ele>277</ele>
        <time>2021-06-05T12:10:52.557Z</time>
      </trkpt>
      <trkpt lat="45.66797" lon="5.70747">
        <ele>277</ele>
        <time>2021-06-05T12:10:57.558Z</time>
      </trkpt>
      <trkpt lat="45.66793" lon="5.70744">
        <ele>277</ele>
        <time>2021-06-05T12:11:02.558Z</time>
      </trkpt>
      <trkpt lat="45.66788" lon="5.70742">
        <ele>276</ele>
        <time>2021-06-05T12:11:07.557Z</time>
      </trkpt>
      <trkpt lat="45.66782" lon="5.70739">
        <ele>276</ele>
        <time>2021-06-05T12:11:12.559Z</time>
      </trkpt>
      <trkpt lat="45.66776" lon="5.70734">
        <ele>267</ele>
        <time>2021-06-05T12:11:17.545Z</time>
      </trkpt>
      <trkpt lat="45.66772" lon="5.70731">
        <ele>267</ele>
        <time>2021-06-05T12:11:21.562Z</time>
      </trkpt>
      <trkpt lat="45.66766" lon="5.70728">
        <ele>267</ele>
        <time>2021-06-05T12:11:26.546Z</time>
      </trkpt>
      <trkpt lat="45.66761" lon="5.70726">
        <ele>270</ele>
        <time>2021-06-05T12:11:30.559Z</time>
      </trkpt>
      <trkpt lat="45.66753" lon="5.70722">
        <ele>270</ele>
        <time>2021-06-05T12:11:35.547Z</time>
      </trkpt>
      <trkpt lat="45.66749" lon="5.7072">
        <ele>270</ele>
        <time>2021-06-05T12:11:39.565Z</time>
      </trkpt>
      <trkpt lat="45.66741" lon="5.70716">
        <ele>270</ele>
        <time>2021-06-05T12:11:44.559Z</time>
      </trkpt>
      <trkpt lat="45.66735" lon="5.70712">
        <ele>270</ele>
        <time>2021-06-05T12:11:49.547Z</time>
      </trkpt>
      <trkpt lat="45.66729" lon="5.70711">
        <ele>270</ele>
        <time>2021-06-05T12:11:53.560Z</time>
      </trkpt>
      <trkpt lat="45.66721" lon="5.70708">
        <ele>261</ele>
        <time>2021-06-05T12:11:58.543Z</time>
      </trkpt>
      <trkpt lat="45.66715" lon="5.70706">
        <ele>261</ele>
        <time>2021-06-05T12:12:03.550Z</time>
      </trkpt>
      <trkpt lat="45.66708" lon="5.70703">
        <ele>257</ele>
        <time>2021-06-05T12:12:08.558Z</time>
      </trkpt>
      <trkpt lat="45.66701" lon="5.70699">
        <ele>257</ele>
        <time>2021-06-05T12:12:13.574Z</time>
      </trkpt>
      <trkpt lat="45.66695" lon="5.70693">
        <ele>257</ele>
        <time>2021-06-05T12:12:18.566Z</time>
      </trkpt>
      <trkpt lat="45.66686" lon="5.70692">
        <ele>257</ele>
        <time>2021-06-05T12:12:23.555Z</time>
      </trkpt>
      <trkpt lat="45.6668" lon="5.70692">
        <ele>259</ele>
        <time>2021-06-05T12:12:28.547Z</time>
      </trkpt>
      <trkpt lat="45.66673" lon="5.7069">
        <ele>259</ele>
        <time>2021-06-05T12:12:33.565Z</time>
      </trkpt>
      <trkpt lat="45.66667" lon="5.70689">
        <ele>259</ele>
        <time>2021-06-05T12:12:38.548Z</time>
      </trkpt>
      <trkpt lat="45.6666" lon="5.70681">
        <ele>259</ele>
        <time>2021-06-05T12:12:43.542Z</time>
      </trkpt>
      <trkpt lat="45.66655" lon="5.70677">
        <ele>248</ele>
        <time>2021-06-05T12:12:47.557Z</time>
      </trkpt>
      <trkpt lat="45.66649" lon="5.70674">
        <ele>250</ele>
        <time>2021-06-05T12:12:52.558Z</time>
      </trkpt>
      <trkpt lat="45.66644" lon="5.70673">
        <ele>250</ele>
        <time>2021-06-05T12:12:56.572Z</time>
      </trkpt>
      <trkpt lat="45.66636" lon="5.70669">
        <ele>250</ele>
        <time>2021-06-05T12:13:01.547Z</time>
      </trkpt>
      <trkpt lat="45.66632" lon="5.70665">
        <ele>250</ele>
        <time>2021-06-05T12:13:06.561Z</time>
      </trkpt>
      <trkpt lat="45.66626" lon="5.7066">
        <ele>250</ele>
        <time>2021-06-05T12:13:11.543Z</time>
      </trkpt>
      <trkpt lat="45.6662" lon="5.70656">
        <ele>251</ele>
        <time>2021-06-05T12:13:15.565Z</time>
      </trkpt>
      <trkpt lat="45.66612" lon="5.70654">
        <ele>251</ele>
        <time>2021-06-05T12:13:20.540Z</time>
      </trkpt>
      <trkpt lat="45.66605" lon="5.70653">
        <ele>239</ele>
        <time>2021-06-05T12:13:25.555Z</time>
      </trkpt>
      <trkpt lat="45.66598" lon="5.70649">
        <ele>239</ele>
        <time>2021-06-05T12:13:30.563Z</time>
      </trkpt>
      <trkpt lat="45.66592" lon="5.70645">
        <ele>239</ele>
        <time>2021-06-05T12:13:35.548Z</time>
      </trkpt>
      <trkpt lat="45.66589" lon="5.70639">
        <ele>239</ele>
        <time>2021-06-05T12:13:40.542Z</time>
      </trkpt>
      <trkpt lat="45.66587" lon="5.70634">
        <ele>239</ele>
        <time>2021-06-05T12:13:45.539Z</time>
      </trkpt>
      <trkpt lat="45.66583" lon="5.70632">
        <ele>239</ele>
        <time>2021-06-05T12:13:49.566Z</time>
      </trkpt>
      <trkpt lat="45.66579" lon="5.70631">
        <ele>239</ele>
        <time>2021-06-05T12:13:54.548Z</time>
      </trkpt>
      <trkpt lat="45.66572" lon="5.7063">
        <ele>239</ele>
        <time>2021-06-05T12:13:59.564Z</time>
      </trkpt>
      <trkpt lat="45.66567" lon="5.70629">
        <ele>247</ele>
        <time>2021-06-05T12:14:04.558Z</time>
      </trkpt>
      <trkpt lat="45.66563" lon="5.70627">
        <ele>247</ele>
        <time>2021-06-05T12:14:09.546Z</time>
      </trkpt>
      <trkpt lat="45.66558" lon="5.70626">
        <ele>247</ele>
        <time>2021-06-05T12:14:14.533Z</time>
      </trkpt>
      <trkpt lat="45.66554" lon="5.70624">
        <ele>236</ele>
        <time>2021-06-05T12:14:18.552Z</time>
      </trkpt>
      <trkpt lat="45.66548" lon="5.7062">
        <ele>236</ele>
        <time>2021-06-05T12:14:23.553Z</time>
      </trkpt>
      <trkpt lat="45.66545" lon="5.70608">
        <ele>236</ele>
        <time>2021-06-05T12:14:28.558Z</time>
      </trkpt>
      <trkpt lat="45.66543" lon="5.70603">
        <ele>236</ele>
        <time>2021-06-05T12:14:33.544Z</time>
      </trkpt>
      <trkpt lat="45.66541" lon="5.70601">
        <ele>240</ele>
        <time>2021-06-05T12:14:38.546Z</time>
      </trkpt>
      <trkpt lat="45.66537" lon="5.70599">
        <ele>240</ele>
        <time>2021-06-05T12:15:47.497Z</time>
      </trkpt>
      <trkpt lat="45.66536" lon="5.70599">
        <ele>240</ele>
        <time>2021-06-05T12:15:51.508Z</time>
      </trkpt>
      <trkpt lat="45.66536" lon="5.70599">
        <ele>240</ele>
        <time>2021-06-05T12:15:56.508Z</time>
      </trkpt>
      <trkpt lat="45.66536" lon="5.70598">
        <ele>240</ele>
        <time>2021-06-05T12:16:01.503Z</time>
      </trkpt>
      <trkpt lat="45.66531" lon="5.70599">
        <ele>240</ele>
        <time>2021-06-05T12:16:06.509Z</time>
      </trkpt>
      <trkpt lat="45.66525" lon="5.70597">
        <ele>232</ele>
        <time>2021-06-05T12:16:10.548Z</time>
      </trkpt>
      <trkpt lat="45.66519" lon="5.70594">
        <ele>232</ele>
        <time>2021-06-05T12:16:15.553Z</time>
      </trkpt>
      <trkpt lat="45.66512" lon="5.70586">
        <ele>232</ele>
        <time>2021-06-05T12:16:20.535Z</time>
      </trkpt>
      <trkpt lat="45.66507" lon="5.70579">
        <ele>232</ele>
        <time>2021-06-05T12:16:25.562Z</time>
      </trkpt>
      <trkpt lat="45.66501" lon="5.70576">
        <ele>232</ele>
        <time>2021-06-05T12:16:30.553Z</time>
      </trkpt>
      <trkpt lat="45.66496" lon="5.70569">
        <ele>232</ele>
        <time>2021-06-05T12:16:35.562Z</time>
      </trkpt>
      <trkpt lat="45.665" lon="5.70564">
        <ele>224</ele>
        <time>2021-06-05T12:16:40.566Z</time>
      </trkpt>
      <trkpt lat="45.66508" lon="5.7057">
        <ele>232</ele>
        <time>2021-06-05T12:16:45.552Z</time>
      </trkpt>
      <trkpt lat="45.66516" lon="5.70574">
        <ele>232</ele>
        <time>2021-06-05T12:16:50.559Z</time>
      </trkpt>
      <trkpt lat="45.66523" lon="5.70578">
        <ele>232</ele>
        <time>2021-06-05T12:16:55.567Z</time>
      </trkpt>
      <trkpt lat="45.66531" lon="5.70579">
        <ele>232</ele>
        <time>2021-06-05T12:17:00.558Z</time>
      </trkpt>
      <trkpt lat="45.66539" lon="5.70582">
        <ele>232</ele>
        <time>2021-06-05T12:17:05.543Z</time>
      </trkpt>
      <trkpt lat="45.66544" lon="5.70584">
        <ele>229</ele>
        <time>2021-06-05T12:17:09.563Z</time>
      </trkpt>
      <trkpt lat="45.66551" lon="5.70585">
        <ele>229</ele>
        <time>2021-06-05T12:17:14.549Z</time>
      </trkpt>
      <trkpt lat="45.6656" lon="5.70588">
        <ele>229</ele>
        <time>2021-06-05T12:17:19.563Z</time>
      </trkpt>
      <trkpt lat="45.66565" lon="5.70588">
        <ele>229</ele>
        <time>2021-06-05T12:17:23.567Z</time>
      </trkpt>
      <trkpt lat="45.66569" lon="5.70581">
        <ele>229</ele>
        <time>2021-06-05T12:17:28.559Z</time>
      </trkpt>
      <trkpt lat="45.66571" lon="5.70574">
        <ele>224</ele>
        <time>2021-06-05T12:17:33.553Z</time>
      </trkpt>
      <trkpt lat="45.66573" lon="5.70569">
        <ele>221</ele>
        <time>2021-06-05T12:17:38.547Z</time>
      </trkpt>
      <trkpt lat="45.66575" lon="5.70563">
        <ele>221</ele>
        <time>2021-06-05T12:17:42.558Z</time>
      </trkpt>
      <trkpt lat="45.66577" lon="5.70555">
        <ele>221</ele>
        <time>2021-06-05T12:17:47.543Z</time>
      </trkpt>
      <trkpt lat="45.66579" lon="5.70549">
        <ele>221</ele>
        <time>2021-06-05T12:17:51.549Z</time>
      </trkpt>
      <trkpt lat="45.66583" lon="5.7054">
        <ele>218</ele>
        <time>2021-06-05T12:17:56.542Z</time>
      </trkpt>
      <trkpt lat="45.66585" lon="5.70531">
        <ele>218</ele>
        <time>2021-06-05T12:18:01.546Z</time>
      </trkpt>
      <trkpt lat="45.66588" lon="5.70523">
        <ele>218</ele>
        <time>2021-06-05T12:18:05.563Z</time>
      </trkpt>
      <trkpt lat="45.66589" lon="5.70515">
        <ele>218</ele>
        <time>2021-06-05T12:18:10.567Z</time>
      </trkpt>
      <trkpt lat="45.66586" lon="5.70507">
        <ele>217</ele>
        <time>2021-06-05T12:18:15.555Z</time>
      </trkpt>
      <trkpt lat="45.66586" lon="5.70499">
        <ele>217</ele>
        <time>2021-06-05T12:18:20.559Z</time>
      </trkpt>
      <trkpt lat="45.66586" lon="5.70489">
        <ele>217</ele>
        <time>2021-06-05T12:18:25.548Z</time>
      </trkpt>
      <trkpt lat="45.66587" lon="5.70479">
        <ele>218</ele>
        <time>2021-06-05T12:18:30.554Z</time>
      </trkpt>
      <trkpt lat="45.66587" lon="5.7047">
        <ele>218</ele>
        <time>2021-06-05T12:18:35.553Z</time>
      </trkpt>
      <trkpt lat="45.66586" lon="5.70459">
        <ele>218</ele>
        <time>2021-06-05T12:18:40.556Z</time>
      </trkpt>
      <trkpt lat="45.66583" lon="5.70451">
        <ele>218</ele>
        <time>2021-06-05T12:18:45.541Z</time>
      </trkpt>
      <trkpt lat="45.66584" lon="5.70443">
        <ele>218</ele>
        <time>2021-06-05T12:18:49.558Z</time>
      </trkpt>
      <trkpt lat="45.66583" lon="5.70433">
        <ele>218</ele>
        <time>2021-06-05T12:18:54.544Z</time>
      </trkpt>
      <trkpt lat="45.66582" lon="5.70423">
        <ele>218</ele>
        <time>2021-06-05T12:18:59.556Z</time>
      </trkpt>
      <trkpt lat="45.66583" lon="5.70415">
        <ele>218</ele>
        <time>2021-06-05T12:19:04.544Z</time>
      </trkpt>
      <trkpt lat="45.66586" lon="5.70412">
        <ele>218</ele>
        <time>2021-06-05T12:19:09.544Z</time>
      </trkpt>
      <trkpt lat="45.66589" lon="5.70403">
        <ele>217</ele>
        <time>2021-06-05T12:19:14.555Z</time>
      </trkpt>
      <trkpt lat="45.66591" lon="5.70391">
        <ele>217</ele>
        <time>2021-06-05T12:19:19.546Z</time>
      </trkpt>
      <trkpt lat="45.6659" lon="5.70382">
        <ele>217</ele>
        <time>2021-06-05T12:19:23.563Z</time>
      </trkpt>
      <trkpt lat="45.66588" lon="5.70374">
        <ele>217</ele>
        <time>2021-06-05T12:19:28.560Z</time>
      </trkpt>
      <trkpt lat="45.66585" lon="5.70364">
        <ele>217</ele>
        <time>2021-06-05T12:19:33.548Z</time>
      </trkpt>
      <trkpt lat="45.66582" lon="5.70358">
        <ele>217</ele>
        <time>2021-06-05T12:19:37.580Z</time>
      </trkpt>
      <trkpt lat="45.66577" lon="5.70348">
        <ele>217</ele>
        <time>2021-06-05T12:19:42.554Z</time>
      </trkpt>
      <trkpt lat="45.66574" lon="5.70341">
        <ele>217</ele>
        <time>2021-06-05T12:19:47.550Z</time>
      </trkpt>
      <trkpt lat="45.6657" lon="5.70333">
        <ele>217</ele>
        <time>2021-06-05T12:19:52.566Z</time>
      </trkpt>
      <trkpt lat="45.66566" lon="5.70326">
        <ele>217</ele>
        <time>2021-06-05T12:19:56.572Z</time>
      </trkpt>
      <trkpt lat="45.66563" lon="5.70318">
        <ele>217</ele>
        <time>2021-06-05T12:20:01.561Z</time>
      </trkpt>
      <trkpt lat="45.66559" lon="5.70309">
        <ele>217</ele>
        <time>2021-06-05T12:20:06.575Z</time>
      </trkpt>
      <trkpt lat="45.66555" lon="5.703">
        <ele>217</ele>
        <time>2021-06-05T12:20:11.554Z</time>
      </trkpt>
      <trkpt lat="45.66551" lon="5.70293">
        <ele>217</ele>
        <time>2021-06-05T12:20:16.543Z</time>
      </trkpt>
      <trkpt lat="45.66547" lon="5.70282">
        <ele>216</ele>
        <time>2021-06-05T12:20:21.561Z</time>
      </trkpt>
      <trkpt lat="45.66542" lon="5.70272">
        <ele>216</ele>
        <time>2021-06-05T12:20:26.563Z</time>
      </trkpt>
      <trkpt lat="45.66539" lon="5.70263">
        <ele>216</ele>
        <time>2021-06-05T12:20:31.546Z</time>
      </trkpt>
      <trkpt lat="45.66535" lon="5.70254">
        <ele>216</ele>
        <time>2021-06-05T12:20:36.563Z</time>
      </trkpt>
      <trkpt lat="45.66531" lon="5.70247">
        <ele>216</ele>
        <time>2021-06-05T12:20:41.538Z</time>
      </trkpt>
      <trkpt lat="45.66528" lon="5.7024">
        <ele>216</ele>
        <time>2021-06-05T12:20:45.578Z</time>
      </trkpt>
      <trkpt lat="45.66525" lon="5.7023">
        <ele>216</ele>
        <time>2021-06-05T12:20:50.557Z</time>
      </trkpt>
      <trkpt lat="45.66522" lon="5.70221">
        <ele>216</ele>
        <time>2021-06-05T12:20:55.569Z</time>
      </trkpt>
      <trkpt lat="45.66523" lon="5.7021">
        <ele>216</ele>
        <time>2021-06-05T12:21:00.553Z</time>
      </trkpt>
      <trkpt lat="45.66526" lon="5.70201">
        <ele>216</ele>
        <time>2021-06-05T12:21:05.557Z</time>
      </trkpt>
      <trkpt lat="45.66534" lon="5.70197">
        <ele>216</ele>
        <time>2021-06-05T12:21:10.567Z</time>
      </trkpt>
      <trkpt lat="45.66542" lon="5.70194">
        <ele>216</ele>
        <time>2021-06-05T12:21:15.550Z</time>
      </trkpt>
      <trkpt lat="45.6655" lon="5.70193">
        <ele>216</ele>
        <time>2021-06-05T12:21:20.554Z</time>
      </trkpt>
      <trkpt lat="45.66558" lon="5.70191">
        <ele>216</ele>
        <time>2021-06-05T12:21:25.548Z</time>
      </trkpt>
      <trkpt lat="45.66558" lon="5.70189">
        <ele>216</ele>
        <time>2021-06-05T12:21:29.565Z</time>
      </trkpt>
      <trkpt lat="45.66562" lon="5.70187">
        <ele>216</ele>
        <time>2021-06-05T12:21:34.570Z</time>
      </trkpt>
      <trkpt lat="45.6657" lon="5.70185">
        <ele>216</ele>
        <time>2021-06-05T12:21:39.556Z</time>
      </trkpt>
      <trkpt lat="45.66578" lon="5.70184">
        <ele>216</ele>
        <time>2021-06-05T12:21:44.560Z</time>
      </trkpt>
      <trkpt lat="45.66586" lon="5.70181">
        <ele>216</ele>
        <time>2021-06-05T12:21:49.555Z</time>
      </trkpt>
      <trkpt lat="45.66592" lon="5.70175">
        <ele>217</ele>
        <time>2021-06-05T12:21:54.559Z</time>
      </trkpt>
      <trkpt lat="45.66598" lon="5.70166">
        <ele>217</ele>
        <time>2021-06-05T12:21:59.565Z</time>
      </trkpt>
      <trkpt lat="45.66603" lon="5.70155">
        <ele>217</ele>
        <time>2021-06-05T12:22:04.551Z</time>
      </trkpt>
      <trkpt lat="45.66605" lon="5.70144">
        <ele>217</ele>
        <time>2021-06-05T12:22:09.532Z</time>
      </trkpt>
      <trkpt lat="45.66606" lon="5.70134">
        <ele>217</ele>
        <time>2021-06-05T12:22:14.559Z</time>
      </trkpt>
      <trkpt lat="45.66604" lon="5.70123">
        <ele>217</ele>
        <time>2021-06-05T12:22:19.553Z</time>
      </trkpt>
      <trkpt lat="45.66602" lon="5.70112">
        <ele>217</ele>
        <time>2021-06-05T12:22:24.563Z</time>
      </trkpt>
      <trkpt lat="45.66603" lon="5.701">
        <ele>217</ele>
        <time>2021-06-05T12:22:29.556Z</time>
      </trkpt>
      <trkpt lat="45.66603" lon="5.70088">
        <ele>216</ele>
        <time>2021-06-05T12:22:34.562Z</time>
      </trkpt>
      <trkpt lat="45.66603" lon="5.70077">
        <ele>216</ele>
        <time>2021-06-05T12:22:39.555Z</time>
      </trkpt>
      <trkpt lat="45.66603" lon="5.70066">
        <ele>216</ele>
        <time>2021-06-05T12:22:44.564Z</time>
      </trkpt>
      <trkpt lat="45.66602" lon="5.70057">
        <ele>216</ele>
        <time>2021-06-05T12:22:49.559Z</time>
      </trkpt>
      <trkpt lat="45.66601" lon="5.70046">
        <ele>216</ele>
        <time>2021-06-05T12:22:54.565Z</time>
      </trkpt>
      <trkpt lat="45.66601" lon="5.70036">
        <ele>216</ele>
        <time>2021-06-05T12:22:59.572Z</time>
      </trkpt>
      <trkpt lat="45.66601" lon="5.70026">
        <ele>216</ele>
        <time>2021-06-05T12:23:04.567Z</time>
      </trkpt>
      <trkpt lat="45.666" lon="5.70016">
        <ele>216</ele>
        <time>2021-06-05T12:23:09.554Z</time>
      </trkpt>
      <trkpt lat="45.666" lon="5.70006">
        <ele>218</ele>
        <time>2021-06-05T12:23:14.559Z</time>
      </trkpt>
      <trkpt lat="45.66599" lon="5.69995">
        <ele>218</ele>
        <time>2021-06-05T12:23:19.552Z</time>
      </trkpt>
      <trkpt lat="45.66599" lon="5.69987">
        <ele>218</ele>
        <time>2021-06-05T12:23:23.561Z</time>
      </trkpt>
      <trkpt lat="45.66599" lon="5.69976">
        <ele>219</ele>
        <time>2021-06-05T12:23:28.540Z</time>
      </trkpt>
      <trkpt lat="45.666" lon="5.69966">
        <ele>219</ele>
        <time>2021-06-05T12:23:33.561Z</time>
      </trkpt>
      <trkpt lat="45.666" lon="5.69955">
        <ele>221</ele>
        <time>2021-06-05T12:23:38.555Z</time>
      </trkpt>
      <trkpt lat="45.66599" lon="5.69949">
        <ele>221</ele>
        <time>2021-06-05T12:23:42.562Z</time>
      </trkpt>
      <trkpt lat="45.66595" lon="5.69943">
        <ele>219</ele>
        <time>2021-06-05T12:23:47.558Z</time>
      </trkpt>
      <trkpt lat="45.66588" lon="5.69941">
        <ele>219</ele>
        <time>2021-06-05T12:23:52.570Z</time>
      </trkpt>
      <trkpt lat="45.66582" lon="5.69937">
        <ele>219</ele>
        <time>2021-06-05T12:23:57.556Z</time>
      </trkpt>
      <trkpt lat="45.66577" lon="5.69932">
        <ele>219</ele>
        <time>2021-06-05T12:24:02.573Z</time>
      </trkpt>
      <trkpt lat="45.6657" lon="5.69929">
        <ele>220</ele>
        <time>2021-06-05T12:24:07.557Z</time>
      </trkpt>
      <trkpt lat="45.66564" lon="5.69925">
        <ele>218</ele>
        <time>2021-06-05T12:24:12.545Z</time>
      </trkpt>
      <trkpt lat="45.66558" lon="5.69921">
        <ele>218</ele>
        <time>2021-06-05T12:24:17.550Z</time>
      </trkpt>
      <trkpt lat="45.66551" lon="5.69917">
        <ele>218</ele>
        <time>2021-06-05T12:24:22.565Z</time>
      </trkpt>
      <trkpt lat="45.66544" lon="5.69915">
        <ele>218</ele>
        <time>2021-06-05T12:24:27.561Z</time>
      </trkpt>
      <trkpt lat="45.66537" lon="5.69912">
        <ele>217</ele>
        <time>2021-06-05T12:24:32.551Z</time>
      </trkpt>
      <trkpt lat="45.66532" lon="5.69908">
        <ele>217</ele>
        <time>2021-06-05T12:24:36.564Z</time>
      </trkpt>
      <trkpt lat="45.66525" lon="5.69907">
        <ele>217</ele>
        <time>2021-06-05T12:24:41.554Z</time>
      </trkpt>
      <trkpt lat="45.66518" lon="5.69906">
        <ele>217</ele>
        <time>2021-06-05T12:24:46.544Z</time>
      </trkpt>
      <trkpt lat="45.66513" lon="5.69905">
        <ele>217</ele>
        <time>2021-06-05T12:24:50.562Z</time>
      </trkpt>
      <trkpt lat="45.66506" lon="5.69904">
        <ele>217</ele>
        <time>2021-06-05T12:24:55.559Z</time>
      </trkpt>
      <trkpt lat="45.66498" lon="5.699">
        <ele>217</ele>
        <time>2021-06-05T12:25:00.546Z</time>
      </trkpt>
      <trkpt lat="45.6649" lon="5.69898">
        <ele>217</ele>
        <time>2021-06-05T12:25:05.555Z</time>
      </trkpt>
      <trkpt lat="45.66484" lon="5.69897">
        <ele>218</ele>
        <time>2021-06-05T12:25:10.553Z</time>
      </trkpt>
      <trkpt lat="45.66479" lon="5.69897">
        <ele>218</ele>
        <time>2021-06-05T12:25:14.559Z</time>
      </trkpt>
      <trkpt lat="45.66472" lon="5.69896">
        <ele>218</ele>
        <time>2021-06-05T12:25:19.553Z</time>
      </trkpt>
      <trkpt lat="45.66465" lon="5.69897">
        <ele>218</ele>
        <time>2021-06-05T12:25:24.540Z</time>
      </trkpt>
      <trkpt lat="45.6646" lon="5.699">
        <ele>218</ele>
        <time>2021-06-05T12:25:28.558Z</time>
      </trkpt>
      <trkpt lat="45.66453" lon="5.69901">
        <ele>219</ele>
        <time>2021-06-05T12:25:33.553Z</time>
      </trkpt>
      <trkpt lat="45.66448" lon="5.69902">
        <ele>219</ele>
        <time>2021-06-05T12:25:37.562Z</time>
      </trkpt>
      <trkpt lat="45.66441" lon="5.69903">
        <ele>219</ele>
        <time>2021-06-05T12:25:42.542Z</time>
      </trkpt>
      <trkpt lat="45.66434" lon="5.69902">
        <ele>219</ele>
        <time>2021-06-05T12:25:47.537Z</time>
      </trkpt>
      <trkpt lat="45.66428" lon="5.69901">
        <ele>218</ele>
        <time>2021-06-05T12:25:51.554Z</time>
      </trkpt>
      <trkpt lat="45.66421" lon="5.699">
        <ele>218</ele>
        <time>2021-06-05T12:25:56.562Z</time>
      </trkpt>
      <trkpt lat="45.66414" lon="5.699">
        <ele>218</ele>
        <time>2021-06-05T12:26:01.563Z</time>
      </trkpt>
      <trkpt lat="45.66406" lon="5.69898">
        <ele>218</ele>
        <time>2021-06-05T12:26:06.540Z</time>
      </trkpt>
      <trkpt lat="45.66401" lon="5.69898">
        <ele>218</ele>
        <time>2021-06-05T12:26:10.554Z</time>
      </trkpt>
      <trkpt lat="45.66394" lon="5.69896">
        <ele>218</ele>
        <time>2021-06-05T12:26:15.539Z</time>
      </trkpt>
      <trkpt lat="45.66386" lon="5.69896">
        <ele>218</ele>
        <time>2021-06-05T12:26:20.556Z</time>
      </trkpt>
      <trkpt lat="45.6638" lon="5.69893">
        <ele>218</ele>
        <time>2021-06-05T12:26:25.560Z</time>
      </trkpt>
      <trkpt lat="45.66373" lon="5.69891">
        <ele>218</ele>
        <time>2021-06-05T12:26:30.559Z</time>
      </trkpt>
      <trkpt lat="45.66367" lon="5.6989">
        <ele>218</ele>
        <time>2021-06-05T12:26:35.551Z</time>
      </trkpt>
      <trkpt lat="45.6636" lon="5.6989">
        <ele>218</ele>
        <time>2021-06-05T12:26:39.561Z</time>
      </trkpt>
      <trkpt lat="45.66353" lon="5.69888">
        <ele>218</ele>
        <time>2021-06-05T12:26:44.557Z</time>
      </trkpt>
      <trkpt lat="45.66348" lon="5.69886">
        <ele>218</ele>
        <time>2021-06-05T12:26:49.562Z</time>
      </trkpt>
      <trkpt lat="45.66343" lon="5.69882">
        <ele>217</ele>
        <time>2021-06-05T12:26:54.559Z</time>
      </trkpt>
      <trkpt lat="45.66337" lon="5.69879">
        <ele>217</ele>
        <time>2021-06-05T12:26:59.559Z</time>
      </trkpt>
      <trkpt lat="45.66332" lon="5.69876">
        <ele>217</ele>
        <time>2021-06-05T12:27:03.577Z</time>
      </trkpt>
      <trkpt lat="45.66324" lon="5.69875">
        <ele>217</ele>
        <time>2021-06-05T12:27:08.552Z</time>
      </trkpt>
      <trkpt lat="45.66318" lon="5.69874">
        <ele>219</ele>
        <time>2021-06-05T12:27:12.561Z</time>
      </trkpt>
      <trkpt lat="45.6631" lon="5.6987">
        <ele>219</ele>
        <time>2021-06-05T12:27:17.550Z</time>
      </trkpt>
      <trkpt lat="45.66302" lon="5.6987">
        <ele>219</ele>
        <time>2021-06-05T12:27:22.552Z</time>
      </trkpt>
      <trkpt lat="45.66296" lon="5.69866">
        <ele>219</ele>
        <time>2021-06-05T12:27:27.561Z</time>
      </trkpt>
      <trkpt lat="45.66287" lon="5.69865">
        <ele>218</ele>
        <time>2021-06-05T12:27:32.555Z</time>
      </trkpt>
      <trkpt lat="45.6628" lon="5.69863">
        <ele>218</ele>
        <time>2021-06-05T12:27:37.557Z</time>
      </trkpt>
      <trkpt lat="45.66272" lon="5.69862">
        <ele>218</ele>
        <time>2021-06-05T12:27:42.562Z</time>
      </trkpt>
      <trkpt lat="45.66265" lon="5.6986">
        <ele>218</ele>
        <time>2021-06-05T12:27:47.560Z</time>
      </trkpt>
      <trkpt lat="45.66257" lon="5.69857">
        <ele>216</ele>
        <time>2021-06-05T12:27:52.545Z</time>
      </trkpt>
      <trkpt lat="45.66252" lon="5.69856">
        <ele>216</ele>
        <time>2021-06-05T12:27:56.560Z</time>
      </trkpt>
      <trkpt lat="45.66245" lon="5.69856">
        <ele>216</ele>
        <time>2021-06-05T12:28:01.543Z</time>
      </trkpt>
      <trkpt lat="45.66241" lon="5.69856">
        <ele>216</ele>
        <time>2021-06-05T12:28:05.566Z</time>
      </trkpt>
      <trkpt lat="45.66235" lon="5.69847">
        <ele>214</ele>
        <time>2021-06-05T12:28:10.551Z</time>
      </trkpt>
      <trkpt lat="45.66227" lon="5.69841">
        <ele>214</ele>
        <time>2021-06-05T12:28:15.555Z</time>
      </trkpt>
      <trkpt lat="45.66221" lon="5.69834">
        <ele>214</ele>
        <time>2021-06-05T12:28:20.564Z</time>
      </trkpt>
      <trkpt lat="45.66214" lon="5.69829">
        <ele>214</ele>
        <time>2021-06-05T12:28:25.556Z</time>
      </trkpt>
      <trkpt lat="45.66208" lon="5.69823">
        <ele>214</ele>
        <time>2021-06-05T12:28:30.560Z</time>
      </trkpt>
      <trkpt lat="45.66202" lon="5.69818">
        <ele>214</ele>
        <time>2021-06-05T12:28:35.556Z</time>
      </trkpt>
      <trkpt lat="45.66196" lon="5.69812">
        <ele>214</ele>
        <time>2021-06-05T12:28:40.548Z</time>
      </trkpt>
      <trkpt lat="45.66191" lon="5.69806">
        <ele>214</ele>
        <time>2021-06-05T12:28:44.556Z</time>
      </trkpt>
      <trkpt lat="45.66185" lon="5.69799">
        <ele>214</ele>
        <time>2021-06-05T12:28:49.554Z</time>
      </trkpt>
      <trkpt lat="45.66178" lon="5.69792">
        <ele>215</ele>
        <time>2021-06-05T12:28:54.545Z</time>
      </trkpt>
      <trkpt lat="45.66173" lon="5.69787">
        <ele>215</ele>
        <time>2021-06-05T12:28:58.558Z</time>
      </trkpt>
      <trkpt lat="45.66167" lon="5.69782">
        <ele>215</ele>
        <time>2021-06-05T12:29:03.564Z</time>
      </trkpt>
      <trkpt lat="45.6616" lon="5.69777">
        <ele>215</ele>
        <time>2021-06-05T12:29:08.559Z</time>
      </trkpt>
      <trkpt lat="45.66154" lon="5.69773">
        <ele>215</ele>
        <time>2021-06-05T12:29:12.563Z</time>
      </trkpt>
      <trkpt lat="45.66147" lon="5.69766">
        <ele>216</ele>
        <time>2021-06-05T12:29:17.554Z</time>
      </trkpt>
      <trkpt lat="45.66141" lon="5.69762">
        <ele>216</ele>
        <time>2021-06-05T12:29:22.550Z</time>
      </trkpt>
      <trkpt lat="45.66133" lon="5.69758">
        <ele>216</ele>
        <time>2021-06-05T12:29:27.541Z</time>
      </trkpt>
      <trkpt lat="45.66129" lon="5.69748">
        <ele>216</ele>
        <time>2021-06-05T12:29:32.550Z</time>
      </trkpt>
      <trkpt lat="45.6613" lon="5.69736">
        <ele>216</ele>
        <time>2021-06-05T12:29:37.554Z</time>
      </trkpt>
      <trkpt lat="45.66132" lon="5.69727">
        <ele>216</ele>
        <time>2021-06-05T12:29:41.574Z</time>
      </trkpt>
      <trkpt lat="45.66135" lon="5.69715">
        <ele>216</ele>
        <time>2021-06-05T12:29:46.559Z</time>
      </trkpt>
      <trkpt lat="45.66139" lon="5.69704">
        <ele>215</ele>
        <time>2021-06-05T12:29:51.557Z</time>
      </trkpt>
      <trkpt lat="45.66143" lon="5.69693">
        <ele>215</ele>
        <time>2021-06-05T12:29:56.545Z</time>
      </trkpt>
      <trkpt lat="45.66145" lon="5.69684">
        <ele>215</ele>
        <time>2021-06-05T12:30:00.548Z</time>
      </trkpt>
      <trkpt lat="45.6615" lon="5.69674">
        <ele>214</ele>
        <time>2021-06-05T12:30:05.543Z</time>
      </trkpt>
      <trkpt lat="45.66153" lon="5.69663">
        <ele>214</ele>
        <time>2021-06-05T12:30:10.545Z</time>
      </trkpt>
      <trkpt lat="45.66157" lon="5.69653">
        <ele>214</ele>
        <time>2021-06-05T12:30:15.552Z</time>
      </trkpt>
      <trkpt lat="45.6616" lon="5.69643">
        <ele>214</ele>
        <time>2021-06-05T12:30:20.546Z</time>
      </trkpt>
      <trkpt lat="45.66163" lon="5.69636">
        <ele>214</ele>
        <time>2021-06-05T12:30:24.558Z</time>
      </trkpt>
      <trkpt lat="45.66166" lon="5.69625">
        <ele>214</ele>
        <time>2021-06-05T12:30:29.556Z</time>
      </trkpt>
      <trkpt lat="45.66169" lon="5.69613">
        <ele>214</ele>
        <time>2021-06-05T12:30:34.564Z</time>
      </trkpt>
      <trkpt lat="45.66172" lon="5.69603">
        <ele>214</ele>
        <time>2021-06-05T12:30:39.553Z</time>
      </trkpt>
      <trkpt lat="45.66176" lon="5.69591">
        <ele>215</ele>
        <time>2021-06-05T12:30:44.560Z</time>
      </trkpt>
      <trkpt lat="45.66179" lon="5.69582">
        <ele>215</ele>
        <time>2021-06-05T12:30:49.555Z</time>
      </trkpt>
      <trkpt lat="45.66181" lon="5.69574">
        <ele>216</ele>
        <time>2021-06-05T12:30:53.567Z</time>
      </trkpt>
      <trkpt lat="45.66183" lon="5.69562">
        <ele>216</ele>
        <time>2021-06-05T12:30:58.552Z</time>
      </trkpt>
      <trkpt lat="45.66186" lon="5.69552">
        <ele>216</ele>
        <time>2021-06-05T12:31:03.566Z</time>
      </trkpt>
      <trkpt lat="45.6619" lon="5.69541">
        <ele>216</ele>
        <time>2021-06-05T12:31:08.559Z</time>
      </trkpt>
      <trkpt lat="45.66194" lon="5.69531">
        <ele>216</ele>
        <time>2021-06-05T12:31:13.555Z</time>
      </trkpt>
      <trkpt lat="45.66199" lon="5.69521">
        <ele>216</ele>
        <time>2021-06-05T12:31:18.560Z</time>
      </trkpt>
      <trkpt lat="45.66205" lon="5.69513">
        <ele>215</ele>
        <time>2021-06-05T12:31:23.563Z</time>
      </trkpt>
      <trkpt lat="45.66211" lon="5.69505">
        <ele>215</ele>
        <time>2021-06-05T12:31:28.546Z</time>
      </trkpt>
      <trkpt lat="45.66217" lon="5.69498">
        <ele>215</ele>
        <time>2021-06-05T12:31:33.555Z</time>
      </trkpt>
      <trkpt lat="45.66223" lon="5.69493">
        <ele>215</ele>
        <time>2021-06-05T12:31:37.565Z</time>
      </trkpt>
      <trkpt lat="45.66229" lon="5.69486">
        <ele>214</ele>
        <time>2021-06-05T12:31:42.560Z</time>
      </trkpt>
      <trkpt lat="45.66235" lon="5.69478">
        <ele>214</ele>
        <time>2021-06-05T12:31:47.542Z</time>
      </trkpt>
      <trkpt lat="45.66238" lon="5.6947">
        <ele>214</ele>
        <time>2021-06-05T12:31:51.556Z</time>
      </trkpt>
      <trkpt lat="45.66242" lon="5.69461">
        <ele>214</ele>
        <time>2021-06-05T12:31:56.559Z</time>
      </trkpt>
      <trkpt lat="45.66244" lon="5.69449">
        <ele>214</ele>
        <time>2021-06-05T12:32:01.553Z</time>
      </trkpt>
      <trkpt lat="45.66246" lon="5.69438">
        <ele>214</ele>
        <time>2021-06-05T12:32:06.562Z</time>
      </trkpt>
      <trkpt lat="45.66244" lon="5.69427">
        <ele>215</ele>
        <time>2021-06-05T12:32:11.559Z</time>
      </trkpt>
      <trkpt lat="45.66238" lon="5.69421">
        <ele>215</ele>
        <time>2021-06-05T12:32:16.566Z</time>
      </trkpt>
      <trkpt lat="45.6623" lon="5.69419">
        <ele>215</ele>
        <time>2021-06-05T12:32:21.564Z</time>
      </trkpt>
      <trkpt lat="45.66221" lon="5.69419">
        <ele>215</ele>
        <time>2021-06-05T12:32:26.554Z</time>
      </trkpt>
      <trkpt lat="45.66212" lon="5.69418">
        <ele>215</ele>
        <time>2021-06-05T12:32:31.537Z</time>
      </trkpt>
      <trkpt lat="45.66206" lon="5.69418">
        <ele>215</ele>
        <time>2021-06-05T12:32:35.547Z</time>
      </trkpt>
      <trkpt lat="45.66197" lon="5.69416">
        <ele>215</ele>
        <time>2021-06-05T12:32:40.558Z</time>
      </trkpt>
      <trkpt lat="45.66178" lon="5.69412">
        <ele>215</ele>
        <time>2021-06-05T12:32:45.536Z</time>
      </trkpt>
      <trkpt lat="45.66162" lon="5.69411">
        <ele>215</ele>
        <time>2021-06-05T12:32:49.572Z</time>
      </trkpt>
      <trkpt lat="45.66143" lon="5.69407">
        <ele>214</ele>
        <time>2021-06-05T12:32:54.575Z</time>
      </trkpt>
      <trkpt lat="45.66127" lon="5.69405">
        <ele>214</ele>
        <time>2021-06-05T12:32:59.564Z</time>
      </trkpt>
      <trkpt lat="45.6611" lon="5.69403">
        <ele>215</ele>
        <time>2021-06-05T12:33:04.558Z</time>
      </trkpt>
      <trkpt lat="45.66093" lon="5.69401">
        <ele>215</ele>
        <time>2021-06-05T12:33:09.555Z</time>
      </trkpt>
      <trkpt lat="45.66075" lon="5.69399">
        <ele>215</ele>
        <time>2021-06-05T12:33:14.555Z</time>
      </trkpt>
      <trkpt lat="45.66057" lon="5.69397">
        <ele>215</ele>
        <time>2021-06-05T12:33:19.546Z</time>
      </trkpt>
      <trkpt lat="45.66039" lon="5.69396">
        <ele>215</ele>
        <time>2021-06-05T12:33:24.540Z</time>
      </trkpt>
      <trkpt lat="45.66029" lon="5.69396">
        <ele>215</ele>
        <time>2021-06-05T12:33:28.561Z</time>
      </trkpt>
      <trkpt lat="45.66027" lon="5.69396">
        <ele>215</ele>
        <time>2021-06-05T12:33:33.560Z</time>
      </trkpt>
      <trkpt lat="45.66024" lon="5.69396">
        <ele>215</ele>
        <time>2021-06-05T12:33:38.548Z</time>
      </trkpt>
      <trkpt lat="45.66018" lon="5.69397">
        <ele>215</ele>
        <time>2021-06-05T12:33:42.564Z</time>
      </trkpt>
      <trkpt lat="45.6601" lon="5.69399">
        <ele>215</ele>
        <time>2021-06-05T12:33:47.559Z</time>
      </trkpt>
      <trkpt lat="45.66003" lon="5.694">
        <ele>215</ele>
        <time>2021-06-05T12:33:52.555Z</time>
      </trkpt>
      <trkpt lat="45.65996" lon="5.69401">
        <ele>215</ele>
        <time>2021-06-05T12:33:57.554Z</time>
      </trkpt>
      <trkpt lat="45.65989" lon="5.69399">
        <ele>215</ele>
        <time>2021-06-05T12:34:02.562Z</time>
      </trkpt>
      <trkpt lat="45.65984" lon="5.69395">
        <ele>215</ele>
        <time>2021-06-05T12:34:07.541Z</time>
      </trkpt>
      <trkpt lat="45.65981" lon="5.69388">
        <ele>215</ele>
        <time>2021-06-05T12:34:11.557Z</time>
      </trkpt>
      <trkpt lat="45.65981" lon="5.69376">
        <ele>215</ele>
        <time>2021-06-05T12:34:16.558Z</time>
      </trkpt>
      <trkpt lat="45.65981" lon="5.69365">
        <ele>215</ele>
        <time>2021-06-05T12:34:21.541Z</time>
      </trkpt>
      <trkpt lat="45.6598" lon="5.69357">
        <ele>215</ele>
        <time>2021-06-05T12:34:25.553Z</time>
      </trkpt>
      <trkpt lat="45.65976" lon="5.69352">
        <ele>215</ele>
        <time>2021-06-05T12:34:30.562Z</time>
      </trkpt>
      <trkpt lat="45.65969" lon="5.69349">
        <ele>215</ele>
        <time>2021-06-05T12:34:35.544Z</time>
      </trkpt>
      <trkpt lat="45.6596" lon="5.69349">
        <ele>215</ele>
        <time>2021-06-05T12:34:40.550Z</time>
      </trkpt>
      <trkpt lat="45.65953" lon="5.69351">
        <ele>215</ele>
        <time>2021-06-05T12:34:45.543Z</time>
      </trkpt>
      <trkpt lat="45.65946" lon="5.69353">
        <ele>215</ele>
        <time>2021-06-05T12:34:50.543Z</time>
      </trkpt>
      <trkpt lat="45.6594" lon="5.69354">
        <ele>215</ele>
        <time>2021-06-05T12:34:54.553Z</time>
      </trkpt>
      <trkpt lat="45.65934" lon="5.69355">
        <ele>215</ele>
        <time>2021-06-05T12:34:59.550Z</time>
      </trkpt>
      <trkpt lat="45.65928" lon="5.69355">
        <ele>215</ele>
        <time>2021-06-05T12:35:03.560Z</time>
      </trkpt>
      <trkpt lat="45.65921" lon="5.69354">
        <ele>215</ele>
        <time>2021-06-05T12:35:08.537Z</time>
      </trkpt>
      <trkpt lat="45.65916" lon="5.69355">
        <ele>215</ele>
        <time>2021-06-05T12:35:13.534Z</time>
      </trkpt>
      <trkpt lat="45.6591" lon="5.69354">
        <ele>215</ele>
        <time>2021-06-05T12:35:17.540Z</time>
      </trkpt>
      <trkpt lat="45.65903" lon="5.69353">
        <ele>215</ele>
        <time>2021-06-05T12:35:22.546Z</time>
      </trkpt>
      <trkpt lat="45.65897" lon="5.69354">
        <ele>215</ele>
        <time>2021-06-05T12:35:26.566Z</time>
      </trkpt>
      <trkpt lat="45.65888" lon="5.69353">
        <ele>215</ele>
        <time>2021-06-05T12:35:31.554Z</time>
      </trkpt>
      <trkpt lat="45.65879" lon="5.69354">
        <ele>215</ele>
        <time>2021-06-05T12:35:36.549Z</time>
      </trkpt>
      <trkpt lat="45.65871" lon="5.69356">
        <ele>216</ele>
        <time>2021-06-05T12:35:41.544Z</time>
      </trkpt>
      <trkpt lat="45.65865" lon="5.69357">
        <ele>216</ele>
        <time>2021-06-05T12:35:45.562Z</time>
      </trkpt>
      <trkpt lat="45.65858" lon="5.69359">
        <ele>216</ele>
        <time>2021-06-05T12:35:50.558Z</time>
      </trkpt>
      <trkpt lat="45.65851" lon="5.69362">
        <ele>216</ele>
        <time>2021-06-05T12:35:55.539Z</time>
      </trkpt>
      <trkpt lat="45.65844" lon="5.69365">
        <ele>216</ele>
        <time>2021-06-05T12:36:00.540Z</time>
      </trkpt>
      <trkpt lat="45.65837" lon="5.69368">
        <ele>216</ele>
        <time>2021-06-05T12:36:05.546Z</time>
      </trkpt>
      <trkpt lat="45.65831" lon="5.69368">
        <ele>216</ele>
        <time>2021-06-05T12:36:10.544Z</time>
      </trkpt>
      <trkpt lat="45.65827" lon="5.69367">
        <ele>216</ele>
        <time>2021-06-05T12:36:14.566Z</time>
      </trkpt>
      <trkpt lat="45.65821" lon="5.69364">
        <ele>216</ele>
        <time>2021-06-05T12:36:19.557Z</time>
      </trkpt>
      <trkpt lat="45.65817" lon="5.69358">
        <ele>216</ele>
        <time>2021-06-05T12:36:23.570Z</time>
      </trkpt>
      <trkpt lat="45.65811" lon="5.69353">
        <ele>216</ele>
        <time>2021-06-05T12:36:28.554Z</time>
      </trkpt>
      <trkpt lat="45.65804" lon="5.69343">
        <ele>216</ele>
        <time>2021-06-05T12:36:33.560Z</time>
      </trkpt>
      <trkpt lat="45.65797" lon="5.69334">
        <ele>216</ele>
        <time>2021-06-05T12:36:38.558Z</time>
      </trkpt>
      <trkpt lat="45.65788" lon="5.69323">
        <ele>215</ele>
        <time>2021-06-05T12:36:43.553Z</time>
      </trkpt>
      <trkpt lat="45.65774" lon="5.69305">
        <ele>215</ele>
        <time>2021-06-05T12:36:48.543Z</time>
      </trkpt>
      <trkpt lat="45.65763" lon="5.6929">
        <ele>215</ele>
        <time>2021-06-05T12:36:52.553Z</time>
      </trkpt>
      <trkpt lat="45.65752" lon="5.69276">
        <ele>215</ele>
        <time>2021-06-05T12:36:56.568Z</time>
      </trkpt>
      <trkpt lat="45.6574" lon="5.69262">
        <ele>215</ele>
        <time>2021-06-05T12:37:01.544Z</time>
      </trkpt>
      <trkpt lat="45.6573" lon="5.69249">
        <ele>215</ele>
        <time>2021-06-05T12:37:05.565Z</time>
      </trkpt>
      <trkpt lat="45.65713" lon="5.69231">
        <ele>216</ele>
        <time>2021-06-05T12:37:10.551Z</time>
      </trkpt>
      <trkpt lat="45.65699" lon="5.69215">
        <ele>216</ele>
        <time>2021-06-05T12:37:15.548Z</time>
      </trkpt>
      <trkpt lat="45.65694" lon="5.69206">
        <ele>216</ele>
        <time>2021-06-05T12:37:20.569Z</time>
      </trkpt>
      <trkpt lat="45.65695" lon="5.69195">
        <ele>216</ele>
        <time>2021-06-05T12:37:25.555Z</time>
      </trkpt>
      <trkpt lat="45.65697" lon="5.69186">
        <ele>216</ele>
        <time>2021-06-05T12:37:29.570Z</time>
      </trkpt>
      <trkpt lat="45.65699" lon="5.69176">
        <ele>216</ele>
        <time>2021-06-05T12:37:34.537Z</time>
      </trkpt>
      <trkpt lat="45.65704" lon="5.69167">
        <ele>216</ele>
        <time>2021-06-05T12:37:39.541Z</time>
      </trkpt>
      <trkpt lat="45.65706" lon="5.69162">
        <ele>216</ele>
        <time>2021-06-05T12:37:43.565Z</time>
      </trkpt>
      <trkpt lat="45.65709" lon="5.69152">
        <ele>217</ele>
        <time>2021-06-05T12:37:48.557Z</time>
      </trkpt>
      <trkpt lat="45.65712" lon="5.69143">
        <ele>217</ele>
        <time>2021-06-05T12:37:53.547Z</time>
      </trkpt>
      <trkpt lat="45.65714" lon="5.69134">
        <ele>217</ele>
        <time>2021-06-05T12:37:57.559Z</time>
      </trkpt>
      <trkpt lat="45.65714" lon="5.69124">
        <ele>216</ele>
        <time>2021-06-05T12:38:02.558Z</time>
      </trkpt>
      <trkpt lat="45.65709" lon="5.69117">
        <ele>216</ele>
        <time>2021-06-05T12:38:07.552Z</time>
      </trkpt>
      <trkpt lat="45.65703" lon="5.69113">
        <ele>217</ele>
        <time>2021-06-05T12:38:12.572Z</time>
      </trkpt>
      <trkpt lat="45.65684" lon="5.691">
        <ele>217</ele>
        <time>2021-06-05T12:38:17.558Z</time>
      </trkpt>
      <trkpt lat="45.65665" lon="5.69081">
        <ele>219</ele>
        <time>2021-06-05T12:38:22.559Z</time>
      </trkpt>
      <trkpt lat="45.65649" lon="5.69068">
        <ele>218</ele>
        <time>2021-06-05T12:38:27.547Z</time>
      </trkpt>
      <trkpt lat="45.65642" lon="5.69061">
        <ele>218</ele>
        <time>2021-06-05T12:38:32.558Z</time>
      </trkpt>
      <trkpt lat="45.65636" lon="5.69054">
        <ele>218</ele>
        <time>2021-06-05T12:38:37.560Z</time>
      </trkpt>
      <trkpt lat="45.65628" lon="5.69048">
        <ele>218</ele>
        <time>2021-06-05T12:38:42.560Z</time>
      </trkpt>
      <trkpt lat="45.65621" lon="5.69042">
        <ele>217</ele>
        <time>2021-06-05T12:38:47.559Z</time>
      </trkpt>
      <trkpt lat="45.65617" lon="5.69039">
        <ele>217</ele>
        <time>2021-06-05T12:38:52.551Z</time>
      </trkpt>
      <trkpt lat="45.65611" lon="5.69035">
        <ele>217</ele>
        <time>2021-06-05T12:38:57.557Z</time>
      </trkpt>
      <trkpt lat="45.65603" lon="5.69031">
        <ele>217</ele>
        <time>2021-06-05T12:39:02.549Z</time>
      </trkpt>
      <trkpt lat="45.65595" lon="5.69026">
        <ele>217</ele>
        <time>2021-06-05T12:39:07.554Z</time>
      </trkpt>
      <trkpt lat="45.6559" lon="5.69022">
        <ele>217</ele>
        <time>2021-06-05T12:39:11.565Z</time>
      </trkpt>
      <trkpt lat="45.65583" lon="5.69017">
        <ele>217</ele>
        <time>2021-06-05T12:39:16.555Z</time>
      </trkpt>
      <trkpt lat="45.65576" lon="5.69012">
        <ele>217</ele>
        <time>2021-06-05T12:39:21.577Z</time>
      </trkpt>
      <trkpt lat="45.65572" lon="5.69002">
        <ele>217</ele>
        <time>2021-06-05T12:39:26.551Z</time>
      </trkpt>
      <trkpt lat="45.65568" lon="5.68989">
        <ele>217</ele>
        <time>2021-06-05T12:39:31.545Z</time>
      </trkpt>
      <trkpt lat="45.65567" lon="5.68979">
        <ele>217</ele>
        <time>2021-06-05T12:39:35.572Z</time>
      </trkpt>
      <trkpt lat="45.65567" lon="5.68967">
        <ele>217</ele>
        <time>2021-06-05T12:39:40.567Z</time>
      </trkpt>
      <trkpt lat="45.65565" lon="5.68955">
        <ele>216</ele>
        <time>2021-06-05T12:39:45.546Z</time>
      </trkpt>
      <trkpt lat="45.65566" lon="5.68947">
        <ele>216</ele>
        <time>2021-06-05T12:39:50.556Z</time>
      </trkpt>
      <trkpt lat="45.65565" lon="5.68936">
        <ele>216</ele>
        <time>2021-06-05T12:39:55.554Z</time>
      </trkpt>
      <trkpt lat="45.65563" lon="5.68927">
        <ele>215</ele>
        <time>2021-06-05T12:39:59.561Z</time>
      </trkpt>
      <trkpt lat="45.6556" lon="5.68918">
        <ele>215</ele>
        <time>2021-06-05T12:40:04.545Z</time>
      </trkpt>
      <trkpt lat="45.6555" lon="5.68923">
        <ele>215</ele>
        <time>2021-06-05T12:40:09.566Z</time>
      </trkpt>
      <trkpt lat="45.65538" lon="5.6893">
        <ele>216</ele>
        <time>2021-06-05T12:40:14.558Z</time>
      </trkpt>
      <trkpt lat="45.6552" lon="5.68937">
        <ele>217</ele>
        <time>2021-06-05T12:40:19.552Z</time>
      </trkpt>
      <trkpt lat="45.65497" lon="5.68947">
        <ele>217</ele>
        <time>2021-06-05T12:40:24.548Z</time>
      </trkpt>
      <trkpt lat="45.65481" lon="5.68954">
        <ele>217</ele>
        <time>2021-06-05T12:40:28.561Z</time>
      </trkpt>
      <trkpt lat="45.6546" lon="5.68962">
        <ele>216</ele>
        <time>2021-06-05T12:40:33.546Z</time>
      </trkpt>
      <trkpt lat="45.65445" lon="5.68969">
        <ele>216</ele>
        <time>2021-06-05T12:40:37.563Z</time>
      </trkpt>
      <trkpt lat="45.65426" lon="5.68977">
        <ele>216</ele>
        <time>2021-06-05T12:40:42.544Z</time>
      </trkpt>
      <trkpt lat="45.65414" lon="5.68984">
        <ele>216</ele>
        <time>2021-06-05T12:40:47.554Z</time>
      </trkpt>
      <trkpt lat="45.654" lon="5.68989">
        <ele>215</ele>
        <time>2021-06-05T12:40:52.552Z</time>
      </trkpt>
      <trkpt lat="45.65381" lon="5.68997">
        <ele>215</ele>
        <time>2021-06-05T12:40:56.561Z</time>
      </trkpt>
      <trkpt lat="45.65356" lon="5.69006">
        <ele>215</ele>
        <time>2021-06-05T12:41:01.559Z</time>
      </trkpt>
      <trkpt lat="45.6534" lon="5.69014">
        <ele>215</ele>
        <time>2021-06-05T12:41:06.558Z</time>
      </trkpt>
      <trkpt lat="45.65321" lon="5.69022">
        <ele>215</ele>
        <time>2021-06-05T12:41:11.558Z</time>
      </trkpt>
      <trkpt lat="45.65301" lon="5.69029">
        <ele>215</ele>
        <time>2021-06-05T12:41:16.566Z</time>
      </trkpt>
      <trkpt lat="45.6528" lon="5.69037">
        <ele>214</ele>
        <time>2021-06-05T12:41:21.559Z</time>
      </trkpt>
      <trkpt lat="45.65263" lon="5.69046">
        <ele>215</ele>
        <time>2021-06-05T12:41:26.555Z</time>
      </trkpt>
      <trkpt lat="45.65252" lon="5.6905">
        <ele>215</ele>
        <time>2021-06-05T12:41:31.562Z</time>
      </trkpt>
      <trkpt lat="45.65244" lon="5.69051">
        <ele>215</ele>
        <time>2021-06-05T12:41:36.542Z</time>
      </trkpt>
      <trkpt lat="45.65236" lon="5.69051">
        <ele>215</ele>
        <time>2021-06-05T12:41:41.561Z</time>
      </trkpt>
      <trkpt lat="45.65229" lon="5.69054">
        <ele>215</ele>
        <time>2021-06-05T12:41:46.557Z</time>
      </trkpt>
      <trkpt lat="45.65221" lon="5.69057">
        <ele>215</ele>
        <time>2021-06-05T12:41:51.546Z</time>
      </trkpt>
      <trkpt lat="45.65215" lon="5.6906">
        <ele>215</ele>
        <time>2021-06-05T12:41:55.558Z</time>
      </trkpt>
      <trkpt lat="45.65207" lon="5.69063">
        <ele>216</ele>
        <time>2021-06-05T12:42:00.547Z</time>
      </trkpt>
      <trkpt lat="45.65201" lon="5.69067">
        <ele>216</ele>
        <time>2021-06-05T12:42:05.552Z</time>
      </trkpt>
      <trkpt lat="45.65193" lon="5.69071">
        <ele>215</ele>
        <time>2021-06-05T12:42:10.553Z</time>
      </trkpt>
      <trkpt lat="45.65187" lon="5.69072">
        <ele>215</ele>
        <time>2021-06-05T12:42:15.550Z</time>
      </trkpt>
      <trkpt lat="45.65179" lon="5.69075">
        <ele>215</ele>
        <time>2021-06-05T12:42:20.558Z</time>
      </trkpt>
      <trkpt lat="45.65173" lon="5.69076">
        <ele>215</ele>
        <time>2021-06-05T12:42:25.564Z</time>
      </trkpt>
      <trkpt lat="45.65166" lon="5.69079">
        <ele>215</ele>
        <time>2021-06-05T12:42:30.550Z</time>
      </trkpt>
      <trkpt lat="45.65159" lon="5.69081">
        <ele>215</ele>
        <time>2021-06-05T12:42:35.545Z</time>
      </trkpt>
      <trkpt lat="45.65151" lon="5.69081">
        <ele>214</ele>
        <time>2021-06-05T12:42:40.562Z</time>
      </trkpt>
      <trkpt lat="45.65144" lon="5.69083">
        <ele>214</ele>
        <time>2021-06-05T12:42:45.553Z</time>
      </trkpt>
      <trkpt lat="45.65139" lon="5.69085">
        <ele>214</ele>
        <time>2021-06-05T12:42:49.573Z</time>
      </trkpt>
      <trkpt lat="45.65132" lon="5.69088">
        <ele>214</ele>
        <time>2021-06-05T12:42:54.542Z</time>
      </trkpt>
      <trkpt lat="45.65125" lon="5.6909">
        <ele>215</ele>
        <time>2021-06-05T12:42:59.549Z</time>
      </trkpt>
      <trkpt lat="45.65119" lon="5.69091">
        <ele>215</ele>
        <time>2021-06-05T12:43:04.555Z</time>
      </trkpt>
      <trkpt lat="45.65111" lon="5.69093">
        <ele>215</ele>
        <time>2021-06-05T12:43:09.549Z</time>
      </trkpt>
      <trkpt lat="45.65105" lon="5.69095">
        <ele>215</ele>
        <time>2021-06-05T12:43:13.562Z</time>
      </trkpt>
      <trkpt lat="45.65097" lon="5.69097">
        <ele>216</ele>
        <time>2021-06-05T12:43:18.545Z</time>
      </trkpt>
      <trkpt lat="45.65089" lon="5.691">
        <ele>215</ele>
        <time>2021-06-05T12:43:23.543Z</time>
      </trkpt>
      <trkpt lat="45.65083" lon="5.69101">
        <ele>215</ele>
        <time>2021-06-05T12:43:27.563Z</time>
      </trkpt>
      <trkpt lat="45.65075" lon="5.69104">
        <ele>215</ele>
        <time>2021-06-05T12:43:32.559Z</time>
      </trkpt>
      <trkpt lat="45.65068" lon="5.69106">
        <ele>215</ele>
        <time>2021-06-05T12:43:37.543Z</time>
      </trkpt>
      <trkpt lat="45.65062" lon="5.69107">
        <ele>215</ele>
        <time>2021-06-05T12:43:41.561Z</time>
      </trkpt>
      <trkpt lat="45.65055" lon="5.6911">
        <ele>215</ele>
        <time>2021-06-05T12:43:46.556Z</time>
      </trkpt>
      <trkpt lat="45.65048" lon="5.69112">
        <ele>215</ele>
        <time>2021-06-05T12:43:51.545Z</time>
      </trkpt>
      <trkpt lat="45.65041" lon="5.69113">
        <ele>215</ele>
        <time>2021-06-05T12:43:56.566Z</time>
      </trkpt>
      <trkpt lat="45.65034" lon="5.69115">
        <ele>215</ele>
        <time>2021-06-05T12:44:01.550Z</time>
      </trkpt>
      <trkpt lat="45.65026" lon="5.69116">
        <ele>215</ele>
        <time>2021-06-05T12:44:06.555Z</time>
      </trkpt>
      <trkpt lat="45.65019" lon="5.69117">
        <ele>215</ele>
        <time>2021-06-05T12:44:11.552Z</time>
      </trkpt>
      <trkpt lat="45.65012" lon="5.69119">
        <ele>215</ele>
        <time>2021-06-05T12:44:16.547Z</time>
      </trkpt>
      <trkpt lat="45.65005" lon="5.6912">
        <ele>215</ele>
        <time>2021-06-05T12:44:21.558Z</time>
      </trkpt>
      <trkpt lat="45.64998" lon="5.69122">
        <ele>215</ele>
        <time>2021-06-05T12:44:26.557Z</time>
      </trkpt>
      <trkpt lat="45.6499" lon="5.69122">
        <ele>215</ele>
        <time>2021-06-05T12:44:31.536Z</time>
      </trkpt>
      <trkpt lat="45.64982" lon="5.69123">
        <ele>215</ele>
        <time>2021-06-05T12:44:36.557Z</time>
      </trkpt>
      <trkpt lat="45.64975" lon="5.69124">
        <ele>215</ele>
        <time>2021-06-05T12:44:41.554Z</time>
      </trkpt>
      <trkpt lat="45.64967" lon="5.69124">
        <ele>215</ele>
        <time>2021-06-05T12:44:46.542Z</time>
      </trkpt>
      <trkpt lat="45.6496" lon="5.69125">
        <ele>215</ele>
        <time>2021-06-05T12:44:51.547Z</time>
      </trkpt>
      <trkpt lat="45.64954" lon="5.69125">
        <ele>215</ele>
        <time>2021-06-05T12:44:56.544Z</time>
      </trkpt>
      <trkpt lat="45.64948" lon="5.69126">
        <ele>215</ele>
        <time>2021-06-05T12:45:00.568Z</time>
      </trkpt>
      <trkpt lat="45.64941" lon="5.69128">
        <ele>215</ele>
        <time>2021-06-05T12:45:05.554Z</time>
      </trkpt>
      <trkpt lat="45.64933" lon="5.6913">
        <ele>215</ele>
        <time>2021-06-05T12:45:10.540Z</time>
      </trkpt>
      <trkpt lat="45.64928" lon="5.69132">
        <ele>215</ele>
        <time>2021-06-05T12:45:14.555Z</time>
      </trkpt>
      <trkpt lat="45.64921" lon="5.69135">
        <ele>215</ele>
        <time>2021-06-05T12:45:19.540Z</time>
      </trkpt>
      <trkpt lat="45.64915" lon="5.69137">
        <ele>215</ele>
        <time>2021-06-05T12:45:23.557Z</time>
      </trkpt>
      <trkpt lat="45.64908" lon="5.69142">
        <ele>215</ele>
        <time>2021-06-05T12:45:28.534Z</time>
      </trkpt>
      <trkpt lat="45.64903" lon="5.69145">
        <ele>215</ele>
        <time>2021-06-05T12:45:32.557Z</time>
      </trkpt>
      <trkpt lat="45.64898" lon="5.6915">
        <ele>215</ele>
        <time>2021-06-05T12:45:36.566Z</time>
      </trkpt>
      <trkpt lat="45.64891" lon="5.69157">
        <ele>215</ele>
        <time>2021-06-05T12:45:41.546Z</time>
      </trkpt>
      <trkpt lat="45.64886" lon="5.69162">
        <ele>215</ele>
        <time>2021-06-05T12:45:45.556Z</time>
      </trkpt>
      <trkpt lat="45.64879" lon="5.69169">
        <ele>215</ele>
        <time>2021-06-05T12:45:50.552Z</time>
      </trkpt>
      <trkpt lat="45.64873" lon="5.69174">
        <ele>214</ele>
        <time>2021-06-05T12:45:55.547Z</time>
      </trkpt>
      <trkpt lat="45.64869" lon="5.6918">
        <ele>214</ele>
        <time>2021-06-05T12:45:59.548Z</time>
      </trkpt>
      <trkpt lat="45.64863" lon="5.69187">
        <ele>214</ele>
        <time>2021-06-05T12:46:04.551Z</time>
      </trkpt>
      <trkpt lat="45.64858" lon="5.69191">
        <ele>214</ele>
        <time>2021-06-05T12:46:08.563Z</time>
      </trkpt>
      <trkpt lat="45.64852" lon="5.69198">
        <ele>214</ele>
        <time>2021-06-05T12:46:13.559Z</time>
      </trkpt>
      <trkpt lat="45.64846" lon="5.69204">
        <ele>214</ele>
        <time>2021-06-05T12:46:18.543Z</time>
      </trkpt>
      <trkpt lat="45.6484" lon="5.69209">
        <ele>214</ele>
        <time>2021-06-05T12:46:23.551Z</time>
      </trkpt>
      <trkpt lat="45.64834" lon="5.69214">
        <ele>214</ele>
        <time>2021-06-05T12:46:28.554Z</time>
      </trkpt>
      <trkpt lat="45.64828" lon="5.6922">
        <ele>214</ele>
        <time>2021-06-05T12:46:33.555Z</time>
      </trkpt>
      <trkpt lat="45.64822" lon="5.69225">
        <ele>214</ele>
        <time>2021-06-05T12:46:38.560Z</time>
      </trkpt>
      <trkpt lat="45.64816" lon="5.69231">
        <ele>216</ele>
        <time>2021-06-05T12:46:43.553Z</time>
      </trkpt>
      <trkpt lat="45.6481" lon="5.69236">
        <ele>216</ele>
        <time>2021-06-05T12:46:48.539Z</time>
      </trkpt>
      <trkpt lat="45.64806" lon="5.6924">
        <ele>215</ele>
        <time>2021-06-05T12:46:52.564Z</time>
      </trkpt>
      <trkpt lat="45.64801" lon="5.69244">
        <ele>215</ele>
        <time>2021-06-05T12:46:56.580Z</time>
      </trkpt>
      <trkpt lat="45.64794" lon="5.6925">
        <ele>215</ele>
        <time>2021-06-05T12:47:01.548Z</time>
      </trkpt>
      <trkpt lat="45.64789" lon="5.69255">
        <ele>215</ele>
        <time>2021-06-05T12:47:06.547Z</time>
      </trkpt>
      <trkpt lat="45.64784" lon="5.69259">
        <ele>215</ele>
        <time>2021-06-05T12:47:10.554Z</time>
      </trkpt>
      <trkpt lat="45.64778" lon="5.69264">
        <ele>215</ele>
        <time>2021-06-05T12:47:15.544Z</time>
      </trkpt>
      <trkpt lat="45.64772" lon="5.69269">
        <ele>215</ele>
        <time>2021-06-05T12:47:19.556Z</time>
      </trkpt>
      <trkpt lat="45.64765" lon="5.69275">
        <ele>215</ele>
        <time>2021-06-05T12:47:24.547Z</time>
      </trkpt>
      <trkpt lat="45.64758" lon="5.69279">
        <ele>215</ele>
        <time>2021-06-05T12:47:29.554Z</time>
      </trkpt>
      <trkpt lat="45.64751" lon="5.69284">
        <ele>215</ele>
        <time>2021-06-05T12:47:34.559Z</time>
      </trkpt>
      <trkpt lat="45.64746" lon="5.69287">
        <ele>215</ele>
        <time>2021-06-05T12:47:39.556Z</time>
      </trkpt>
      <trkpt lat="45.64739" lon="5.69289">
        <ele>215</ele>
        <time>2021-06-05T12:47:43.572Z</time>
      </trkpt>
      <trkpt lat="45.64732" lon="5.69293">
        <ele>215</ele>
        <time>2021-06-05T12:47:48.543Z</time>
      </trkpt>
      <trkpt lat="45.64724" lon="5.69298">
        <ele>215</ele>
        <time>2021-06-05T12:47:53.551Z</time>
      </trkpt>
      <trkpt lat="45.64718" lon="5.693">
        <ele>215</ele>
        <time>2021-06-05T12:47:57.583Z</time>
      </trkpt>
      <trkpt lat="45.64712" lon="5.69303">
        <ele>215</ele>
        <time>2021-06-05T12:48:02.552Z</time>
      </trkpt>
      <trkpt lat="45.64705" lon="5.69306">
        <ele>215</ele>
        <time>2021-06-05T12:48:07.541Z</time>
      </trkpt>
      <trkpt lat="45.64699" lon="5.69305">
        <ele>215</ele>
        <time>2021-06-05T12:48:11.552Z</time>
      </trkpt>
      <trkpt lat="45.64692" lon="5.69306">
        <ele>215</ele>
        <time>2021-06-05T12:48:16.551Z</time>
      </trkpt>
      <trkpt lat="45.64687" lon="5.69303">
        <ele>215</ele>
        <time>2021-06-05T12:48:20.558Z</time>
      </trkpt>
      <trkpt lat="45.64679" lon="5.693">
        <ele>215</ele>
        <time>2021-06-05T12:48:25.555Z</time>
      </trkpt>
      <trkpt lat="45.64673" lon="5.69298">
        <ele>215</ele>
        <time>2021-06-05T12:48:30.557Z</time>
      </trkpt>
      <trkpt lat="45.64668" lon="5.69296">
        <ele>215</ele>
        <time>2021-06-05T12:48:35.556Z</time>
      </trkpt>
      <trkpt lat="45.64664" lon="5.69295">
        <ele>215</ele>
        <time>2021-06-05T12:48:40.538Z</time>
      </trkpt>
      <trkpt lat="45.64659" lon="5.69291">
        <ele>215</ele>
        <time>2021-06-05T12:48:44.558Z</time>
      </trkpt>
      <trkpt lat="45.64653" lon="5.69285">
        <ele>215</ele>
        <time>2021-06-05T12:48:49.555Z</time>
      </trkpt>
      <trkpt lat="45.64646" lon="5.69281">
        <ele>214</ele>
        <time>2021-06-05T12:48:54.552Z</time>
      </trkpt>
      <trkpt lat="45.6464" lon="5.69278">
        <ele>214</ele>
        <time>2021-06-05T12:48:59.545Z</time>
      </trkpt>
      <trkpt lat="45.64635" lon="5.69277">
        <ele>214</ele>
        <time>2021-06-05T12:49:03.568Z</time>
      </trkpt>
      <trkpt lat="45.64627" lon="5.69275">
        <ele>214</ele>
        <time>2021-06-05T12:49:08.544Z</time>
      </trkpt>
      <trkpt lat="45.64619" lon="5.69271">
        <ele>215</ele>
        <time>2021-06-05T12:49:13.539Z</time>
      </trkpt>
      <trkpt lat="45.64612" lon="5.6927">
        <ele>215</ele>
        <time>2021-06-05T12:49:17.559Z</time>
      </trkpt>
      <trkpt lat="45.64606" lon="5.69268">
        <ele>215</ele>
        <time>2021-06-05T12:49:22.560Z</time>
      </trkpt>
      <trkpt lat="45.64597" lon="5.69268">
        <ele>216</ele>
        <time>2021-06-05T12:49:27.557Z</time>
      </trkpt>
      <trkpt lat="45.64589" lon="5.69267">
        <ele>216</ele>
        <time>2021-06-05T12:49:32.559Z</time>
      </trkpt>
      <trkpt lat="45.64582" lon="5.69269">
        <ele>216</ele>
        <time>2021-06-05T12:49:37.550Z</time>
      </trkpt>
      <trkpt lat="45.64575" lon="5.69271">
        <ele>216</ele>
        <time>2021-06-05T12:49:42.546Z</time>
      </trkpt>
      <trkpt lat="45.64569" lon="5.69277">
        <ele>217</ele>
        <time>2021-06-05T12:49:47.543Z</time>
      </trkpt>
      <trkpt lat="45.64566" lon="5.69282">
        <ele>217</ele>
        <time>2021-06-05T12:49:52.554Z</time>
      </trkpt>
      <trkpt lat="45.6456" lon="5.69287">
        <ele>217</ele>
        <time>2021-06-05T12:49:57.571Z</time>
      </trkpt>
      <trkpt lat="45.64554" lon="5.69294">
        <ele>217</ele>
        <time>2021-06-05T12:50:02.555Z</time>
      </trkpt>
      <trkpt lat="45.64546" lon="5.69303">
        <ele>217</ele>
        <time>2021-06-05T12:50:07.556Z</time>
      </trkpt>
      <trkpt lat="45.64539" lon="5.69306">
        <ele>218</ele>
        <time>2021-06-05T12:50:12.555Z</time>
      </trkpt>
      <trkpt lat="45.64531" lon="5.69308">
        <ele>218</ele>
        <time>2021-06-05T12:50:17.555Z</time>
      </trkpt>
      <trkpt lat="45.64524" lon="5.6931">
        <ele>218</ele>
        <time>2021-06-05T12:50:22.541Z</time>
      </trkpt>
      <trkpt lat="45.64518" lon="5.69311">
        <ele>218</ele>
        <time>2021-06-05T12:50:26.552Z</time>
      </trkpt>
      <trkpt lat="45.64511" lon="5.6931">
        <ele>217</ele>
        <time>2021-06-05T12:50:31.555Z</time>
      </trkpt>
      <trkpt lat="45.64503" lon="5.69312">
        <ele>217</ele>
        <time>2021-06-05T12:50:36.551Z</time>
      </trkpt>
      <trkpt lat="45.64496" lon="5.69313">
        <ele>217</ele>
        <time>2021-06-05T12:50:41.553Z</time>
      </trkpt>
      <trkpt lat="45.64491" lon="5.69312">
        <ele>217</ele>
        <time>2021-06-05T12:50:46.552Z</time>
      </trkpt>
      <trkpt lat="45.64483" lon="5.69315">
        <ele>215</ele>
        <time>2021-06-05T12:50:51.555Z</time>
      </trkpt>
      <trkpt lat="45.64477" lon="5.69315">
        <ele>215</ele>
        <time>2021-06-05T12:50:55.554Z</time>
      </trkpt>
      <trkpt lat="45.64471" lon="5.69313">
        <ele>215</ele>
        <time>2021-06-05T12:51:00.558Z</time>
      </trkpt>
      <trkpt lat="45.64465" lon="5.6931">
        <ele>215</ele>
        <time>2021-06-05T12:51:05.538Z</time>
      </trkpt>
      <trkpt lat="45.64458" lon="5.69308">
        <ele>215</ele>
        <time>2021-06-05T12:51:09.559Z</time>
      </trkpt>
      <trkpt lat="45.64451" lon="5.69305">
        <ele>215</ele>
        <time>2021-06-05T12:51:14.563Z</time>
      </trkpt>
      <trkpt lat="45.64445" lon="5.69301">
        <ele>215</ele>
        <time>2021-06-05T12:51:19.540Z</time>
      </trkpt>
      <trkpt lat="45.64438" lon="5.69297">
        <ele>215</ele>
        <time>2021-06-05T12:51:24.562Z</time>
      </trkpt>
      <trkpt lat="45.64433" lon="5.69288">
        <ele>215</ele>
        <time>2021-06-05T12:51:29.568Z</time>
      </trkpt>
      <trkpt lat="45.64428" lon="5.69279">
        <ele>214</ele>
        <time>2021-06-05T12:51:34.551Z</time>
      </trkpt>
      <trkpt lat="45.64425" lon="5.69272">
        <ele>214</ele>
        <time>2021-06-05T12:51:38.562Z</time>
      </trkpt>
      <trkpt lat="45.6442" lon="5.69268">
        <ele>214</ele>
        <time>2021-06-05T12:51:43.555Z</time>
      </trkpt>
      <trkpt lat="45.64419" lon="5.69268">
        <ele>214</ele>
        <time>2021-06-05T12:51:48.538Z</time>
      </trkpt>
      <trkpt lat="45.64413" lon="5.69261">
        <ele>214</ele>
        <time>2021-06-05T12:51:53.551Z</time>
      </trkpt>
      <trkpt lat="45.64409" lon="5.69253">
        <ele>214</ele>
        <time>2021-06-05T12:51:57.567Z</time>
      </trkpt>
      <trkpt lat="45.64403" lon="5.69246">
        <ele>214</ele>
        <time>2021-06-05T12:52:02.553Z</time>
      </trkpt>
      <trkpt lat="45.64397" lon="5.69238">
        <ele>214</ele>
        <time>2021-06-05T12:52:07.545Z</time>
      </trkpt>
      <trkpt lat="45.64393" lon="5.69232">
        <ele>214</ele>
        <time>2021-06-05T12:52:11.556Z</time>
      </trkpt>
      <trkpt lat="45.64388" lon="5.69223">
        <ele>214</ele>
        <time>2021-06-05T12:52:16.556Z</time>
      </trkpt>
      <trkpt lat="45.64383" lon="5.69214">
        <ele>214</ele>
        <time>2021-06-05T12:52:21.561Z</time>
      </trkpt>
      <trkpt lat="45.64378" lon="5.69205">
        <ele>214</ele>
        <time>2021-06-05T12:52:26.559Z</time>
      </trkpt>
      <trkpt lat="45.64374" lon="5.69195">
        <ele>215</ele>
        <time>2021-06-05T12:52:31.554Z</time>
      </trkpt>
      <trkpt lat="45.6437" lon="5.69187">
        <ele>215</ele>
        <time>2021-06-05T12:52:36.536Z</time>
      </trkpt>
      <trkpt lat="45.64366" lon="5.69177">
        <ele>215</ele>
        <time>2021-06-05T12:52:41.557Z</time>
      </trkpt>
      <trkpt lat="45.64361" lon="5.69167">
        <ele>215</ele>
        <time>2021-06-05T12:52:46.533Z</time>
      </trkpt>
      <trkpt lat="45.64358" lon="5.69162">
        <ele>215</ele>
        <time>2021-06-05T12:52:50.549Z</time>
      </trkpt>
      <trkpt lat="45.64354" lon="5.69153">
        <ele>215</ele>
        <time>2021-06-05T12:52:55.549Z</time>
      </trkpt>
      <trkpt lat="45.64351" lon="5.69146">
        <ele>214</ele>
        <time>2021-06-05T12:52:59.561Z</time>
      </trkpt>
      <trkpt lat="45.64346" lon="5.69139">
        <ele>216</ele>
        <time>2021-06-05T12:53:04.549Z</time>
      </trkpt>
      <trkpt lat="45.64341" lon="5.69133">
        <ele>216</ele>
        <time>2021-06-05T12:53:09.555Z</time>
      </trkpt>
      <trkpt lat="45.64335" lon="5.69129">
        <ele>216</ele>
        <time>2021-06-05T12:53:14.557Z</time>
      </trkpt>
      <trkpt lat="45.64328" lon="5.69127">
        <ele>216</ele>
        <time>2021-06-05T12:53:19.574Z</time>
      </trkpt>
      <trkpt lat="45.64322" lon="5.69124">
        <ele>215</ele>
        <time>2021-06-05T12:53:23.584Z</time>
      </trkpt>
      <trkpt lat="45.64315" lon="5.6912">
        <ele>216</ele>
        <time>2021-06-05T12:53:28.544Z</time>
      </trkpt>
      <trkpt lat="45.6431" lon="5.69118">
        <ele>216</ele>
        <time>2021-06-05T12:53:32.562Z</time>
      </trkpt>
      <trkpt lat="45.64303" lon="5.69115">
        <ele>216</ele>
        <time>2021-06-05T12:53:37.566Z</time>
      </trkpt>
      <trkpt lat="45.64297" lon="5.6911">
        <ele>216</ele>
        <time>2021-06-05T12:53:42.545Z</time>
      </trkpt>
      <trkpt lat="45.64291" lon="5.69106">
        <ele>216</ele>
        <time>2021-06-05T12:53:47.553Z</time>
      </trkpt>
      <trkpt lat="45.64284" lon="5.69103">
        <ele>216</ele>
        <time>2021-06-05T12:53:52.553Z</time>
      </trkpt>
      <trkpt lat="45.64277" lon="5.691">
        <ele>216</ele>
        <time>2021-06-05T12:53:57.552Z</time>
      </trkpt>
      <trkpt lat="45.64269" lon="5.69097">
        <ele>215</ele>
        <time>2021-06-05T12:54:02.557Z</time>
      </trkpt>
      <trkpt lat="45.64263" lon="5.69092">
        <ele>216</ele>
        <time>2021-06-05T12:54:07.557Z</time>
      </trkpt>
      <trkpt lat="45.64256" lon="5.69089">
        <ele>216</ele>
        <time>2021-06-05T12:54:12.530Z</time>
      </trkpt>
      <trkpt lat="45.64251" lon="5.69085">
        <ele>216</ele>
        <time>2021-06-05T12:54:16.559Z</time>
      </trkpt>
      <trkpt lat="45.64245" lon="5.69081">
        <ele>216</ele>
        <time>2021-06-05T12:54:21.559Z</time>
      </trkpt>
      <trkpt lat="45.64239" lon="5.69076">
        <ele>216</ele>
        <time>2021-06-05T12:54:26.544Z</time>
      </trkpt>
      <trkpt lat="45.64233" lon="5.69072">
        <ele>216</ele>
        <time>2021-06-05T12:54:31.550Z</time>
      </trkpt>
      <trkpt lat="45.64227" lon="5.69069">
        <ele>217</ele>
        <time>2021-06-05T12:54:36.544Z</time>
      </trkpt>
      <trkpt lat="45.6422" lon="5.69063">
        <ele>217</ele>
        <time>2021-06-05T12:54:41.557Z</time>
      </trkpt>
      <trkpt lat="45.64214" lon="5.69059">
        <ele>217</ele>
        <time>2021-06-05T12:54:46.560Z</time>
      </trkpt>
      <trkpt lat="45.64207" lon="5.69055">
        <ele>217</ele>
        <time>2021-06-05T12:54:51.557Z</time>
      </trkpt>
      <trkpt lat="45.64201" lon="5.6905">
        <ele>217</ele>
        <time>2021-06-05T12:54:56.576Z</time>
      </trkpt>
      <trkpt lat="45.64195" lon="5.69046">
        <ele>217</ele>
        <time>2021-06-05T12:55:01.555Z</time>
      </trkpt>
      <trkpt lat="45.64188" lon="5.69041">
        <ele>217</ele>
        <time>2021-06-05T12:55:06.557Z</time>
      </trkpt>
      <trkpt lat="45.64183" lon="5.69037">
        <ele>217</ele>
        <time>2021-06-05T12:55:10.565Z</time>
      </trkpt>
      <trkpt lat="45.64177" lon="5.69032">
        <ele>217</ele>
        <time>2021-06-05T12:55:15.559Z</time>
      </trkpt>
      <trkpt lat="45.64171" lon="5.69028">
        <ele>217</ele>
        <time>2021-06-05T12:55:20.558Z</time>
      </trkpt>
      <trkpt lat="45.64165" lon="5.69021">
        <ele>217</ele>
        <time>2021-06-05T12:55:25.555Z</time>
      </trkpt>
      <trkpt lat="45.6416" lon="5.69016">
        <ele>217</ele>
        <time>2021-06-05T12:55:30.560Z</time>
      </trkpt>
      <trkpt lat="45.64154" lon="5.6901">
        <ele>217</ele>
        <time>2021-06-05T12:55:35.548Z</time>
      </trkpt>
      <trkpt lat="45.6415" lon="5.69005">
        <ele>217</ele>
        <time>2021-06-05T12:55:39.562Z</time>
      </trkpt>
      <trkpt lat="45.64143" lon="5.69">
        <ele>217</ele>
        <time>2021-06-05T12:55:44.558Z</time>
      </trkpt>
      <trkpt lat="45.64136" lon="5.68997">
        <ele>217</ele>
        <time>2021-06-05T12:55:49.536Z</time>
      </trkpt>
      <trkpt lat="45.64129" lon="5.6899">
        <ele>217</ele>
        <time>2021-06-05T12:55:54.542Z</time>
      </trkpt>
      <trkpt lat="45.64125" lon="5.68985">
        <ele>217</ele>
        <time>2021-06-05T12:55:58.558Z</time>
      </trkpt>
      <trkpt lat="45.64118" lon="5.68979">
        <ele>217</ele>
        <time>2021-06-05T12:56:03.556Z</time>
      </trkpt>
      <trkpt lat="45.64113" lon="5.68972">
        <ele>217</ele>
        <time>2021-06-05T12:56:08.566Z</time>
      </trkpt>
      <trkpt lat="45.64108" lon="5.68965">
        <ele>217</ele>
        <time>2021-06-05T12:56:13.555Z</time>
      </trkpt>
      <trkpt lat="45.64103" lon="5.6896">
        <ele>217</ele>
        <time>2021-06-05T12:56:18.552Z</time>
      </trkpt>
      <trkpt lat="45.64098" lon="5.68955">
        <ele>217</ele>
        <time>2021-06-05T12:56:23.553Z</time>
      </trkpt>
      <trkpt lat="45.64091" lon="5.6895">
        <ele>217</ele>
        <time>2021-06-05T12:56:28.553Z</time>
      </trkpt>
      <trkpt lat="45.64087" lon="5.68945">
        <ele>217</ele>
        <time>2021-06-05T12:56:32.558Z</time>
      </trkpt>
      <trkpt lat="45.6408" lon="5.6894">
        <ele>217</ele>
        <time>2021-06-05T12:56:37.549Z</time>
      </trkpt>
      <trkpt lat="45.64075" lon="5.68933">
        <ele>217</ele>
        <time>2021-06-05T12:56:42.558Z</time>
      </trkpt>
      <trkpt lat="45.64069" lon="5.68926">
        <ele>220</ele>
        <time>2021-06-05T12:56:47.554Z</time>
      </trkpt>
      <trkpt lat="45.64063" lon="5.68919">
        <ele>220</ele>
        <time>2021-06-05T12:56:52.544Z</time>
      </trkpt>
      <trkpt lat="45.64058" lon="5.68913">
        <ele>220</ele>
        <time>2021-06-05T12:56:56.560Z</time>
      </trkpt>
      <trkpt lat="45.64052" lon="5.68907">
        <ele>220</ele>
        <time>2021-06-05T12:57:01.552Z</time>
      </trkpt>
      <trkpt lat="45.64048" lon="5.68899">
        <ele>216</ele>
        <time>2021-06-05T12:57:06.556Z</time>
      </trkpt>
      <trkpt lat="45.64043" lon="5.68892">
        <ele>216</ele>
        <time>2021-06-05T12:57:11.545Z</time>
      </trkpt>
      <trkpt lat="45.64037" lon="5.68886">
        <ele>224</ele>
        <time>2021-06-05T12:57:16.550Z</time>
      </trkpt>
      <trkpt lat="45.64032" lon="5.68882">
        <ele>224</ele>
        <time>2021-06-05T12:57:20.575Z</time>
      </trkpt>
      <trkpt lat="45.64027" lon="5.68873">
        <ele>220</ele>
        <time>2021-06-05T12:57:25.561Z</time>
      </trkpt>
      <trkpt lat="45.64021" lon="5.68866">
        <ele>220</ele>
        <time>2021-06-05T12:57:30.562Z</time>
      </trkpt>
      <trkpt lat="45.64016" lon="5.68857">
        <ele>220</ele>
        <time>2021-06-05T12:57:35.552Z</time>
      </trkpt>
      <trkpt lat="45.64012" lon="5.6885">
        <ele>227</ele>
        <time>2021-06-05T12:57:39.575Z</time>
      </trkpt>
      <trkpt lat="45.64006" lon="5.68844">
        <ele>223</ele>
        <time>2021-06-05T12:57:44.553Z</time>
      </trkpt>
      <trkpt lat="45.64001" lon="5.68838">
        <ele>223</ele>
        <time>2021-06-05T12:57:49.552Z</time>
      </trkpt>
      <trkpt lat="45.63997" lon="5.68832">
        <ele>223</ele>
        <time>2021-06-05T12:57:54.551Z</time>
      </trkpt>
      <trkpt lat="45.63992" lon="5.68824">
        <ele>223</ele>
        <time>2021-06-05T12:57:59.537Z</time>
      </trkpt>
      <trkpt lat="45.63987" lon="5.68816">
        <ele>216</ele>
        <time>2021-06-05T12:58:04.551Z</time>
      </trkpt>
      <trkpt lat="45.63982" lon="5.68809">
        <ele>224</ele>
        <time>2021-06-05T12:58:09.550Z</time>
      </trkpt>
      <trkpt lat="45.63977" lon="5.68803">
        <ele>224</ele>
        <time>2021-06-05T12:58:14.556Z</time>
      </trkpt>
      <trkpt lat="45.63973" lon="5.68793">
        <ele>224</ele>
        <time>2021-06-05T12:58:19.561Z</time>
      </trkpt>
      <trkpt lat="45.63967" lon="5.68784">
        <ele>217</ele>
        <time>2021-06-05T12:58:24.573Z</time>
      </trkpt>
      <trkpt lat="45.63962" lon="5.68776">
        <ele>217</ele>
        <time>2021-06-05T12:58:29.558Z</time>
      </trkpt>
      <trkpt lat="45.63956" lon="5.68768">
        <ele>223</ele>
        <time>2021-06-05T12:58:34.544Z</time>
      </trkpt>
      <trkpt lat="45.63952" lon="5.68759">
        <ele>218</ele>
        <time>2021-06-05T12:58:39.560Z</time>
      </trkpt>
      <trkpt lat="45.63947" lon="5.68752">
        <ele>218</ele>
        <time>2021-06-05T12:58:44.555Z</time>
      </trkpt>
      <trkpt lat="45.63944" lon="5.68744">
        <ele>218</ele>
        <time>2021-06-05T12:58:49.544Z</time>
      </trkpt>
      <trkpt lat="45.6394" lon="5.68737">
        <ele>218</ele>
        <time>2021-06-05T12:58:53.550Z</time>
      </trkpt>
      <trkpt lat="45.63936" lon="5.68729">
        <ele>217</ele>
        <time>2021-06-05T12:58:57.571Z</time>
      </trkpt>
      <trkpt lat="45.6393" lon="5.68721">
        <ele>216</ele>
        <time>2021-06-05T12:59:02.575Z</time>
      </trkpt>
      <trkpt lat="45.63925" lon="5.68712">
        <ele>216</ele>
        <time>2021-06-05T12:59:07.542Z</time>
      </trkpt>
      <trkpt lat="45.63919" lon="5.68705">
        <ele>215</ele>
        <time>2021-06-05T12:59:12.558Z</time>
      </trkpt>
      <trkpt lat="45.63915" lon="5.68697">
        <ele>215</ele>
        <time>2021-06-05T12:59:17.557Z</time>
      </trkpt>
      <trkpt lat="45.6391" lon="5.6869">
        <ele>215</ele>
        <time>2021-06-05T12:59:22.545Z</time>
      </trkpt>
      <trkpt lat="45.63907" lon="5.68682">
        <ele>215</ele>
        <time>2021-06-05T12:59:26.563Z</time>
      </trkpt>
      <trkpt lat="45.63902" lon="5.68674">
        <ele>215</ele>
        <time>2021-06-05T12:59:31.552Z</time>
      </trkpt>
      <trkpt lat="45.63896" lon="5.68665">
        <ele>215</ele>
        <time>2021-06-05T12:59:36.554Z</time>
      </trkpt>
      <trkpt lat="45.63892" lon="5.68655">
        <ele>215</ele>
        <time>2021-06-05T12:59:41.555Z</time>
      </trkpt>
      <trkpt lat="45.63888" lon="5.68645">
        <ele>215</ele>
        <time>2021-06-05T12:59:46.558Z</time>
      </trkpt>
      <trkpt lat="45.63885" lon="5.68634">
        <ele>215</ele>
        <time>2021-06-05T12:59:51.547Z</time>
      </trkpt>
      <trkpt lat="45.63882" lon="5.68623">
        <ele>216</ele>
        <time>2021-06-05T12:59:56.571Z</time>
      </trkpt>
      <trkpt lat="45.63878" lon="5.68614">
        <ele>216</ele>
        <time>2021-06-05T13:00:01.564Z</time>
      </trkpt>
      <trkpt lat="45.63877" lon="5.68609">
        <ele>216</ele>
        <time>2021-06-05T13:00:06.557Z</time>
      </trkpt>
      <trkpt lat="45.63872" lon="5.68599">
        <ele>217</ele>
        <time>2021-06-05T13:00:11.556Z</time>
      </trkpt>
      <trkpt lat="45.63868" lon="5.6859">
        <ele>218</ele>
        <time>2021-06-05T13:00:16.557Z</time>
      </trkpt>
      <trkpt lat="45.63864" lon="5.6858">
        <ele>218</ele>
        <time>2021-06-05T13:00:21.541Z</time>
      </trkpt>
      <trkpt lat="45.63861" lon="5.68569">
        <ele>218</ele>
        <time>2021-06-05T13:00:26.563Z</time>
      </trkpt>
      <trkpt lat="45.63857" lon="5.68559">
        <ele>218</ele>
        <time>2021-06-05T13:00:31.554Z</time>
      </trkpt>
      <trkpt lat="45.63854" lon="5.68549">
        <ele>218</ele>
        <time>2021-06-05T13:00:36.550Z</time>
      </trkpt>
      <trkpt lat="45.63851" lon="5.6854">
        <ele>218</ele>
        <time>2021-06-05T13:00:41.544Z</time>
      </trkpt>
      <trkpt lat="45.63849" lon="5.68531">
        <ele>218</ele>
        <time>2021-06-05T13:00:45.560Z</time>
      </trkpt>
      <trkpt lat="45.63847" lon="5.68519">
        <ele>215</ele>
        <time>2021-06-05T13:00:50.554Z</time>
      </trkpt>
      <trkpt lat="45.63845" lon="5.68507">
        <ele>215</ele>
        <time>2021-06-05T13:00:55.542Z</time>
      </trkpt>
      <trkpt lat="45.63843" lon="5.68495">
        <ele>215</ele>
        <time>2021-06-05T13:01:00.560Z</time>
      </trkpt>
      <trkpt lat="45.63841" lon="5.68484">
        <ele>216</ele>
        <time>2021-06-05T13:01:05.545Z</time>
      </trkpt>
      <trkpt lat="45.6384" lon="5.68474">
        <ele>216</ele>
        <time>2021-06-05T13:01:10.549Z</time>
      </trkpt>
      <trkpt lat="45.63839" lon="5.68462">
        <ele>216</ele>
        <time>2021-06-05T13:01:15.549Z</time>
      </trkpt>
      <trkpt lat="45.63838" lon="5.68451">
        <ele>216</ele>
        <time>2021-06-05T13:01:20.554Z</time>
      </trkpt>
      <trkpt lat="45.63837" lon="5.6844">
        <ele>216</ele>
        <time>2021-06-05T13:01:25.542Z</time>
      </trkpt>
      <trkpt lat="45.63835" lon="5.68431">
        <ele>216</ele>
        <time>2021-06-05T13:01:29.557Z</time>
      </trkpt>
      <trkpt lat="45.63834" lon="5.68419">
        <ele>216</ele>
        <time>2021-06-05T13:01:34.528Z</time>
      </trkpt>
      <trkpt lat="45.63833" lon="5.68411">
        <ele>216</ele>
        <time>2021-06-05T13:01:38.561Z</time>
      </trkpt>
      <trkpt lat="45.63832" lon="5.68399">
        <ele>217</ele>
        <time>2021-06-05T13:01:43.564Z</time>
      </trkpt>
      <trkpt lat="45.63832" lon="5.68389">
        <ele>217</ele>
        <time>2021-06-05T13:01:48.562Z</time>
      </trkpt>
      <trkpt lat="45.63832" lon="5.68377">
        <ele>217</ele>
        <time>2021-06-05T13:01:53.560Z</time>
      </trkpt>
      <trkpt lat="45.63832" lon="5.68365">
        <ele>217</ele>
        <time>2021-06-05T13:01:58.566Z</time>
      </trkpt>
      <trkpt lat="45.63835" lon="5.68353">
        <ele>217</ele>
        <time>2021-06-05T13:02:03.553Z</time>
      </trkpt>
      <trkpt lat="45.63836" lon="5.68342">
        <ele>217</ele>
        <time>2021-06-05T13:02:08.563Z</time>
      </trkpt>
      <trkpt lat="45.63839" lon="5.68332">
        <ele>217</ele>
        <time>2021-06-05T13:02:13.552Z</time>
      </trkpt>
      <trkpt lat="45.63843" lon="5.68322">
        <ele>217</ele>
        <time>2021-06-05T13:02:18.560Z</time>
      </trkpt>
      <trkpt lat="45.63846" lon="5.68311">
        <ele>217</ele>
        <time>2021-06-05T13:02:23.556Z</time>
      </trkpt>
      <trkpt lat="45.63846" lon="5.6831">
        <ele>217</ele>
        <time>2021-06-05T13:02:48.553Z</time>
      </trkpt>
      <trkpt lat="45.63847" lon="5.68302">
        <ele>217</ele>
        <time>2021-06-05T13:02:53.553Z</time>
      </trkpt>
      <trkpt lat="45.63847" lon="5.68292">
        <ele>216</ele>
        <time>2021-06-05T13:02:58.558Z</time>
      </trkpt>
      <trkpt lat="45.63847" lon="5.68284">
        <ele>216</ele>
        <time>2021-06-05T13:03:02.560Z</time>
      </trkpt>
      <trkpt lat="45.63846" lon="5.68274">
        <ele>216</ele>
        <time>2021-06-05T13:03:07.550Z</time>
      </trkpt>
      <trkpt lat="45.63849" lon="5.68255">
        <ele>220</ele>
        <time>2021-06-05T13:03:36.556Z</time>
      </trkpt>
      <trkpt lat="45.6385" lon="5.68254">
        <ele>220</ele>
        <time>2021-06-05T13:03:41.552Z</time>
      </trkpt>
      <trkpt lat="45.63855" lon="5.6824">
        <ele>220</ele>
        <time>2021-06-05T13:03:46.557Z</time>
      </trkpt>
      <trkpt lat="45.63854" lon="5.68229">
        <ele>220</ele>
        <time>2021-06-05T13:03:51.551Z</time>
      </trkpt>
      <trkpt lat="45.63852" lon="5.68219">
        <ele>220</ele>
        <time>2021-06-05T13:03:56.558Z</time>
      </trkpt>
      <trkpt lat="45.63851" lon="5.68208">
        <ele>220</ele>
        <time>2021-06-05T13:04:01.550Z</time>
      </trkpt>
      <trkpt lat="45.6385" lon="5.68199">
        <ele>213</ele>
        <time>2021-06-05T13:04:06.560Z</time>
      </trkpt>
      <trkpt lat="45.63849" lon="5.68195">
        <ele>213</ele>
        <time>2021-06-05T13:04:11.560Z</time>
      </trkpt>
      <trkpt lat="45.63848" lon="5.68186">
        <ele>213</ele>
        <time>2021-06-05T13:04:16.553Z</time>
      </trkpt>
      <trkpt lat="45.63846" lon="5.68177">
        <ele>218</ele>
        <time>2021-06-05T13:04:21.549Z</time>
      </trkpt>
      <trkpt lat="45.63847" lon="5.68172">
        <ele>218</ele>
        <time>2021-06-05T13:04:25.566Z</time>
      </trkpt>
      <trkpt lat="45.63845" lon="5.68163">
        <ele>218</ele>
        <time>2021-06-05T13:04:30.545Z</time>
      </trkpt>
      <trkpt lat="45.63843" lon="5.68154">
        <ele>218</ele>
        <time>2021-06-05T13:04:35.553Z</time>
      </trkpt>
      <trkpt lat="45.6384" lon="5.68145">
        <ele>213</ele>
        <time>2021-06-05T13:04:40.554Z</time>
      </trkpt>
      <trkpt lat="45.63837" lon="5.68136">
        <ele>213</ele>
        <time>2021-06-05T13:04:45.555Z</time>
      </trkpt>
      <trkpt lat="45.63835" lon="5.68129">
        <ele>213</ele>
        <time>2021-06-05T13:04:49.560Z</time>
      </trkpt>
      <trkpt lat="45.63832" lon="5.68119">
        <ele>213</ele>
        <time>2021-06-05T13:04:54.544Z</time>
      </trkpt>
      <trkpt lat="45.63829" lon="5.6811">
        <ele>213</ele>
        <time>2021-06-05T13:04:59.535Z</time>
      </trkpt>
      <trkpt lat="45.63827" lon="5.68102">
        <ele>213</ele>
        <time>2021-06-05T13:05:03.561Z</time>
      </trkpt>
      <trkpt lat="45.63824" lon="5.68093">
        <ele>213</ele>
        <time>2021-06-05T13:05:08.559Z</time>
      </trkpt>
      <trkpt lat="45.63821" lon="5.68084">
        <ele>213</ele>
        <time>2021-06-05T13:05:13.570Z</time>
      </trkpt>
      <trkpt lat="45.63818" lon="5.68075">
        <ele>214</ele>
        <time>2021-06-05T13:05:18.539Z</time>
      </trkpt>
      <trkpt lat="45.63815" lon="5.68065">
        <ele>213</ele>
        <time>2021-06-05T13:05:23.548Z</time>
      </trkpt>
      <trkpt lat="45.63813" lon="5.68056">
        <ele>213</ele>
        <time>2021-06-05T13:05:27.559Z</time>
      </trkpt>
      <trkpt lat="45.63809" lon="5.68046">
        <ele>213</ele>
        <time>2021-06-05T13:05:32.564Z</time>
      </trkpt>
      <trkpt lat="45.63807" lon="5.68038">
        <ele>213</ele>
        <time>2021-06-05T13:05:37.544Z</time>
      </trkpt>
      <trkpt lat="45.63804" lon="5.68029">
        <ele>213</ele>
        <time>2021-06-05T13:05:42.546Z</time>
      </trkpt>
      <trkpt lat="45.63802" lon="5.68021">
        <ele>213</ele>
        <time>2021-06-05T13:05:46.553Z</time>
      </trkpt>
      <trkpt lat="45.63798" lon="5.68011">
        <ele>213</ele>
        <time>2021-06-05T13:05:51.546Z</time>
      </trkpt>
      <trkpt lat="45.63796" lon="5.68001">
        <ele>213</ele>
        <time>2021-06-05T13:05:56.548Z</time>
      </trkpt>
      <trkpt lat="45.63793" lon="5.67989">
        <ele>213</ele>
        <time>2021-06-05T13:06:01.556Z</time>
      </trkpt>
      <trkpt lat="45.6379" lon="5.67979">
        <ele>218</ele>
        <time>2021-06-05T13:06:06.560Z</time>
      </trkpt>
      <trkpt lat="45.63787" lon="5.6797">
        <ele>218</ele>
        <time>2021-06-05T13:06:11.548Z</time>
      </trkpt>
      <trkpt lat="45.63784" lon="5.6796">
        <ele>218</ele>
        <time>2021-06-05T13:06:16.553Z</time>
      </trkpt>
      <trkpt lat="45.63781" lon="5.67952">
        <ele>216</ele>
        <time>2021-06-05T13:06:21.562Z</time>
      </trkpt>
      <trkpt lat="45.63779" lon="5.67943">
        <ele>216</ele>
        <time>2021-06-05T13:06:26.555Z</time>
      </trkpt>
      <trkpt lat="45.63777" lon="5.67936">
        <ele>216</ele>
        <time>2021-06-05T13:06:31.557Z</time>
      </trkpt>
      <trkpt lat="45.63774" lon="5.67926">
        <ele>213</ele>
        <time>2021-06-05T13:06:36.550Z</time>
      </trkpt>
      <trkpt lat="45.63771" lon="5.67917">
        <ele>213</ele>
        <time>2021-06-05T13:06:41.542Z</time>
      </trkpt>
      <trkpt lat="45.63769" lon="5.67908">
        <ele>213</ele>
        <time>2021-06-05T13:06:45.545Z</time>
      </trkpt>
      <trkpt lat="45.63766" lon="5.67896">
        <ele>213</ele>
        <time>2021-06-05T13:06:50.563Z</time>
      </trkpt>
      <trkpt lat="45.63762" lon="5.67886">
        <ele>214</ele>
        <time>2021-06-05T13:06:55.560Z</time>
      </trkpt>
      <trkpt lat="45.63759" lon="5.67876">
        <ele>214</ele>
        <time>2021-06-05T13:07:00.567Z</time>
      </trkpt>
      <trkpt lat="45.63756" lon="5.67867">
        <ele>215</ele>
        <time>2021-06-05T13:07:05.566Z</time>
      </trkpt>
      <trkpt lat="45.63754" lon="5.67859">
        <ele>215</ele>
        <time>2021-06-05T13:07:10.548Z</time>
      </trkpt>
      <trkpt lat="45.63751" lon="5.67848">
        <ele>215</ele>
        <time>2021-06-05T13:07:15.561Z</time>
      </trkpt>
      <trkpt lat="45.63748" lon="5.67838">
        <ele>213</ele>
        <time>2021-06-05T13:07:19.571Z</time>
      </trkpt>
      <trkpt lat="45.63745" lon="5.67827">
        <ele>213</ele>
        <time>2021-06-05T13:07:24.558Z</time>
      </trkpt>
      <trkpt lat="45.63741" lon="5.67816">
        <ele>213</ele>
        <time>2021-06-05T13:07:29.558Z</time>
      </trkpt>
      <trkpt lat="45.63738" lon="5.67808">
        <ele>213</ele>
        <time>2021-06-05T13:07:34.537Z</time>
      </trkpt>
      <trkpt lat="45.63736" lon="5.67798">
        <ele>213</ele>
        <time>2021-06-05T13:07:38.562Z</time>
      </trkpt>
      <trkpt lat="45.63734" lon="5.67789">
        <ele>214</ele>
        <time>2021-06-05T13:07:43.546Z</time>
      </trkpt>
      <trkpt lat="45.63732" lon="5.67781">
        <ele>214</ele>
        <time>2021-06-05T13:07:47.563Z</time>
      </trkpt>
      <trkpt lat="45.63729" lon="5.67771">
        <ele>214</ele>
        <time>2021-06-05T13:07:52.563Z</time>
      </trkpt>
      <trkpt lat="45.63726" lon="5.6776">
        <ele>213</ele>
        <time>2021-06-05T13:07:57.564Z</time>
      </trkpt>
      <trkpt lat="45.63724" lon="5.67751">
        <ele>213</ele>
        <time>2021-06-05T13:08:02.544Z</time>
      </trkpt>
      <trkpt lat="45.63722" lon="5.67743">
        <ele>213</ele>
        <time>2021-06-05T13:08:06.573Z</time>
      </trkpt>
      <trkpt lat="45.63719" lon="5.67734">
        <ele>213</ele>
        <time>2021-06-05T13:08:11.571Z</time>
      </trkpt>
      <trkpt lat="45.63717" lon="5.67722">
        <ele>213</ele>
        <time>2021-06-05T13:08:16.563Z</time>
      </trkpt>
      <trkpt lat="45.63715" lon="5.67713">
        <ele>213</ele>
        <time>2021-06-05T13:08:21.553Z</time>
      </trkpt>
      <trkpt lat="45.63712" lon="5.67701">
        <ele>213</ele>
        <time>2021-06-05T13:08:26.565Z</time>
      </trkpt>
      <trkpt lat="45.63708" lon="5.67693">
        <ele>213</ele>
        <time>2021-06-05T13:08:31.561Z</time>
      </trkpt>
      <trkpt lat="45.63703" lon="5.67686">
        <ele>213</ele>
        <time>2021-06-05T13:08:36.560Z</time>
      </trkpt>
      <trkpt lat="45.63699" lon="5.67678">
        <ele>214</ele>
        <time>2021-06-05T13:08:41.559Z</time>
      </trkpt>
      <trkpt lat="45.63696" lon="5.67671">
        <ele>214</ele>
        <time>2021-06-05T13:08:46.541Z</time>
      </trkpt>
      <trkpt lat="45.63691" lon="5.67665">
        <ele>214</ele>
        <time>2021-06-05T13:08:51.542Z</time>
      </trkpt>
      <trkpt lat="45.63685" lon="5.67661">
        <ele>214</ele>
        <time>2021-06-05T13:08:56.561Z</time>
      </trkpt>
      <trkpt lat="45.63676" lon="5.6766">
        <ele>214</ele>
        <time>2021-06-05T13:09:01.574Z</time>
      </trkpt>
      <trkpt lat="45.63668" lon="5.67659">
        <ele>214</ele>
        <time>2021-06-05T13:09:06.571Z</time>
      </trkpt>
      <trkpt lat="45.63662" lon="5.67654">
        <ele>214</ele>
        <time>2021-06-05T13:09:11.558Z</time>
      </trkpt>
      <trkpt lat="45.63659" lon="5.67643">
        <ele>214</ele>
        <time>2021-06-05T13:09:16.566Z</time>
      </trkpt>
      <trkpt lat="45.63657" lon="5.67632">
        <ele>214</ele>
        <time>2021-06-05T13:09:21.552Z</time>
      </trkpt>
      <trkpt lat="45.63656" lon="5.6762">
        <ele>214</ele>
        <time>2021-06-05T13:09:26.562Z</time>
      </trkpt>
      <trkpt lat="45.63655" lon="5.67606">
        <ele>214</ele>
        <time>2021-06-05T13:09:31.568Z</time>
      </trkpt>
      <trkpt lat="45.63654" lon="5.67595">
        <ele>214</ele>
        <time>2021-06-05T13:09:36.555Z</time>
      </trkpt>
      <trkpt lat="45.63652" lon="5.67584">
        <ele>215</ele>
        <time>2021-06-05T13:09:41.548Z</time>
      </trkpt>
      <trkpt lat="45.63651" lon="5.67573">
        <ele>215</ele>
        <time>2021-06-05T13:09:46.570Z</time>
      </trkpt>
      <trkpt lat="45.63651" lon="5.67562">
        <ele>215</ele>
        <time>2021-06-05T13:09:51.556Z</time>
      </trkpt>
      <trkpt lat="45.6365" lon="5.6755">
        <ele>215</ele>
        <time>2021-06-05T13:09:56.563Z</time>
      </trkpt>
      <trkpt lat="45.63649" lon="5.67539">
        <ele>215</ele>
        <time>2021-06-05T13:10:01.576Z</time>
      </trkpt>
      <trkpt lat="45.63649" lon="5.6753">
        <ele>215</ele>
        <time>2021-06-05T13:10:06.551Z</time>
      </trkpt>
      <trkpt lat="45.6365" lon="5.67519">
        <ele>215</ele>
        <time>2021-06-05T13:10:11.551Z</time>
      </trkpt>
      <trkpt lat="45.63649" lon="5.67508">
        <ele>214</ele>
        <time>2021-06-05T13:10:16.576Z</time>
      </trkpt>
      <trkpt lat="45.63649" lon="5.67498">
        <ele>214</ele>
        <time>2021-06-05T13:10:21.577Z</time>
      </trkpt>
      <trkpt lat="45.63649" lon="5.67487">
        <ele>214</ele>
        <time>2021-06-05T13:10:26.569Z</time>
      </trkpt>
      <trkpt lat="45.63649" lon="5.67478">
        <ele>214</ele>
        <time>2021-06-05T13:10:31.565Z</time>
      </trkpt>
      <trkpt lat="45.63649" lon="5.67469">
        <ele>214</ele>
        <time>2021-06-05T13:10:36.567Z</time>
      </trkpt>
      <trkpt lat="45.63649" lon="5.67459">
        <ele>214</ele>
        <time>2021-06-05T13:10:41.568Z</time>
      </trkpt>
      <trkpt lat="45.63649" lon="5.67449">
        <ele>214</ele>
        <time>2021-06-05T13:10:46.555Z</time>
      </trkpt>
      <trkpt lat="45.6365" lon="5.67443">
        <ele>214</ele>
        <time>2021-06-05T13:10:51.563Z</time>
      </trkpt>
      <trkpt lat="45.6365" lon="5.67433">
        <ele>214</ele>
        <time>2021-06-05T13:10:56.557Z</time>
      </trkpt>
      <trkpt lat="45.63651" lon="5.67422">
        <ele>214</ele>
        <time>2021-06-05T13:11:01.563Z</time>
      </trkpt>
      <trkpt lat="45.63651" lon="5.67412">
        <ele>214</ele>
        <time>2021-06-05T13:11:06.562Z</time>
      </trkpt>
      <trkpt lat="45.63652" lon="5.67402">
        <ele>214</ele>
        <time>2021-06-05T13:11:11.556Z</time>
      </trkpt>
      <trkpt lat="45.63652" lon="5.67393">
        <ele>214</ele>
        <time>2021-06-05T13:11:16.552Z</time>
      </trkpt>
      <trkpt lat="45.63653" lon="5.67388">
        <ele>214</ele>
        <time>2021-06-05T13:11:21.555Z</time>
      </trkpt>
      <trkpt lat="45.63653" lon="5.67378">
        <ele>213</ele>
        <time>2021-06-05T13:11:26.550Z</time>
      </trkpt>
      <trkpt lat="45.63653" lon="5.67368">
        <ele>214</ele>
        <time>2021-06-05T13:11:31.543Z</time>
      </trkpt>
      <trkpt lat="45.63653" lon="5.67357">
        <ele>214</ele>
        <time>2021-06-05T13:11:36.564Z</time>
      </trkpt>
      <trkpt lat="45.63653" lon="5.67346">
        <ele>213</ele>
        <time>2021-06-05T13:11:41.547Z</time>
      </trkpt>
      <trkpt lat="45.63654" lon="5.67336">
        <ele>213</ele>
        <time>2021-06-05T13:11:46.550Z</time>
      </trkpt>
      <trkpt lat="45.63655" lon="5.67326">
        <ele>213</ele>
        <time>2021-06-05T13:11:51.562Z</time>
      </trkpt>
      <trkpt lat="45.63654" lon="5.67316">
        <ele>213</ele>
        <time>2021-06-05T13:11:56.553Z</time>
      </trkpt>
      <trkpt lat="45.63655" lon="5.67306">
        <ele>213</ele>
        <time>2021-06-05T13:12:01.561Z</time>
      </trkpt>
      <trkpt lat="45.63656" lon="5.67299">
        <ele>213</ele>
        <time>2021-06-05T13:12:05.567Z</time>
      </trkpt>
      <trkpt lat="45.63656" lon="5.67287">
        <ele>215</ele>
        <time>2021-06-05T13:12:10.531Z</time>
      </trkpt>
      <trkpt lat="45.63656" lon="5.67276">
        <ele>215</ele>
        <time>2021-06-05T13:12:15.587Z</time>
      </trkpt>
      <trkpt lat="45.63656" lon="5.67266">
        <ele>215</ele>
        <time>2021-06-05T13:12:20.563Z</time>
      </trkpt>
      <trkpt lat="45.63656" lon="5.67254">
        <ele>215</ele>
        <time>2021-06-05T13:12:25.554Z</time>
      </trkpt>
      <trkpt lat="45.63656" lon="5.67243">
        <ele>215</ele>
        <time>2021-06-05T13:12:30.558Z</time>
      </trkpt>
      <trkpt lat="45.63657" lon="5.67233">
        <ele>216</ele>
        <time>2021-06-05T13:12:35.550Z</time>
      </trkpt>
      <trkpt lat="45.63658" lon="5.67225">
        <ele>216</ele>
        <time>2021-06-05T13:12:39.564Z</time>
      </trkpt>
      <trkpt lat="45.63658" lon="5.67215">
        <ele>216</ele>
        <time>2021-06-05T13:12:44.560Z</time>
      </trkpt>
      <trkpt lat="45.63658" lon="5.67205">
        <ele>215</ele>
        <time>2021-06-05T13:12:49.547Z</time>
      </trkpt>
      <trkpt lat="45.63659" lon="5.67197">
        <ele>215</ele>
        <time>2021-06-05T13:12:53.567Z</time>
      </trkpt>
      <trkpt lat="45.63659" lon="5.67184">
        <ele>215</ele>
        <time>2021-06-05T13:12:58.566Z</time>
      </trkpt>
      <trkpt lat="45.63659" lon="5.67172">
        <ele>214</ele>
        <time>2021-06-05T13:13:03.552Z</time>
      </trkpt>
      <trkpt lat="45.63659" lon="5.67163">
        <ele>214</ele>
        <time>2021-06-05T13:13:07.573Z</time>
      </trkpt>
      <trkpt lat="45.6366" lon="5.67152">
        <ele>213</ele>
        <time>2021-06-05T13:13:12.568Z</time>
      </trkpt>
      <trkpt lat="45.6366" lon="5.67144">
        <ele>213</ele>
        <time>2021-06-05T13:13:17.575Z</time>
      </trkpt>
      <trkpt lat="45.6366" lon="5.67135">
        <ele>213</ele>
        <time>2021-06-05T13:13:22.578Z</time>
      </trkpt>
      <trkpt lat="45.6366" lon="5.67127">
        <ele>213</ele>
        <time>2021-06-05T13:13:27.560Z</time>
      </trkpt>
      <trkpt lat="45.6366" lon="5.67117">
        <ele>213</ele>
        <time>2021-06-05T13:13:32.564Z</time>
      </trkpt>
      <trkpt lat="45.6366" lon="5.67115">
        <ele>213</ele>
        <time>2021-06-05T13:13:37.558Z</time>
      </trkpt>
      <trkpt lat="45.6366" lon="5.67115">
        <ele>213</ele>
        <time>2021-06-05T13:13:42.559Z</time>
      </trkpt>
      <trkpt lat="45.63661" lon="5.67108">
        <ele>213</ele>
        <time>2021-06-05T13:13:47.562Z</time>
      </trkpt>
      <trkpt lat="45.63661" lon="5.67099">
        <ele>213</ele>
        <time>2021-06-05T13:13:52.559Z</time>
      </trkpt>
      <trkpt lat="45.63661" lon="5.67091">
        <ele>214</ele>
        <time>2021-06-05T13:13:57.556Z</time>
      </trkpt>
      <trkpt lat="45.63662" lon="5.67082">
        <ele>214</ele>
        <time>2021-06-05T13:14:02.549Z</time>
      </trkpt>
      <trkpt lat="45.63662" lon="5.67073">
        <ele>214</ele>
        <time>2021-06-05T13:14:07.546Z</time>
      </trkpt>
      <trkpt lat="45.63662" lon="5.67066">
        <ele>215</ele>
        <time>2021-06-05T13:14:11.556Z</time>
      </trkpt>
      <trkpt lat="45.63663" lon="5.67057">
        <ele>215</ele>
        <time>2021-06-05T13:14:16.565Z</time>
      </trkpt>
      <trkpt lat="45.63663" lon="5.67048">
        <ele>215</ele>
        <time>2021-06-05T13:14:21.556Z</time>
      </trkpt>
      <trkpt lat="45.63663" lon="5.67039">
        <ele>215</ele>
        <time>2021-06-05T13:14:26.560Z</time>
      </trkpt>
      <trkpt lat="45.63664" lon="5.67028">
        <ele>215</ele>
        <time>2021-06-05T13:14:31.558Z</time>
      </trkpt>
      <trkpt lat="45.63662" lon="5.67018">
        <ele>215</ele>
        <time>2021-06-05T13:14:36.559Z</time>
      </trkpt>
      <trkpt lat="45.63663" lon="5.67007">
        <ele>215</ele>
        <time>2021-06-05T13:14:41.560Z</time>
      </trkpt>
      <trkpt lat="45.63663" lon="5.66997">
        <ele>215</ele>
        <time>2021-06-05T13:14:46.552Z</time>
      </trkpt>
      <trkpt lat="45.63663" lon="5.66988">
        <ele>215</ele>
        <time>2021-06-05T13:14:51.568Z</time>
      </trkpt>
      <trkpt lat="45.63664" lon="5.66977">
        <ele>215</ele>
        <time>2021-06-05T13:14:56.587Z</time>
      </trkpt>
      <trkpt lat="45.63663" lon="5.66967">
        <ele>215</ele>
        <time>2021-06-05T13:15:01.540Z</time>
      </trkpt>
      <trkpt lat="45.63664" lon="5.66959">
        <ele>215</ele>
        <time>2021-06-05T13:15:05.562Z</time>
      </trkpt>
      <trkpt lat="45.63664" lon="5.66948">
        <ele>214</ele>
        <time>2021-06-05T13:15:10.543Z</time>
      </trkpt>
      <trkpt lat="45.63664" lon="5.66937">
        <ele>214</ele>
        <time>2021-06-05T13:15:15.548Z</time>
      </trkpt>
      <trkpt lat="45.63665" lon="5.66929">
        <ele>213</ele>
        <time>2021-06-05T13:15:19.565Z</time>
      </trkpt>
      <trkpt lat="45.63665" lon="5.66918">
        <ele>213</ele>
        <time>2021-06-05T13:15:24.556Z</time>
      </trkpt>
      <trkpt lat="45.63666" lon="5.66908">
        <ele>213</ele>
        <time>2021-06-05T13:15:29.553Z</time>
      </trkpt>
      <trkpt lat="45.63666" lon="5.66897">
        <ele>212</ele>
        <time>2021-06-05T13:15:34.551Z</time>
      </trkpt>
      <trkpt lat="45.63667" lon="5.66886">
        <ele>212</ele>
        <time>2021-06-05T13:15:39.570Z</time>
      </trkpt>
      <trkpt lat="45.63666" lon="5.66876">
        <ele>212</ele>
        <time>2021-06-05T13:15:44.567Z</time>
      </trkpt>
      <trkpt lat="45.63667" lon="5.66865">
        <ele>212</ele>
        <time>2021-06-05T13:15:49.559Z</time>
      </trkpt>
      <trkpt lat="45.63667" lon="5.66855">
        <ele>212</ele>
        <time>2021-06-05T13:15:54.549Z</time>
      </trkpt>
      <trkpt lat="45.63667" lon="5.66846">
        <ele>213</ele>
        <time>2021-06-05T13:15:58.561Z</time>
      </trkpt>
      <trkpt lat="45.63668" lon="5.66836">
        <ele>213</ele>
        <time>2021-06-05T13:16:03.563Z</time>
      </trkpt>
      <trkpt lat="45.63668" lon="5.66826">
        <ele>213</ele>
        <time>2021-06-05T13:16:08.562Z</time>
      </trkpt>
      <trkpt lat="45.63668" lon="5.66815">
        <ele>213</ele>
        <time>2021-06-05T13:16:13.551Z</time>
      </trkpt>
      <trkpt lat="45.63668" lon="5.66804">
        <ele>213</ele>
        <time>2021-06-05T13:16:18.549Z</time>
      </trkpt>
      <trkpt lat="45.63668" lon="5.66792">
        <ele>213</ele>
        <time>2021-06-05T13:16:23.548Z</time>
      </trkpt>
      <trkpt lat="45.63668" lon="5.66782">
        <ele>214</ele>
        <time>2021-06-05T13:16:28.564Z</time>
      </trkpt>
      <trkpt lat="45.63669" lon="5.66771">
        <ele>214</ele>
        <time>2021-06-05T13:16:33.556Z</time>
      </trkpt>
      <trkpt lat="45.63668" lon="5.6676">
        <ele>213</ele>
        <time>2021-06-05T13:16:38.550Z</time>
      </trkpt>
      <trkpt lat="45.63668" lon="5.66749">
        <ele>213</ele>
        <time>2021-06-05T13:16:43.554Z</time>
      </trkpt>
      <trkpt lat="45.63668" lon="5.66738">
        <ele>213</ele>
        <time>2021-06-05T13:16:48.560Z</time>
      </trkpt>
      <trkpt lat="45.6367" lon="5.66728">
        <ele>213</ele>
        <time>2021-06-05T13:16:53.567Z</time>
      </trkpt>
      <trkpt lat="45.63669" lon="5.66718">
        <ele>213</ele>
        <time>2021-06-05T13:16:58.579Z</time>
      </trkpt>
      <trkpt lat="45.63669" lon="5.66706">
        <ele>212</ele>
        <time>2021-06-05T13:17:03.576Z</time>
      </trkpt>
      <trkpt lat="45.63669" lon="5.66695">
        <ele>212</ele>
        <time>2021-06-05T13:17:08.553Z</time>
      </trkpt>
      <trkpt lat="45.6367" lon="5.66684">
        <ele>212</ele>
        <time>2021-06-05T13:17:13.576Z</time>
      </trkpt>
      <trkpt lat="45.63671" lon="5.66673">
        <ele>213</ele>
        <time>2021-06-05T13:17:18.561Z</time>
      </trkpt>
      <trkpt lat="45.63674" lon="5.66665">
        <ele>213</ele>
        <time>2021-06-05T13:17:23.565Z</time>
      </trkpt>
      <trkpt lat="45.63674" lon="5.66655">
        <ele>213</ele>
        <time>2021-06-05T13:17:28.556Z</time>
      </trkpt>
      <trkpt lat="45.63675" lon="5.66645">
        <ele>213</ele>
        <time>2021-06-05T13:17:33.568Z</time>
      </trkpt>
      <trkpt lat="45.63676" lon="5.66635">
        <ele>213</ele>
        <time>2021-06-05T13:17:38.552Z</time>
      </trkpt>
      <trkpt lat="45.63676" lon="5.66625">
        <ele>213</ele>
        <time>2021-06-05T13:17:43.545Z</time>
      </trkpt>
      <trkpt lat="45.63676" lon="5.66614">
        <ele>213</ele>
        <time>2021-06-05T13:17:48.542Z</time>
      </trkpt>
      <trkpt lat="45.63677" lon="5.66605">
        <ele>213</ele>
        <time>2021-06-05T13:17:52.579Z</time>
      </trkpt>
      <trkpt lat="45.63676" lon="5.66594">
        <ele>213</ele>
        <time>2021-06-05T13:17:57.572Z</time>
      </trkpt>
      <trkpt lat="45.63677" lon="5.66584">
        <ele>213</ele>
        <time>2021-06-05T13:18:02.577Z</time>
      </trkpt>
      <trkpt lat="45.63677" lon="5.66574">
        <ele>213</ele>
        <time>2021-06-05T13:18:07.576Z</time>
      </trkpt>
      <trkpt lat="45.63679" lon="5.66564">
        <ele>213</ele>
        <time>2021-06-05T13:18:12.555Z</time>
      </trkpt>
      <trkpt lat="45.63678" lon="5.66554">
        <ele>213</ele>
        <time>2021-06-05T13:18:17.554Z</time>
      </trkpt>
      <trkpt lat="45.63678" lon="5.66542">
        <ele>213</ele>
        <time>2021-06-05T13:18:22.567Z</time>
      </trkpt>
      <trkpt lat="45.63678" lon="5.66533">
        <ele>214</ele>
        <time>2021-06-05T13:18:27.552Z</time>
      </trkpt>
      <trkpt lat="45.63678" lon="5.66523">
        <ele>214</ele>
        <time>2021-06-05T13:18:31.563Z</time>
      </trkpt>
      <trkpt lat="45.63678" lon="5.66511">
        <ele>214</ele>
        <time>2021-06-05T13:18:36.554Z</time>
      </trkpt>
      <trkpt lat="45.63679" lon="5.66502">
        <ele>214</ele>
        <time>2021-06-05T13:18:40.573Z</time>
      </trkpt>
      <trkpt lat="45.63679" lon="5.66492">
        <ele>214</ele>
        <time>2021-06-05T13:18:45.570Z</time>
      </trkpt>
      <trkpt lat="45.63679" lon="5.66481">
        <ele>213</ele>
        <time>2021-06-05T13:18:50.544Z</time>
      </trkpt>
      <trkpt lat="45.63679" lon="5.66473">
        <ele>213</ele>
        <time>2021-06-05T13:18:54.574Z</time>
      </trkpt>
      <trkpt lat="45.63679" lon="5.66462">
        <ele>213</ele>
        <time>2021-06-05T13:18:59.571Z</time>
      </trkpt>
      <trkpt lat="45.63679" lon="5.66451">
        <ele>213</ele>
        <time>2021-06-05T13:19:04.582Z</time>
      </trkpt>
      <trkpt lat="45.63679" lon="5.66441">
        <ele>213</ele>
        <time>2021-06-05T13:19:09.565Z</time>
      </trkpt>
      <trkpt lat="45.6368" lon="5.66431">
        <ele>213</ele>
        <time>2021-06-05T13:19:14.560Z</time>
      </trkpt>
      <trkpt lat="45.6368" lon="5.66424">
        <ele>213</ele>
        <time>2021-06-05T13:19:18.574Z</time>
      </trkpt>
      <trkpt lat="45.6368" lon="5.66415">
        <ele>213</ele>
        <time>2021-06-05T13:19:23.557Z</time>
      </trkpt>
      <trkpt lat="45.63681" lon="5.66406">
        <ele>214</ele>
        <time>2021-06-05T13:19:27.564Z</time>
      </trkpt>
      <trkpt lat="45.63682" lon="5.66395">
        <ele>214</ele>
        <time>2021-06-05T13:19:32.556Z</time>
      </trkpt>
      <trkpt lat="45.63681" lon="5.66383">
        <ele>214</ele>
        <time>2021-06-05T13:19:37.561Z</time>
      </trkpt>
      <trkpt lat="45.63681" lon="5.66371">
        <ele>214</ele>
        <time>2021-06-05T13:19:42.584Z</time>
      </trkpt>
      <trkpt lat="45.63681" lon="5.6636">
        <ele>214</ele>
        <time>2021-06-05T13:19:47.572Z</time>
      </trkpt>
      <trkpt lat="45.63682" lon="5.66348">
        <ele>214</ele>
        <time>2021-06-05T13:19:52.558Z</time>
      </trkpt>
      <trkpt lat="45.63682" lon="5.66338">
        <ele>214</ele>
        <time>2021-06-05T13:19:57.568Z</time>
      </trkpt>
      <trkpt lat="45.63683" lon="5.66327">
        <ele>214</ele>
        <time>2021-06-05T13:20:02.568Z</time>
      </trkpt>
      <trkpt lat="45.63684" lon="5.66316">
        <ele>214</ele>
        <time>2021-06-05T13:20:07.547Z</time>
      </trkpt>
      <trkpt lat="45.63684" lon="5.66307">
        <ele>214</ele>
        <time>2021-06-05T13:20:11.558Z</time>
      </trkpt>
      <trkpt lat="45.63684" lon="5.66295">
        <ele>214</ele>
        <time>2021-06-05T13:20:16.564Z</time>
      </trkpt>
      <trkpt lat="45.63684" lon="5.66278">
        <ele>214</ele>
        <time>2021-06-05T13:20:21.563Z</time>
      </trkpt>
      <trkpt lat="45.63684" lon="5.66269">
        <ele>214</ele>
        <time>2021-06-05T13:20:26.564Z</time>
      </trkpt>
      <trkpt lat="45.63684" lon="5.66268">
        <ele>214</ele>
        <time>2021-06-05T13:20:31.551Z</time>
      </trkpt>
      <trkpt lat="45.63684" lon="5.66263">
        <ele>214</ele>
        <time>2021-06-05T13:20:35.567Z</time>
      </trkpt>
      <trkpt lat="45.63685" lon="5.66257">
        <ele>214</ele>
        <time>2021-06-05T13:21:13.565Z</time>
      </trkpt>
      <trkpt lat="45.63685" lon="5.66254">
        <ele>214</ele>
        <time>2021-06-05T13:21:18.561Z</time>
      </trkpt>
      <trkpt lat="45.63685" lon="5.66251">
        <ele>214</ele>
        <time>2021-06-05T13:21:23.565Z</time>
      </trkpt>
      <trkpt lat="45.63686" lon="5.66239">
        <ele>214</ele>
        <time>2021-06-05T13:21:28.553Z</time>
      </trkpt>
      <trkpt lat="45.63686" lon="5.6623">
        <ele>214</ele>
        <time>2021-06-05T13:21:32.567Z</time>
      </trkpt>
      <trkpt lat="45.63688" lon="5.66221">
        <ele>214</ele>
        <time>2021-06-05T13:21:52.552Z</time>
      </trkpt>
      <trkpt lat="45.63688" lon="5.66212">
        <ele>214</ele>
        <time>2021-06-05T13:21:56.558Z</time>
      </trkpt>
      <trkpt lat="45.63688" lon="5.66202">
        <ele>214</ele>
        <time>2021-06-05T13:22:00.571Z</time>
      </trkpt>
      <trkpt lat="45.63687" lon="5.6619">
        <ele>214</ele>
        <time>2021-06-05T13:22:05.576Z</time>
      </trkpt>
      <trkpt lat="45.63687" lon="5.66178">
        <ele>214</ele>
        <time>2021-06-05T13:22:10.577Z</time>
      </trkpt>
      <trkpt lat="45.63687" lon="5.66166">
        <ele>214</ele>
        <time>2021-06-05T13:22:15.547Z</time>
      </trkpt>
      <trkpt lat="45.63686" lon="5.66156">
        <ele>214</ele>
        <time>2021-06-05T13:22:19.565Z</time>
      </trkpt>
      <trkpt lat="45.63686" lon="5.66147">
        <ele>215</ele>
        <time>2021-06-05T13:22:23.574Z</time>
      </trkpt>
      <trkpt lat="45.63687" lon="5.66137">
        <ele>215</ele>
        <time>2021-06-05T13:22:28.567Z</time>
      </trkpt>
      <trkpt lat="45.63687" lon="5.66125">
        <ele>214</ele>
        <time>2021-06-05T13:22:33.562Z</time>
      </trkpt>
      <trkpt lat="45.63687" lon="5.66116">
        <ele>214</ele>
        <time>2021-06-05T13:22:37.576Z</time>
      </trkpt>
      <trkpt lat="45.63687" lon="5.66106">
        <ele>214</ele>
        <time>2021-06-05T13:22:42.563Z</time>
      </trkpt>
      <trkpt lat="45.63687" lon="5.66095">
        <ele>214</ele>
        <time>2021-06-05T13:22:47.581Z</time>
      </trkpt>
      <trkpt lat="45.63687" lon="5.66092">
        <ele>214</ele>
        <time>2021-06-05T13:22:52.554Z</time>
      </trkpt>
      <trkpt lat="45.63688" lon="5.66089">
        <ele>214</ele>
        <time>2021-06-05T13:22:56.571Z</time>
      </trkpt>
      <trkpt lat="45.6369" lon="5.6608">
        <ele>214</ele>
        <time>2021-06-05T13:23:01.537Z</time>
      </trkpt>
      <trkpt lat="45.63691" lon="5.66072">
        <ele>214</ele>
        <time>2021-06-05T13:23:05.574Z</time>
      </trkpt>
      <trkpt lat="45.6369" lon="5.66062">
        <ele>214</ele>
        <time>2021-06-05T13:23:10.540Z</time>
      </trkpt>
      <trkpt lat="45.63689" lon="5.66054">
        <ele>214</ele>
        <time>2021-06-05T13:23:14.558Z</time>
      </trkpt>
      <trkpt lat="45.6369" lon="5.66044">
        <ele>214</ele>
        <time>2021-06-05T13:23:19.548Z</time>
      </trkpt>
      <trkpt lat="45.6369" lon="5.66036">
        <ele>214</ele>
        <time>2021-06-05T13:23:23.563Z</time>
      </trkpt>
      <trkpt lat="45.6369" lon="5.66028">
        <ele>214</ele>
        <time>2021-06-05T13:23:28.552Z</time>
      </trkpt>
      <trkpt lat="45.63691" lon="5.66021">
        <ele>214</ele>
        <time>2021-06-05T13:23:32.570Z</time>
      </trkpt>
      <trkpt lat="45.63689" lon="5.66011">
        <ele>214</ele>
        <time>2021-06-05T13:23:37.555Z</time>
      </trkpt>
      <trkpt lat="45.63688" lon="5.66001">
        <ele>214</ele>
        <time>2021-06-05T13:23:42.570Z</time>
      </trkpt>
      <trkpt lat="45.63688" lon="5.65992">
        <ele>214</ele>
        <time>2021-06-05T13:23:47.566Z</time>
      </trkpt>
      <trkpt lat="45.63686" lon="5.65982">
        <ele>214</ele>
        <time>2021-06-05T13:23:52.551Z</time>
      </trkpt>
      <trkpt lat="45.63685" lon="5.65973">
        <ele>214</ele>
        <time>2021-06-05T13:23:56.570Z</time>
      </trkpt>
      <trkpt lat="45.63683" lon="5.65962">
        <ele>214</ele>
        <time>2021-06-05T13:24:01.562Z</time>
      </trkpt>
      <trkpt lat="45.63681" lon="5.65952">
        <ele>214</ele>
        <time>2021-06-05T13:24:06.556Z</time>
      </trkpt>
      <trkpt lat="45.63679" lon="5.65941">
        <ele>211</ele>
        <time>2021-06-05T13:24:11.563Z</time>
      </trkpt>
      <trkpt lat="45.63677" lon="5.65931">
        <ele>211</ele>
        <time>2021-06-05T13:24:16.566Z</time>
      </trkpt>
      <trkpt lat="45.63675" lon="5.65921">
        <ele>211</ele>
        <time>2021-06-05T13:24:21.571Z</time>
      </trkpt>
      <trkpt lat="45.63672" lon="5.6591">
        <ele>211</ele>
        <time>2021-06-05T13:24:26.572Z</time>
      </trkpt>
      <trkpt lat="45.6367" lon="5.659">
        <ele>213</ele>
        <time>2021-06-05T13:24:31.560Z</time>
      </trkpt>
      <trkpt lat="45.63667" lon="5.6589">
        <ele>213</ele>
        <time>2021-06-05T13:24:36.552Z</time>
      </trkpt>
      <trkpt lat="45.63664" lon="5.6588">
        <ele>213</ele>
        <time>2021-06-05T13:24:41.572Z</time>
      </trkpt>
      <trkpt lat="45.63661" lon="5.65871">
        <ele>213</ele>
        <time>2021-06-05T13:24:46.552Z</time>
      </trkpt>
      <trkpt lat="45.63658" lon="5.65861">
        <ele>213</ele>
        <time>2021-06-05T13:24:51.563Z</time>
      </trkpt>
      <trkpt lat="45.63656" lon="5.65856">
        <ele>213</ele>
        <time>2021-06-05T13:24:55.573Z</time>
      </trkpt>
      <trkpt lat="45.63652" lon="5.65848">
        <ele>211</ele>
        <time>2021-06-05T13:25:00.562Z</time>
      </trkpt>
      <trkpt lat="45.63648" lon="5.6584">
        <ele>213</ele>
        <time>2021-06-05T13:25:05.564Z</time>
      </trkpt>
      <trkpt lat="45.63645" lon="5.65831">
        <ele>213</ele>
        <time>2021-06-05T13:25:10.564Z</time>
      </trkpt>
      <trkpt lat="45.63641" lon="5.65822">
        <ele>213</ele>
        <time>2021-06-05T13:25:15.562Z</time>
      </trkpt>
      <trkpt lat="45.63639" lon="5.65814">
        <ele>213</ele>
        <time>2021-06-05T13:25:19.581Z</time>
      </trkpt>
      <trkpt lat="45.63636" lon="5.65805">
        <ele>213</ele>
        <time>2021-06-05T13:25:24.571Z</time>
      </trkpt>
      <trkpt lat="45.63633" lon="5.65794">
        <ele>213</ele>
        <time>2021-06-05T13:25:29.546Z</time>
      </trkpt>
      <trkpt lat="45.6363" lon="5.65787">
        <ele>213</ele>
        <time>2021-06-05T13:25:33.567Z</time>
      </trkpt>
      <trkpt lat="45.63626" lon="5.65778">
        <ele>213</ele>
        <time>2021-06-05T13:25:38.556Z</time>
      </trkpt>
      <trkpt lat="45.63623" lon="5.65769">
        <ele>213</ele>
        <time>2021-06-05T13:25:43.554Z</time>
      </trkpt>
      <trkpt lat="45.6362" lon="5.65762">
        <ele>213</ele>
        <time>2021-06-05T13:25:47.566Z</time>
      </trkpt>
      <trkpt lat="45.63615" lon="5.65754">
        <ele>213</ele>
        <time>2021-06-05T13:25:52.565Z</time>
      </trkpt>
      <trkpt lat="45.6361" lon="5.65744">
        <ele>213</ele>
        <time>2021-06-05T13:25:57.548Z</time>
      </trkpt>
      <trkpt lat="45.63606" lon="5.65737">
        <ele>213</ele>
        <time>2021-06-05T13:26:01.582Z</time>
      </trkpt>
      <trkpt lat="45.63601" lon="5.6573">
        <ele>213</ele>
        <time>2021-06-05T13:26:06.575Z</time>
      </trkpt>
      <trkpt lat="45.63597" lon="5.65722">
        <ele>212</ele>
        <time>2021-06-05T13:26:11.566Z</time>
      </trkpt>
      <trkpt lat="45.63592" lon="5.65715">
        <ele>212</ele>
        <time>2021-06-05T13:26:16.562Z</time>
      </trkpt>
      <trkpt lat="45.63588" lon="5.65709">
        <ele>212</ele>
        <time>2021-06-05T13:26:20.572Z</time>
      </trkpt>
      <trkpt lat="45.63583" lon="5.657">
        <ele>213</ele>
        <time>2021-06-05T13:26:25.563Z</time>
      </trkpt>
      <trkpt lat="45.63577" lon="5.65693">
        <ele>213</ele>
        <time>2021-06-05T13:26:30.562Z</time>
      </trkpt>
      <trkpt lat="45.63571" lon="5.65685">
        <ele>213</ele>
        <time>2021-06-05T13:26:35.558Z</time>
      </trkpt>
      <trkpt lat="45.63565" lon="5.65677">
        <ele>213</ele>
        <time>2021-06-05T13:26:40.556Z</time>
      </trkpt>
      <trkpt lat="45.63559" lon="5.6567">
        <ele>213</ele>
        <time>2021-06-05T13:26:45.570Z</time>
      </trkpt>
      <trkpt lat="45.63552" lon="5.65664">
        <ele>213</ele>
        <time>2021-06-05T13:26:50.558Z</time>
      </trkpt>
      <trkpt lat="45.63546" lon="5.6566">
        <ele>213</ele>
        <time>2021-06-05T13:26:54.570Z</time>
      </trkpt>
      <trkpt lat="45.63539" lon="5.65655">
        <ele>213</ele>
        <time>2021-06-05T13:26:59.565Z</time>
      </trkpt>
      <trkpt lat="45.63533" lon="5.6565">
        <ele>213</ele>
        <time>2021-06-05T13:27:04.557Z</time>
      </trkpt>
      <trkpt lat="45.63527" lon="5.65645">
        <ele>213</ele>
        <time>2021-06-05T13:27:08.561Z</time>
      </trkpt>
      <trkpt lat="45.6352" lon="5.65642">
        <ele>213</ele>
        <time>2021-06-05T13:27:13.552Z</time>
      </trkpt>
      <trkpt lat="45.63515" lon="5.65639">
        <ele>213</ele>
        <time>2021-06-05T13:27:17.567Z</time>
      </trkpt>
      <trkpt lat="45.63508" lon="5.65635">
        <ele>213</ele>
        <time>2021-06-05T13:27:22.567Z</time>
      </trkpt>
      <trkpt lat="45.63501" lon="5.6563">
        <ele>213</ele>
        <time>2021-06-05T13:27:27.566Z</time>
      </trkpt>
      <trkpt lat="45.63494" lon="5.65627">
        <ele>213</ele>
        <time>2021-06-05T13:27:32.552Z</time>
      </trkpt>
      <trkpt lat="45.63489" lon="5.65624">
        <ele>213</ele>
        <time>2021-06-05T13:27:36.569Z</time>
      </trkpt>
      <trkpt lat="45.63483" lon="5.65619">
        <ele>213</ele>
        <time>2021-06-05T13:27:41.552Z</time>
      </trkpt>
      <trkpt lat="45.63477" lon="5.65611">
        <ele>213</ele>
        <time>2021-06-05T13:27:46.550Z</time>
      </trkpt>
      <trkpt lat="45.63474" lon="5.65602">
        <ele>213</ele>
        <time>2021-06-05T13:27:50.556Z</time>
      </trkpt>
      <trkpt lat="45.63473" lon="5.65592">
        <ele>214</ele>
        <time>2021-06-05T13:27:55.571Z</time>
      </trkpt>
      <trkpt lat="45.63474" lon="5.65581">
        <ele>214</ele>
        <time>2021-06-05T13:28:00.549Z</time>
      </trkpt>
      <trkpt lat="45.63476" lon="5.65572">
        <ele>214</ele>
        <time>2021-06-05T13:28:04.567Z</time>
      </trkpt>
      <trkpt lat="45.63482" lon="5.65564">
        <ele>212</ele>
        <time>2021-06-05T13:28:09.573Z</time>
      </trkpt>
      <trkpt lat="45.63487" lon="5.65555">
        <ele>212</ele>
        <time>2021-06-05T13:28:14.551Z</time>
      </trkpt>
      <trkpt lat="45.63491" lon="5.65546">
        <ele>212</ele>
        <time>2021-06-05T13:28:19.562Z</time>
      </trkpt>
      <trkpt lat="45.63497" lon="5.65538">
        <ele>212</ele>
        <time>2021-06-05T13:28:24.570Z</time>
      </trkpt>
      <trkpt lat="45.63504" lon="5.65532">
        <ele>212</ele>
        <time>2021-06-05T13:28:29.555Z</time>
      </trkpt>
      <trkpt lat="45.6351" lon="5.65526">
        <ele>212</ele>
        <time>2021-06-05T13:28:34.557Z</time>
      </trkpt>
      <trkpt lat="45.63514" lon="5.65519">
        <ele>212</ele>
        <time>2021-06-05T13:28:39.572Z</time>
      </trkpt>
      <trkpt lat="45.63518" lon="5.65511">
        <ele>212</ele>
        <time>2021-06-05T13:28:44.567Z</time>
      </trkpt>
      <trkpt lat="45.63523" lon="5.655">
        <ele>212</ele>
        <time>2021-06-05T13:28:49.555Z</time>
      </trkpt>
      <trkpt lat="45.63528" lon="5.65492">
        <ele>212</ele>
        <time>2021-06-05T13:28:54.552Z</time>
      </trkpt>
      <trkpt lat="45.63532" lon="5.65486">
        <ele>212</ele>
        <time>2021-06-05T13:28:58.567Z</time>
      </trkpt>
      <trkpt lat="45.63534" lon="5.65489">
        <ele>212</ele>
        <time>2021-06-05T13:29:03.555Z</time>
      </trkpt>
      <trkpt lat="45.63536" lon="5.65486">
        <ele>212</ele>
        <time>2021-06-05T13:29:08.561Z</time>
      </trkpt>
      <trkpt lat="45.63538" lon="5.65479">
        <ele>212</ele>
        <time>2021-06-05T13:29:12.573Z</time>
      </trkpt>
      <trkpt lat="45.63541" lon="5.65472">
        <ele>212</ele>
        <time>2021-06-05T13:29:17.562Z</time>
      </trkpt>
      <trkpt lat="45.63545" lon="5.65464">
        <ele>212</ele>
        <time>2021-06-05T13:29:22.555Z</time>
      </trkpt>
      <trkpt lat="45.63549" lon="5.65457">
        <ele>212</ele>
        <time>2021-06-05T13:29:26.577Z</time>
      </trkpt>
      <trkpt lat="45.63555" lon="5.6545">
        <ele>212</ele>
        <time>2021-06-05T13:29:31.558Z</time>
      </trkpt>
      <trkpt lat="45.6356" lon="5.65442">
        <ele>212</ele>
        <time>2021-06-05T13:29:36.556Z</time>
      </trkpt>
      <trkpt lat="45.63566" lon="5.65434">
        <ele>212</ele>
        <time>2021-06-05T13:29:41.552Z</time>
      </trkpt>
      <trkpt lat="45.6357" lon="5.65428">
        <ele>212</ele>
        <time>2021-06-05T13:29:45.561Z</time>
      </trkpt>
      <trkpt lat="45.63575" lon="5.6542">
        <ele>212</ele>
        <time>2021-06-05T13:29:50.548Z</time>
      </trkpt>
      <trkpt lat="45.63579" lon="5.65415">
        <ele>212</ele>
        <time>2021-06-05T13:29:54.559Z</time>
      </trkpt>
      <trkpt lat="45.63584" lon="5.65407">
        <ele>212</ele>
        <time>2021-06-05T13:29:59.554Z</time>
      </trkpt>
      <trkpt lat="45.63588" lon="5.65401">
        <ele>212</ele>
        <time>2021-06-05T13:30:03.567Z</time>
      </trkpt>
      <trkpt lat="45.63594" lon="5.65394">
        <ele>212</ele>
        <time>2021-06-05T13:30:08.570Z</time>
      </trkpt>
      <trkpt lat="45.636" lon="5.65391">
        <ele>213</ele>
        <time>2021-06-05T13:30:13.551Z</time>
      </trkpt>
      <trkpt lat="45.63604" lon="5.65383">
        <ele>213</ele>
        <time>2021-06-05T13:30:18.549Z</time>
      </trkpt>
      <trkpt lat="45.63609" lon="5.65376">
        <ele>213</ele>
        <time>2021-06-05T13:30:23.572Z</time>
      </trkpt>
      <trkpt lat="45.63615" lon="5.65375">
        <ele>213</ele>
        <time>2021-06-05T13:30:28.566Z</time>
      </trkpt>
      <trkpt lat="45.63623" lon="5.65372">
        <ele>213</ele>
        <time>2021-06-05T13:30:33.572Z</time>
      </trkpt>
      <trkpt lat="45.63627" lon="5.65363">
        <ele>214</ele>
        <time>2021-06-05T13:30:38.554Z</time>
      </trkpt>
      <trkpt lat="45.63631" lon="5.65354">
        <ele>214</ele>
        <time>2021-06-05T13:30:43.566Z</time>
      </trkpt>
      <trkpt lat="45.63637" lon="5.65349">
        <ele>214</ele>
        <time>2021-06-05T13:30:48.580Z</time>
      </trkpt>
      <trkpt lat="45.63643" lon="5.65345">
        <ele>211</ele>
        <time>2021-06-05T13:30:53.563Z</time>
      </trkpt>
      <trkpt lat="45.6365" lon="5.65342">
        <ele>211</ele>
        <time>2021-06-05T13:30:58.577Z</time>
      </trkpt>
      <trkpt lat="45.63657" lon="5.65342">
        <ele>214</ele>
        <time>2021-06-05T13:31:03.564Z</time>
      </trkpt>
      <trkpt lat="45.63666" lon="5.65344">
        <ele>214</ele>
        <time>2021-06-05T13:31:08.537Z</time>
      </trkpt>
      <trkpt lat="45.63673" lon="5.65345">
        <ele>214</ele>
        <time>2021-06-05T13:31:12.578Z</time>
      </trkpt>
      <trkpt lat="45.6368" lon="5.65344">
        <ele>214</ele>
        <time>2021-06-05T13:31:17.580Z</time>
      </trkpt>
      <trkpt lat="45.63687" lon="5.65342">
        <ele>215</ele>
        <time>2021-06-05T13:31:22.560Z</time>
      </trkpt>
      <trkpt lat="45.63692" lon="5.65339">
        <ele>215</ele>
        <time>2021-06-05T13:31:26.576Z</time>
      </trkpt>
      <trkpt lat="45.63698" lon="5.65337">
        <ele>215</ele>
        <time>2021-06-05T13:31:31.542Z</time>
      </trkpt>
      <trkpt lat="45.63703" lon="5.65334">
        <ele>215</ele>
        <time>2021-06-05T13:31:35.559Z</time>
      </trkpt>
      <trkpt lat="45.63708" lon="5.65329">
        <ele>215</ele>
        <time>2021-06-05T13:31:40.563Z</time>
      </trkpt>
      <trkpt lat="45.63713" lon="5.65323">
        <ele>216</ele>
        <time>2021-06-05T13:31:45.546Z</time>
      </trkpt>
      <trkpt lat="45.63717" lon="5.65316">
        <ele>214</ele>
        <time>2021-06-05T13:31:49.562Z</time>
      </trkpt>
      <trkpt lat="45.63723" lon="5.65307">
        <ele>214</ele>
        <time>2021-06-05T13:31:54.574Z</time>
      </trkpt>
      <trkpt lat="45.63726" lon="5.65298">
        <ele>214</ele>
        <time>2021-06-05T13:31:59.565Z</time>
      </trkpt>
      <trkpt lat="45.63727" lon="5.65293">
        <ele>214</ele>
        <time>2021-06-05T13:32:04.582Z</time>
      </trkpt>
      <trkpt lat="45.63729" lon="5.65283">
        <ele>213</ele>
        <time>2021-06-05T13:32:09.549Z</time>
      </trkpt>
      <trkpt lat="45.6373" lon="5.65272">
        <ele>213</ele>
        <time>2021-06-05T13:32:14.554Z</time>
      </trkpt>
      <trkpt lat="45.6373" lon="5.6526">
        <ele>213</ele>
        <time>2021-06-05T13:32:19.541Z</time>
      </trkpt>
      <trkpt lat="45.63728" lon="5.6525">
        <ele>213</ele>
        <time>2021-06-05T13:32:24.550Z</time>
      </trkpt>
      <trkpt lat="45.63727" lon="5.65242">
        <ele>213</ele>
        <time>2021-06-05T13:32:28.569Z</time>
      </trkpt>
      <trkpt lat="45.63725" lon="5.65234">
        <ele>213</ele>
        <time>2021-06-05T13:32:32.580Z</time>
      </trkpt>
      <trkpt lat="45.63723" lon="5.65223">
        <ele>213</ele>
        <time>2021-06-05T13:32:37.554Z</time>
      </trkpt>
      <trkpt lat="45.63721" lon="5.65213">
        <ele>213</ele>
        <time>2021-06-05T13:32:42.569Z</time>
      </trkpt>
      <trkpt lat="45.63718" lon="5.65203">
        <ele>213</ele>
        <time>2021-06-05T13:32:47.567Z</time>
      </trkpt>
      <trkpt lat="45.63717" lon="5.65192">
        <ele>213</ele>
        <time>2021-06-05T13:32:52.566Z</time>
      </trkpt>
      <trkpt lat="45.63715" lon="5.65182">
        <ele>213</ele>
        <time>2021-06-05T13:32:57.570Z</time>
      </trkpt>
      <trkpt lat="45.63713" lon="5.65173">
        <ele>213</ele>
        <time>2021-06-05T13:33:02.558Z</time>
      </trkpt>
      <trkpt lat="45.63711" lon="5.65164">
        <ele>213</ele>
        <time>2021-06-05T13:33:07.548Z</time>
      </trkpt>
      <trkpt lat="45.63709" lon="5.65157">
        <ele>213</ele>
        <time>2021-06-05T13:33:11.582Z</time>
      </trkpt>
      <trkpt lat="45.63706" lon="5.65152">
        <ele>211</ele>
        <time>2021-06-05T13:33:16.560Z</time>
      </trkpt>
      <trkpt lat="45.637" lon="5.65149">
        <ele>211</ele>
        <time>2021-06-05T13:33:21.573Z</time>
      </trkpt>
      <trkpt lat="45.63695" lon="5.65146">
        <ele>211</ele>
        <time>2021-06-05T13:33:26.560Z</time>
      </trkpt>
      <trkpt lat="45.63688" lon="5.65146">
        <ele>211</ele>
        <time>2021-06-05T13:33:31.543Z</time>
      </trkpt>
      <trkpt lat="45.63681" lon="5.65147">
        <ele>211</ele>
        <time>2021-06-05T13:33:36.559Z</time>
      </trkpt>
      <trkpt lat="45.63674" lon="5.65148">
        <ele>212</ele>
        <time>2021-06-05T13:33:41.547Z</time>
      </trkpt>
      <trkpt lat="45.63669" lon="5.65147">
        <ele>212</ele>
        <time>2021-06-05T13:33:46.545Z</time>
      </trkpt>
      <trkpt lat="45.63664" lon="5.65142">
        <ele>212</ele>
        <time>2021-06-05T13:33:50.564Z</time>
      </trkpt>
      <trkpt lat="45.63659" lon="5.65133">
        <ele>212</ele>
        <time>2021-06-05T13:33:55.563Z</time>
      </trkpt>
      <trkpt lat="45.63655" lon="5.65126">
        <ele>212</ele>
        <time>2021-06-05T13:34:00.547Z</time>
      </trkpt>
      <trkpt lat="45.63653" lon="5.65122">
        <ele>213</ele>
        <time>2021-06-05T13:34:04.569Z</time>
      </trkpt>
      <trkpt lat="45.63649" lon="5.65113">
        <ele>214</ele>
        <time>2021-06-05T13:34:09.559Z</time>
      </trkpt>
      <trkpt lat="45.63644" lon="5.65102">
        <ele>214</ele>
        <time>2021-06-05T13:34:14.560Z</time>
      </trkpt>
      <trkpt lat="45.63639" lon="5.65096">
        <ele>214</ele>
        <time>2021-06-05T13:34:19.549Z</time>
      </trkpt>
      <trkpt lat="45.63637" lon="5.65094">
        <ele>214</ele>
        <time>2021-06-05T13:34:24.546Z</time>
      </trkpt>
      <trkpt lat="45.63636" lon="5.65091">
        <ele>214</ele>
        <time>2021-06-05T13:34:29.549Z</time>
      </trkpt>
      <trkpt lat="45.63633" lon="5.65088">
        <ele>214</ele>
        <time>2021-06-05T13:34:34.542Z</time>
      </trkpt>
      <trkpt lat="45.63628" lon="5.65077">
        <ele>214</ele>
        <time>2021-06-05T13:34:39.558Z</time>
      </trkpt>
      <trkpt lat="45.63625" lon="5.65069">
        <ele>214</ele>
        <time>2021-06-05T13:34:44.575Z</time>
      </trkpt>
      <trkpt lat="45.6363" lon="5.65059">
        <ele>214</ele>
        <time>2021-06-05T13:34:49.543Z</time>
      </trkpt>
      <trkpt lat="45.63631" lon="5.65055">
        <ele>214</ele>
        <time>2021-06-05T13:34:53.569Z</time>
      </trkpt>
      <trkpt lat="45.6363" lon="5.65048">
        <ele>214</ele>
        <time>2021-06-05T13:34:58.565Z</time>
      </trkpt>
      <trkpt lat="45.63625" lon="5.6504">
        <ele>213</ele>
        <time>2021-06-05T13:35:03.550Z</time>
      </trkpt>
      <trkpt lat="45.63621" lon="5.6503">
        <ele>214</ele>
        <time>2021-06-05T13:35:08.546Z</time>
      </trkpt>
      <trkpt lat="45.63618" lon="5.65019">
        <ele>214</ele>
        <time>2021-06-05T13:35:13.547Z</time>
      </trkpt>
      <trkpt lat="45.63619" lon="5.65015">
        <ele>214</ele>
        <time>2021-06-05T13:35:18.572Z</time>
      </trkpt>
      <trkpt lat="45.63619" lon="5.65008">
        <ele>214</ele>
        <time>2021-06-05T13:35:23.552Z</time>
      </trkpt>
      <trkpt lat="45.63614" lon="5.65003">
        <ele>214</ele>
        <time>2021-06-05T13:35:27.564Z</time>
      </trkpt>
      <trkpt lat="45.63609" lon="5.64997">
        <ele>214</ele>
        <time>2021-06-05T13:35:32.567Z</time>
      </trkpt>
      <trkpt lat="45.63606" lon="5.64993">
        <ele>214</ele>
        <time>2021-06-05T13:35:37.557Z</time>
      </trkpt>
      <trkpt lat="45.63606" lon="5.64993">
        <ele>214</ele>
        <time>2021-06-05T13:35:47.541Z</time>
      </trkpt>
      <trkpt lat="45.63607" lon="5.64992">
        <ele>214</ele>
        <time>2021-06-05T13:35:51.567Z</time>
      </trkpt>
      <trkpt lat="45.63607" lon="5.64991">
        <ele>214</ele>
        <time>2021-06-05T13:35:56.544Z</time>
      </trkpt>
      <trkpt lat="45.63603" lon="5.64985">
        <ele>214</ele>
        <time>2021-06-05T13:36:01.546Z</time>
      </trkpt>
      <trkpt lat="45.63597" lon="5.64977">
        <ele>214</ele>
        <time>2021-06-05T13:36:06.556Z</time>
      </trkpt>
      <trkpt lat="45.63592" lon="5.64971">
        <ele>214</ele>
        <time>2021-06-05T13:36:11.546Z</time>
      </trkpt>
      <trkpt lat="45.63587" lon="5.64964">
        <ele>214</ele>
        <time>2021-06-05T13:36:16.571Z</time>
      </trkpt>
      <trkpt lat="45.63582" lon="5.64957">
        <ele>214</ele>
        <time>2021-06-05T13:36:21.569Z</time>
      </trkpt>
      <trkpt lat="45.63575" lon="5.64949">
        <ele>214</ele>
        <time>2021-06-05T13:36:26.552Z</time>
      </trkpt>
      <trkpt lat="45.63569" lon="5.64945">
        <ele>213</ele>
        <time>2021-06-05T13:36:31.574Z</time>
      </trkpt>
      <trkpt lat="45.63561" lon="5.6494">
        <ele>213</ele>
        <time>2021-06-05T13:36:36.555Z</time>
      </trkpt>
      <trkpt lat="45.63555" lon="5.64939">
        <ele>213</ele>
        <time>2021-06-05T13:36:41.558Z</time>
      </trkpt>
      <trkpt lat="45.63547" lon="5.64934">
        <ele>213</ele>
        <time>2021-06-05T13:36:46.558Z</time>
      </trkpt>
      <trkpt lat="45.6354" lon="5.64934">
        <ele>213</ele>
        <time>2021-06-05T13:36:51.539Z</time>
      </trkpt>
      <trkpt lat="45.63532" lon="5.64934">
        <ele>213</ele>
        <time>2021-06-05T13:36:56.541Z</time>
      </trkpt>
      <trkpt lat="45.63527" lon="5.64928">
        <ele>212</ele>
        <time>2021-06-05T13:37:01.551Z</time>
      </trkpt>
      <trkpt lat="45.6352" lon="5.64922">
        <ele>212</ele>
        <time>2021-06-05T13:37:06.551Z</time>
      </trkpt>
      <trkpt lat="45.63512" lon="5.64913">
        <ele>213</ele>
        <time>2021-06-05T13:37:11.562Z</time>
      </trkpt>
      <trkpt lat="45.63507" lon="5.64904">
        <ele>213</ele>
        <time>2021-06-05T13:37:16.542Z</time>
      </trkpt>
      <trkpt lat="45.63502" lon="5.64896">
        <ele>213</ele>
        <time>2021-06-05T13:37:21.544Z</time>
      </trkpt>
      <trkpt lat="45.63496" lon="5.64892">
        <ele>213</ele>
        <time>2021-06-05T13:37:26.544Z</time>
      </trkpt>
      <trkpt lat="45.63487" lon="5.64889">
        <ele>213</ele>
        <time>2021-06-05T13:37:31.544Z</time>
      </trkpt>
      <trkpt lat="45.63481" lon="5.64885">
        <ele>212</ele>
        <time>2021-06-05T13:37:36.550Z</time>
      </trkpt>
      <trkpt lat="45.63474" lon="5.64878">
        <ele>212</ele>
        <time>2021-06-05T13:37:41.545Z</time>
      </trkpt>
      <trkpt lat="45.63467" lon="5.64869">
        <ele>212</ele>
        <time>2021-06-05T13:37:46.539Z</time>
      </trkpt>
      <trkpt lat="45.63461" lon="5.64859">
        <ele>212</ele>
        <time>2021-06-05T13:37:51.543Z</time>
      </trkpt>
      <trkpt lat="45.63457" lon="5.64848">
        <ele>212</ele>
        <time>2021-06-05T13:37:56.546Z</time>
      </trkpt>
      <trkpt lat="45.63454" lon="5.64835">
        <ele>213</ele>
        <time>2021-06-05T13:38:01.545Z</time>
      </trkpt>
      <trkpt lat="45.63451" lon="5.64827">
        <ele>213</ele>
        <time>2021-06-05T13:38:06.549Z</time>
      </trkpt>
      <trkpt lat="45.63445" lon="5.6482">
        <ele>213</ele>
        <time>2021-06-05T13:38:11.543Z</time>
      </trkpt>
      <trkpt lat="45.6344" lon="5.64813">
        <ele>214</ele>
        <time>2021-06-05T13:38:16.545Z</time>
      </trkpt>
      <trkpt lat="45.63434" lon="5.64807">
        <ele>214</ele>
        <time>2021-06-05T13:38:21.563Z</time>
      </trkpt>
      <trkpt lat="45.63429" lon="5.648">
        <ele>215</ele>
        <time>2021-06-05T13:38:26.543Z</time>
      </trkpt>
      <trkpt lat="45.63423" lon="5.64794">
        <ele>215</ele>
        <time>2021-06-05T13:38:31.550Z</time>
      </trkpt>
      <trkpt lat="45.63416" lon="5.64787">
        <ele>214</ele>
        <time>2021-06-05T13:38:36.548Z</time>
      </trkpt>
      <trkpt lat="45.63409" lon="5.64777">
        <ele>214</ele>
        <time>2021-06-05T13:38:41.543Z</time>
      </trkpt>
      <trkpt lat="45.63404" lon="5.64766">
        <ele>214</ele>
        <time>2021-06-05T13:38:46.550Z</time>
      </trkpt>
      <trkpt lat="45.634" lon="5.64755">
        <ele>213</ele>
        <time>2021-06-05T13:38:51.556Z</time>
      </trkpt>
      <trkpt lat="45.63397" lon="5.64745">
        <ele>213</ele>
        <time>2021-06-05T13:38:56.551Z</time>
      </trkpt>
      <trkpt lat="45.63395" lon="5.64735">
        <ele>212</ele>
        <time>2021-06-05T13:39:01.551Z</time>
      </trkpt>
      <trkpt lat="45.63395" lon="5.64732">
        <ele>212</ele>
        <time>2021-06-05T13:39:06.555Z</time>
      </trkpt>
      <trkpt lat="45.63395" lon="5.64727">
        <ele>212</ele>
        <time>2021-06-05T13:39:11.543Z</time>
      </trkpt>
      <trkpt lat="45.63396" lon="5.64719">
        <ele>212</ele>
        <time>2021-06-05T13:39:15.555Z</time>
      </trkpt>
      <trkpt lat="45.63397" lon="5.64708">
        <ele>211</ele>
        <time>2021-06-05T13:39:20.544Z</time>
      </trkpt>
      <trkpt lat="45.63401" lon="5.64701">
        <ele>211</ele>
        <time>2021-06-05T13:39:25.529Z</time>
      </trkpt>
      <trkpt lat="45.63402" lon="5.64702">
        <ele>211</ele>
        <time>2021-06-05T13:39:29.553Z</time>
      </trkpt>
      <trkpt lat="45.63403" lon="5.64701">
        <ele>211</ele>
        <time>2021-06-05T13:39:34.547Z</time>
      </trkpt>
      <trkpt lat="45.63404" lon="5.64696">
        <ele>213</ele>
        <time>2021-06-05T13:39:39.541Z</time>
      </trkpt>
      <trkpt lat="45.63405" lon="5.64688">
        <ele>213</ele>
        <time>2021-06-05T13:39:44.538Z</time>
      </trkpt>
      <trkpt lat="45.63405" lon="5.64683">
        <ele>213</ele>
        <time>2021-06-05T13:39:48.561Z</time>
      </trkpt>
      <trkpt lat="45.63406" lon="5.64676">
        <ele>213</ele>
        <time>2021-06-05T13:39:53.541Z</time>
      </trkpt>
      <trkpt lat="45.63404" lon="5.64668">
        <ele>213</ele>
        <time>2021-06-05T13:39:58.552Z</time>
      </trkpt>
      <trkpt lat="45.63401" lon="5.64659">
        <ele>213</ele>
        <time>2021-06-05T13:40:03.544Z</time>
      </trkpt>
      <trkpt lat="45.63399" lon="5.64649">
        <ele>214</ele>
        <time>2021-06-05T13:40:08.562Z</time>
      </trkpt>
      <trkpt lat="45.63397" lon="5.64639">
        <ele>214</ele>
        <time>2021-06-05T13:40:13.552Z</time>
      </trkpt>
      <trkpt lat="45.63395" lon="5.64631">
        <ele>214</ele>
        <time>2021-06-05T13:40:18.562Z</time>
      </trkpt>
      <trkpt lat="45.63394" lon="5.6462">
        <ele>219</ele>
        <time>2021-06-05T13:40:23.567Z</time>
      </trkpt>
      <trkpt lat="45.63394" lon="5.64611">
        <ele>219</ele>
        <time>2021-06-05T13:40:28.557Z</time>
      </trkpt>
      <trkpt lat="45.63393" lon="5.64603">
        <ele>219</ele>
        <time>2021-06-05T13:40:32.565Z</time>
      </trkpt>
      <trkpt lat="45.63393" lon="5.64594">
        <ele>222</ele>
        <time>2021-06-05T13:40:37.569Z</time>
      </trkpt>
      <trkpt lat="45.63393" lon="5.64586">
        <ele>222</ele>
        <time>2021-06-05T13:40:42.563Z</time>
      </trkpt>
      <trkpt lat="45.63393" lon="5.64577">
        <ele>222</ele>
        <time>2021-06-05T13:40:47.570Z</time>
      </trkpt>
      <trkpt lat="45.63392" lon="5.64565">
        <ele>223</ele>
        <time>2021-06-05T13:40:52.555Z</time>
      </trkpt>
      <trkpt lat="45.63393" lon="5.64555">
        <ele>223</ele>
        <time>2021-06-05T13:40:57.554Z</time>
      </trkpt>
      <trkpt lat="45.63394" lon="5.64546">
        <ele>223</ele>
        <time>2021-06-05T13:41:02.555Z</time>
      </trkpt>
      <trkpt lat="45.63396" lon="5.64538">
        <ele>225</ele>
        <time>2021-06-05T13:41:07.546Z</time>
      </trkpt>
      <trkpt lat="45.63398" lon="5.64529">
        <ele>225</ele>
        <time>2021-06-05T13:41:12.548Z</time>
      </trkpt>
      <trkpt lat="45.634" lon="5.6452">
        <ele>225</ele>
        <time>2021-06-05T13:41:17.542Z</time>
      </trkpt>
      <trkpt lat="45.63403" lon="5.64511">
        <ele>222</ele>
        <time>2021-06-05T13:41:22.547Z</time>
      </trkpt>
      <trkpt lat="45.63406" lon="5.64502">
        <ele>222</ele>
        <time>2021-06-05T13:41:27.547Z</time>
      </trkpt>
      <trkpt lat="45.63408" lon="5.64494">
        <ele>222</ele>
        <time>2021-06-05T13:41:32.539Z</time>
      </trkpt>
      <trkpt lat="45.63411" lon="5.64485">
        <ele>221</ele>
        <time>2021-06-05T13:41:37.537Z</time>
      </trkpt>
      <trkpt lat="45.63412" lon="5.64479">
        <ele>221</ele>
        <time>2021-06-05T13:41:41.541Z</time>
      </trkpt>
      <trkpt lat="45.63414" lon="5.6447">
        <ele>221</ele>
        <time>2021-06-05T13:41:46.552Z</time>
      </trkpt>
      <trkpt lat="45.63417" lon="5.64461">
        <ele>221</ele>
        <time>2021-06-05T13:41:51.541Z</time>
      </trkpt>
      <trkpt lat="45.63419" lon="5.64452">
        <ele>223</ele>
        <time>2021-06-05T13:41:56.550Z</time>
      </trkpt>
      <trkpt lat="45.63421" lon="5.64444">
        <ele>223</ele>
        <time>2021-06-05T13:42:01.542Z</time>
      </trkpt>
      <trkpt lat="45.63423" lon="5.64435">
        <ele>223</ele>
        <time>2021-06-05T13:42:06.540Z</time>
      </trkpt>
      <trkpt lat="45.63426" lon="5.64427">
        <ele>227</ele>
        <time>2021-06-05T13:42:11.554Z</time>
      </trkpt>
      <trkpt lat="45.63429" lon="5.64418">
        <ele>227</ele>
        <time>2021-06-05T13:42:16.546Z</time>
      </trkpt>
      <trkpt lat="45.63432" lon="5.64409">
        <ele>221</ele>
        <time>2021-06-05T13:42:21.557Z</time>
      </trkpt>
      <trkpt lat="45.63434" lon="5.644">
        <ele>226</ele>
        <time>2021-06-05T13:42:26.545Z</time>
      </trkpt>
      <trkpt lat="45.63437" lon="5.64392">
        <ele>226</ele>
        <time>2021-06-05T13:42:31.556Z</time>
      </trkpt>
      <trkpt lat="45.6344" lon="5.64385">
        <ele>226</ele>
        <time>2021-06-05T13:42:35.566Z</time>
      </trkpt>
      <trkpt lat="45.63441" lon="5.64375">
        <ele>226</ele>
        <time>2021-06-05T13:42:40.551Z</time>
      </trkpt>
      <trkpt lat="45.63445" lon="5.64367">
        <ele>225</ele>
        <time>2021-06-05T13:42:45.583Z</time>
      </trkpt>
      <trkpt lat="45.63448" lon="5.64356">
        <ele>225</ele>
        <time>2021-06-05T13:42:50.547Z</time>
      </trkpt>
      <trkpt lat="45.63448" lon="5.64345">
        <ele>224</ele>
        <time>2021-06-05T13:42:55.540Z</time>
      </trkpt>
      <trkpt lat="45.63448" lon="5.64336">
        <ele>224</ele>
        <time>2021-06-05T13:43:00.535Z</time>
      </trkpt>
      <trkpt lat="45.63448" lon="5.64326">
        <ele>224</ele>
        <time>2021-06-05T13:43:04.543Z</time>
      </trkpt>
      <trkpt lat="45.6345" lon="5.64315">
        <ele>225</ele>
        <time>2021-06-05T13:43:09.555Z</time>
      </trkpt>
      <trkpt lat="45.63451" lon="5.64306">
        <ele>225</ele>
        <time>2021-06-05T13:43:14.554Z</time>
      </trkpt>
      <trkpt lat="45.63452" lon="5.64296">
        <ele>225</ele>
        <time>2021-06-05T13:43:19.559Z</time>
      </trkpt>
      <trkpt lat="45.63453" lon="5.64286">
        <ele>227</ele>
        <time>2021-06-05T13:43:24.563Z</time>
      </trkpt>
      <trkpt lat="45.63455" lon="5.64276">
        <ele>227</ele>
        <time>2021-06-05T13:43:29.556Z</time>
      </trkpt>
      <trkpt lat="45.63457" lon="5.64265">
        <ele>227</ele>
        <time>2021-06-05T13:43:34.569Z</time>
      </trkpt>
      <trkpt lat="45.63459" lon="5.64254">
        <ele>222</ele>
        <time>2021-06-05T13:43:39.556Z</time>
      </trkpt>
      <trkpt lat="45.63459" lon="5.64243">
        <ele>222</ele>
        <time>2021-06-05T13:43:44.543Z</time>
      </trkpt>
      <trkpt lat="45.63462" lon="5.64233">
        <ele>222</ele>
        <time>2021-06-05T13:43:49.547Z</time>
      </trkpt>
      <trkpt lat="45.63464" lon="5.64224">
        <ele>222</ele>
        <time>2021-06-05T13:43:54.543Z</time>
      </trkpt>
      <trkpt lat="45.63468" lon="5.64213">
        <ele>222</ele>
        <time>2021-06-05T13:43:59.550Z</time>
      </trkpt>
      <trkpt lat="45.63472" lon="5.64203">
        <ele>224</ele>
        <time>2021-06-05T13:44:04.542Z</time>
      </trkpt>
      <trkpt lat="45.63475" lon="5.64196">
        <ele>224</ele>
        <time>2021-06-05T13:44:08.590Z</time>
      </trkpt>
      <trkpt lat="45.6348" lon="5.64186">
        <ele>224</ele>
        <time>2021-06-05T13:44:13.551Z</time>
      </trkpt>
      <trkpt lat="45.63485" lon="5.64178">
        <ele>226</ele>
        <time>2021-06-05T13:44:18.563Z</time>
      </trkpt>
      <trkpt lat="45.63492" lon="5.64171">
        <ele>225</ele>
        <time>2021-06-05T13:44:23.547Z</time>
      </trkpt>
      <trkpt lat="45.63497" lon="5.64163">
        <ele>225</ele>
        <time>2021-06-05T13:44:28.537Z</time>
      </trkpt>
      <trkpt lat="45.63503" lon="5.64159">
        <ele>225</ele>
        <time>2021-06-05T13:44:33.545Z</time>
      </trkpt>
      <trkpt lat="45.63509" lon="5.64153">
        <ele>227</ele>
        <time>2021-06-05T13:44:38.546Z</time>
      </trkpt>
      <trkpt lat="45.63516" lon="5.64151">
        <ele>224</ele>
        <time>2021-06-05T13:44:43.564Z</time>
      </trkpt>
      <trkpt lat="45.63522" lon="5.64151">
        <ele>224</ele>
        <time>2021-06-05T13:44:48.555Z</time>
      </trkpt>
      <trkpt lat="45.63527" lon="5.64153">
        <ele>224</ele>
        <time>2021-06-05T13:44:53.547Z</time>
      </trkpt>
      <trkpt lat="45.63531" lon="5.64155">
        <ele>223</ele>
        <time>2021-06-05T13:44:58.542Z</time>
      </trkpt>
      <trkpt lat="45.63537" lon="5.64158">
        <ele>223</ele>
        <time>2021-06-05T13:45:36.544Z</time>
      </trkpt>
      <trkpt lat="45.63537" lon="5.64158">
        <ele>223</ele>
        <time>2021-06-05T13:45:41.543Z</time>
      </trkpt>
      <trkpt lat="45.63538" lon="5.64157">
        <ele>223</ele>
        <time>2021-06-05T13:45:45.546Z</time>
      </trkpt>
      <trkpt lat="45.6354" lon="5.64156">
        <ele>223</ele>
        <time>2021-06-05T13:45:49.560Z</time>
      </trkpt>
      <trkpt lat="45.63543" lon="5.64153">
        <ele>220</ele>
        <time>2021-06-05T13:45:54.550Z</time>
      </trkpt>
      <trkpt lat="45.63548" lon="5.64151">
        <ele>221</ele>
        <time>2021-06-05T13:45:59.556Z</time>
      </trkpt>
      <trkpt lat="45.63553" lon="5.64149">
        <ele>221</ele>
        <time>2021-06-05T13:46:04.552Z</time>
      </trkpt>
      <trkpt lat="45.63557" lon="5.64147">
        <ele>221</ele>
        <time>2021-06-05T13:46:08.572Z</time>
      </trkpt>
      <trkpt lat="45.63559" lon="5.64147">
        <ele>221</ele>
        <time>2021-06-05T13:46:13.553Z</time>
      </trkpt>
      <trkpt lat="45.6356" lon="5.64147">
        <ele>221</ele>
        <time>2021-06-05T13:46:32.543Z</time>
      </trkpt>
      <trkpt lat="45.6356" lon="5.64147">
        <ele>221</ele>
        <time>2021-06-05T13:46:37.540Z</time>
      </trkpt>
      <trkpt lat="45.63563" lon="5.64144">
        <ele>221</ele>
        <time>2021-06-05T13:46:41.555Z</time>
      </trkpt>
      <trkpt lat="45.63567" lon="5.64141">
        <ele>221</ele>
        <time>2021-06-05T13:46:46.559Z</time>
      </trkpt>
      <trkpt lat="45.63572" lon="5.64138">
        <ele>222</ele>
        <time>2021-06-05T13:46:51.559Z</time>
      </trkpt>
      <trkpt lat="45.63578" lon="5.64139">
        <ele>222</ele>
        <time>2021-06-05T13:46:56.563Z</time>
      </trkpt>
      <trkpt lat="45.63583" lon="5.64141">
        <ele>222</ele>
        <time>2021-06-05T13:47:01.562Z</time>
      </trkpt>
      <trkpt lat="45.63584" lon="5.64142">
        <ele>222</ele>
        <time>2021-06-05T13:47:06.560Z</time>
      </trkpt>
      <trkpt lat="45.63585" lon="5.64138">
        <ele>222</ele>
        <time>2021-06-05T13:47:11.545Z</time>
      </trkpt>
      <trkpt lat="45.63584" lon="5.64128">
        <ele>222</ele>
        <time>2021-06-05T13:47:16.545Z</time>
      </trkpt>
      <trkpt lat="45.63584" lon="5.64125">
        <ele>222</ele>
        <time>2021-06-05T13:47:21.568Z</time>
      </trkpt>
      <trkpt lat="45.63584" lon="5.64125">
        <ele>222</ele>
        <time>2021-06-05T13:47:26.556Z</time>
      </trkpt>
      <trkpt lat="45.63589" lon="5.64124">
        <ele>223</ele>
        <time>2021-06-05T13:47:31.568Z</time>
      </trkpt>
      <trkpt lat="45.63596" lon="5.64124">
        <ele>223</ele>
        <time>2021-06-05T13:47:36.553Z</time>
      </trkpt>
      <trkpt lat="45.63602" lon="5.64125">
        <ele>222</ele>
        <time>2021-06-05T13:47:40.566Z</time>
      </trkpt>
      <trkpt lat="45.63609" lon="5.64125">
        <ele>223</ele>
        <time>2021-06-05T13:47:45.545Z</time>
      </trkpt>
      <trkpt lat="45.63615" lon="5.64126">
        <ele>222</ele>
        <time>2021-06-05T13:47:49.546Z</time>
      </trkpt>
      <trkpt lat="45.63622" lon="5.64129">
        <ele>222</ele>
        <time>2021-06-05T13:47:54.542Z</time>
      </trkpt>
      <trkpt lat="45.63627" lon="5.64129">
        <ele>223</ele>
        <time>2021-06-05T13:47:58.549Z</time>
      </trkpt>
      <trkpt lat="45.63634" lon="5.6413">
        <ele>223</ele>
        <time>2021-06-05T13:48:03.541Z</time>
      </trkpt>
      <trkpt lat="45.6364" lon="5.64133">
        <ele>223</ele>
        <time>2021-06-05T13:48:07.546Z</time>
      </trkpt>
      <trkpt lat="45.63647" lon="5.64137">
        <ele>223</ele>
        <time>2021-06-05T13:48:12.538Z</time>
      </trkpt>
      <trkpt lat="45.63655" lon="5.64142">
        <ele>223</ele>
        <time>2021-06-05T13:48:17.550Z</time>
      </trkpt>
      <trkpt lat="45.63663" lon="5.64148">
        <ele>223</ele>
        <time>2021-06-05T13:48:22.550Z</time>
      </trkpt>
      <trkpt lat="45.63669" lon="5.64153">
        <ele>222</ele>
        <time>2021-06-05T13:48:27.553Z</time>
      </trkpt>
      <trkpt lat="45.63676" lon="5.64159">
        <ele>222</ele>
        <time>2021-06-05T13:48:32.549Z</time>
      </trkpt>
      <trkpt lat="45.63685" lon="5.64173">
        <ele>221</ele>
        <time>2021-06-05T13:48:47.552Z</time>
      </trkpt>
      <trkpt lat="45.63686" lon="5.64173">
        <ele>221</ele>
        <time>2021-06-05T13:48:52.559Z</time>
      </trkpt>
      <trkpt lat="45.63686" lon="5.64175">
        <ele>221</ele>
        <time>2021-06-05T13:48:57.556Z</time>
      </trkpt>
      <trkpt lat="45.63685" lon="5.64176">
        <ele>221</ele>
        <time>2021-06-05T13:49:02.554Z</time>
      </trkpt>
      <trkpt lat="45.63685" lon="5.64176">
        <ele>221</ele>
        <time>2021-06-05T13:49:07.562Z</time>
      </trkpt>
      <trkpt lat="45.63686" lon="5.64171">
        <ele>221</ele>
        <time>2021-06-05T13:53:31.518Z</time>
      </trkpt>
      <trkpt lat="45.63691" lon="5.6418">
        <ele>221</ele>
        <time>2021-06-05T13:53:35.552Z</time>
      </trkpt>
      <trkpt lat="45.63694" lon="5.64189">
        <ele>220</ele>
        <time>2021-06-05T13:53:39.562Z</time>
      </trkpt>
      <trkpt lat="45.63696" lon="5.64197">
        <ele>220</ele>
        <time>2021-06-05T13:53:44.563Z</time>
      </trkpt>
      <trkpt lat="45.637" lon="5.64196">
        <ele>220</ele>
        <time>2021-06-05T13:53:49.548Z</time>
      </trkpt>
      <trkpt lat="45.63703" lon="5.64197">
        <ele>220</ele>
        <time>2021-06-05T13:53:53.561Z</time>
      </trkpt>
      <trkpt lat="45.63709" lon="5.64202">
        <ele>219</ele>
        <time>2021-06-05T13:53:58.560Z</time>
      </trkpt>
      <trkpt lat="45.63713" lon="5.64202">
        <ele>219</ele>
        <time>2021-06-05T13:54:03.558Z</time>
      </trkpt>
      <trkpt lat="45.63718" lon="5.64204">
        <ele>219</ele>
        <time>2021-06-05T13:54:07.563Z</time>
      </trkpt>
      <trkpt lat="45.63724" lon="5.64211">
        <ele>219</ele>
        <time>2021-06-05T13:54:12.558Z</time>
      </trkpt>
      <trkpt lat="45.63726" lon="5.64212">
        <ele>219</ele>
        <time>2021-06-05T13:54:17.559Z</time>
      </trkpt>
      <trkpt lat="45.63725" lon="5.64215">
        <ele>219</ele>
        <time>2021-06-05T13:54:22.561Z</time>
      </trkpt>
      <trkpt lat="45.63716" lon="5.64217">
        <ele>219</ele>
        <time>2021-06-05T13:54:27.552Z</time>
      </trkpt>
      <trkpt lat="45.63707" lon="5.64204">
        <ele>220</ele>
        <time>2021-06-05T13:54:32.544Z</time>
      </trkpt>
      <trkpt lat="45.637" lon="5.64196">
        <ele>220</ele>
        <time>2021-06-05T13:54:37.552Z</time>
      </trkpt>
      <trkpt lat="45.63694" lon="5.6419">
        <ele>220</ele>
        <time>2021-06-05T13:54:42.583Z</time>
      </trkpt>
      <trkpt lat="45.63689" lon="5.64184">
        <ele>220</ele>
        <time>2021-06-05T13:54:47.567Z</time>
      </trkpt>
      <trkpt lat="45.63683" lon="5.64178">
        <ele>221</ele>
        <time>2021-06-05T13:54:52.561Z</time>
      </trkpt>
      <trkpt lat="45.6368" lon="5.64171">
        <ele>222</ele>
        <time>2021-06-05T13:55:02.558Z</time>
      </trkpt>
      <trkpt lat="45.6368" lon="5.6417">
        <ele>222</ele>
        <time>2021-06-05T13:55:07.575Z</time>
      </trkpt>
      <trkpt lat="45.6368" lon="5.64169">
        <ele>222</ele>
        <time>2021-06-05T13:55:12.545Z</time>
      </trkpt>
      <trkpt lat="45.63681" lon="5.64162">
        <ele>221</ele>
        <time>2021-06-05T13:55:16.563Z</time>
      </trkpt>
      <trkpt lat="45.63683" lon="5.64158">
        <ele>221</ele>
        <time>2021-06-05T13:55:21.565Z</time>
      </trkpt>
      <trkpt lat="45.63684" lon="5.64162">
        <ele>221</ele>
        <time>2021-06-05T13:55:59.556Z</time>
      </trkpt>
      <trkpt lat="45.63685" lon="5.64163">
        <ele>221</ele>
        <time>2021-06-05T13:56:04.555Z</time>
      </trkpt>
      <trkpt lat="45.63689" lon="5.64165">
        <ele>221</ele>
        <time>2021-06-05T13:56:09.559Z</time>
      </trkpt>
      <trkpt lat="45.63688" lon="5.64168">
        <ele>221</ele>
        <time>2021-06-05T13:56:14.560Z</time>
      </trkpt>
      <trkpt lat="45.6369" lon="5.64173">
        <ele>221</ele>
        <time>2021-06-05T13:56:19.555Z</time>
      </trkpt>
      <trkpt lat="45.63695" lon="5.64181">
        <ele>220</ele>
        <time>2021-06-05T13:56:24.545Z</time>
      </trkpt>
      <trkpt lat="45.63698" lon="5.64186">
        <ele>220</ele>
        <time>2021-06-05T13:56:29.572Z</time>
      </trkpt>
      <trkpt lat="45.63705" lon="5.64191">
        <ele>220</ele>
        <time>2021-06-05T13:56:34.564Z</time>
      </trkpt>
      <trkpt lat="45.6371" lon="5.64195">
        <ele>219</ele>
        <time>2021-06-05T13:56:39.556Z</time>
      </trkpt>
      <trkpt lat="45.63714" lon="5.64198">
        <ele>219</ele>
        <time>2021-06-05T13:56:44.557Z</time>
      </trkpt>
      <trkpt lat="45.63717" lon="5.64194">
        <ele>219</ele>
        <time>2021-06-05T13:56:49.553Z</time>
      </trkpt>
      <trkpt lat="45.63721" lon="5.64195">
        <ele>219</ele>
        <time>2021-06-05T13:56:53.562Z</time>
      </trkpt>
      <trkpt lat="45.63727" lon="5.64202">
        <ele>219</ele>
        <time>2021-06-05T13:56:58.555Z</time>
      </trkpt>
      <trkpt lat="45.63726" lon="5.64207">
        <ele>219</ele>
        <time>2021-06-05T14:30:18.499Z</time>
      </trkpt>
      <trkpt lat="45.63726" lon="5.64208">
        <ele>219</ele>
        <time>2021-06-05T14:30:23.508Z</time>
      </trkpt>
      <trkpt lat="45.63725" lon="5.64213">
        <ele>219</ele>
        <time>2021-06-05T14:30:27.542Z</time>
      </trkpt>
      <trkpt lat="45.6372" lon="5.6421">
        <ele>219</ele>
        <time>2021-06-05T14:30:32.529Z</time>
      </trkpt>
      <trkpt lat="45.63715" lon="5.64205">
        <ele>219</ele>
        <time>2021-06-05T14:30:36.540Z</time>
      </trkpt>
      <trkpt lat="45.6371" lon="5.64202">
        <ele>219</ele>
        <time>2021-06-05T14:30:41.534Z</time>
      </trkpt>
      <trkpt lat="45.63705" lon="5.64201">
        <ele>220</ele>
        <time>2021-06-05T14:30:46.536Z</time>
      </trkpt>
      <trkpt lat="45.63702" lon="5.642">
        <ele>220</ele>
        <time>2021-06-05T14:30:51.532Z</time>
      </trkpt>
      <trkpt lat="45.63699" lon="5.64195">
        <ele>220</ele>
        <time>2021-06-05T14:30:56.546Z</time>
      </trkpt>
      <trkpt lat="45.63694" lon="5.6419">
        <ele>220</ele>
        <time>2021-06-05T14:31:01.554Z</time>
      </trkpt>
      <trkpt lat="45.63692" lon="5.64184">
        <ele>220</ele>
        <time>2021-06-05T14:31:06.539Z</time>
      </trkpt>
      <trkpt lat="45.63691" lon="5.64181">
        <ele>221</ele>
        <time>2021-06-05T14:31:11.544Z</time>
      </trkpt>
      <trkpt lat="45.63691" lon="5.64173">
        <ele>221</ele>
        <time>2021-06-05T14:31:16.540Z</time>
      </trkpt>
      <trkpt lat="45.6369" lon="5.64168">
        <ele>221</ele>
        <time>2021-06-05T14:31:21.553Z</time>
      </trkpt>
      <trkpt lat="45.63687" lon="5.64166">
        <ele>221</ele>
        <time>2021-06-05T14:31:26.540Z</time>
      </trkpt>
      <trkpt lat="45.63684" lon="5.64162">
        <ele>221</ele>
        <time>2021-06-05T14:31:31.535Z</time>
      </trkpt>
      <trkpt lat="45.63683" lon="5.64159">
        <ele>221</ele>
        <time>2021-06-05T14:31:36.538Z</time>
      </trkpt>
      <trkpt lat="45.63679" lon="5.64157">
        <ele>222</ele>
        <time>2021-06-05T14:32:59.509Z</time>
      </trkpt>
      <trkpt lat="45.63678" lon="5.64159">
        <ele>222</ele>
        <time>2021-06-05T14:33:04.506Z</time>
      </trkpt>
      <trkpt lat="45.63675" lon="5.64154">
        <ele>222</ele>
        <time>2021-06-05T14:33:08.555Z</time>
      </trkpt>
      <trkpt lat="45.63669" lon="5.64148">
        <ele>223</ele>
        <time>2021-06-05T14:33:13.536Z</time>
      </trkpt>
      <trkpt lat="45.63663" lon="5.64143">
        <ele>223</ele>
        <time>2021-06-05T14:33:18.541Z</time>
      </trkpt>
      <trkpt lat="45.63671" lon="5.64146">
        <ele>223</ele>
        <time>2021-06-05T14:34:40.519Z</time>
      </trkpt>
      <trkpt lat="45.63671" lon="5.64146">
        <ele>223</ele>
        <time>2021-06-05T14:34:45.512Z</time>
      </trkpt>
      <trkpt lat="45.63671" lon="5.64146">
        <ele>223</ele>
        <time>2021-06-05T14:34:49.526Z</time>
      </trkpt>
      <trkpt lat="45.63671" lon="5.6415">
        <ele>223</ele>
        <time>2021-06-05T14:34:54.515Z</time>
      </trkpt>
      <trkpt lat="45.63675" lon="5.64155">
        <ele>222</ele>
        <time>2021-06-05T14:34:58.546Z</time>
      </trkpt>
      <trkpt lat="45.6368" lon="5.64161">
        <ele>222</ele>
        <time>2021-06-05T14:35:02.562Z</time>
      </trkpt>
      <trkpt lat="45.63686" lon="5.6416">
        <ele>221</ele>
        <time>2021-06-05T14:35:07.538Z</time>
      </trkpt>
      <trkpt lat="45.63695" lon="5.64156">
        <ele>221</ele>
        <time>2021-06-05T14:35:12.545Z</time>
      </trkpt>
      <trkpt lat="45.63703" lon="5.64149">
        <ele>222</ele>
        <time>2021-06-05T14:35:17.558Z</time>
      </trkpt>
      <trkpt lat="45.63711" lon="5.64143">
        <ele>221</ele>
        <time>2021-06-05T14:35:22.527Z</time>
      </trkpt>
      <trkpt lat="45.63718" lon="5.64144">
        <ele>221</ele>
        <time>2021-06-05T14:35:26.539Z</time>
      </trkpt>
      <trkpt lat="45.63724" lon="5.64149">
        <ele>221</ele>
        <time>2021-06-05T14:35:31.546Z</time>
      </trkpt>
      <trkpt lat="45.6373" lon="5.64154">
        <ele>220</ele>
        <time>2021-06-05T14:35:36.539Z</time>
      </trkpt>
      <trkpt lat="45.63734" lon="5.64158">
        <ele>220</ele>
        <time>2021-06-05T14:35:40.546Z</time>
      </trkpt>
      <trkpt lat="45.6374" lon="5.64161">
        <ele>220</ele>
        <time>2021-06-05T14:35:45.539Z</time>
      </trkpt>
      <trkpt lat="45.63747" lon="5.64162">
        <ele>220</ele>
        <time>2021-06-05T14:35:50.559Z</time>
      </trkpt>
      <trkpt lat="45.63754" lon="5.64162">
        <ele>220</ele>
        <time>2021-06-05T14:35:55.547Z</time>
      </trkpt>
      <trkpt lat="45.63761" lon="5.6416">
        <ele>220</ele>
        <time>2021-06-05T14:36:00.554Z</time>
      </trkpt>
      <trkpt lat="45.63766" lon="5.64156">
        <ele>221</ele>
        <time>2021-06-05T14:36:05.549Z</time>
      </trkpt>
      <trkpt lat="45.63773" lon="5.64151">
        <ele>221</ele>
        <time>2021-06-05T14:36:10.537Z</time>
      </trkpt>
      <trkpt lat="45.63779" lon="5.6415">
        <ele>221</ele>
        <time>2021-06-05T14:36:14.547Z</time>
      </trkpt>
      <trkpt lat="45.63786" lon="5.64151">
        <ele>221</ele>
        <time>2021-06-05T14:36:18.562Z</time>
      </trkpt>
      <trkpt lat="45.63794" lon="5.64155">
        <ele>222</ele>
        <time>2021-06-05T14:36:23.542Z</time>
      </trkpt>
      <trkpt lat="45.638" lon="5.64161">
        <ele>222</ele>
        <time>2021-06-05T14:36:28.561Z</time>
      </trkpt>
      <trkpt lat="45.63807" lon="5.64164">
        <ele>222</ele>
        <time>2021-06-05T14:36:33.548Z</time>
      </trkpt>
      <trkpt lat="45.63814" lon="5.64169">
        <ele>222</ele>
        <time>2021-06-05T14:36:38.546Z</time>
      </trkpt>
      <trkpt lat="45.6382" lon="5.64174">
        <ele>222</ele>
        <time>2021-06-05T14:36:43.550Z</time>
      </trkpt>
      <trkpt lat="45.63827" lon="5.64178">
        <ele>222</ele>
        <time>2021-06-05T14:36:48.541Z</time>
      </trkpt>
      <trkpt lat="45.63834" lon="5.64183">
        <ele>223</ele>
        <time>2021-06-05T14:36:53.542Z</time>
      </trkpt>
      <trkpt lat="45.63841" lon="5.64189">
        <ele>223</ele>
        <time>2021-06-05T14:36:58.545Z</time>
      </trkpt>
      <trkpt lat="45.63848" lon="5.64194">
        <ele>222</ele>
        <time>2021-06-05T14:37:03.559Z</time>
      </trkpt>
      <trkpt lat="45.63855" lon="5.64198">
        <ele>222</ele>
        <time>2021-06-05T14:37:08.533Z</time>
      </trkpt>
      <trkpt lat="45.6386" lon="5.64202">
        <ele>222</ele>
        <time>2021-06-05T14:37:12.560Z</time>
      </trkpt>
      <trkpt lat="45.63867" lon="5.64207">
        <ele>222</ele>
        <time>2021-06-05T14:37:17.566Z</time>
      </trkpt>
      <trkpt lat="45.63874" lon="5.64211">
        <ele>221</ele>
        <time>2021-06-05T14:37:22.558Z</time>
      </trkpt>
      <trkpt lat="45.63881" lon="5.64215">
        <ele>212</ele>
        <time>2021-06-05T14:37:27.542Z</time>
      </trkpt>
      <trkpt lat="45.63886" lon="5.64218">
        <ele>212</ele>
        <time>2021-06-05T14:37:31.558Z</time>
      </trkpt>
      <trkpt lat="45.63892" lon="5.64223">
        <ele>212</ele>
        <time>2021-06-05T14:37:36.540Z</time>
      </trkpt>
      <trkpt lat="45.63899" lon="5.64228">
        <ele>212</ele>
        <time>2021-06-05T14:37:41.558Z</time>
      </trkpt>
      <trkpt lat="45.63905" lon="5.64232">
        <ele>212</ele>
        <time>2021-06-05T14:37:45.573Z</time>
      </trkpt>
      <trkpt lat="45.63912" lon="5.64237">
        <ele>212</ele>
        <time>2021-06-05T14:37:50.551Z</time>
      </trkpt>
      <trkpt lat="45.63919" lon="5.64242">
        <ele>212</ele>
        <time>2021-06-05T14:37:55.563Z</time>
      </trkpt>
      <trkpt lat="45.63925" lon="5.64246">
        <ele>212</ele>
        <time>2021-06-05T14:38:00.552Z</time>
      </trkpt>
      <trkpt lat="45.63932" lon="5.64253">
        <ele>212</ele>
        <time>2021-06-05T14:38:05.540Z</time>
      </trkpt>
      <trkpt lat="45.63938" lon="5.64257">
        <ele>212</ele>
        <time>2021-06-05T14:38:09.559Z</time>
      </trkpt>
      <trkpt lat="45.63944" lon="5.64259">
        <ele>212</ele>
        <time>2021-06-05T14:38:14.552Z</time>
      </trkpt>
      <trkpt lat="45.63951" lon="5.64263">
        <ele>212</ele>
        <time>2021-06-05T14:38:19.549Z</time>
      </trkpt>
      <trkpt lat="45.63958" lon="5.64268">
        <ele>212</ele>
        <time>2021-06-05T14:38:24.527Z</time>
      </trkpt>
      <trkpt lat="45.63964" lon="5.64272">
        <ele>212</ele>
        <time>2021-06-05T14:38:28.539Z</time>
      </trkpt>
      <trkpt lat="45.63971" lon="5.64276">
        <ele>212</ele>
        <time>2021-06-05T14:38:33.570Z</time>
      </trkpt>
      <trkpt lat="45.63977" lon="5.64282">
        <ele>212</ele>
        <time>2021-06-05T14:38:38.552Z</time>
      </trkpt>
      <trkpt lat="45.63984" lon="5.64287">
        <ele>212</ele>
        <time>2021-06-05T14:38:43.546Z</time>
      </trkpt>
      <trkpt lat="45.63991" lon="5.64292">
        <ele>217</ele>
        <time>2021-06-05T14:38:48.541Z</time>
      </trkpt>
      <trkpt lat="45.63997" lon="5.64296">
        <ele>218</ele>
        <time>2021-06-05T14:38:53.531Z</time>
      </trkpt>
      <trkpt lat="45.64004" lon="5.643">
        <ele>218</ele>
        <time>2021-06-05T14:38:58.527Z</time>
      </trkpt>
      <trkpt lat="45.64011" lon="5.64306">
        <ele>218</ele>
        <time>2021-06-05T14:39:03.541Z</time>
      </trkpt>
      <trkpt lat="45.64018" lon="5.64311">
        <ele>221</ele>
        <time>2021-06-05T14:39:08.555Z</time>
      </trkpt>
      <trkpt lat="45.64024" lon="5.64317">
        <ele>221</ele>
        <time>2021-06-05T14:39:13.537Z</time>
      </trkpt>
      <trkpt lat="45.64029" lon="5.64323">
        <ele>221</ele>
        <time>2021-06-05T14:39:18.537Z</time>
      </trkpt>
      <trkpt lat="45.64035" lon="5.6433">
        <ele>221</ele>
        <time>2021-06-05T14:39:23.538Z</time>
      </trkpt>
      <trkpt lat="45.64039" lon="5.64337">
        <ele>221</ele>
        <time>2021-06-05T14:39:28.536Z</time>
      </trkpt>
      <trkpt lat="45.64043" lon="5.64345">
        <ele>222</ele>
        <time>2021-06-05T14:39:33.531Z</time>
      </trkpt>
      <trkpt lat="45.64047" lon="5.64351">
        <ele>222</ele>
        <time>2021-06-05T14:39:37.554Z</time>
      </trkpt>
      <trkpt lat="45.64051" lon="5.64361">
        <ele>222</ele>
        <time>2021-06-05T14:39:42.541Z</time>
      </trkpt>
      <trkpt lat="45.64054" lon="5.6437">
        <ele>222</ele>
        <time>2021-06-05T14:39:47.527Z</time>
      </trkpt>
      <trkpt lat="45.64056" lon="5.64378">
        <ele>222</ele>
        <time>2021-06-05T14:39:51.550Z</time>
      </trkpt>
      <trkpt lat="45.64057" lon="5.64389">
        <ele>222</ele>
        <time>2021-06-05T14:39:56.530Z</time>
      </trkpt>
      <trkpt lat="45.64057" lon="5.64396">
        <ele>222</ele>
        <time>2021-06-05T14:40:00.545Z</time>
      </trkpt>
      <trkpt lat="45.64056" lon="5.64405">
        <ele>223</ele>
        <time>2021-06-05T14:40:05.541Z</time>
      </trkpt>
      <trkpt lat="45.64054" lon="5.64415">
        <ele>223</ele>
        <time>2021-06-05T14:40:10.537Z</time>
      </trkpt>
      <trkpt lat="45.64052" lon="5.64425">
        <ele>223</ele>
        <time>2021-06-05T14:40:15.538Z</time>
      </trkpt>
      <trkpt lat="45.64048" lon="5.64435">
        <ele>224</ele>
        <time>2021-06-05T14:40:20.531Z</time>
      </trkpt>
      <trkpt lat="45.64045" lon="5.64445">
        <ele>224</ele>
        <time>2021-06-05T14:40:25.538Z</time>
      </trkpt>
      <trkpt lat="45.64039" lon="5.6445">
        <ele>223</ele>
        <time>2021-06-05T14:40:30.535Z</time>
      </trkpt>
      <trkpt lat="45.64032" lon="5.64448">
        <ele>223</ele>
        <time>2021-06-05T14:40:34.547Z</time>
      </trkpt>
      <trkpt lat="45.64024" lon="5.6444">
        <ele>223</ele>
        <time>2021-06-05T14:40:39.552Z</time>
      </trkpt>
      <trkpt lat="45.64018" lon="5.64432">
        <ele>223</ele>
        <time>2021-06-05T14:40:44.539Z</time>
      </trkpt>
      <trkpt lat="45.64011" lon="5.64434">
        <ele>221</ele>
        <time>2021-06-05T14:40:49.538Z</time>
      </trkpt>
      <trkpt lat="45.64005" lon="5.64441">
        <ele>221</ele>
        <time>2021-06-05T14:40:54.536Z</time>
      </trkpt>
      <trkpt lat="45.64003" lon="5.64451">
        <ele>221</ele>
        <time>2021-06-05T14:40:59.530Z</time>
      </trkpt>
      <trkpt lat="45.64003" lon="5.6446">
        <ele>221</ele>
        <time>2021-06-05T14:41:03.541Z</time>
      </trkpt>
      <trkpt lat="45.64002" lon="5.64471">
        <ele>221</ele>
        <time>2021-06-05T14:41:08.548Z</time>
      </trkpt>
      <trkpt lat="45.63997" lon="5.6449">
        <ele>220</ele>
        <time>2021-06-05T14:41:13.537Z</time>
      </trkpt>
      <trkpt lat="45.63995" lon="5.64505">
        <ele>220</ele>
        <time>2021-06-05T14:41:18.539Z</time>
      </trkpt>
      <trkpt lat="45.63993" lon="5.64516">
        <ele>220</ele>
        <time>2021-06-05T14:41:23.537Z</time>
      </trkpt>
      <trkpt lat="45.63992" lon="5.64525">
        <ele>220</ele>
        <time>2021-06-05T14:41:28.536Z</time>
      </trkpt>
      <trkpt lat="45.63992" lon="5.64536">
        <ele>220</ele>
        <time>2021-06-05T14:41:33.531Z</time>
      </trkpt>
      <trkpt lat="45.63991" lon="5.64543">
        <ele>221</ele>
        <time>2021-06-05T14:41:37.548Z</time>
      </trkpt>
      <trkpt lat="45.63988" lon="5.64553">
        <ele>221</ele>
        <time>2021-06-05T14:41:42.542Z</time>
      </trkpt>
      <trkpt lat="45.63986" lon="5.6456">
        <ele>221</ele>
        <time>2021-06-05T14:41:46.565Z</time>
      </trkpt>
      <trkpt lat="45.63985" lon="5.6457">
        <ele>212</ele>
        <time>2021-06-05T14:41:51.569Z</time>
      </trkpt>
      <trkpt lat="45.63984" lon="5.6458">
        <ele>212</ele>
        <time>2021-06-05T14:41:56.539Z</time>
      </trkpt>
      <trkpt lat="45.63985" lon="5.64589">
        <ele>212</ele>
        <time>2021-06-05T14:42:01.533Z</time>
      </trkpt>
      <trkpt lat="45.63985" lon="5.64596">
        <ele>212</ele>
        <time>2021-06-05T14:42:05.534Z</time>
      </trkpt>
      <trkpt lat="45.63985" lon="5.64605">
        <ele>218</ele>
        <time>2021-06-05T14:42:09.561Z</time>
      </trkpt>
      <trkpt lat="45.63984" lon="5.64615">
        <ele>218</ele>
        <time>2021-06-05T14:42:14.544Z</time>
      </trkpt>
      <trkpt lat="45.63985" lon="5.64624">
        <ele>218</ele>
        <time>2021-06-05T14:42:19.560Z</time>
      </trkpt>
      <trkpt lat="45.63986" lon="5.64635">
        <ele>219</ele>
        <time>2021-06-05T14:42:24.542Z</time>
      </trkpt>
      <trkpt lat="45.63986" lon="5.64645">
        <ele>226</ele>
        <time>2021-06-05T14:42:29.548Z</time>
      </trkpt>
      <trkpt lat="45.63986" lon="5.64654">
        <ele>219</ele>
        <time>2021-06-05T14:42:33.554Z</time>
      </trkpt>
      <trkpt lat="45.63987" lon="5.64662">
        <ele>227</ele>
        <time>2021-06-05T14:42:38.548Z</time>
      </trkpt>
      <trkpt lat="45.63986" lon="5.64673">
        <ele>227</ele>
        <time>2021-06-05T14:42:43.531Z</time>
      </trkpt>
      <trkpt lat="45.63987" lon="5.64683">
        <ele>230</ele>
        <time>2021-06-05T14:42:48.532Z</time>
      </trkpt>
      <trkpt lat="45.63987" lon="5.64692">
        <ele>230</ele>
        <time>2021-06-05T14:42:52.559Z</time>
      </trkpt>
      <trkpt lat="45.63987" lon="5.64703">
        <ele>230</ele>
        <time>2021-06-05T14:42:57.559Z</time>
      </trkpt>
      <trkpt lat="45.63987" lon="5.64713">
        <ele>230</ele>
        <time>2021-06-05T14:43:02.549Z</time>
      </trkpt>
      <trkpt lat="45.63986" lon="5.64724">
        <ele>220</ele>
        <time>2021-06-05T14:43:07.535Z</time>
      </trkpt>
      <trkpt lat="45.63985" lon="5.64734">
        <ele>220</ele>
        <time>2021-06-05T14:43:12.534Z</time>
      </trkpt>
      <trkpt lat="45.63983" lon="5.64744">
        <ele>219</ele>
        <time>2021-06-05T14:43:17.535Z</time>
      </trkpt>
      <trkpt lat="45.63983" lon="5.64755">
        <ele>219</ele>
        <time>2021-06-05T14:43:22.533Z</time>
      </trkpt>
      <trkpt lat="45.63983" lon="5.64767">
        <ele>219</ele>
        <time>2021-06-05T14:43:27.549Z</time>
      </trkpt>
      <trkpt lat="45.63983" lon="5.64778">
        <ele>219</ele>
        <time>2021-06-05T14:43:32.541Z</time>
      </trkpt>
      <trkpt lat="45.63982" lon="5.64786">
        <ele>219</ele>
        <time>2021-06-05T14:43:36.552Z</time>
      </trkpt>
      <trkpt lat="45.63978" lon="5.64795">
        <ele>218</ele>
        <time>2021-06-05T14:43:41.547Z</time>
      </trkpt>
      <trkpt lat="45.63972" lon="5.64802">
        <ele>218</ele>
        <time>2021-06-05T14:43:46.537Z</time>
      </trkpt>
      <trkpt lat="45.63965" lon="5.64805">
        <ele>218</ele>
        <time>2021-06-05T14:43:51.547Z</time>
      </trkpt>
      <trkpt lat="45.63956" lon="5.64806">
        <ele>217</ele>
        <time>2021-06-05T14:43:56.547Z</time>
      </trkpt>
      <trkpt lat="45.63947" lon="5.64807">
        <ele>217</ele>
        <time>2021-06-05T14:44:01.528Z</time>
      </trkpt>
      <trkpt lat="45.63939" lon="5.64809">
        <ele>217</ele>
        <time>2021-06-05T14:44:06.538Z</time>
      </trkpt>
      <trkpt lat="45.63932" lon="5.64811">
        <ele>217</ele>
        <time>2021-06-05T14:44:11.529Z</time>
      </trkpt>
      <trkpt lat="45.63926" lon="5.64814">
        <ele>214</ele>
        <time>2021-06-05T14:44:16.554Z</time>
      </trkpt>
      <trkpt lat="45.6392" lon="5.64818">
        <ele>214</ele>
        <time>2021-06-05T14:44:21.537Z</time>
      </trkpt>
      <trkpt lat="45.63914" lon="5.64818">
        <ele>214</ele>
        <time>2021-06-05T14:44:25.538Z</time>
      </trkpt>
      <trkpt lat="45.6391" lon="5.64818">
        <ele>214</ele>
        <time>2021-06-05T14:44:30.551Z</time>
      </trkpt>
      <trkpt lat="45.63902" lon="5.64824">
        <ele>212</ele>
        <time>2021-06-05T14:44:35.532Z</time>
      </trkpt>
      <trkpt lat="45.63896" lon="5.6483">
        <ele>212</ele>
        <time>2021-06-05T14:44:40.542Z</time>
      </trkpt>
      <trkpt lat="45.6389" lon="5.64838">
        <ele>212</ele>
        <time>2021-06-05T14:44:45.539Z</time>
      </trkpt>
      <trkpt lat="45.63885" lon="5.64847">
        <ele>212</ele>
        <time>2021-06-05T14:44:50.544Z</time>
      </trkpt>
      <trkpt lat="45.63882" lon="5.64857">
        <ele>212</ele>
        <time>2021-06-05T14:44:55.533Z</time>
      </trkpt>
      <trkpt lat="45.6388" lon="5.64867">
        <ele>212</ele>
        <time>2021-06-05T14:45:00.537Z</time>
      </trkpt>
      <trkpt lat="45.63877" lon="5.64877">
        <ele>212</ele>
        <time>2021-06-05T14:45:05.540Z</time>
      </trkpt>
      <trkpt lat="45.63875" lon="5.64887">
        <ele>212</ele>
        <time>2021-06-05T14:45:10.537Z</time>
      </trkpt>
      <trkpt lat="45.63875" lon="5.64898">
        <ele>212</ele>
        <time>2021-06-05T14:45:15.534Z</time>
      </trkpt>
      <trkpt lat="45.63875" lon="5.64907">
        <ele>212</ele>
        <time>2021-06-05T14:45:20.528Z</time>
      </trkpt>
      <trkpt lat="45.63874" lon="5.64914">
        <ele>212</ele>
        <time>2021-06-05T14:45:24.546Z</time>
      </trkpt>
      <trkpt lat="45.63875" lon="5.64924">
        <ele>212</ele>
        <time>2021-06-05T14:45:29.529Z</time>
      </trkpt>
      <trkpt lat="45.63876" lon="5.64931">
        <ele>218</ele>
        <time>2021-06-05T14:45:33.540Z</time>
      </trkpt>
      <trkpt lat="45.63876" lon="5.64939">
        <ele>218</ele>
        <time>2021-06-05T14:45:38.544Z</time>
      </trkpt>
      <trkpt lat="45.63877" lon="5.64948">
        <ele>218</ele>
        <time>2021-06-05T14:45:43.550Z</time>
      </trkpt>
      <trkpt lat="45.63877" lon="5.64957">
        <ele>218</ele>
        <time>2021-06-05T14:45:48.531Z</time>
      </trkpt>
      <trkpt lat="45.63876" lon="5.64968">
        <ele>217</ele>
        <time>2021-06-05T14:45:53.539Z</time>
      </trkpt>
      <trkpt lat="45.63877" lon="5.6498">
        <ele>217</ele>
        <time>2021-06-05T14:45:58.532Z</time>
      </trkpt>
      <trkpt lat="45.63877" lon="5.6499">
        <ele>217</ele>
        <time>2021-06-05T14:46:03.562Z</time>
      </trkpt>
      <trkpt lat="45.63877" lon="5.64999">
        <ele>217</ele>
        <time>2021-06-05T14:46:08.577Z</time>
      </trkpt>
      <trkpt lat="45.63876" lon="5.6501">
        <ele>217</ele>
        <time>2021-06-05T14:46:13.549Z</time>
      </trkpt>
      <trkpt lat="45.63877" lon="5.65021">
        <ele>216</ele>
        <time>2021-06-05T14:46:18.557Z</time>
      </trkpt>
      <trkpt lat="45.63876" lon="5.65031">
        <ele>216</ele>
        <time>2021-06-05T14:46:23.564Z</time>
      </trkpt>
      <trkpt lat="45.63875" lon="5.65041">
        <ele>214</ele>
        <time>2021-06-05T14:46:28.555Z</time>
      </trkpt>
      <trkpt lat="45.63875" lon="5.65051">
        <ele>216</ele>
        <time>2021-06-05T14:46:33.540Z</time>
      </trkpt>
      <trkpt lat="45.63875" lon="5.65062">
        <ele>214</ele>
        <time>2021-06-05T14:46:38.550Z</time>
      </trkpt>
      <trkpt lat="45.63875" lon="5.65072">
        <ele>216</ele>
        <time>2021-06-05T14:46:43.540Z</time>
      </trkpt>
      <trkpt lat="45.63875" lon="5.65082">
        <ele>215</ele>
        <time>2021-06-05T14:46:48.542Z</time>
      </trkpt>
      <trkpt lat="45.63874" lon="5.65092">
        <ele>215</ele>
        <time>2021-06-05T14:46:53.535Z</time>
      </trkpt>
      <trkpt lat="45.63875" lon="5.65102">
        <ele>216</ele>
        <time>2021-06-05T14:46:57.553Z</time>
      </trkpt>
      <trkpt lat="45.63876" lon="5.65111">
        <ele>216</ele>
        <time>2021-06-05T14:47:02.523Z</time>
      </trkpt>
      <trkpt lat="45.63877" lon="5.6512">
        <ele>216</ele>
        <time>2021-06-05T14:47:07.537Z</time>
      </trkpt>
      <trkpt lat="45.6388" lon="5.65123">
        <ele>216</ele>
        <time>2021-06-05T14:47:11.565Z</time>
      </trkpt>
      <trkpt lat="45.63884" lon="5.65119">
        <ele>216</ele>
        <time>2021-06-05T14:47:16.551Z</time>
      </trkpt>
      <trkpt lat="45.63888" lon="5.6512">
        <ele>216</ele>
        <time>2021-06-05T14:47:21.556Z</time>
      </trkpt>
      <trkpt lat="45.63892" lon="5.65124">
        <ele>216</ele>
        <time>2021-06-05T14:47:26.568Z</time>
      </trkpt>
      <trkpt lat="45.63896" lon="5.65127">
        <ele>215</ele>
        <time>2021-06-05T14:47:31.556Z</time>
      </trkpt>
      <trkpt lat="45.63898" lon="5.65126">
        <ele>215</ele>
        <time>2021-06-05T14:47:36.565Z</time>
      </trkpt>
      <trkpt lat="45.63902" lon="5.65124">
        <ele>216</ele>
        <time>2021-06-05T14:47:41.538Z</time>
      </trkpt>
      <trkpt lat="45.6391" lon="5.65123">
        <ele>215</ele>
        <time>2021-06-05T14:47:46.550Z</time>
      </trkpt>
      <trkpt lat="45.63915" lon="5.65131">
        <ele>214</ele>
        <time>2021-06-05T14:47:51.552Z</time>
      </trkpt>
      <trkpt lat="45.63918" lon="5.65143">
        <ele>214</ele>
        <time>2021-06-05T14:47:56.552Z</time>
      </trkpt>
      <trkpt lat="45.63919" lon="5.65155">
        <ele>214</ele>
        <time>2021-06-05T14:48:01.549Z</time>
      </trkpt>
      <trkpt lat="45.63919" lon="5.65164">
        <ele>214</ele>
        <time>2021-06-05T14:48:05.562Z</time>
      </trkpt>
      <trkpt lat="45.63918" lon="5.65175">
        <ele>214</ele>
        <time>2021-06-05T14:48:10.545Z</time>
      </trkpt>
      <trkpt lat="45.63918" lon="5.65184">
        <ele>213</ele>
        <time>2021-06-05T14:48:14.573Z</time>
      </trkpt>
      <trkpt lat="45.63918" lon="5.65195">
        <ele>213</ele>
        <time>2021-06-05T14:48:19.561Z</time>
      </trkpt>
      <trkpt lat="45.63917" lon="5.65204">
        <ele>213</ele>
        <time>2021-06-05T14:48:24.555Z</time>
      </trkpt>
      <trkpt lat="45.63918" lon="5.65214">
        <ele>214</ele>
        <time>2021-06-05T14:48:29.559Z</time>
      </trkpt>
      <trkpt lat="45.63918" lon="5.65225">
        <ele>214</ele>
        <time>2021-06-05T14:48:34.550Z</time>
      </trkpt>
      <trkpt lat="45.63917" lon="5.65235">
        <ele>214</ele>
        <time>2021-06-05T14:48:39.552Z</time>
      </trkpt>
      <trkpt lat="45.63917" lon="5.65245">
        <ele>214</ele>
        <time>2021-06-05T14:48:44.539Z</time>
      </trkpt>
      <trkpt lat="45.63918" lon="5.65256">
        <ele>214</ele>
        <time>2021-06-05T14:48:49.536Z</time>
      </trkpt>
      <trkpt lat="45.63917" lon="5.65264">
        <ele>215</ele>
        <time>2021-06-05T14:48:53.552Z</time>
      </trkpt>
      <trkpt lat="45.63915" lon="5.65275">
        <ele>215</ele>
        <time>2021-06-05T14:48:58.564Z</time>
      </trkpt>
      <trkpt lat="45.63913" lon="5.65285">
        <ele>215</ele>
        <time>2021-06-05T14:49:03.542Z</time>
      </trkpt>
      <trkpt lat="45.63911" lon="5.65299">
        <ele>214</ele>
        <time>2021-06-05T14:49:08.547Z</time>
      </trkpt>
      <trkpt lat="45.6391" lon="5.65311">
        <ele>214</ele>
        <time>2021-06-05T14:49:12.542Z</time>
      </trkpt>
      <trkpt lat="45.63911" lon="5.65324">
        <ele>214</ele>
        <time>2021-06-05T14:49:17.554Z</time>
      </trkpt>
      <trkpt lat="45.63913" lon="5.65347">
        <ele>214</ele>
        <time>2021-06-05T14:49:22.546Z</time>
      </trkpt>
      <trkpt lat="45.63915" lon="5.65378">
        <ele>213</ele>
        <time>2021-06-05T14:49:27.543Z</time>
      </trkpt>
      <trkpt lat="45.63916" lon="5.65407">
        <ele>214</ele>
        <time>2021-06-05T14:49:32.552Z</time>
      </trkpt>
      <trkpt lat="45.6392" lon="5.65437">
        <ele>216</ele>
        <time>2021-06-05T14:49:37.548Z</time>
      </trkpt>
      <trkpt lat="45.63923" lon="5.6547">
        <ele>216</ele>
        <time>2021-06-05T14:49:42.552Z</time>
      </trkpt>
      <trkpt lat="45.63928" lon="5.65503">
        <ele>215</ele>
        <time>2021-06-05T14:49:47.541Z</time>
      </trkpt>
      <trkpt lat="45.63933" lon="5.65528">
        <ele>215</ele>
        <time>2021-06-05T14:49:51.547Z</time>
      </trkpt>
      <trkpt lat="45.63938" lon="5.65558">
        <ele>216</ele>
        <time>2021-06-05T14:49:56.525Z</time>
      </trkpt>
      <trkpt lat="45.63943" lon="5.65582">
        <ele>218</ele>
        <time>2021-06-05T14:50:01.533Z</time>
      </trkpt>
      <trkpt lat="45.63947" lon="5.65602">
        <ele>218</ele>
        <time>2021-06-05T14:50:05.542Z</time>
      </trkpt>
      <trkpt lat="45.63953" lon="5.65631">
        <ele>218</ele>
        <time>2021-06-05T14:50:10.539Z</time>
      </trkpt>
      <trkpt lat="45.63958" lon="5.6566">
        <ele>218</ele>
        <time>2021-06-05T14:50:15.539Z</time>
      </trkpt>
      <trkpt lat="45.63964" lon="5.65687">
        <ele>216</ele>
        <time>2021-06-05T14:50:20.543Z</time>
      </trkpt>
      <trkpt lat="45.63968" lon="5.6571">
        <ele>215</ele>
        <time>2021-06-05T14:50:24.550Z</time>
      </trkpt>
      <trkpt lat="45.63973" lon="5.65742">
        <ele>214</ele>
        <time>2021-06-05T14:50:29.529Z</time>
      </trkpt>
      <trkpt lat="45.63977" lon="5.65766">
        <ele>214</ele>
        <time>2021-06-05T14:50:33.538Z</time>
      </trkpt>
      <trkpt lat="45.6398" lon="5.65792">
        <ele>214</ele>
        <time>2021-06-05T14:50:38.542Z</time>
      </trkpt>
      <trkpt lat="45.63984" lon="5.65822">
        <ele>214</ele>
        <time>2021-06-05T14:50:43.531Z</time>
      </trkpt>
      <trkpt lat="45.63987" lon="5.65855">
        <ele>213</ele>
        <time>2021-06-05T14:50:48.529Z</time>
      </trkpt>
      <trkpt lat="45.63987" lon="5.65886">
        <ele>214</ele>
        <time>2021-06-05T14:50:53.538Z</time>
      </trkpt>
      <trkpt lat="45.6399" lon="5.65919">
        <ele>214</ele>
        <time>2021-06-05T14:50:58.545Z</time>
      </trkpt>
      <trkpt lat="45.63991" lon="5.6595">
        <ele>215</ele>
        <time>2021-06-05T14:51:03.547Z</time>
      </trkpt>
      <trkpt lat="45.63993" lon="5.65981">
        <ele>214</ele>
        <time>2021-06-05T14:51:08.536Z</time>
      </trkpt>
      <trkpt lat="45.63995" lon="5.66001">
        <ele>214</ele>
        <time>2021-06-05T14:51:12.552Z</time>
      </trkpt>
      <trkpt lat="45.63995" lon="5.66029">
        <ele>214</ele>
        <time>2021-06-05T14:51:17.554Z</time>
      </trkpt>
      <trkpt lat="45.63995" lon="5.66059">
        <ele>214</ele>
        <time>2021-06-05T14:51:22.549Z</time>
      </trkpt>
      <trkpt lat="45.63996" lon="5.66088">
        <ele>215</ele>
        <time>2021-06-05T14:51:27.557Z</time>
      </trkpt>
      <trkpt lat="45.63997" lon="5.6611">
        <ele>216</ele>
        <time>2021-06-05T14:51:32.539Z</time>
      </trkpt>
      <trkpt lat="45.63997" lon="5.66133">
        <ele>218</ele>
        <time>2021-06-05T14:51:37.533Z</time>
      </trkpt>
      <trkpt lat="45.63996" lon="5.66148">
        <ele>218</ele>
        <time>2021-06-05T14:51:41.560Z</time>
      </trkpt>
      <trkpt lat="45.63996" lon="5.6616">
        <ele>219</ele>
        <time>2021-06-05T14:51:46.569Z</time>
      </trkpt>
      <trkpt lat="45.63995" lon="5.66172">
        <ele>219</ele>
        <time>2021-06-05T14:51:51.556Z</time>
      </trkpt>
      <trkpt lat="45.63995" lon="5.66184">
        <ele>221</ele>
        <time>2021-06-05T14:51:56.550Z</time>
      </trkpt>
      <trkpt lat="45.63996" lon="5.66195">
        <ele>221</ele>
        <time>2021-06-05T14:52:01.539Z</time>
      </trkpt>
      <trkpt lat="45.63996" lon="5.66206">
        <ele>221</ele>
        <time>2021-06-05T14:52:06.542Z</time>
      </trkpt>
      <trkpt lat="45.63996" lon="5.66216">
        <ele>221</ele>
        <time>2021-06-05T14:52:11.538Z</time>
      </trkpt>
      <trkpt lat="45.63996" lon="5.66226">
        <ele>221</ele>
        <time>2021-06-05T14:52:16.547Z</time>
      </trkpt>
      <trkpt lat="45.63995" lon="5.66234">
        <ele>221</ele>
        <time>2021-06-05T14:52:21.533Z</time>
      </trkpt>
      <trkpt lat="45.63995" lon="5.66242">
        <ele>221</ele>
        <time>2021-06-05T14:52:25.551Z</time>
      </trkpt>
      <trkpt lat="45.63995" lon="5.66252">
        <ele>221</ele>
        <time>2021-06-05T14:52:30.575Z</time>
      </trkpt>
      <trkpt lat="45.63995" lon="5.66264">
        <ele>221</ele>
        <time>2021-06-05T14:52:35.529Z</time>
      </trkpt>
      <trkpt lat="45.63995" lon="5.66272">
        <ele>221</ele>
        <time>2021-06-05T14:52:39.566Z</time>
      </trkpt>
      <trkpt lat="45.63994" lon="5.66283">
        <ele>221</ele>
        <time>2021-06-05T14:52:44.551Z</time>
      </trkpt>
      <trkpt lat="45.63994" lon="5.66292">
        <ele>221</ele>
        <time>2021-06-05T14:52:49.546Z</time>
      </trkpt>
      <trkpt lat="45.63994" lon="5.66302">
        <ele>221</ele>
        <time>2021-06-05T14:52:54.566Z</time>
      </trkpt>
      <trkpt lat="45.63994" lon="5.66313">
        <ele>221</ele>
        <time>2021-06-05T14:52:59.543Z</time>
      </trkpt>
      <trkpt lat="45.63994" lon="5.66321">
        <ele>222</ele>
        <time>2021-06-05T14:53:03.572Z</time>
      </trkpt>
      <trkpt lat="45.63994" lon="5.66331">
        <ele>222</ele>
        <time>2021-06-05T14:53:08.554Z</time>
      </trkpt>
      <trkpt lat="45.63994" lon="5.66342">
        <ele>222</ele>
        <time>2021-06-05T14:53:13.542Z</time>
      </trkpt>
      <trkpt lat="45.63994" lon="5.66351">
        <ele>222</ele>
        <time>2021-06-05T14:53:17.558Z</time>
      </trkpt>
      <trkpt lat="45.63993" lon="5.66361">
        <ele>222</ele>
        <time>2021-06-05T14:53:22.556Z</time>
      </trkpt>
      <trkpt lat="45.63994" lon="5.66372">
        <ele>222</ele>
        <time>2021-06-05T14:53:27.535Z</time>
      </trkpt>
      <trkpt lat="45.63994" lon="5.66383">
        <ele>222</ele>
        <time>2021-06-05T14:53:32.534Z</time>
      </trkpt>
      <trkpt lat="45.63995" lon="5.66394">
        <ele>222</ele>
        <time>2021-06-05T14:53:37.553Z</time>
      </trkpt>
      <trkpt lat="45.63996" lon="5.66405">
        <ele>220</ele>
        <time>2021-06-05T14:53:42.552Z</time>
      </trkpt>
      <trkpt lat="45.63996" lon="5.66408">
        <ele>220</ele>
        <time>2021-06-05T14:53:47.558Z</time>
      </trkpt>
      <trkpt lat="45.63996" lon="5.66411">
        <ele>220</ele>
        <time>2021-06-05T14:53:52.549Z</time>
      </trkpt>
      <trkpt lat="45.63995" lon="5.66424">
        <ele>220</ele>
        <time>2021-06-05T14:53:57.553Z</time>
      </trkpt>
      <trkpt lat="45.63995" lon="5.66439">
        <ele>219</ele>
        <time>2021-06-05T14:54:02.556Z</time>
      </trkpt>
      <trkpt lat="45.63995" lon="5.66456">
        <ele>219</ele>
        <time>2021-06-05T14:54:07.552Z</time>
      </trkpt>
      <trkpt lat="45.63995" lon="5.6647">
        <ele>218</ele>
        <time>2021-06-05T14:54:12.541Z</time>
      </trkpt>
      <trkpt lat="45.63994" lon="5.66489">
        <ele>218</ele>
        <time>2021-06-05T14:54:17.540Z</time>
      </trkpt>
      <trkpt lat="45.63993" lon="5.66515">
        <ele>217</ele>
        <time>2021-06-05T14:54:22.564Z</time>
      </trkpt>
      <trkpt lat="45.63992" lon="5.66547">
        <ele>217</ele>
        <time>2021-06-05T14:54:27.559Z</time>
      </trkpt>
      <trkpt lat="45.63991" lon="5.66582">
        <ele>217</ele>
        <time>2021-06-05T14:54:32.553Z</time>
      </trkpt>
      <trkpt lat="45.63989" lon="5.66619">
        <ele>217</ele>
        <time>2021-06-05T14:54:37.546Z</time>
      </trkpt>
      <trkpt lat="45.63986" lon="5.6665">
        <ele>218</ele>
        <time>2021-06-05T14:54:41.557Z</time>
      </trkpt>
      <trkpt lat="45.63984" lon="5.66688">
        <ele>218</ele>
        <time>2021-06-05T14:54:46.536Z</time>
      </trkpt>
      <trkpt lat="45.63983" lon="5.66718">
        <ele>218</ele>
        <time>2021-06-05T14:54:50.555Z</time>
      </trkpt>
      <trkpt lat="45.63982" lon="5.6675">
        <ele>217</ele>
        <time>2021-06-05T14:54:55.533Z</time>
      </trkpt>
      <trkpt lat="45.63981" lon="5.66778">
        <ele>217</ele>
        <time>2021-06-05T14:55:00.570Z</time>
      </trkpt>
      <trkpt lat="45.6398" lon="5.66807">
        <ele>218</ele>
        <time>2021-06-05T14:55:05.538Z</time>
      </trkpt>
      <trkpt lat="45.6398" lon="5.66832">
        <ele>219</ele>
        <time>2021-06-05T14:55:09.544Z</time>
      </trkpt>
      <trkpt lat="45.6398" lon="5.66861">
        <ele>219</ele>
        <time>2021-06-05T14:55:14.563Z</time>
      </trkpt>
      <trkpt lat="45.6398" lon="5.66891">
        <ele>219</ele>
        <time>2021-06-05T14:55:19.554Z</time>
      </trkpt>
      <trkpt lat="45.6398" lon="5.66916">
        <ele>218</ele>
        <time>2021-06-05T14:55:23.576Z</time>
      </trkpt>
      <trkpt lat="45.63979" lon="5.66948">
        <ele>217</ele>
        <time>2021-06-05T14:55:28.550Z</time>
      </trkpt>
      <trkpt lat="45.63979" lon="5.66976">
        <ele>216</ele>
        <time>2021-06-05T14:55:33.555Z</time>
      </trkpt>
      <trkpt lat="45.63979" lon="5.67">
        <ele>216</ele>
        <time>2021-06-05T14:55:37.553Z</time>
      </trkpt>
      <trkpt lat="45.63978" lon="5.67031">
        <ele>216</ele>
        <time>2021-06-05T14:55:42.545Z</time>
      </trkpt>
      <trkpt lat="45.63977" lon="5.67059">
        <ele>215</ele>
        <time>2021-06-05T14:55:47.554Z</time>
      </trkpt>
      <trkpt lat="45.63976" lon="5.67093">
        <ele>215</ele>
        <time>2021-06-05T14:55:52.549Z</time>
      </trkpt>
      <trkpt lat="45.63977" lon="5.67122">
        <ele>214</ele>
        <time>2021-06-05T14:55:57.555Z</time>
      </trkpt>
      <trkpt lat="45.63977" lon="5.67152">
        <ele>214</ele>
        <time>2021-06-05T14:56:02.549Z</time>
      </trkpt>
      <trkpt lat="45.63976" lon="5.67184">
        <ele>215</ele>
        <time>2021-06-05T14:56:07.550Z</time>
      </trkpt>
      <trkpt lat="45.63976" lon="5.67215">
        <ele>215</ele>
        <time>2021-06-05T14:56:12.534Z</time>
      </trkpt>
      <trkpt lat="45.63977" lon="5.67243">
        <ele>214</ele>
        <time>2021-06-05T14:56:17.542Z</time>
      </trkpt>
      <trkpt lat="45.63977" lon="5.67271">
        <ele>214</ele>
        <time>2021-06-05T14:56:22.549Z</time>
      </trkpt>
      <trkpt lat="45.63978" lon="5.67295">
        <ele>215</ele>
        <time>2021-06-05T14:56:26.581Z</time>
      </trkpt>
      <trkpt lat="45.63978" lon="5.67324">
        <ele>215</ele>
        <time>2021-06-05T14:56:31.559Z</time>
      </trkpt>
      <trkpt lat="45.63978" lon="5.67357">
        <ele>214</ele>
        <time>2021-06-05T14:56:36.555Z</time>
      </trkpt>
      <trkpt lat="45.6398" lon="5.67396">
        <ele>214</ele>
        <time>2021-06-05T14:56:41.554Z</time>
      </trkpt>
      <trkpt lat="45.63984" lon="5.67435">
        <ele>215</ele>
        <time>2021-06-05T14:56:46.555Z</time>
      </trkpt>
      <trkpt lat="45.63987" lon="5.67472">
        <ele>215</ele>
        <time>2021-06-05T14:56:51.562Z</time>
      </trkpt>
      <trkpt lat="45.63991" lon="5.67508">
        <ele>215</ele>
        <time>2021-06-05T14:56:56.554Z</time>
      </trkpt>
      <trkpt lat="45.63996" lon="5.67544">
        <ele>214</ele>
        <time>2021-06-05T14:57:01.555Z</time>
      </trkpt>
      <trkpt lat="45.64002" lon="5.67583">
        <ele>214</ele>
        <time>2021-06-05T14:57:06.552Z</time>
      </trkpt>
      <trkpt lat="45.64009" lon="5.67623">
        <ele>214</ele>
        <time>2021-06-05T14:57:11.549Z</time>
      </trkpt>
      <trkpt lat="45.64019" lon="5.67661">
        <ele>215</ele>
        <time>2021-06-05T14:57:16.550Z</time>
      </trkpt>
      <trkpt lat="45.64026" lon="5.67695">
        <ele>215</ele>
        <time>2021-06-05T14:57:21.553Z</time>
      </trkpt>
      <trkpt lat="45.64034" lon="5.6773">
        <ele>214</ele>
        <time>2021-06-05T14:57:26.551Z</time>
      </trkpt>
      <trkpt lat="45.64044" lon="5.67765">
        <ele>214</ele>
        <time>2021-06-05T14:57:31.547Z</time>
      </trkpt>
      <trkpt lat="45.64055" lon="5.67804">
        <ele>215</ele>
        <time>2021-06-05T14:57:36.551Z</time>
      </trkpt>
      <trkpt lat="45.64067" lon="5.67839">
        <ele>216</ele>
        <time>2021-06-05T14:57:41.558Z</time>
      </trkpt>
      <trkpt lat="45.64072" lon="5.67855">
        <ele>215</ele>
        <time>2021-06-05T14:57:46.548Z</time>
      </trkpt>
      <trkpt lat="45.64075" lon="5.67866">
        <ele>215</ele>
        <time>2021-06-05T14:57:51.544Z</time>
      </trkpt>
      <trkpt lat="45.64078" lon="5.67877">
        <ele>215</ele>
        <time>2021-06-05T14:57:56.547Z</time>
      </trkpt>
      <trkpt lat="45.6408" lon="5.67886">
        <ele>215</ele>
        <time>2021-06-05T14:58:01.535Z</time>
      </trkpt>
      <trkpt lat="45.64083" lon="5.67895">
        <ele>215</ele>
        <time>2021-06-05T14:58:06.549Z</time>
      </trkpt>
      <trkpt lat="45.64085" lon="5.67901">
        <ele>215</ele>
        <time>2021-06-05T14:58:10.560Z</time>
      </trkpt>
      <trkpt lat="45.64085" lon="5.67903">
        <ele>215</ele>
        <time>2021-06-05T14:58:15.547Z</time>
      </trkpt>
      <trkpt lat="45.64087" lon="5.67905">
        <ele>216</ele>
        <time>2021-06-05T14:58:24.550Z</time>
      </trkpt>
      <trkpt lat="45.64095" lon="5.67899">
        <ele>215</ele>
        <time>2021-06-05T14:58:29.542Z</time>
      </trkpt>
      <trkpt lat="45.641" lon="5.67895">
        <ele>214</ele>
        <time>2021-06-05T14:58:33.553Z</time>
      </trkpt>
      <trkpt lat="45.64108" lon="5.67894">
        <ele>214</ele>
        <time>2021-06-05T14:58:38.545Z</time>
      </trkpt>
      <trkpt lat="45.64116" lon="5.67893">
        <ele>214</ele>
        <time>2021-06-05T14:58:43.545Z</time>
      </trkpt>
      <trkpt lat="45.64124" lon="5.67894">
        <ele>214</ele>
        <time>2021-06-05T14:58:48.554Z</time>
      </trkpt>
      <trkpt lat="45.64131" lon="5.67894">
        <ele>213</ele>
        <time>2021-06-05T14:58:53.540Z</time>
      </trkpt>
      <trkpt lat="45.64136" lon="5.67895">
        <ele>213</ele>
        <time>2021-06-05T14:58:57.551Z</time>
      </trkpt>
      <trkpt lat="45.64143" lon="5.67894">
        <ele>213</ele>
        <time>2021-06-05T14:59:01.556Z</time>
      </trkpt>
      <trkpt lat="45.6415" lon="5.67896">
        <ele>213</ele>
        <time>2021-06-05T14:59:06.539Z</time>
      </trkpt>
      <trkpt lat="45.64158" lon="5.67895">
        <ele>213</ele>
        <time>2021-06-05T14:59:11.535Z</time>
      </trkpt>
      <trkpt lat="45.64165" lon="5.67896">
        <ele>213</ele>
        <time>2021-06-05T14:59:16.534Z</time>
      </trkpt>
      <trkpt lat="45.64172" lon="5.67897">
        <ele>213</ele>
        <time>2021-06-05T14:59:21.539Z</time>
      </trkpt>
      <trkpt lat="45.6418" lon="5.67896">
        <ele>213</ele>
        <time>2021-06-05T14:59:26.553Z</time>
      </trkpt>
      <trkpt lat="45.64188" lon="5.67897">
        <ele>214</ele>
        <time>2021-06-05T14:59:31.543Z</time>
      </trkpt>
      <trkpt lat="45.64195" lon="5.67897">
        <ele>214</ele>
        <time>2021-06-05T14:59:36.545Z</time>
      </trkpt>
      <trkpt lat="45.64203" lon="5.67896">
        <ele>214</ele>
        <time>2021-06-05T14:59:41.540Z</time>
      </trkpt>
      <trkpt lat="45.64208" lon="5.67897">
        <ele>214</ele>
        <time>2021-06-05T14:59:46.545Z</time>
      </trkpt>
      <trkpt lat="45.64215" lon="5.67897">
        <ele>216</ele>
        <time>2021-06-05T14:59:51.569Z</time>
      </trkpt>
      <trkpt lat="45.64218" lon="5.67897">
        <ele>216</ele>
        <time>2021-06-05T14:59:56.554Z</time>
      </trkpt>
      <trkpt lat="45.64224" lon="5.67896">
        <ele>216</ele>
        <time>2021-06-05T15:00:05.554Z</time>
      </trkpt>
      <trkpt lat="45.64231" lon="5.67892">
        <ele>216</ele>
        <time>2021-06-05T15:00:10.585Z</time>
      </trkpt>
      <trkpt lat="45.64236" lon="5.67888">
        <ele>216</ele>
        <time>2021-06-05T15:00:15.575Z</time>
      </trkpt>
      <trkpt lat="45.64243" lon="5.67885">
        <ele>216</ele>
        <time>2021-06-05T15:00:20.548Z</time>
      </trkpt>
      <trkpt lat="45.6425" lon="5.67883">
        <ele>216</ele>
        <time>2021-06-05T15:00:25.556Z</time>
      </trkpt>
      <trkpt lat="45.64256" lon="5.67882">
        <ele>216</ele>
        <time>2021-06-05T15:00:30.532Z</time>
      </trkpt>
      <trkpt lat="45.64261" lon="5.67883">
        <ele>216</ele>
        <time>2021-06-05T15:00:34.549Z</time>
      </trkpt>
      <trkpt lat="45.64268" lon="5.67884">
        <ele>217</ele>
        <time>2021-06-05T15:00:39.554Z</time>
      </trkpt>
      <trkpt lat="45.64276" lon="5.67885">
        <ele>217</ele>
        <time>2021-06-05T15:00:44.540Z</time>
      </trkpt>
      <trkpt lat="45.64282" lon="5.67886">
        <ele>217</ele>
        <time>2021-06-05T15:00:48.546Z</time>
      </trkpt>
      <trkpt lat="45.6429" lon="5.67888">
        <ele>217</ele>
        <time>2021-06-05T15:00:53.553Z</time>
      </trkpt>
      <trkpt lat="45.64298" lon="5.67889">
        <ele>219</ele>
        <time>2021-06-05T15:00:58.556Z</time>
      </trkpt>
      <trkpt lat="45.64306" lon="5.67888">
        <ele>219</ele>
        <time>2021-06-05T15:01:03.552Z</time>
      </trkpt>
      <trkpt lat="45.64311" lon="5.67886">
        <ele>219</ele>
        <time>2021-06-05T15:01:08.546Z</time>
      </trkpt>
      <trkpt lat="45.64317" lon="5.67888">
        <ele>219</ele>
        <time>2021-06-05T15:01:13.538Z</time>
      </trkpt>
      <trkpt lat="45.64324" lon="5.67888">
        <ele>222</ele>
        <time>2021-06-05T15:01:18.550Z</time>
      </trkpt>
      <trkpt lat="45.64329" lon="5.67896">
        <ele>222</ele>
        <time>2021-06-05T15:01:23.551Z</time>
      </trkpt>
      <trkpt lat="45.64333" lon="5.67901">
        <ele>222</ele>
        <time>2021-06-05T15:01:28.556Z</time>
      </trkpt>
      <trkpt lat="45.64339" lon="5.67898">
        <ele>222</ele>
        <time>2021-06-05T15:01:33.554Z</time>
      </trkpt>
      <trkpt lat="45.64345" lon="5.67893">
        <ele>222</ele>
        <time>2021-06-05T15:01:38.537Z</time>
      </trkpt>
      <trkpt lat="45.64351" lon="5.6789">
        <ele>225</ele>
        <time>2021-06-05T15:01:42.555Z</time>
      </trkpt>
      <trkpt lat="45.64359" lon="5.67882">
        <ele>225</ele>
        <time>2021-06-05T15:01:47.553Z</time>
      </trkpt>
      <trkpt lat="45.64365" lon="5.67875">
        <ele>224</ele>
        <time>2021-06-05T15:01:52.548Z</time>
      </trkpt>
      <trkpt lat="45.6437" lon="5.67868">
        <ele>224</ele>
        <time>2021-06-05T15:01:57.543Z</time>
      </trkpt>
      <trkpt lat="45.64375" lon="5.67862">
        <ele>226</ele>
        <time>2021-06-05T15:02:02.540Z</time>
      </trkpt>
      <trkpt lat="45.64382" lon="5.67857">
        <ele>226</ele>
        <time>2021-06-05T15:02:07.545Z</time>
      </trkpt>
      <trkpt lat="45.6439" lon="5.67852">
        <ele>226</ele>
        <time>2021-06-05T15:02:12.564Z</time>
      </trkpt>
      <trkpt lat="45.64394" lon="5.67849">
        <ele>226</ele>
        <time>2021-06-05T15:02:17.544Z</time>
      </trkpt>
      <trkpt lat="45.64399" lon="5.67843">
        <ele>224</ele>
        <time>2021-06-05T15:02:22.540Z</time>
      </trkpt>
      <trkpt lat="45.64401" lon="5.67836">
        <ele>224</ele>
        <time>2021-06-05T15:02:26.548Z</time>
      </trkpt>
      <trkpt lat="45.64403" lon="5.67821">
        <ele>228</ele>
        <time>2021-06-05T15:02:31.537Z</time>
      </trkpt>
      <trkpt lat="45.64406" lon="5.6781">
        <ele>227</ele>
        <time>2021-06-05T15:02:36.546Z</time>
      </trkpt>
      <trkpt lat="45.64406" lon="5.67802">
        <ele>227</ele>
        <time>2021-06-05T15:02:41.544Z</time>
      </trkpt>
      <trkpt lat="45.64406" lon="5.67793">
        <ele>227</ele>
        <time>2021-06-05T15:02:45.558Z</time>
      </trkpt>
      <trkpt lat="45.64407" lon="5.67784">
        <ele>227</ele>
        <time>2021-06-05T15:02:50.551Z</time>
      </trkpt>
      <trkpt lat="45.64406" lon="5.67776">
        <ele>227</ele>
        <time>2021-06-05T15:02:55.538Z</time>
      </trkpt>
      <trkpt lat="45.64406" lon="5.67771">
        <ele>227</ele>
        <time>2021-06-05T15:03:00.529Z</time>
      </trkpt>
      <trkpt lat="45.64405" lon="5.67769">
        <ele>227</ele>
        <time>2021-06-05T15:03:05.542Z</time>
      </trkpt>
      <trkpt lat="45.64406" lon="5.67762">
        <ele>227</ele>
        <time>2021-06-05T15:03:09.554Z</time>
      </trkpt>
      <trkpt lat="45.64409" lon="5.67752">
        <ele>227</ele>
        <time>2021-06-05T15:03:14.537Z</time>
      </trkpt>
      <trkpt lat="45.64411" lon="5.67746">
        <ele>227</ele>
        <time>2021-06-05T15:03:18.548Z</time>
      </trkpt>
      <trkpt lat="45.64416" lon="5.67738">
        <ele>227</ele>
        <time>2021-06-05T15:03:23.551Z</time>
      </trkpt>
      <trkpt lat="45.6442" lon="5.67729">
        <ele>227</ele>
        <time>2021-06-05T15:03:28.545Z</time>
      </trkpt>
      <trkpt lat="45.64425" lon="5.67721">
        <ele>227</ele>
        <time>2021-06-05T15:03:33.558Z</time>
      </trkpt>
      <trkpt lat="45.64433" lon="5.67713">
        <ele>230</ele>
        <time>2021-06-05T15:03:38.541Z</time>
      </trkpt>
      <trkpt lat="45.64439" lon="5.67706">
        <ele>229</ele>
        <time>2021-06-05T15:03:43.540Z</time>
      </trkpt>
      <trkpt lat="45.64446" lon="5.67699">
        <ele>229</ele>
        <time>2021-06-05T15:03:48.548Z</time>
      </trkpt>
      <trkpt lat="45.64451" lon="5.67689">
        <ele>229</ele>
        <time>2021-06-05T15:03:53.546Z</time>
      </trkpt>
      <trkpt lat="45.64454" lon="5.67681">
        <ele>229</ele>
        <time>2021-06-05T15:03:58.537Z</time>
      </trkpt>
      <trkpt lat="45.64456" lon="5.67675">
        <ele>229</ele>
        <time>2021-06-05T15:04:03.541Z</time>
      </trkpt>
      <trkpt lat="45.64461" lon="5.6767">
        <ele>231</ele>
        <time>2021-06-05T15:04:08.537Z</time>
      </trkpt>
      <trkpt lat="45.64465" lon="5.67664">
        <ele>231</ele>
        <time>2021-06-05T15:04:12.547Z</time>
      </trkpt>
      <trkpt lat="45.64473" lon="5.6766">
        <ele>231</ele>
        <time>2021-06-05T15:04:17.545Z</time>
      </trkpt>
      <trkpt lat="45.64481" lon="5.67655">
        <ele>231</ele>
        <time>2021-06-05T15:04:22.546Z</time>
      </trkpt>
      <trkpt lat="45.64487" lon="5.67652">
        <ele>235</ele>
        <time>2021-06-05T15:04:26.554Z</time>
      </trkpt>
      <trkpt lat="45.64493" lon="5.6765">
        <ele>235</ele>
        <time>2021-06-05T15:04:31.530Z</time>
      </trkpt>
      <trkpt lat="45.64499" lon="5.67646">
        <ele>235</ele>
        <time>2021-06-05T15:04:35.546Z</time>
      </trkpt>
      <trkpt lat="45.64505" lon="5.67641">
        <ele>235</ele>
        <time>2021-06-05T15:04:40.551Z</time>
      </trkpt>
      <trkpt lat="45.6451" lon="5.67635">
        <ele>235</ele>
        <time>2021-06-05T15:04:45.565Z</time>
      </trkpt>
      <trkpt lat="45.64517" lon="5.6763">
        <ele>240</ele>
        <time>2021-06-05T15:04:50.530Z</time>
      </trkpt>
      <trkpt lat="45.64521" lon="5.67622">
        <ele>238</ele>
        <time>2021-06-05T15:04:54.548Z</time>
      </trkpt>
      <trkpt lat="45.64527" lon="5.67615">
        <ele>238</ele>
        <time>2021-06-05T15:04:59.549Z</time>
      </trkpt>
      <trkpt lat="45.64534" lon="5.67609">
        <ele>238</ele>
        <time>2021-06-05T15:05:04.549Z</time>
      </trkpt>
      <trkpt lat="45.64541" lon="5.67604">
        <ele>238</ele>
        <time>2021-06-05T15:05:09.534Z</time>
      </trkpt>
      <trkpt lat="45.64547" lon="5.67602">
        <ele>242</ele>
        <time>2021-06-05T15:05:13.558Z</time>
      </trkpt>
      <trkpt lat="45.64554" lon="5.67597">
        <ele>242</ele>
        <time>2021-06-05T15:05:18.547Z</time>
      </trkpt>
      <trkpt lat="45.64562" lon="5.67596">
        <ele>240</ele>
        <time>2021-06-05T15:05:23.563Z</time>
      </trkpt>
      <trkpt lat="45.64569" lon="5.67594">
        <ele>240</ele>
        <time>2021-06-05T15:05:28.548Z</time>
      </trkpt>
      <trkpt lat="45.64573" lon="5.6759">
        <ele>243</ele>
        <time>2021-06-05T15:05:32.560Z</time>
      </trkpt>
      <trkpt lat="45.64579" lon="5.67585">
        <ele>243</ele>
        <time>2021-06-05T15:05:37.548Z</time>
      </trkpt>
      <trkpt lat="45.64584" lon="5.67579">
        <ele>243</ele>
        <time>2021-06-05T15:05:42.544Z</time>
      </trkpt>
      <trkpt lat="45.64589" lon="5.67572">
        <ele>243</ele>
        <time>2021-06-05T15:05:47.541Z</time>
      </trkpt>
      <trkpt lat="45.64598" lon="5.67565">
        <ele>241</ele>
        <time>2021-06-05T15:05:52.530Z</time>
      </trkpt>
      <trkpt lat="45.64606" lon="5.6756">
        <ele>241</ele>
        <time>2021-06-05T15:05:57.538Z</time>
      </trkpt>
      <trkpt lat="45.64614" lon="5.67554">
        <ele>241</ele>
        <time>2021-06-05T15:06:02.539Z</time>
      </trkpt>
      <trkpt lat="45.64622" lon="5.67548">
        <ele>241</ele>
        <time>2021-06-05T15:06:07.540Z</time>
      </trkpt>
      <trkpt lat="45.64629" lon="5.67544">
        <ele>240</ele>
        <time>2021-06-05T15:06:12.553Z</time>
      </trkpt>
      <trkpt lat="45.64634" lon="5.67541">
        <ele>241</ele>
        <time>2021-06-05T15:06:17.540Z</time>
      </trkpt>
      <trkpt lat="45.64639" lon="5.67538">
        <ele>241</ele>
        <time>2021-06-05T15:06:22.540Z</time>
      </trkpt>
      <trkpt lat="45.64646" lon="5.67531">
        <ele>241</ele>
        <time>2021-06-05T15:06:27.535Z</time>
      </trkpt>
      <trkpt lat="45.6465" lon="5.67524">
        <ele>241</ele>
        <time>2021-06-05T15:06:32.540Z</time>
      </trkpt>
      <trkpt lat="45.64656" lon="5.67516">
        <ele>244</ele>
        <time>2021-06-05T15:06:37.536Z</time>
      </trkpt>
      <trkpt lat="45.64663" lon="5.67511">
        <ele>245</ele>
        <time>2021-06-05T15:06:42.544Z</time>
      </trkpt>
      <trkpt lat="45.6467" lon="5.6751">
        <ele>245</ele>
        <time>2021-06-05T15:06:47.529Z</time>
      </trkpt>
      <trkpt lat="45.64677" lon="5.67506">
        <ele>245</ele>
        <time>2021-06-05T15:06:51.543Z</time>
      </trkpt>
      <trkpt lat="45.64683" lon="5.67502">
        <ele>247</ele>
        <time>2021-06-05T15:06:56.537Z</time>
      </trkpt>
      <trkpt lat="45.64687" lon="5.675">
        <ele>247</ele>
        <time>2021-06-05T15:07:01.532Z</time>
      </trkpt>
      <trkpt lat="45.64693" lon="5.67497">
        <ele>247</ele>
        <time>2021-06-05T15:07:06.531Z</time>
      </trkpt>
      <trkpt lat="45.64696" lon="5.67494">
        <ele>247</ele>
        <time>2021-06-05T15:07:10.536Z</time>
      </trkpt>
      <trkpt lat="45.647" lon="5.67491">
        <ele>247</ele>
        <time>2021-06-05T15:07:14.549Z</time>
      </trkpt>
      <trkpt lat="45.64709" lon="5.6748">
        <ele>242</ele>
        <time>2021-06-05T15:07:19.550Z</time>
      </trkpt>
      <trkpt lat="45.64714" lon="5.67471">
        <ele>242</ele>
        <time>2021-06-05T15:07:24.539Z</time>
      </trkpt>
      <trkpt lat="45.64717" lon="5.67464">
        <ele>242</ele>
        <time>2021-06-05T15:07:29.545Z</time>
      </trkpt>
      <trkpt lat="45.6472" lon="5.67456">
        <ele>238</ele>
        <time>2021-06-05T15:07:34.545Z</time>
      </trkpt>
      <trkpt lat="45.64721" lon="5.67441">
        <ele>238</ele>
        <time>2021-06-05T15:07:39.537Z</time>
      </trkpt>
      <trkpt lat="45.64718" lon="5.67431">
        <ele>238</ele>
        <time>2021-06-05T15:07:44.535Z</time>
      </trkpt>
      <trkpt lat="45.64713" lon="5.67423">
        <ele>234</ele>
        <time>2021-06-05T15:07:49.545Z</time>
      </trkpt>
      <trkpt lat="45.64708" lon="5.67415">
        <ele>241</ele>
        <time>2021-06-05T15:07:54.536Z</time>
      </trkpt>
      <trkpt lat="45.64706" lon="5.67413">
        <ele>241</ele>
        <time>2021-06-05T15:07:59.532Z</time>
      </trkpt>
      <trkpt lat="45.64706" lon="5.67413">
        <ele>241</ele>
        <time>2021-06-05T15:08:03.547Z</time>
      </trkpt>
      <trkpt lat="45.64701" lon="5.67406">
        <ele>241</ele>
        <time>2021-06-05T15:08:08.534Z</time>
      </trkpt>
      <trkpt lat="45.64696" lon="5.67401">
        <ele>236</ele>
        <time>2021-06-05T15:08:13.536Z</time>
      </trkpt>
      <trkpt lat="45.64692" lon="5.67398">
        <ele>236</ele>
        <time>2021-06-05T15:08:18.539Z</time>
      </trkpt>
      <trkpt lat="45.64694" lon="5.67396">
        <ele>236</ele>
        <time>2021-06-05T15:08:23.539Z</time>
      </trkpt>
      <trkpt lat="45.64699" lon="5.67396">
        <ele>236</ele>
        <time>2021-06-05T15:08:28.534Z</time>
      </trkpt>
      <trkpt lat="45.64707" lon="5.67399">
        <ele>236</ele>
        <time>2021-06-05T15:08:33.544Z</time>
      </trkpt>
      <trkpt lat="45.64716" lon="5.67404">
        <ele>234</ele>
        <time>2021-06-05T15:08:38.521Z</time>
      </trkpt>
      <trkpt lat="45.64724" lon="5.67406">
        <ele>234</ele>
        <time>2021-06-05T15:08:43.535Z</time>
      </trkpt>
      <trkpt lat="45.64737" lon="5.67409">
        <ele>232</ele>
        <time>2021-06-05T15:08:48.535Z</time>
      </trkpt>
      <trkpt lat="45.64743" lon="5.67412">
        <ele>232</ele>
        <time>2021-06-05T15:08:53.527Z</time>
      </trkpt>
      <trkpt lat="45.64751" lon="5.67413">
        <ele>232</ele>
        <time>2021-06-05T15:08:57.539Z</time>
      </trkpt>
      <trkpt lat="45.6476" lon="5.67415">
        <ele>232</ele>
        <time>2021-06-05T15:09:02.541Z</time>
      </trkpt>
      <trkpt lat="45.6477" lon="5.67419">
        <ele>233</ele>
        <time>2021-06-05T15:09:07.530Z</time>
      </trkpt>
      <trkpt lat="45.64776" lon="5.67422">
        <ele>233</ele>
        <time>2021-06-05T15:09:11.543Z</time>
      </trkpt>
      <trkpt lat="45.64783" lon="5.67425">
        <ele>233</ele>
        <time>2021-06-05T15:09:16.546Z</time>
      </trkpt>
      <trkpt lat="45.6479" lon="5.67428">
        <ele>233</ele>
        <time>2021-06-05T15:09:21.547Z</time>
      </trkpt>
      <trkpt lat="45.64796" lon="5.67432">
        <ele>234</ele>
        <time>2021-06-05T15:09:26.541Z</time>
      </trkpt>
      <trkpt lat="45.64802" lon="5.67436">
        <ele>234</ele>
        <time>2021-06-05T15:09:31.544Z</time>
      </trkpt>
      <trkpt lat="45.64808" lon="5.67438">
        <ele>234</ele>
        <time>2021-06-05T15:09:36.538Z</time>
      </trkpt>
      <trkpt lat="45.64815" lon="5.67441">
        <ele>234</ele>
        <time>2021-06-05T15:09:41.530Z</time>
      </trkpt>
      <trkpt lat="45.64823" lon="5.67446">
        <ele>233</ele>
        <time>2021-06-05T15:09:46.536Z</time>
      </trkpt>
      <trkpt lat="45.64828" lon="5.67448">
        <ele>233</ele>
        <time>2021-06-05T15:09:50.551Z</time>
      </trkpt>
      <trkpt lat="45.64834" lon="5.67451">
        <ele>233</ele>
        <time>2021-06-05T15:09:55.538Z</time>
      </trkpt>
      <trkpt lat="45.64843" lon="5.67455">
        <ele>233</ele>
        <time>2021-06-05T15:10:00.538Z</time>
      </trkpt>
      <trkpt lat="45.64849" lon="5.67457">
        <ele>231</ele>
        <time>2021-06-05T15:10:05.532Z</time>
      </trkpt>
      <trkpt lat="45.64855" lon="5.67459">
        <ele>229</ele>
        <time>2021-06-05T15:10:09.545Z</time>
      </trkpt>
      <trkpt lat="45.64861" lon="5.67463">
        <ele>229</ele>
        <time>2021-06-05T15:10:14.539Z</time>
      </trkpt>
      <trkpt lat="45.64867" lon="5.67465">
        <ele>229</ele>
        <time>2021-06-05T15:10:19.528Z</time>
      </trkpt>
      <trkpt lat="45.64872" lon="5.67468">
        <ele>229</ele>
        <time>2021-06-05T15:10:23.536Z</time>
      </trkpt>
      <trkpt lat="45.6488" lon="5.67471">
        <ele>228</ele>
        <time>2021-06-05T15:10:28.532Z</time>
      </trkpt>
      <trkpt lat="45.64887" lon="5.67474">
        <ele>228</ele>
        <time>2021-06-05T15:10:32.540Z</time>
      </trkpt>
      <trkpt lat="45.64892" lon="5.67478">
        <ele>228</ele>
        <time>2021-06-05T15:10:37.533Z</time>
      </trkpt>
      <trkpt lat="45.64898" lon="5.67482">
        <ele>228</ele>
        <time>2021-06-05T15:10:42.529Z</time>
      </trkpt>
      <trkpt lat="45.64903" lon="5.67487">
        <ele>228</ele>
        <time>2021-06-05T15:10:46.549Z</time>
      </trkpt>
      <trkpt lat="45.6491" lon="5.67491">
        <ele>228</ele>
        <time>2021-06-05T15:10:51.534Z</time>
      </trkpt>
      <trkpt lat="45.64916" lon="5.67496">
        <ele>228</ele>
        <time>2021-06-05T15:10:56.530Z</time>
      </trkpt>
      <trkpt lat="45.64923" lon="5.67501">
        <ele>228</ele>
        <time>2021-06-05T15:11:01.553Z</time>
      </trkpt>
      <trkpt lat="45.64929" lon="5.67507">
        <ele>228</ele>
        <time>2021-06-05T15:11:06.539Z</time>
      </trkpt>
      <trkpt lat="45.64934" lon="5.67514">
        <ele>227</ele>
        <time>2021-06-05T15:11:11.535Z</time>
      </trkpt>
      <trkpt lat="45.64943" lon="5.6752">
        <ele>232</ele>
        <time>2021-06-05T15:11:16.534Z</time>
      </trkpt>
      <trkpt lat="45.64951" lon="5.67527">
        <ele>232</ele>
        <time>2021-06-05T15:11:21.531Z</time>
      </trkpt>
      <trkpt lat="45.64957" lon="5.6753">
        <ele>232</ele>
        <time>2021-06-05T15:11:25.540Z</time>
      </trkpt>
      <trkpt lat="45.64962" lon="5.67535">
        <ele>230</ele>
        <time>2021-06-05T15:11:30.537Z</time>
      </trkpt>
      <trkpt lat="45.64965" lon="5.67537">
        <ele>230</ele>
        <time>2021-06-05T15:11:35.539Z</time>
      </trkpt>
      <trkpt lat="45.64967" lon="5.67541">
        <ele>230</ele>
        <time>2021-06-05T15:11:39.545Z</time>
      </trkpt>
      <trkpt lat="45.64972" lon="5.67548">
        <ele>233</ele>
        <time>2021-06-05T15:11:44.534Z</time>
      </trkpt>
      <trkpt lat="45.64977" lon="5.67554">
        <ele>233</ele>
        <time>2021-06-05T15:11:49.541Z</time>
      </trkpt>
      <trkpt lat="45.64982" lon="5.67561">
        <ele>233</ele>
        <time>2021-06-05T15:11:54.540Z</time>
      </trkpt>
      <trkpt lat="45.64986" lon="5.67565">
        <ele>233</ele>
        <time>2021-06-05T15:11:58.548Z</time>
      </trkpt>
      <trkpt lat="45.6499" lon="5.67569">
        <ele>229</ele>
        <time>2021-06-05T15:12:03.544Z</time>
      </trkpt>
      <trkpt lat="45.64994" lon="5.67577">
        <ele>231</ele>
        <time>2021-06-05T15:12:08.544Z</time>
      </trkpt>
      <trkpt lat="45.64999" lon="5.67585">
        <ele>231</ele>
        <time>2021-06-05T15:12:13.534Z</time>
      </trkpt>
      <trkpt lat="45.65002" lon="5.67591">
        <ele>231</ele>
        <time>2021-06-05T15:12:17.544Z</time>
      </trkpt>
      <trkpt lat="45.65008" lon="5.676">
        <ele>234</ele>
        <time>2021-06-05T15:12:22.532Z</time>
      </trkpt>
      <trkpt lat="45.65013" lon="5.67608">
        <ele>234</ele>
        <time>2021-06-05T15:12:27.539Z</time>
      </trkpt>
      <trkpt lat="45.65019" lon="5.67617">
        <ele>226</ele>
        <time>2021-06-05T15:12:32.533Z</time>
      </trkpt>
      <trkpt lat="45.65024" lon="5.67623">
        <ele>226</ele>
        <time>2021-06-05T15:12:36.542Z</time>
      </trkpt>
      <trkpt lat="45.65029" lon="5.67634">
        <ele>229</ele>
        <time>2021-06-05T15:12:41.532Z</time>
      </trkpt>
      <trkpt lat="45.65033" lon="5.67641">
        <ele>229</ele>
        <time>2021-06-05T15:12:45.550Z</time>
      </trkpt>
      <trkpt lat="45.65037" lon="5.67651">
        <ele>229</ele>
        <time>2021-06-05T15:12:50.540Z</time>
      </trkpt>
      <trkpt lat="45.65041" lon="5.67661">
        <ele>233</ele>
        <time>2021-06-05T15:12:55.534Z</time>
      </trkpt>
      <trkpt lat="45.65044" lon="5.67671">
        <ele>223</ele>
        <time>2021-06-05T15:13:00.540Z</time>
      </trkpt>
      <trkpt lat="45.65043" lon="5.67675">
        <ele>223</ele>
        <time>2021-06-05T15:13:04.543Z</time>
      </trkpt>
      <trkpt lat="45.65046" lon="5.67683">
        <ele>228</ele>
        <time>2021-06-05T15:13:09.543Z</time>
      </trkpt>
      <trkpt lat="45.65049" lon="5.67691">
        <ele>228</ele>
        <time>2021-06-05T15:13:14.534Z</time>
      </trkpt>
      <trkpt lat="45.65053" lon="5.67697">
        <ele>228</ele>
        <time>2021-06-05T15:13:19.531Z</time>
      </trkpt>
      <trkpt lat="45.65058" lon="5.67705">
        <ele>228</ele>
        <time>2021-06-05T15:13:24.542Z</time>
      </trkpt>
      <trkpt lat="45.65062" lon="5.67717">
        <ele>229</ele>
        <time>2021-06-05T15:13:29.538Z</time>
      </trkpt>
      <trkpt lat="45.65065" lon="5.67728">
        <ele>229</ele>
        <time>2021-06-05T15:13:34.534Z</time>
      </trkpt>
      <trkpt lat="45.65068" lon="5.67738">
        <ele>230</ele>
        <time>2021-06-05T15:13:39.531Z</time>
      </trkpt>
      <trkpt lat="45.65071" lon="5.67747">
        <ele>222</ele>
        <time>2021-06-05T15:13:44.536Z</time>
      </trkpt>
      <trkpt lat="45.65073" lon="5.67756">
        <ele>222</ele>
        <time>2021-06-05T15:13:49.534Z</time>
      </trkpt>
      <trkpt lat="45.65075" lon="5.67768">
        <ele>225</ele>
        <time>2021-06-05T15:13:54.536Z</time>
      </trkpt>
      <trkpt lat="45.65079" lon="5.67781">
        <ele>225</ele>
        <time>2021-06-05T15:13:59.544Z</time>
      </trkpt>
      <trkpt lat="45.65082" lon="5.67791">
        <ele>225</ele>
        <time>2021-06-05T15:14:04.538Z</time>
      </trkpt>
      <trkpt lat="45.65084" lon="5.678">
        <ele>228</ele>
        <time>2021-06-05T15:14:09.543Z</time>
      </trkpt>
      <trkpt lat="45.65086" lon="5.67811">
        <ele>228</ele>
        <time>2021-06-05T15:14:14.534Z</time>
      </trkpt>
      <trkpt lat="45.65089" lon="5.67819">
        <ele>231</ele>
        <time>2021-06-05T15:14:19.537Z</time>
      </trkpt>
      <trkpt lat="45.65092" lon="5.6783">
        <ele>231</ele>
        <time>2021-06-05T15:14:24.556Z</time>
      </trkpt>
      <trkpt lat="45.65095" lon="5.67842">
        <ele>231</ele>
        <time>2021-06-05T15:14:29.537Z</time>
      </trkpt>
      <trkpt lat="45.65098" lon="5.67853">
        <ele>224</ele>
        <time>2021-06-05T15:14:34.542Z</time>
      </trkpt>
      <trkpt lat="45.65098" lon="5.67863">
        <ele>224</ele>
        <time>2021-06-05T15:14:39.537Z</time>
      </trkpt>
      <trkpt lat="45.65102" lon="5.67873">
        <ele>224</ele>
        <time>2021-06-05T15:14:44.540Z</time>
      </trkpt>
      <trkpt lat="45.65103" lon="5.67884">
        <ele>225</ele>
        <time>2021-06-05T15:14:49.540Z</time>
      </trkpt>
      <trkpt lat="45.65105" lon="5.67892">
        <ele>225</ele>
        <time>2021-06-05T15:14:53.549Z</time>
      </trkpt>
      <trkpt lat="45.65108" lon="5.67902">
        <ele>225</ele>
        <time>2021-06-05T15:14:58.547Z</time>
      </trkpt>
      <trkpt lat="45.65111" lon="5.6791">
        <ele>225</ele>
        <time>2021-06-05T15:15:02.548Z</time>
      </trkpt>
      <trkpt lat="45.65114" lon="5.6792">
        <ele>225</ele>
        <time>2021-06-05T15:15:07.545Z</time>
      </trkpt>
      <trkpt lat="45.65116" lon="5.67929">
        <ele>225</ele>
        <time>2021-06-05T15:15:12.538Z</time>
      </trkpt>
      <trkpt lat="45.65117" lon="5.67937">
        <ele>227</ele>
        <time>2021-06-05T15:15:17.534Z</time>
      </trkpt>
      <trkpt lat="45.6512" lon="5.67945">
        <ele>227</ele>
        <time>2021-06-05T15:15:21.539Z</time>
      </trkpt>
      <trkpt lat="45.65122" lon="5.67956">
        <ele>227</ele>
        <time>2021-06-05T15:15:26.546Z</time>
      </trkpt>
      <trkpt lat="45.65125" lon="5.67964">
        <ele>225</ele>
        <time>2021-06-05T15:15:31.545Z</time>
      </trkpt>
      <trkpt lat="45.65129" lon="5.67972">
        <ele>225</ele>
        <time>2021-06-05T15:15:36.543Z</time>
      </trkpt>
      <trkpt lat="45.65131" lon="5.67982">
        <ele>225</ele>
        <time>2021-06-05T15:15:41.535Z</time>
      </trkpt>
      <trkpt lat="45.65133" lon="5.67993">
        <ele>226</ele>
        <time>2021-06-05T15:15:46.540Z</time>
      </trkpt>
      <trkpt lat="45.65134" lon="5.68001">
        <ele>226</ele>
        <time>2021-06-05T15:15:51.542Z</time>
      </trkpt>
      <trkpt lat="45.65135" lon="5.68008">
        <ele>226</ele>
        <time>2021-06-05T15:15:56.529Z</time>
      </trkpt>
      <trkpt lat="45.65138" lon="5.68018">
        <ele>226</ele>
        <time>2021-06-05T15:16:01.534Z</time>
      </trkpt>
      <trkpt lat="45.65141" lon="5.68031">
        <ele>226</ele>
        <time>2021-06-05T15:16:06.528Z</time>
      </trkpt>
      <trkpt lat="45.65143" lon="5.6804">
        <ele>226</ele>
        <time>2021-06-05T15:16:10.546Z</time>
      </trkpt>
      <trkpt lat="45.65146" lon="5.6805">
        <ele>226</ele>
        <time>2021-06-05T15:16:15.539Z</time>
      </trkpt>
      <trkpt lat="45.65148" lon="5.68062">
        <ele>226</ele>
        <time>2021-06-05T15:16:20.541Z</time>
      </trkpt>
      <trkpt lat="45.6515" lon="5.68073">
        <ele>228</ele>
        <time>2021-06-05T15:16:25.530Z</time>
      </trkpt>
      <trkpt lat="45.65151" lon="5.6808">
        <ele>228</ele>
        <time>2021-06-05T15:16:30.534Z</time>
      </trkpt>
      <trkpt lat="45.65153" lon="5.68086">
        <ele>231</ele>
        <time>2021-06-05T15:16:34.556Z</time>
      </trkpt>
      <trkpt lat="45.65154" lon="5.68091">
        <ele>231</ele>
        <time>2021-06-05T15:16:39.538Z</time>
      </trkpt>
      <trkpt lat="45.65157" lon="5.68099">
        <ele>232</ele>
        <time>2021-06-05T15:16:44.542Z</time>
      </trkpt>
      <trkpt lat="45.6516" lon="5.68108">
        <ele>232</ele>
        <time>2021-06-05T15:16:49.528Z</time>
      </trkpt>
      <trkpt lat="45.65162" lon="5.68118">
        <ele>232</ele>
        <time>2021-06-05T15:16:54.531Z</time>
      </trkpt>
      <trkpt lat="45.65165" lon="5.68124">
        <ele>232</ele>
        <time>2021-06-05T15:16:58.548Z</time>
      </trkpt>
      <trkpt lat="45.65167" lon="5.68132">
        <ele>231</ele>
        <time>2021-06-05T15:17:03.545Z</time>
      </trkpt>
      <trkpt lat="45.65168" lon="5.68141">
        <ele>231</ele>
        <time>2021-06-05T15:17:08.538Z</time>
      </trkpt>
      <trkpt lat="45.65174" lon="5.68151">
        <ele>231</ele>
        <time>2021-06-05T15:17:13.530Z</time>
      </trkpt>
      <trkpt lat="45.65178" lon="5.68158">
        <ele>229</ele>
        <time>2021-06-05T15:17:17.546Z</time>
      </trkpt>
      <trkpt lat="45.65181" lon="5.68171">
        <ele>223</ele>
        <time>2021-06-05T15:17:22.542Z</time>
      </trkpt>
      <trkpt lat="45.65184" lon="5.6818">
        <ele>223</ele>
        <time>2021-06-05T15:17:27.531Z</time>
      </trkpt>
      <trkpt lat="45.65187" lon="5.68186">
        <ele>223</ele>
        <time>2021-06-05T15:17:32.530Z</time>
      </trkpt>
      <trkpt lat="45.65193" lon="5.68187">
        <ele>223</ele>
        <time>2021-06-05T15:17:36.539Z</time>
      </trkpt>
      <trkpt lat="45.65196" lon="5.68193">
        <ele>223</ele>
        <time>2021-06-05T15:17:41.530Z</time>
      </trkpt>
      <trkpt lat="45.65196" lon="5.68199">
        <ele>223</ele>
        <time>2021-06-05T15:17:46.542Z</time>
      </trkpt>
      <trkpt lat="45.65193" lon="5.6821">
        <ele>226</ele>
        <time>2021-06-05T15:17:51.532Z</time>
      </trkpt>
      <trkpt lat="45.65193" lon="5.6822">
        <ele>226</ele>
        <time>2021-06-05T15:17:56.542Z</time>
      </trkpt>
      <trkpt lat="45.65196" lon="5.68228">
        <ele>226</ele>
        <time>2021-06-05T15:18:01.544Z</time>
      </trkpt>
      <trkpt lat="45.65203" lon="5.68241">
        <ele>227</ele>
        <time>2021-06-05T15:18:06.535Z</time>
      </trkpt>
      <trkpt lat="45.65211" lon="5.68252">
        <ele>221</ele>
        <time>2021-06-05T15:18:11.523Z</time>
      </trkpt>
      <trkpt lat="45.65215" lon="5.68259">
        <ele>221</ele>
        <time>2021-06-05T15:18:15.538Z</time>
      </trkpt>
      <trkpt lat="45.6522" lon="5.68268">
        <ele>223</ele>
        <time>2021-06-05T15:18:20.537Z</time>
      </trkpt>
      <trkpt lat="45.65226" lon="5.68277">
        <ele>223</ele>
        <time>2021-06-05T15:18:25.536Z</time>
      </trkpt>
      <trkpt lat="45.65232" lon="5.68289">
        <ele>223</ele>
        <time>2021-06-05T15:18:30.540Z</time>
      </trkpt>
      <trkpt lat="45.65238" lon="5.68296">
        <ele>220</ele>
        <time>2021-06-05T15:18:35.539Z</time>
      </trkpt>
      <trkpt lat="45.65243" lon="5.68301">
        <ele>220</ele>
        <time>2021-06-05T15:18:40.535Z</time>
      </trkpt>
      <trkpt lat="45.65248" lon="5.68306">
        <ele>220</ele>
        <time>2021-06-05T15:18:44.564Z</time>
      </trkpt>
      <trkpt lat="45.65253" lon="5.68311">
        <ele>220</ele>
        <time>2021-06-05T15:18:49.554Z</time>
      </trkpt>
      <trkpt lat="45.65261" lon="5.68317">
        <ele>220</ele>
        <time>2021-06-05T15:18:54.546Z</time>
      </trkpt>
      <trkpt lat="45.65266" lon="5.68325">
        <ele>222</ele>
        <time>2021-06-05T15:18:59.542Z</time>
      </trkpt>
      <trkpt lat="45.65273" lon="5.68331">
        <ele>222</ele>
        <time>2021-06-05T15:19:04.537Z</time>
      </trkpt>
      <trkpt lat="45.65279" lon="5.68337">
        <ele>222</ele>
        <time>2021-06-05T15:19:09.523Z</time>
      </trkpt>
      <trkpt lat="45.65284" lon="5.68343">
        <ele>222</ele>
        <time>2021-06-05T15:19:13.533Z</time>
      </trkpt>
      <trkpt lat="45.65289" lon="5.68348">
        <ele>221</ele>
        <time>2021-06-05T15:19:18.535Z</time>
      </trkpt>
      <trkpt lat="45.65293" lon="5.68354">
        <ele>224</ele>
        <time>2021-06-05T15:19:23.536Z</time>
      </trkpt>
      <trkpt lat="45.653" lon="5.6836">
        <ele>224</ele>
        <time>2021-06-05T15:19:28.536Z</time>
      </trkpt>
      <trkpt lat="45.65306" lon="5.68364">
        <ele>224</ele>
        <time>2021-06-05T15:19:33.540Z</time>
      </trkpt>
      <trkpt lat="45.65312" lon="5.6837">
        <ele>224</ele>
        <time>2021-06-05T15:19:38.539Z</time>
      </trkpt>
      <trkpt lat="45.65317" lon="5.68373">
        <ele>224</ele>
        <time>2021-06-05T15:19:43.545Z</time>
      </trkpt>
      <trkpt lat="45.65324" lon="5.68377">
        <ele>224</ele>
        <time>2021-06-05T15:19:48.540Z</time>
      </trkpt>
      <trkpt lat="45.65331" lon="5.68381">
        <ele>224</ele>
        <time>2021-06-05T15:19:53.537Z</time>
      </trkpt>
      <trkpt lat="45.65337" lon="5.68385">
        <ele>224</ele>
        <time>2021-06-05T15:19:57.555Z</time>
      </trkpt>
      <trkpt lat="45.65345" lon="5.68389">
        <ele>224</ele>
        <time>2021-06-05T15:20:02.534Z</time>
      </trkpt>
      <trkpt lat="45.65351" lon="5.68391">
        <ele>227</ele>
        <time>2021-06-05T15:20:07.525Z</time>
      </trkpt>
      <trkpt lat="45.65357" lon="5.68394">
        <ele>227</ele>
        <time>2021-06-05T15:20:11.534Z</time>
      </trkpt>
      <trkpt lat="45.65365" lon="5.68399">
        <ele>227</ele>
        <time>2021-06-05T15:20:16.528Z</time>
      </trkpt>
      <trkpt lat="45.65373" lon="5.684">
        <ele>227</ele>
        <time>2021-06-05T15:20:21.529Z</time>
      </trkpt>
      <trkpt lat="45.65378" lon="5.68403">
        <ele>228</ele>
        <time>2021-06-05T15:20:26.533Z</time>
      </trkpt>
      <trkpt lat="45.65384" lon="5.68405">
        <ele>228</ele>
        <time>2021-06-05T15:20:30.532Z</time>
      </trkpt>
      <trkpt lat="45.65393" lon="5.68408">
        <ele>228</ele>
        <time>2021-06-05T15:20:35.536Z</time>
      </trkpt>
      <trkpt lat="45.65401" lon="5.68413">
        <ele>228</ele>
        <time>2021-06-05T15:20:40.546Z</time>
      </trkpt>
      <trkpt lat="45.65407" lon="5.68415">
        <ele>229</ele>
        <time>2021-06-05T15:20:45.530Z</time>
      </trkpt>
      <trkpt lat="45.65416" lon="5.68417">
        <ele>229</ele>
        <time>2021-06-05T15:20:50.542Z</time>
      </trkpt>
      <trkpt lat="45.65423" lon="5.68419">
        <ele>229</ele>
        <time>2021-06-05T15:20:55.535Z</time>
      </trkpt>
      <trkpt lat="45.65429" lon="5.68421">
        <ele>229</ele>
        <time>2021-06-05T15:21:00.534Z</time>
      </trkpt>
      <trkpt lat="45.65438" lon="5.68422">
        <ele>229</ele>
        <time>2021-06-05T15:21:05.556Z</time>
      </trkpt>
      <trkpt lat="45.65447" lon="5.68423">
        <ele>229</ele>
        <time>2021-06-05T15:21:10.536Z</time>
      </trkpt>
      <trkpt lat="45.65451" lon="5.68422">
        <ele>229</ele>
        <time>2021-06-05T15:21:15.542Z</time>
      </trkpt>
      <trkpt lat="45.65452" lon="5.68422">
        <ele>229</ele>
        <time>2021-06-05T15:21:20.531Z</time>
      </trkpt>
      <trkpt lat="45.65454" lon="5.68422">
        <ele>229</ele>
        <time>2021-06-05T15:21:24.549Z</time>
      </trkpt>
      <trkpt lat="45.65461" lon="5.68423">
        <ele>228</ele>
        <time>2021-06-05T15:21:29.538Z</time>
      </trkpt>
      <trkpt lat="45.65469" lon="5.68424">
        <ele>228</ele>
        <time>2021-06-05T15:21:34.538Z</time>
      </trkpt>
      <trkpt lat="45.65477" lon="5.68426">
        <ele>228</ele>
        <time>2021-06-05T15:21:39.542Z</time>
      </trkpt>
      <trkpt lat="45.65486" lon="5.68425">
        <ele>228</ele>
        <time>2021-06-05T15:21:44.538Z</time>
      </trkpt>
      <trkpt lat="45.65494" lon="5.68424">
        <ele>228</ele>
        <time>2021-06-05T15:21:49.530Z</time>
      </trkpt>
      <trkpt lat="45.65502" lon="5.68423">
        <ele>228</ele>
        <time>2021-06-05T15:21:54.533Z</time>
      </trkpt>
      <trkpt lat="45.6551" lon="5.68421">
        <ele>228</ele>
        <time>2021-06-05T15:21:59.532Z</time>
      </trkpt>
      <trkpt lat="45.6552" lon="5.68422">
        <ele>229</ele>
        <time>2021-06-05T15:22:04.536Z</time>
      </trkpt>
      <trkpt lat="45.65527" lon="5.68424">
        <ele>229</ele>
        <time>2021-06-05T15:22:09.534Z</time>
      </trkpt>
      <trkpt lat="45.65534" lon="5.68424">
        <ele>229</ele>
        <time>2021-06-05T15:22:14.538Z</time>
      </trkpt>
      <trkpt lat="45.65542" lon="5.68424">
        <ele>226</ele>
        <time>2021-06-05T15:22:19.528Z</time>
      </trkpt>
      <trkpt lat="45.6555" lon="5.68426">
        <ele>226</ele>
        <time>2021-06-05T15:22:24.543Z</time>
      </trkpt>
      <trkpt lat="45.65557" lon="5.68425">
        <ele>226</ele>
        <time>2021-06-05T15:22:29.534Z</time>
      </trkpt>
      <trkpt lat="45.65565" lon="5.68424">
        <ele>226</ele>
        <time>2021-06-05T15:22:34.528Z</time>
      </trkpt>
      <trkpt lat="45.65573" lon="5.68424">
        <ele>226</ele>
        <time>2021-06-05T15:22:39.534Z</time>
      </trkpt>
      <trkpt lat="45.65583" lon="5.6842">
        <ele>226</ele>
        <time>2021-06-05T15:22:44.538Z</time>
      </trkpt>
      <trkpt lat="45.65591" lon="5.68418">
        <ele>226</ele>
        <time>2021-06-05T15:22:49.530Z</time>
      </trkpt>
      <trkpt lat="45.65599" lon="5.68417">
        <ele>231</ele>
        <time>2021-06-05T15:22:54.542Z</time>
      </trkpt>
      <trkpt lat="45.65608" lon="5.68416">
        <ele>231</ele>
        <time>2021-06-05T15:22:59.531Z</time>
      </trkpt>
      <trkpt lat="45.65616" lon="5.68412">
        <ele>231</ele>
        <time>2021-06-05T15:23:04.533Z</time>
      </trkpt>
      <trkpt lat="45.65622" lon="5.6841">
        <ele>231</ele>
        <time>2021-06-05T15:23:09.546Z</time>
      </trkpt>
      <trkpt lat="45.65629" lon="5.68407">
        <ele>226</ele>
        <time>2021-06-05T15:23:14.534Z</time>
      </trkpt>
      <trkpt lat="45.65635" lon="5.68404">
        <ele>226</ele>
        <time>2021-06-05T15:23:19.538Z</time>
      </trkpt>
      <trkpt lat="45.65643" lon="5.68401">
        <ele>235</ele>
        <time>2021-06-05T15:23:23.556Z</time>
      </trkpt>
      <trkpt lat="45.6565" lon="5.68399">
        <ele>235</ele>
        <time>2021-06-05T15:23:28.536Z</time>
      </trkpt>
      <trkpt lat="45.65658" lon="5.68396">
        <ele>229</ele>
        <time>2021-06-05T15:23:33.536Z</time>
      </trkpt>
      <trkpt lat="45.65666" lon="5.68392">
        <ele>229</ele>
        <time>2021-06-05T15:23:38.543Z</time>
      </trkpt>
      <trkpt lat="45.65673" lon="5.68388">
        <ele>229</ele>
        <time>2021-06-05T15:23:43.537Z</time>
      </trkpt>
      <trkpt lat="45.6568" lon="5.68383">
        <ele>229</ele>
        <time>2021-06-05T15:23:48.533Z</time>
      </trkpt>
      <trkpt lat="45.65687" lon="5.68378">
        <ele>229</ele>
        <time>2021-06-05T15:23:53.540Z</time>
      </trkpt>
      <trkpt lat="45.65695" lon="5.68373">
        <ele>242</ele>
        <time>2021-06-05T15:23:58.535Z</time>
      </trkpt>
      <trkpt lat="45.65702" lon="5.68369">
        <ele>242</ele>
        <time>2021-06-05T15:24:03.532Z</time>
      </trkpt>
      <trkpt lat="45.6571" lon="5.68368">
        <ele>234</ele>
        <time>2021-06-05T15:24:08.529Z</time>
      </trkpt>
      <trkpt lat="45.65716" lon="5.68367">
        <ele>234</ele>
        <time>2021-06-05T15:24:13.523Z</time>
      </trkpt>
      <trkpt lat="45.65722" lon="5.68363">
        <ele>234</ele>
        <time>2021-06-05T15:24:18.533Z</time>
      </trkpt>
      <trkpt lat="45.65728" lon="5.6836">
        <ele>234</ele>
        <time>2021-06-05T15:24:23.533Z</time>
      </trkpt>
      <trkpt lat="45.65735" lon="5.68358">
        <ele>234</ele>
        <time>2021-06-05T15:24:28.524Z</time>
      </trkpt>
      <trkpt lat="45.65742" lon="5.68355">
        <ele>228</ele>
        <time>2021-06-05T15:24:33.526Z</time>
      </trkpt>
      <trkpt lat="45.6575" lon="5.68352">
        <ele>228</ele>
        <time>2021-06-05T15:24:38.536Z</time>
      </trkpt>
      <trkpt lat="45.65758" lon="5.6835">
        <ele>228</ele>
        <time>2021-06-05T15:24:43.536Z</time>
      </trkpt>
      <trkpt lat="45.65763" lon="5.68347">
        <ele>228</ele>
        <time>2021-06-05T15:24:47.530Z</time>
      </trkpt>
      <trkpt lat="45.65771" lon="5.68343">
        <ele>233</ele>
        <time>2021-06-05T15:24:52.535Z</time>
      </trkpt>
      <trkpt lat="45.65779" lon="5.6834">
        <ele>233</ele>
        <time>2021-06-05T15:24:57.551Z</time>
      </trkpt>
      <trkpt lat="45.65787" lon="5.68337">
        <ele>233</ele>
        <time>2021-06-05T15:25:02.532Z</time>
      </trkpt>
      <trkpt lat="45.65794" lon="5.68336">
        <ele>235</ele>
        <time>2021-06-05T15:25:07.526Z</time>
      </trkpt>
      <trkpt lat="45.658" lon="5.68337">
        <ele>235</ele>
        <time>2021-06-05T15:25:12.533Z</time>
      </trkpt>
      <trkpt lat="45.65809" lon="5.68334">
        <ele>235</ele>
        <time>2021-06-05T15:25:17.534Z</time>
      </trkpt>
      <trkpt lat="45.65816" lon="5.68332">
        <ele>235</ele>
        <time>2021-06-05T15:25:22.528Z</time>
      </trkpt>
      <trkpt lat="45.65824" lon="5.68332">
        <ele>241</ele>
        <time>2021-06-05T15:25:27.527Z</time>
      </trkpt>
      <trkpt lat="45.65833" lon="5.68333">
        <ele>241</ele>
        <time>2021-06-05T15:25:32.539Z</time>
      </trkpt>
      <trkpt lat="45.65841" lon="5.68333">
        <ele>241</ele>
        <time>2021-06-05T15:25:37.535Z</time>
      </trkpt>
      <trkpt lat="45.65846" lon="5.68333">
        <ele>241</ele>
        <time>2021-06-05T15:25:41.535Z</time>
      </trkpt>
      <trkpt lat="45.65854" lon="5.68335">
        <ele>245</ele>
        <time>2021-06-05T15:25:46.526Z</time>
      </trkpt>
      <trkpt lat="45.65863" lon="5.68338">
        <ele>245</ele>
        <time>2021-06-05T15:25:51.550Z</time>
      </trkpt>
      <trkpt lat="45.65868" lon="5.68338">
        <ele>245</ele>
        <time>2021-06-05T15:25:56.535Z</time>
      </trkpt>
      <trkpt lat="45.65873" lon="5.68333">
        <ele>245</ele>
        <time>2021-06-05T15:26:01.533Z</time>
      </trkpt>
      <trkpt lat="45.6588" lon="5.6833">
        <ele>237</ele>
        <time>2021-06-05T15:26:05.557Z</time>
      </trkpt>
      <trkpt lat="45.65888" lon="5.68326">
        <ele>237</ele>
        <time>2021-06-05T15:26:10.536Z</time>
      </trkpt>
      <trkpt lat="45.65894" lon="5.68325">
        <ele>237</ele>
        <time>2021-06-05T15:26:15.529Z</time>
      </trkpt>
      <trkpt lat="45.65903" lon="5.68322">
        <ele>237</ele>
        <time>2021-06-05T15:26:20.528Z</time>
      </trkpt>
      <trkpt lat="45.65911" lon="5.68319">
        <ele>247</ele>
        <time>2021-06-05T15:26:25.527Z</time>
      </trkpt>
      <trkpt lat="45.65918" lon="5.68314">
        <ele>247</ele>
        <time>2021-06-05T15:26:29.551Z</time>
      </trkpt>
      <trkpt lat="45.65925" lon="5.68311">
        <ele>247</ele>
        <time>2021-06-05T15:26:34.533Z</time>
      </trkpt>
      <trkpt lat="45.65933" lon="5.68309">
        <ele>245</ele>
        <time>2021-06-05T15:26:39.542Z</time>
      </trkpt>
      <trkpt lat="45.65939" lon="5.68307">
        <ele>245</ele>
        <time>2021-06-05T15:26:44.529Z</time>
      </trkpt>
      <trkpt lat="45.65945" lon="5.68306">
        <ele>245</ele>
        <time>2021-06-05T15:26:48.536Z</time>
      </trkpt>
      <trkpt lat="45.65952" lon="5.68306">
        <ele>245</ele>
        <time>2021-06-05T15:26:53.541Z</time>
      </trkpt>
      <trkpt lat="45.6596" lon="5.68302">
        <ele>232</ele>
        <time>2021-06-05T15:26:58.526Z</time>
      </trkpt>
      <trkpt lat="45.65966" lon="5.68298">
        <ele>232</ele>
        <time>2021-06-05T15:27:03.532Z</time>
      </trkpt>
      <trkpt lat="45.65971" lon="5.68296">
        <ele>232</ele>
        <time>2021-06-05T15:27:08.537Z</time>
      </trkpt>
      <trkpt lat="45.6598" lon="5.68294">
        <ele>232</ele>
        <time>2021-06-05T15:27:13.533Z</time>
      </trkpt>
      <trkpt lat="45.65987" lon="5.68291">
        <ele>236</ele>
        <time>2021-06-05T15:27:18.527Z</time>
      </trkpt>
      <trkpt lat="45.65992" lon="5.68288">
        <ele>236</ele>
        <time>2021-06-05T15:27:22.543Z</time>
      </trkpt>
      <trkpt lat="45.66" lon="5.68285">
        <ele>236</ele>
        <time>2021-06-05T15:27:27.529Z</time>
      </trkpt>
      <trkpt lat="45.66009" lon="5.68283">
        <ele>236</ele>
        <time>2021-06-05T15:27:31.539Z</time>
      </trkpt>
      <trkpt lat="45.66016" lon="5.68283">
        <ele>234</ele>
        <time>2021-06-05T15:27:36.533Z</time>
      </trkpt>
      <trkpt lat="45.66024" lon="5.68284">
        <ele>234</ele>
        <time>2021-06-05T15:27:41.528Z</time>
      </trkpt>
      <trkpt lat="45.6603" lon="5.68285">
        <ele>234</ele>
        <time>2021-06-05T15:27:46.536Z</time>
      </trkpt>
      <trkpt lat="45.66036" lon="5.68284">
        <ele>234</ele>
        <time>2021-06-05T15:27:50.548Z</time>
      </trkpt>
      <trkpt lat="45.66046" lon="5.68282">
        <ele>232</ele>
        <time>2021-06-05T15:27:55.513Z</time>
      </trkpt>
      <trkpt lat="45.66052" lon="5.6828">
        <ele>232</ele>
        <time>2021-06-05T15:27:59.532Z</time>
      </trkpt>
      <trkpt lat="45.66057" lon="5.68278">
        <ele>232</ele>
        <time>2021-06-05T15:28:04.527Z</time>
      </trkpt>
      <trkpt lat="45.66065" lon="5.68279">
        <ele>232</ele>
        <time>2021-06-05T15:28:09.534Z</time>
      </trkpt>
      <trkpt lat="45.66073" lon="5.68276">
        <ele>227</ele>
        <time>2021-06-05T15:28:14.523Z</time>
      </trkpt>
      <trkpt lat="45.66078" lon="5.68276">
        <ele>227</ele>
        <time>2021-06-05T15:28:19.534Z</time>
      </trkpt>
      <trkpt lat="45.66083" lon="5.68276">
        <ele>227</ele>
        <time>2021-06-05T15:28:24.534Z</time>
      </trkpt>
      <trkpt lat="45.66088" lon="5.68274">
        <ele>227</ele>
        <time>2021-06-05T15:28:29.523Z</time>
      </trkpt>
      <trkpt lat="45.6609" lon="5.68272">
        <ele>227</ele>
        <time>2021-06-05T15:28:34.520Z</time>
      </trkpt>
      <trkpt lat="45.66095" lon="5.68269">
        <ele>227</ele>
        <time>2021-06-05T15:28:39.533Z</time>
      </trkpt>
      <trkpt lat="45.66101" lon="5.68264">
        <ele>226</ele>
        <time>2021-06-05T15:28:44.532Z</time>
      </trkpt>
      <trkpt lat="45.6611" lon="5.68258">
        <ele>235</ele>
        <time>2021-06-05T15:28:49.535Z</time>
      </trkpt>
      <trkpt lat="45.66117" lon="5.68255">
        <ele>235</ele>
        <time>2021-06-05T15:28:54.538Z</time>
      </trkpt>
      <trkpt lat="45.66123" lon="5.68252">
        <ele>235</ele>
        <time>2021-06-05T15:28:58.561Z</time>
      </trkpt>
      <trkpt lat="45.66131" lon="5.6825">
        <ele>235</ele>
        <time>2021-06-05T15:29:03.574Z</time>
      </trkpt>
      <trkpt lat="45.66138" lon="5.68244">
        <ele>235</ele>
        <time>2021-06-05T15:29:08.538Z</time>
      </trkpt>
      <trkpt lat="45.66145" lon="5.6824">
        <ele>235</ele>
        <time>2021-06-05T15:29:13.555Z</time>
      </trkpt>
      <trkpt lat="45.66155" lon="5.68237">
        <ele>237</ele>
        <time>2021-06-05T15:29:18.531Z</time>
      </trkpt>
      <trkpt lat="45.66164" lon="5.68232">
        <ele>245</ele>
        <time>2021-06-05T15:29:22.556Z</time>
      </trkpt>
      <trkpt lat="45.66171" lon="5.68229">
        <ele>245</ele>
        <time>2021-06-05T15:29:27.562Z</time>
      </trkpt>
      <trkpt lat="45.66178" lon="5.68229">
        <ele>245</ele>
        <time>2021-06-05T15:29:32.553Z</time>
      </trkpt>
      <trkpt lat="45.66183" lon="5.68228">
        <ele>239</ele>
        <time>2021-06-05T15:29:36.570Z</time>
      </trkpt>
      <trkpt lat="45.66192" lon="5.68228">
        <ele>239</ele>
        <time>2021-06-05T15:29:41.567Z</time>
      </trkpt>
      <trkpt lat="45.66203" lon="5.68227">
        <ele>239</ele>
        <time>2021-06-05T15:29:46.557Z</time>
      </trkpt>
      <trkpt lat="45.66211" lon="5.68225">
        <ele>233</ele>
        <time>2021-06-05T15:29:51.553Z</time>
      </trkpt>
      <trkpt lat="45.66222" lon="5.68223">
        <ele>233</ele>
        <time>2021-06-05T15:29:56.570Z</time>
      </trkpt>
      <trkpt lat="45.66232" lon="5.68222">
        <ele>233</ele>
        <time>2021-06-05T15:30:01.569Z</time>
      </trkpt>
      <trkpt lat="45.66244" lon="5.68224">
        <ele>231</ele>
        <time>2021-06-05T15:30:06.570Z</time>
      </trkpt>
      <trkpt lat="45.66254" lon="5.68226">
        <ele>231</ele>
        <time>2021-06-05T15:30:11.571Z</time>
      </trkpt>
      <trkpt lat="45.66263" lon="5.68226">
        <ele>231</ele>
        <time>2021-06-05T15:30:16.566Z</time>
      </trkpt>
      <trkpt lat="45.6627" lon="5.68226">
        <ele>231</ele>
        <time>2021-06-05T15:30:21.541Z</time>
      </trkpt>
      <trkpt lat="45.66276" lon="5.68227">
        <ele>231</ele>
        <time>2021-06-05T15:30:26.545Z</time>
      </trkpt>
      <trkpt lat="45.66286" lon="5.68227">
        <ele>231</ele>
        <time>2021-06-05T15:30:31.549Z</time>
      </trkpt>
      <trkpt lat="45.66293" lon="5.68227">
        <ele>232</ele>
        <time>2021-06-05T15:30:36.570Z</time>
      </trkpt>
      <trkpt lat="45.66296" lon="5.68228">
        <ele>232</ele>
        <time>2021-06-05T15:30:41.556Z</time>
      </trkpt>
      <trkpt lat="45.66303" lon="5.68228">
        <ele>232</ele>
        <time>2021-06-05T15:30:45.573Z</time>
      </trkpt>
      <trkpt lat="45.66311" lon="5.68231">
        <ele>232</ele>
        <time>2021-06-05T15:30:50.559Z</time>
      </trkpt>
      <trkpt lat="45.66316" lon="5.68235">
        <ele>232</ele>
        <time>2021-06-05T15:30:55.550Z</time>
      </trkpt>
      <trkpt lat="45.66321" lon="5.68237">
        <ele>224</ele>
        <time>2021-06-05T15:31:00.562Z</time>
      </trkpt>
      <trkpt lat="45.66329" lon="5.68238">
        <ele>224</ele>
        <time>2021-06-05T15:31:05.545Z</time>
      </trkpt>
      <trkpt lat="45.66338" lon="5.68238">
        <ele>224</ele>
        <time>2021-06-05T15:31:10.545Z</time>
      </trkpt>
      <trkpt lat="45.66344" lon="5.68241">
        <ele>224</ele>
        <time>2021-06-05T15:31:15.554Z</time>
      </trkpt>
      <trkpt lat="45.66351" lon="5.68241">
        <ele>225</ele>
        <time>2021-06-05T15:31:20.551Z</time>
      </trkpt>
      <trkpt lat="45.66354" lon="5.68242">
        <ele>225</ele>
        <time>2021-06-05T15:31:24.571Z</time>
      </trkpt>
      <trkpt lat="45.66365" lon="5.68242">
        <ele>225</ele>
        <time>2021-06-05T15:31:29.551Z</time>
      </trkpt>
      <trkpt lat="45.66375" lon="5.6824">
        <ele>225</ele>
        <time>2021-06-05T15:31:34.547Z</time>
      </trkpt>
      <trkpt lat="45.66381" lon="5.68241">
        <ele>224</ele>
        <time>2021-06-05T15:31:39.561Z</time>
      </trkpt>
      <trkpt lat="45.66389" lon="5.68241">
        <ele>224</ele>
        <time>2021-06-05T15:31:44.563Z</time>
      </trkpt>
      <trkpt lat="45.66398" lon="5.68241">
        <ele>224</ele>
        <time>2021-06-05T15:31:49.547Z</time>
      </trkpt>
      <trkpt lat="45.66407" lon="5.68242">
        <ele>223</ele>
        <time>2021-06-05T15:31:54.536Z</time>
      </trkpt>
      <trkpt lat="45.66413" lon="5.68243">
        <ele>223</ele>
        <time>2021-06-05T15:31:58.550Z</time>
      </trkpt>
      <trkpt lat="45.6642" lon="5.68244">
        <ele>223</ele>
        <time>2021-06-05T15:32:03.573Z</time>
      </trkpt>
      <trkpt lat="45.66424" lon="5.68246">
        <ele>223</ele>
        <time>2021-06-05T15:32:08.545Z</time>
      </trkpt>
      <trkpt lat="45.66433" lon="5.68246">
        <ele>222</ele>
        <time>2021-06-05T15:32:13.544Z</time>
      </trkpt>
      <trkpt lat="45.66442" lon="5.68247">
        <ele>222</ele>
        <time>2021-06-05T15:32:18.558Z</time>
      </trkpt>
      <trkpt lat="45.66452" lon="5.68246">
        <ele>222</ele>
        <time>2021-06-05T15:32:23.554Z</time>
      </trkpt>
      <trkpt lat="45.66458" lon="5.68245">
        <ele>222</ele>
        <time>2021-06-05T15:32:27.572Z</time>
      </trkpt>
      <trkpt lat="45.66464" lon="5.68244">
        <ele>222</ele>
        <time>2021-06-05T15:32:32.539Z</time>
      </trkpt>
      <trkpt lat="45.6647" lon="5.68243">
        <ele>222</ele>
        <time>2021-06-05T15:32:36.537Z</time>
      </trkpt>
      <trkpt lat="45.6648" lon="5.68244">
        <ele>222</ele>
        <time>2021-06-05T15:32:41.544Z</time>
      </trkpt>
      <trkpt lat="45.66487" lon="5.68243">
        <ele>222</ele>
        <time>2021-06-05T15:32:45.553Z</time>
      </trkpt>
      <trkpt lat="45.66495" lon="5.68242">
        <ele>222</ele>
        <time>2021-06-05T15:32:50.556Z</time>
      </trkpt>
      <trkpt lat="45.66502" lon="5.68242">
        <ele>222</ele>
        <time>2021-06-05T15:32:55.542Z</time>
      </trkpt>
      <trkpt lat="45.66507" lon="5.68243">
        <ele>222</ele>
        <time>2021-06-05T15:33:00.552Z</time>
      </trkpt>
      <trkpt lat="45.66514" lon="5.6824">
        <ele>222</ele>
        <time>2021-06-05T15:33:05.544Z</time>
      </trkpt>
      <trkpt lat="45.66522" lon="5.68239">
        <ele>222</ele>
        <time>2021-06-05T15:33:10.532Z</time>
      </trkpt>
      <trkpt lat="45.6653" lon="5.68239">
        <ele>222</ele>
        <time>2021-06-05T15:33:15.554Z</time>
      </trkpt>
      <trkpt lat="45.66536" lon="5.68238">
        <ele>222</ele>
        <time>2021-06-05T15:33:20.536Z</time>
      </trkpt>
      <trkpt lat="45.66545" lon="5.68237">
        <ele>221</ele>
        <time>2021-06-05T15:33:25.528Z</time>
      </trkpt>
      <trkpt lat="45.66553" lon="5.68235">
        <ele>227</ele>
        <time>2021-06-05T15:33:29.545Z</time>
      </trkpt>
      <trkpt lat="45.66559" lon="5.68234">
        <ele>227</ele>
        <time>2021-06-05T15:33:34.546Z</time>
      </trkpt>
      <trkpt lat="45.66566" lon="5.68233">
        <ele>227</ele>
        <time>2021-06-05T15:33:39.534Z</time>
      </trkpt>
      <trkpt lat="45.66574" lon="5.68231">
        <ele>226</ele>
        <time>2021-06-05T15:33:44.532Z</time>
      </trkpt>
      <trkpt lat="45.66583" lon="5.68227">
        <ele>226</ele>
        <time>2021-06-05T15:33:49.535Z</time>
      </trkpt>
      <trkpt lat="45.66591" lon="5.68226">
        <ele>226</ele>
        <time>2021-06-05T15:33:54.528Z</time>
      </trkpt>
      <trkpt lat="45.66596" lon="5.68223">
        <ele>226</ele>
        <time>2021-06-05T15:33:59.535Z</time>
      </trkpt>
      <trkpt lat="45.66602" lon="5.68221">
        <ele>226</ele>
        <time>2021-06-05T15:34:04.530Z</time>
      </trkpt>
      <trkpt lat="45.66609" lon="5.68216">
        <ele>226</ele>
        <time>2021-06-05T15:34:09.545Z</time>
      </trkpt>
      <trkpt lat="45.66615" lon="5.68214">
        <ele>226</ele>
        <time>2021-06-05T15:34:14.529Z</time>
      </trkpt>
      <trkpt lat="45.66623" lon="5.68211">
        <ele>226</ele>
        <time>2021-06-05T15:34:19.533Z</time>
      </trkpt>
      <trkpt lat="45.66632" lon="5.68208">
        <ele>224</ele>
        <time>2021-06-05T15:34:24.534Z</time>
      </trkpt>
      <trkpt lat="45.66638" lon="5.68207">
        <ele>227</ele>
        <time>2021-06-05T15:34:29.537Z</time>
      </trkpt>
      <trkpt lat="45.66646" lon="5.68202">
        <ele>227</ele>
        <time>2021-06-05T15:34:34.534Z</time>
      </trkpt>
      <trkpt lat="45.66657" lon="5.68197">
        <ele>226</ele>
        <time>2021-06-05T15:34:39.537Z</time>
      </trkpt>
      <trkpt lat="45.66665" lon="5.68193">
        <ele>226</ele>
        <time>2021-06-05T15:34:44.525Z</time>
      </trkpt>
      <trkpt lat="45.66669" lon="5.68191">
        <ele>226</ele>
        <time>2021-06-05T15:34:48.537Z</time>
      </trkpt>
      <trkpt lat="45.66674" lon="5.68189">
        <ele>226</ele>
        <time>2021-06-05T15:34:52.543Z</time>
      </trkpt>
      <trkpt lat="45.66676" lon="5.68187">
        <ele>226</ele>
        <time>2021-06-05T15:34:57.534Z</time>
      </trkpt>
      <trkpt lat="45.66676" lon="5.68182">
        <ele>226</ele>
        <time>2021-06-05T15:35:02.538Z</time>
      </trkpt>
      <trkpt lat="45.66678" lon="5.68177">
        <ele>228</ele>
        <time>2021-06-05T15:35:07.533Z</time>
      </trkpt>
      <trkpt lat="45.66685" lon="5.68169">
        <ele>227</ele>
        <time>2021-06-05T15:35:12.533Z</time>
      </trkpt>
      <trkpt lat="45.66694" lon="5.68164">
        <ele>227</ele>
        <time>2021-06-05T15:35:17.541Z</time>
      </trkpt>
      <trkpt lat="45.66703" lon="5.6816">
        <ele>227</ele>
        <time>2021-06-05T15:35:22.543Z</time>
      </trkpt>
      <trkpt lat="45.6671" lon="5.68154">
        <ele>227</ele>
        <time>2021-06-05T15:35:27.528Z</time>
      </trkpt>
      <trkpt lat="45.66717" lon="5.68152">
        <ele>228</ele>
        <time>2021-06-05T15:35:32.533Z</time>
      </trkpt>
      <trkpt lat="45.66722" lon="5.68151">
        <ele>228</ele>
        <time>2021-06-05T15:35:36.547Z</time>
      </trkpt>
      <trkpt lat="45.66728" lon="5.68148">
        <ele>228</ele>
        <time>2021-06-05T15:35:41.537Z</time>
      </trkpt>
      <trkpt lat="45.66736" lon="5.68144">
        <ele>228</ele>
        <time>2021-06-05T15:35:46.538Z</time>
      </trkpt>
      <trkpt lat="45.66746" lon="5.6814">
        <ele>228</ele>
        <time>2021-06-05T15:35:51.542Z</time>
      </trkpt>
      <trkpt lat="45.66753" lon="5.68135">
        <ele>228</ele>
        <time>2021-06-05T15:35:56.536Z</time>
      </trkpt>
      <trkpt lat="45.66761" lon="5.68133">
        <ele>228</ele>
        <time>2021-06-05T15:36:00.540Z</time>
      </trkpt>
      <trkpt lat="45.66769" lon="5.68128">
        <ele>228</ele>
        <time>2021-06-05T15:36:05.533Z</time>
      </trkpt>
      <trkpt lat="45.66781" lon="5.6812">
        <ele>229</ele>
        <time>2021-06-05T15:36:30.535Z</time>
      </trkpt>
      <trkpt lat="45.66787" lon="5.68117">
        <ele>229</ele>
        <time>2021-06-05T15:36:35.530Z</time>
      </trkpt>
      <trkpt lat="45.66794" lon="5.68112">
        <ele>227</ele>
        <time>2021-06-05T15:36:40.540Z</time>
      </trkpt>
      <trkpt lat="45.66801" lon="5.68107">
        <ele>227</ele>
        <time>2021-06-05T15:36:45.546Z</time>
      </trkpt>
      <trkpt lat="45.66807" lon="5.68103">
        <ele>227</ele>
        <time>2021-06-05T15:36:50.537Z</time>
      </trkpt>
      <trkpt lat="45.66812" lon="5.68102">
        <ele>227</ele>
        <time>2021-06-05T15:36:55.553Z</time>
      </trkpt>
      <trkpt lat="45.66819" lon="5.68099">
        <ele>227</ele>
        <time>2021-06-05T15:37:00.575Z</time>
      </trkpt>
      <trkpt lat="45.66826" lon="5.68096">
        <ele>226</ele>
        <time>2021-06-05T15:37:05.534Z</time>
      </trkpt>
      <trkpt lat="45.66832" lon="5.68092">
        <ele>226</ele>
        <time>2021-06-05T15:37:09.532Z</time>
      </trkpt>
      <trkpt lat="45.6684" lon="5.68088">
        <ele>226</ele>
        <time>2021-06-05T15:37:14.533Z</time>
      </trkpt>
      <trkpt lat="45.66844" lon="5.68085">
        <ele>226</ele>
        <time>2021-06-05T15:37:19.528Z</time>
      </trkpt>
      <trkpt lat="45.66848" lon="5.68085">
        <ele>225</ele>
        <time>2021-06-05T15:37:24.541Z</time>
      </trkpt>
      <trkpt lat="45.66856" lon="5.68082">
        <ele>225</ele>
        <time>2021-06-05T15:37:29.556Z</time>
      </trkpt>
      <trkpt lat="45.66861" lon="5.68079">
        <ele>225</ele>
        <time>2021-06-05T15:37:34.540Z</time>
      </trkpt>
      <trkpt lat="45.66867" lon="5.68076">
        <ele>225</ele>
        <time>2021-06-05T15:37:39.549Z</time>
      </trkpt>
      <trkpt lat="45.66875" lon="5.68073">
        <ele>225</ele>
        <time>2021-06-05T15:37:44.540Z</time>
      </trkpt>
      <trkpt lat="45.66884" lon="5.68071">
        <ele>224</ele>
        <time>2021-06-05T15:37:49.552Z</time>
      </trkpt>
      <trkpt lat="45.66892" lon="5.68073">
        <ele>224</ele>
        <time>2021-06-05T15:37:54.535Z</time>
      </trkpt>
      <trkpt lat="45.66898" lon="5.68076">
        <ele>224</ele>
        <time>2021-06-05T15:37:59.544Z</time>
      </trkpt>
      <trkpt lat="45.66899" lon="5.68083">
        <ele>224</ele>
        <time>2021-06-05T15:38:04.535Z</time>
      </trkpt>
      <trkpt lat="45.66892" lon="5.6809">
        <ele>224</ele>
        <time>2021-06-05T15:38:09.535Z</time>
      </trkpt>
      <trkpt lat="45.66883" lon="5.68109">
        <ele>224</ele>
        <time>2021-06-05T15:38:29.537Z</time>
      </trkpt>
      <trkpt lat="45.66889" lon="5.6811">
        <ele>224</ele>
        <time>2021-06-05T15:38:33.555Z</time>
      </trkpt>
      <trkpt lat="45.66898" lon="5.68109">
        <ele>224</ele>
        <time>2021-06-05T15:38:38.537Z</time>
      </trkpt>
      <trkpt lat="45.66906" lon="5.68109">
        <ele>223</ele>
        <time>2021-06-05T15:38:43.543Z</time>
      </trkpt>
      <trkpt lat="45.66913" lon="5.68104">
        <ele>223</ele>
        <time>2021-06-05T15:38:48.551Z</time>
      </trkpt>
      <trkpt lat="45.6692" lon="5.68103">
        <ele>223</ele>
        <time>2021-06-05T15:38:53.545Z</time>
      </trkpt>
      <trkpt lat="45.66926" lon="5.68104">
        <ele>223</ele>
        <time>2021-06-05T15:38:58.535Z</time>
      </trkpt>
      <trkpt lat="45.66937" lon="5.68103">
        <ele>224</ele>
        <time>2021-06-05T15:39:03.538Z</time>
      </trkpt>
      <trkpt lat="45.66943" lon="5.68101">
        <ele>224</ele>
        <time>2021-06-05T15:39:08.549Z</time>
      </trkpt>
      <trkpt lat="45.66949" lon="5.68096">
        <ele>224</ele>
        <time>2021-06-05T15:39:13.529Z</time>
      </trkpt>
      <trkpt lat="45.66955" lon="5.68093">
        <ele>224</ele>
        <time>2021-06-05T15:39:17.550Z</time>
      </trkpt>
      <trkpt lat="45.66961" lon="5.68092">
        <ele>224</ele>
        <time>2021-06-05T15:39:21.560Z</time>
      </trkpt>
      <trkpt lat="45.6697" lon="5.68089">
        <ele>224</ele>
        <time>2021-06-05T15:39:26.547Z</time>
      </trkpt>
      <trkpt lat="45.66979" lon="5.68087">
        <ele>224</ele>
        <time>2021-06-05T15:39:31.535Z</time>
      </trkpt>
      <trkpt lat="45.66987" lon="5.68079">
        <ele>223</ele>
        <time>2021-06-05T15:39:36.534Z</time>
      </trkpt>
      <trkpt lat="45.66992" lon="5.68076">
        <ele>223</ele>
        <time>2021-06-05T15:39:40.536Z</time>
      </trkpt>
      <trkpt lat="45.66997" lon="5.6807">
        <ele>223</ele>
        <time>2021-06-05T15:39:45.523Z</time>
      </trkpt>
      <trkpt lat="45.67001" lon="5.68068">
        <ele>225</ele>
        <time>2021-06-05T15:39:50.545Z</time>
      </trkpt>
      <trkpt lat="45.67008" lon="5.6806">
        <ele>225</ele>
        <time>2021-06-05T15:39:55.532Z</time>
      </trkpt>
      <trkpt lat="45.67012" lon="5.68057">
        <ele>225</ele>
        <time>2021-06-05T15:40:00.522Z</time>
      </trkpt>
      <trkpt lat="45.67017" lon="5.68052">
        <ele>228</ele>
        <time>2021-06-05T15:40:05.546Z</time>
      </trkpt>
      <trkpt lat="45.67021" lon="5.68048">
        <ele>228</ele>
        <time>2021-06-05T15:40:10.531Z</time>
      </trkpt>
      <trkpt lat="45.67025" lon="5.68042">
        <ele>229</ele>
        <time>2021-06-05T15:40:15.538Z</time>
      </trkpt>
      <trkpt lat="45.67031" lon="5.68036">
        <ele>229</ele>
        <time>2021-06-05T15:40:20.527Z</time>
      </trkpt>
      <trkpt lat="45.67039" lon="5.68034">
        <ele>229</ele>
        <time>2021-06-05T15:40:25.532Z</time>
      </trkpt>
      <trkpt lat="45.67049" lon="5.68032">
        <ele>230</ele>
        <time>2021-06-05T15:40:30.538Z</time>
      </trkpt>
      <trkpt lat="45.67056" lon="5.68029">
        <ele>230</ele>
        <time>2021-06-05T15:40:35.536Z</time>
      </trkpt>
      <trkpt lat="45.67063" lon="5.68025">
        <ele>230</ele>
        <time>2021-06-05T15:40:40.539Z</time>
      </trkpt>
      <trkpt lat="45.67072" lon="5.68024">
        <ele>229</ele>
        <time>2021-06-05T15:40:45.533Z</time>
      </trkpt>
      <trkpt lat="45.67077" lon="5.68024">
        <ele>229</ele>
        <time>2021-06-05T15:40:50.537Z</time>
      </trkpt>
      <trkpt lat="45.67078" lon="5.68024">
        <ele>229</ele>
        <time>2021-06-05T15:40:54.545Z</time>
      </trkpt>
      <trkpt lat="45.67079" lon="5.68024">
        <ele>229</ele>
        <time>2021-06-05T15:40:59.540Z</time>
      </trkpt>
      <trkpt lat="45.67087" lon="5.68021">
        <ele>229</ele>
        <time>2021-06-05T15:41:04.537Z</time>
      </trkpt>
      <trkpt lat="45.67094" lon="5.68021">
        <ele>229</ele>
        <time>2021-06-05T15:41:09.529Z</time>
      </trkpt>
      <trkpt lat="45.67102" lon="5.68018">
        <ele>227</ele>
        <time>2021-06-05T15:41:14.534Z</time>
      </trkpt>
      <trkpt lat="45.67109" lon="5.68015">
        <ele>227</ele>
        <time>2021-06-05T15:41:19.532Z</time>
      </trkpt>
      <trkpt lat="45.6712" lon="5.68009">
        <ele>229</ele>
        <time>2021-06-05T15:41:24.529Z</time>
      </trkpt>
      <trkpt lat="45.67127" lon="5.68008">
        <ele>229</ele>
        <time>2021-06-05T15:41:28.540Z</time>
      </trkpt>
      <trkpt lat="45.67133" lon="5.68009">
        <ele>229</ele>
        <time>2021-06-05T15:41:33.547Z</time>
      </trkpt>
      <trkpt lat="45.6714" lon="5.68009">
        <ele>229</ele>
        <time>2021-06-05T15:41:38.549Z</time>
      </trkpt>
      <trkpt lat="45.67151" lon="5.68006">
        <ele>229</ele>
        <time>2021-06-05T15:41:43.544Z</time>
      </trkpt>
      <trkpt lat="45.6716" lon="5.68006">
        <ele>232</ele>
        <time>2021-06-05T15:41:48.537Z</time>
      </trkpt>
      <trkpt lat="45.67168" lon="5.68005">
        <ele>232</ele>
        <time>2021-06-05T15:41:53.552Z</time>
      </trkpt>
      <trkpt lat="45.67174" lon="5.68003">
        <ele>232</ele>
        <time>2021-06-05T15:41:58.526Z</time>
      </trkpt>
      <trkpt lat="45.67181" lon="5.68002">
        <ele>233</ele>
        <time>2021-06-05T15:42:03.543Z</time>
      </trkpt>
      <trkpt lat="45.67187" lon="5.68001">
        <ele>233</ele>
        <time>2021-06-05T15:42:08.537Z</time>
      </trkpt>
      <trkpt lat="45.67193" lon="5.68001">
        <ele>233</ele>
        <time>2021-06-05T15:42:13.521Z</time>
      </trkpt>
      <trkpt lat="45.67201" lon="5.68002">
        <ele>233</ele>
        <time>2021-06-05T15:42:18.528Z</time>
      </trkpt>
      <trkpt lat="45.67207" lon="5.68">
        <ele>233</ele>
        <time>2021-06-05T15:42:23.524Z</time>
      </trkpt>
      <trkpt lat="45.67208" lon="5.68">
        <ele>233</ele>
        <time>2021-06-05T15:42:28.521Z</time>
      </trkpt>
      <trkpt lat="45.67211" lon="5.68001">
        <ele>230</ele>
        <time>2021-06-05T15:42:32.534Z</time>
      </trkpt>
      <trkpt lat="45.67223" lon="5.68002">
        <ele>230</ele>
        <time>2021-06-05T15:42:37.531Z</time>
      </trkpt>
      <trkpt lat="45.67233" lon="5.67999">
        <ele>230</ele>
        <time>2021-06-05T15:42:41.542Z</time>
      </trkpt>
      <trkpt lat="45.67244" lon="5.68">
        <ele>229</ele>
        <time>2021-06-05T15:42:46.542Z</time>
      </trkpt>
      <trkpt lat="45.67253" lon="5.68">
        <ele>229</ele>
        <time>2021-06-05T15:42:50.545Z</time>
      </trkpt>
      <trkpt lat="45.6726" lon="5.68">
        <ele>229</ele>
        <time>2021-06-05T15:42:55.539Z</time>
      </trkpt>
      <trkpt lat="45.67268" lon="5.68">
        <ele>226</ele>
        <time>2021-06-05T15:43:00.530Z</time>
      </trkpt>
      <trkpt lat="45.67275" lon="5.68001">
        <ele>226</ele>
        <time>2021-06-05T15:43:05.538Z</time>
      </trkpt>
      <trkpt lat="45.67283" lon="5.68001">
        <ele>226</ele>
        <time>2021-06-05T15:43:10.532Z</time>
      </trkpt>
      <trkpt lat="45.67293" lon="5.67999">
        <ele>224</ele>
        <time>2021-06-05T15:43:15.545Z</time>
      </trkpt>
      <trkpt lat="45.67302" lon="5.67999">
        <ele>224</ele>
        <time>2021-06-05T15:43:20.528Z</time>
      </trkpt>
      <trkpt lat="45.67309" lon="5.67999">
        <ele>224</ele>
        <time>2021-06-05T15:43:25.541Z</time>
      </trkpt>
      <trkpt lat="45.6731" lon="5.67999">
        <ele>224</ele>
        <time>2021-06-05T15:43:30.534Z</time>
      </trkpt>
      <trkpt lat="45.6732" lon="5.67999">
        <ele>224</ele>
        <time>2021-06-05T15:43:35.536Z</time>
      </trkpt>
      <trkpt lat="45.67328" lon="5.67997">
        <ele>224</ele>
        <time>2021-06-05T15:43:40.545Z</time>
      </trkpt>
      <trkpt lat="45.67342" lon="5.68001">
        <ele>224</ele>
        <time>2021-06-05T15:45:58.511Z</time>
      </trkpt>
      <trkpt lat="45.67347" lon="5.67993">
        <ele>224</ele>
        <time>2021-06-05T15:46:03.547Z</time>
      </trkpt>
      <trkpt lat="45.67356" lon="5.67989">
        <ele>224</ele>
        <time>2021-06-05T15:46:08.560Z</time>
      </trkpt>
      <trkpt lat="45.67358" lon="5.67984">
        <ele>227</ele>
        <time>2021-06-05T15:46:13.550Z</time>
      </trkpt>
      <trkpt lat="45.67364" lon="5.67982">
        <ele>227</ele>
        <time>2021-06-05T15:46:18.544Z</time>
      </trkpt>
      <trkpt lat="45.6737" lon="5.6798">
        <ele>227</ele>
        <time>2021-06-05T15:46:23.550Z</time>
      </trkpt>
      <trkpt lat="45.67374" lon="5.67976">
        <ele>227</ele>
        <time>2021-06-05T15:46:28.535Z</time>
      </trkpt>
      <trkpt lat="45.67379" lon="5.67975">
        <ele>227</ele>
        <time>2021-06-05T15:46:33.531Z</time>
      </trkpt>
      <trkpt lat="45.67387" lon="5.67975">
        <ele>227</ele>
        <time>2021-06-05T15:46:38.536Z</time>
      </trkpt>
      <trkpt lat="45.67395" lon="5.67973">
        <ele>227</ele>
        <time>2021-06-05T15:46:43.545Z</time>
      </trkpt>
      <trkpt lat="45.674" lon="5.67973">
        <ele>227</ele>
        <time>2021-06-05T15:46:48.529Z</time>
      </trkpt>
      <trkpt lat="45.67405" lon="5.67973">
        <ele>227</ele>
        <time>2021-06-05T15:46:52.557Z</time>
      </trkpt>
      <trkpt lat="45.6741" lon="5.6797">
        <ele>227</ele>
        <time>2021-06-05T15:46:57.544Z</time>
      </trkpt>
      <trkpt lat="45.67415" lon="5.67969">
        <ele>227</ele>
        <time>2021-06-05T15:47:01.549Z</time>
      </trkpt>
      <trkpt lat="45.67419" lon="5.67971">
        <ele>227</ele>
        <time>2021-06-05T15:47:06.552Z</time>
      </trkpt>
      <trkpt lat="45.67424" lon="5.67968">
        <ele>227</ele>
        <time>2021-06-05T15:47:11.543Z</time>
      </trkpt>
      <trkpt lat="45.6743" lon="5.67965">
        <ele>227</ele>
        <time>2021-06-05T15:47:16.546Z</time>
      </trkpt>
      <trkpt lat="45.67435" lon="5.67963">
        <ele>227</ele>
        <time>2021-06-05T15:47:21.540Z</time>
      </trkpt>
      <trkpt lat="45.67442" lon="5.67964">
        <ele>227</ele>
        <time>2021-06-05T15:47:26.553Z</time>
      </trkpt>
      <trkpt lat="45.67448" lon="5.67962">
        <ele>227</ele>
        <time>2021-06-05T15:47:31.542Z</time>
      </trkpt>
      <trkpt lat="45.67454" lon="5.67959">
        <ele>227</ele>
        <time>2021-06-05T15:47:36.542Z</time>
      </trkpt>
      <trkpt lat="45.67456" lon="5.67961">
        <ele>227</ele>
        <time>2021-06-05T15:47:41.537Z</time>
      </trkpt>
      <trkpt lat="45.67457" lon="5.67962">
        <ele>227</ele>
        <time>2021-06-05T15:47:46.536Z</time>
      </trkpt>
      <trkpt lat="45.67459" lon="5.6796">
        <ele>226</ele>
        <time>2021-06-05T15:47:51.548Z</time>
      </trkpt>
      <trkpt lat="45.67463" lon="5.67957">
        <ele>227</ele>
        <time>2021-06-05T15:47:55.552Z</time>
      </trkpt>
      <trkpt lat="45.67468" lon="5.67955">
        <ele>227</ele>
        <time>2021-06-05T15:48:00.527Z</time>
      </trkpt>
      <trkpt lat="45.67471" lon="5.67956">
        <ele>227</ele>
        <time>2021-06-05T15:48:04.557Z</time>
      </trkpt>
      <trkpt lat="45.67473" lon="5.67956">
        <ele>227</ele>
        <time>2021-06-05T15:48:09.553Z</time>
      </trkpt>
      <trkpt lat="45.67483" lon="5.67949">
        <ele>227</ele>
        <time>2021-06-05T15:48:14.539Z</time>
      </trkpt>
      <trkpt lat="45.67488" lon="5.67947">
        <ele>226</ele>
        <time>2021-06-05T15:48:19.539Z</time>
      </trkpt>
      <trkpt lat="45.67494" lon="5.67942">
        <ele>226</ele>
        <time>2021-06-05T15:48:24.536Z</time>
      </trkpt>
      <trkpt lat="45.67502" lon="5.6794">
        <ele>226</ele>
        <time>2021-06-05T15:48:29.539Z</time>
      </trkpt>
      <trkpt lat="45.6751" lon="5.67937">
        <ele>226</ele>
        <time>2021-06-05T15:48:33.551Z</time>
      </trkpt>
      <trkpt lat="45.67515" lon="5.67933">
        <ele>226</ele>
        <time>2021-06-05T15:48:38.529Z</time>
      </trkpt>
      <trkpt lat="45.6752" lon="5.67934">
        <ele>226</ele>
        <time>2021-06-05T15:48:43.524Z</time>
      </trkpt>
      <trkpt lat="45.67526" lon="5.67932">
        <ele>226</ele>
        <time>2021-06-05T15:48:48.535Z</time>
      </trkpt>
      <trkpt lat="45.6753" lon="5.6793">
        <ele>227</ele>
        <time>2021-06-05T15:48:53.543Z</time>
      </trkpt>
      <trkpt lat="45.67535" lon="5.6793">
        <ele>227</ele>
        <time>2021-06-05T15:48:57.546Z</time>
      </trkpt>
      <trkpt lat="45.67547" lon="5.67933">
        <ele>225</ele>
        <time>2021-06-05T15:49:21.534Z</time>
      </trkpt>
      <trkpt lat="45.67547" lon="5.67934">
        <ele>225</ele>
        <time>2021-06-05T15:49:26.553Z</time>
      </trkpt>
      <trkpt lat="45.67553" lon="5.67932">
        <ele>225</ele>
        <time>2021-06-05T15:49:31.541Z</time>
      </trkpt>
      <trkpt lat="45.67559" lon="5.67932">
        <ele>225</ele>
        <time>2021-06-05T15:49:36.564Z</time>
      </trkpt>
      <trkpt lat="45.67565" lon="5.67936">
        <ele>225</ele>
        <time>2021-06-05T15:49:41.554Z</time>
      </trkpt>
      <trkpt lat="45.67569" lon="5.67934">
        <ele>225</ele>
        <time>2021-06-05T15:49:46.550Z</time>
      </trkpt>
      <trkpt lat="45.67575" lon="5.67935">
        <ele>225</ele>
        <time>2021-06-05T15:49:51.542Z</time>
      </trkpt>
      <trkpt lat="45.6758" lon="5.67934">
        <ele>225</ele>
        <time>2021-06-05T15:49:56.547Z</time>
      </trkpt>
      <trkpt lat="45.6759" lon="5.67929">
        <ele>226</ele>
        <time>2021-06-05T15:50:01.552Z</time>
      </trkpt>
      <trkpt lat="45.67596" lon="5.67925">
        <ele>226</ele>
        <time>2021-06-05T15:50:05.566Z</time>
      </trkpt>
      <trkpt lat="45.67603" lon="5.67922">
        <ele>226</ele>
        <time>2021-06-05T15:50:10.546Z</time>
      </trkpt>
      <trkpt lat="45.6761" lon="5.67923">
        <ele>226</ele>
        <time>2021-06-05T15:50:15.529Z</time>
      </trkpt>
      <trkpt lat="45.67615" lon="5.67921">
        <ele>226</ele>
        <time>2021-06-05T15:50:19.537Z</time>
      </trkpt>
      <trkpt lat="45.67619" lon="5.67922">
        <ele>226</ele>
        <time>2021-06-05T15:50:23.558Z</time>
      </trkpt>
      <trkpt lat="45.67628" lon="5.6792">
        <ele>227</ele>
        <time>2021-06-05T15:50:28.536Z</time>
      </trkpt>
      <trkpt lat="45.67636" lon="5.67918">
        <ele>227</ele>
        <time>2021-06-05T15:50:33.549Z</time>
      </trkpt>
      <trkpt lat="45.67644" lon="5.6792">
        <ele>227</ele>
        <time>2021-06-05T15:50:38.541Z</time>
      </trkpt>
      <trkpt lat="45.67647" lon="5.67925">
        <ele>227</ele>
        <time>2021-06-05T15:50:42.558Z</time>
      </trkpt>
      <trkpt lat="45.67656" lon="5.67929">
        <ele>227</ele>
        <time>2021-06-05T15:50:47.530Z</time>
      </trkpt>
      <trkpt lat="45.67663" lon="5.67935">
        <ele>226</ele>
        <time>2021-06-05T15:50:51.551Z</time>
      </trkpt>
      <trkpt lat="45.67671" lon="5.6794">
        <ele>226</ele>
        <time>2021-06-05T15:50:56.550Z</time>
      </trkpt>
      <trkpt lat="45.67678" lon="5.67943">
        <ele>226</ele>
        <time>2021-06-05T15:51:01.551Z</time>
      </trkpt>
      <trkpt lat="45.67682" lon="5.67946">
        <ele>226</ele>
        <time>2021-06-05T15:51:05.552Z</time>
      </trkpt>
      <trkpt lat="45.67687" lon="5.67947">
        <ele>226</ele>
        <time>2021-06-05T15:51:10.541Z</time>
      </trkpt>
      <trkpt lat="45.67694" lon="5.67947">
        <ele>226</ele>
        <time>2021-06-05T15:51:15.543Z</time>
      </trkpt>
      <trkpt lat="45.677" lon="5.67948">
        <ele>226</ele>
        <time>2021-06-05T15:51:20.553Z</time>
      </trkpt>
      <trkpt lat="45.67704" lon="5.67953">
        <ele>226</ele>
        <time>2021-06-05T15:51:25.556Z</time>
      </trkpt>
      <trkpt lat="45.67706" lon="5.67962">
        <ele>226</ele>
        <time>2021-06-05T15:51:30.557Z</time>
      </trkpt>
      <trkpt lat="45.67708" lon="5.67966">
        <ele>226</ele>
        <time>2021-06-05T15:51:35.546Z</time>
      </trkpt>
      <trkpt lat="45.67707" lon="5.67957">
        <ele>226</ele>
        <time>2021-06-05T15:55:50.554Z</time>
      </trkpt>
      <trkpt lat="45.67707" lon="5.67956">
        <ele>226</ele>
        <time>2021-06-05T15:55:55.542Z</time>
      </trkpt>
      <trkpt lat="45.67707" lon="5.67956">
        <ele>226</ele>
        <time>2021-06-05T15:56:00.534Z</time>
      </trkpt>
      <trkpt lat="45.67707" lon="5.67956">
        <ele>226</ele>
        <time>2021-06-05T15:56:05.504Z</time>
      </trkpt>
      <trkpt lat="45.67706" lon="5.67954">
        <ele>226</ele>
        <time>2021-06-05T15:56:10.499Z</time>
      </trkpt>
      <trkpt lat="45.67702" lon="5.67967">
        <ele>226</ele>
        <time>2021-06-05T15:57:03.552Z</time>
      </trkpt>
      <trkpt lat="45.67703" lon="5.67968">
        <ele>226</ele>
        <time>2021-06-05T15:57:08.551Z</time>
      </trkpt>
      <trkpt lat="45.67703" lon="5.67969">
        <ele>226</ele>
        <time>2021-06-05T15:57:13.556Z</time>
      </trkpt>
      <trkpt lat="45.67703" lon="5.6797">
        <ele>226</ele>
        <time>2021-06-05T15:57:18.518Z</time>
      </trkpt>
      <trkpt lat="45.67705" lon="5.67971">
        <ele>226</ele>
        <time>2021-06-05T15:57:23.498Z</time>
      </trkpt>
      <trkpt lat="45.67707" lon="5.67966">
        <ele>226</ele>
        <time>2021-06-05T16:00:38.536Z</time>
      </trkpt>
      <trkpt lat="45.67706" lon="5.67965">
        <ele>226</ele>
        <time>2021-06-05T16:00:43.533Z</time>
      </trkpt>
      <trkpt lat="45.67706" lon="5.67963">
        <ele>226</ele>
        <time>2021-06-05T16:00:48.543Z</time>
      </trkpt>
      <trkpt lat="45.67705" lon="5.67961">
        <ele>226</ele>
        <time>2021-06-05T16:00:52.551Z</time>
      </trkpt>
      <trkpt lat="45.67705" lon="5.67959">
        <ele>226</ele>
        <time>2021-06-05T16:00:57.550Z</time>
      </trkpt>
      <trkpt lat="45.67702" lon="5.67963">
        <ele>226</ele>
        <time>2021-06-05T16:06:24.491Z</time>
      </trkpt>
      <trkpt lat="45.67699" lon="5.67962">
        <ele>226</ele>
        <time>2021-06-05T16:06:28.542Z</time>
      </trkpt>
      <trkpt lat="45.67698" lon="5.67963">
        <ele>226</ele>
        <time>2021-06-05T16:06:33.537Z</time>
      </trkpt>
      <trkpt lat="45.67697" lon="5.67963">
        <ele>226</ele>
        <time>2021-06-05T16:06:37.546Z</time>
      </trkpt>
      <trkpt lat="45.67697" lon="5.67962">
        <ele>226</ele>
        <time>2021-06-05T16:06:42.538Z</time>
      </trkpt>
      <trkpt lat="45.67699" lon="5.67961">
        <ele>226</ele>
        <time>2021-06-05T16:11:49.497Z</time>
      </trkpt>
      <trkpt lat="45.677" lon="5.67962">
        <ele>226</ele>
        <time>2021-06-05T16:11:53.511Z</time>
      </trkpt>
      <trkpt lat="45.677" lon="5.67962">
        <ele>226</ele>
        <time>2021-06-05T16:11:58.491Z</time>
      </trkpt>
      <trkpt lat="45.67703" lon="5.67963">
        <ele>226</ele>
        <time>2021-06-05T16:12:03.490Z</time>
      </trkpt>
      <trkpt lat="45.67708" lon="5.67967">
        <ele>226</ele>
        <time>2021-06-05T16:12:07.527Z</time>
      </trkpt>
      <trkpt lat="45.67707" lon="5.67969">
        <ele>226</ele>
        <time>2021-06-05T16:12:12.554Z</time>
      </trkpt>
      <trkpt lat="45.67701" lon="5.67977">
        <ele>226</ele>
        <time>2021-06-05T16:12:17.534Z</time>
      </trkpt>
      <trkpt lat="45.677" lon="5.67978">
        <ele>226</ele>
        <time>2021-06-05T16:12:21.553Z</time>
      </trkpt>
      <trkpt lat="45.67697" lon="5.67978">
        <ele>226</ele>
        <time>2021-06-05T16:12:26.557Z</time>
      </trkpt>
      <trkpt lat="45.67691" lon="5.67978">
        <ele>226</ele>
        <time>2021-06-05T16:12:31.539Z</time>
      </trkpt>
      <trkpt lat="45.67687" lon="5.67981">
        <ele>226</ele>
        <time>2021-06-05T16:12:36.550Z</time>
      </trkpt>
      <trkpt lat="45.67682" lon="5.67988">
        <ele>225</ele>
        <time>2021-06-05T16:12:41.544Z</time>
      </trkpt>
      <trkpt lat="45.67677" lon="5.67993">
        <ele>224</ele>
        <time>2021-06-05T16:12:45.560Z</time>
      </trkpt>
      <trkpt lat="45.6766" lon="5.67995">
        <ele>224</ele>
        <time>2021-06-05T16:13:05.562Z</time>
      </trkpt>
      <trkpt lat="45.67657" lon="5.6799">
        <ele>224</ele>
        <time>2021-06-05T16:13:10.559Z</time>
      </trkpt>
      <trkpt lat="45.6765" lon="5.6799">
        <ele>222</ele>
        <time>2021-06-05T16:13:15.554Z</time>
      </trkpt>
      <trkpt lat="45.67643" lon="5.67994">
        <ele>222</ele>
        <time>2021-06-05T16:13:20.547Z</time>
      </trkpt>
      <trkpt lat="45.67639" lon="5.68002">
        <ele>222</ele>
        <time>2021-06-05T16:13:25.555Z</time>
      </trkpt>
      <trkpt lat="45.67637" lon="5.68003">
        <ele>222</ele>
        <time>2021-06-05T16:13:49.564Z</time>
      </trkpt>
      <trkpt lat="45.67637" lon="5.68011">
        <ele>222</ele>
        <time>2021-06-05T16:13:54.554Z</time>
      </trkpt>
      <trkpt lat="45.67636" lon="5.68014">
        <ele>220</ele>
        <time>2021-06-05T16:13:59.556Z</time>
      </trkpt>
      <trkpt lat="45.6763" lon="5.68015">
        <ele>220</ele>
        <time>2021-06-05T16:14:04.549Z</time>
      </trkpt>
      <trkpt lat="45.67623" lon="5.68017">
        <ele>219</ele>
        <time>2021-06-05T16:14:09.546Z</time>
      </trkpt>
      <trkpt lat="45.67616" lon="5.68026">
        <ele>219</ele>
        <time>2021-06-05T16:14:28.554Z</time>
      </trkpt>
      <trkpt lat="45.67616" lon="5.68031">
        <ele>219</ele>
        <time>2021-06-05T16:14:33.542Z</time>
      </trkpt>
      <trkpt lat="45.67614" lon="5.68038">
        <ele>219</ele>
        <time>2021-06-05T16:14:38.546Z</time>
      </trkpt>
      <trkpt lat="45.67613" lon="5.68043">
        <ele>218</ele>
        <time>2021-06-05T16:14:43.559Z</time>
      </trkpt>
      <trkpt lat="45.67613" lon="5.68043">
        <ele>218</ele>
        <time>2021-06-05T16:14:48.549Z</time>
      </trkpt>
      <trkpt lat="45.6761" lon="5.68045">
        <ele>218</ele>
        <time>2021-06-05T16:15:52.529Z</time>
      </trkpt>
      <trkpt lat="45.67609" lon="5.68044">
        <ele>218</ele>
        <time>2021-06-05T16:15:57.542Z</time>
      </trkpt>
      <trkpt lat="45.67609" lon="5.68041">
        <ele>219</ele>
        <time>2021-06-05T16:16:02.546Z</time>
      </trkpt>
      <trkpt lat="45.67611" lon="5.68039">
        <ele>219</ele>
        <time>2021-06-05T16:16:07.552Z</time>
      </trkpt>
      <trkpt lat="45.67613" lon="5.6803">
        <ele>219</ele>
        <time>2021-06-05T16:16:12.545Z</time>
      </trkpt>
      <trkpt lat="45.67617" lon="5.68025">
        <ele>219</ele>
        <time>2021-06-05T16:16:17.553Z</time>
      </trkpt>
      <trkpt lat="45.67618" lon="5.68021">
        <ele>219</ele>
        <time>2021-06-05T16:16:22.556Z</time>
      </trkpt>
      <trkpt lat="45.67615" lon="5.68016">
        <ele>219</ele>
        <time>2021-06-05T16:16:27.560Z</time>
      </trkpt>
      <trkpt lat="45.67614" lon="5.6801">
        <ele>220</ele>
        <time>2021-06-05T16:16:32.531Z</time>
      </trkpt>
      <trkpt lat="45.67613" lon="5.68004">
        <ele>220</ele>
        <time>2021-06-05T16:16:36.544Z</time>
      </trkpt>
      <trkpt lat="45.67615" lon="5.68002">
        <ele>220</ele>
        <time>2021-06-05T16:16:41.549Z</time>
      </trkpt>
      <trkpt lat="45.6762" lon="5.68001">
        <ele>220</ele>
        <time>2021-06-05T16:16:46.538Z</time>
      </trkpt>
      <trkpt lat="45.67625" lon="5.67999">
        <ele>222</ele>
        <time>2021-06-05T16:16:51.536Z</time>
      </trkpt>
      <trkpt lat="45.67629" lon="5.67998">
        <ele>222</ele>
        <time>2021-06-05T16:16:56.537Z</time>
      </trkpt>
      <trkpt lat="45.67633" lon="5.67991">
        <ele>222</ele>
        <time>2021-06-05T16:17:01.540Z</time>
      </trkpt>
      <trkpt lat="45.67637" lon="5.67987">
        <ele>222</ele>
        <time>2021-06-05T16:17:06.534Z</time>
      </trkpt>
      <trkpt lat="45.6764" lon="5.67986">
        <ele>222</ele>
        <time>2021-06-05T16:17:11.539Z</time>
      </trkpt>
      <trkpt lat="45.67639" lon="5.67984">
        <ele>224</ele>
        <time>2021-06-05T16:17:36.533Z</time>
      </trkpt>
      <trkpt lat="45.6764" lon="5.67984">
        <ele>224</ele>
        <time>2021-06-05T16:17:41.528Z</time>
      </trkpt>
      <trkpt lat="45.67642" lon="5.67986">
        <ele>224</ele>
        <time>2021-06-05T16:17:45.539Z</time>
      </trkpt>
      <trkpt lat="45.67646" lon="5.67989">
        <ele>222</ele>
        <time>2021-06-05T16:17:50.538Z</time>
      </trkpt>
      <trkpt lat="45.6765" lon="5.67993">
        <ele>222</ele>
        <time>2021-06-05T16:17:55.525Z</time>
      </trkpt>
      <trkpt lat="45.67654" lon="5.67994">
        <ele>224</ele>
        <time>2021-06-05T16:18:00.534Z</time>
      </trkpt>
      <trkpt lat="45.67657" lon="5.67996">
        <ele>224</ele>
        <time>2021-06-05T16:18:05.534Z</time>
      </trkpt>
      <trkpt lat="45.67662" lon="5.67995">
        <ele>224</ele>
        <time>2021-06-05T16:18:10.522Z</time>
      </trkpt>
      <trkpt lat="45.67665" lon="5.67995">
        <ele>224</ele>
        <time>2021-06-05T16:18:14.530Z</time>
      </trkpt>
      <trkpt lat="45.67669" lon="5.67994">
        <ele>224</ele>
        <time>2021-06-05T16:18:24.554Z</time>
      </trkpt>
      <trkpt lat="45.67669" lon="5.67993">
        <ele>224</ele>
        <time>2021-06-05T16:18:29.552Z</time>
      </trkpt>
      <trkpt lat="45.67669" lon="5.67991">
        <ele>224</ele>
        <time>2021-06-05T16:18:34.550Z</time>
      </trkpt>
      <trkpt lat="45.67673" lon="5.67993">
        <ele>224</ele>
        <time>2021-06-05T16:18:39.558Z</time>
      </trkpt>
      <trkpt lat="45.67679" lon="5.6799">
        <ele>224</ele>
        <time>2021-06-05T16:18:44.530Z</time>
      </trkpt>
      <trkpt lat="45.67689" lon="5.67989">
        <ele>225</ele>
        <time>2021-06-05T16:19:04.534Z</time>
      </trkpt>
      <trkpt lat="45.6769" lon="5.67992">
        <ele>225</ele>
        <time>2021-06-05T16:19:09.537Z</time>
      </trkpt>
      <trkpt lat="45.67691" lon="5.67994">
        <ele>225</ele>
        <time>2021-06-05T16:19:14.534Z</time>
      </trkpt>
      <trkpt lat="45.67695" lon="5.6799">
        <ele>225</ele>
        <time>2021-06-05T16:19:19.529Z</time>
      </trkpt>
      <trkpt lat="45.67696" lon="5.6799">
        <ele>225</ele>
        <time>2021-06-05T16:19:23.549Z</time>
      </trkpt>
      <trkpt lat="45.67696" lon="5.67978">
        <ele>226</ele>
        <time>2021-06-05T16:29:30.514Z</time>
      </trkpt>
      <trkpt lat="45.67697" lon="5.67977">
        <ele>226</ele>
        <time>2021-06-05T16:29:35.519Z</time>
      </trkpt>
      <trkpt lat="45.67699" lon="5.67972">
        <ele>226</ele>
        <time>2021-06-05T16:29:40.550Z</time>
      </trkpt>
      <trkpt lat="45.67705" lon="5.67968">
        <ele>226</ele>
        <time>2021-06-05T16:29:45.540Z</time>
      </trkpt>
      <trkpt lat="45.67708" lon="5.67967">
        <ele>226</ele>
        <time>2021-06-05T16:29:50.539Z</time>
      </trkpt>
      <trkpt lat="45.67704" lon="5.67956">
        <ele>226</ele>
        <time>2021-06-05T16:34:18.539Z</time>
      </trkpt>
      <trkpt lat="45.67704" lon="5.67956">
        <ele>226</ele>
        <time>2021-06-05T16:34:23.546Z</time>
      </trkpt>
      <trkpt lat="45.67703" lon="5.67955">
        <ele>226</ele>
        <time>2021-06-05T16:34:28.520Z</time>
      </trkpt>
      <trkpt lat="45.67702" lon="5.67955">
        <ele>226</ele>
        <time>2021-06-05T16:34:32.531Z</time>
      </trkpt>
      <trkpt lat="45.67701" lon="5.67954">
        <ele>226</ele>
        <time>2021-06-05T16:34:37.529Z</time>
      </trkpt>
      <trkpt lat="45.67698" lon="5.67954">
        <ele>226</ele>
        <time>2021-06-05T16:34:41.553Z</time>
      </trkpt>
      <trkpt lat="45.67683" lon="5.67951">
        <ele>226</ele>
        <time>2021-06-05T16:34:46.534Z</time>
      </trkpt>
      <trkpt lat="45.67661" lon="5.67943">
        <ele>226</ele>
        <time>2021-06-05T16:34:51.525Z</time>
      </trkpt>
      <trkpt lat="45.67647" lon="5.67939">
        <ele>225</ele>
        <time>2021-06-05T16:34:55.530Z</time>
      </trkpt>
      <trkpt lat="45.67623" lon="5.67937">
        <ele>225</ele>
        <time>2021-06-05T16:35:00.534Z</time>
      </trkpt>
      <trkpt lat="45.67596" lon="5.67937">
        <ele>225</ele>
        <time>2021-06-05T16:35:05.527Z</time>
      </trkpt>
      <trkpt lat="45.67572" lon="5.67943">
        <ele>225</ele>
        <time>2021-06-05T16:35:10.542Z</time>
      </trkpt>
      <trkpt lat="45.67552" lon="5.67944">
        <ele>225</ele>
        <time>2021-06-05T16:35:15.543Z</time>
      </trkpt>
      <trkpt lat="45.67538" lon="5.67945">
        <ele>226</ele>
        <time>2021-06-05T16:35:20.536Z</time>
      </trkpt>
      <trkpt lat="45.67533" lon="5.67945">
        <ele>226</ele>
        <time>2021-06-05T16:35:39.522Z</time>
      </trkpt>
      <trkpt lat="45.6753" lon="5.67946">
        <ele>226</ele>
        <time>2021-06-05T16:36:48.528Z</time>
      </trkpt>
      <trkpt lat="45.67513" lon="5.67951">
        <ele>226</ele>
        <time>2021-06-05T16:36:53.520Z</time>
      </trkpt>
      <trkpt lat="45.67496" lon="5.67958">
        <ele>226</ele>
        <time>2021-06-05T16:36:57.521Z</time>
      </trkpt>
      <trkpt lat="45.67476" lon="5.67963">
        <ele>226</ele>
        <time>2021-06-05T16:37:02.537Z</time>
      </trkpt>
      <trkpt lat="45.67455" lon="5.67968">
        <ele>227</ele>
        <time>2021-06-05T16:37:07.525Z</time>
      </trkpt>
      <trkpt lat="45.67432" lon="5.67974">
        <ele>227</ele>
        <time>2021-06-05T16:37:12.528Z</time>
      </trkpt>
      <trkpt lat="45.67408" lon="5.67983">
        <ele>227</ele>
        <time>2021-06-05T16:37:17.522Z</time>
      </trkpt>
      <trkpt lat="45.67385" lon="5.6799">
        <ele>224</ele>
        <time>2021-06-05T16:37:22.527Z</time>
      </trkpt>
      <trkpt lat="45.67368" lon="5.67994">
        <ele>224</ele>
        <time>2021-06-05T16:37:26.544Z</time>
      </trkpt>
      <trkpt lat="45.67353" lon="5.67992">
        <ele>224</ele>
        <time>2021-06-05T16:37:31.514Z</time>
      </trkpt>
      <trkpt lat="45.67352" lon="5.67971">
        <ele>227</ele>
        <time>2021-06-05T16:37:35.534Z</time>
      </trkpt>
      <trkpt lat="45.67363" lon="5.67942">
        <ele>230</ele>
        <time>2021-06-05T16:37:40.521Z</time>
      </trkpt>
      <trkpt lat="45.67376" lon="5.67914">
        <ele>232</ele>
        <time>2021-06-05T16:37:45.522Z</time>
      </trkpt>
      <trkpt lat="45.67391" lon="5.67891">
        <ele>234</ele>
        <time>2021-06-05T16:37:50.526Z</time>
      </trkpt>
      <trkpt lat="45.67461" lon="5.67868">
        <ele>233</ele>
        <time>2021-06-05T16:47:25.506Z</time>
      </trkpt>
      <trkpt lat="45.67468" lon="5.67875">
        <ele>233</ele>
        <time>2021-06-05T16:47:29.556Z</time>
      </trkpt>
      <trkpt lat="45.67471" lon="5.6787">
        <ele>233</ele>
        <time>2021-06-05T16:47:34.569Z</time>
      </trkpt>
      <trkpt lat="45.67474" lon="5.67864">
        <ele>233</ele>
        <time>2021-06-05T16:47:44.553Z</time>
      </trkpt>
      <trkpt lat="45.67474" lon="5.67856">
        <ele>233</ele>
        <time>2021-06-05T16:47:54.558Z</time>
      </trkpt>
      <trkpt lat="45.67475" lon="5.67848">
        <ele>233</ele>
        <time>2021-06-05T16:48:58.501Z</time>
      </trkpt>
      <trkpt lat="45.67476" lon="5.67849">
        <ele>233</ele>
        <time>2021-06-05T16:49:03.506Z</time>
      </trkpt>
      <trkpt lat="45.67473" lon="5.67855">
        <ele>233</ele>
        <time>2021-06-05T16:49:08.489Z</time>
      </trkpt>
      <trkpt lat="45.67473" lon="5.67859">
        <ele>233</ele>
        <time>2021-06-05T16:49:13.497Z</time>
      </trkpt>
      <trkpt lat="45.67472" lon="5.67864">
        <ele>233</ele>
        <time>2021-06-05T16:49:17.488Z</time>
      </trkpt>
      <trkpt lat="45.67471" lon="5.67849">
        <ele>233</ele>
        <time>2021-06-05T16:52:56.547Z</time>
      </trkpt>
      <trkpt lat="45.6747" lon="5.67849">
        <ele>233</ele>
        <time>2021-06-05T16:53:01.526Z</time>
      </trkpt>
      <trkpt lat="45.67474" lon="5.67844">
        <ele>236</ele>
        <time>2021-06-05T16:53:05.539Z</time>
      </trkpt>
      <trkpt lat="45.67479" lon="5.67841">
        <ele>236</ele>
        <time>2021-06-05T16:53:10.543Z</time>
      </trkpt>
      <trkpt lat="45.67485" lon="5.67837">
        <ele>236</ele>
        <time>2021-06-05T16:53:15.531Z</time>
      </trkpt>
      <trkpt lat="45.67493" lon="5.67838">
        <ele>235</ele>
        <time>2021-06-05T16:53:20.540Z</time>
      </trkpt>
      <trkpt lat="45.67498" lon="5.67833">
        <ele>235</ele>
        <time>2021-06-05T16:53:25.536Z</time>
      </trkpt>
      <trkpt lat="45.67504" lon="5.67827">
        <ele>235</ele>
        <time>2021-06-05T16:53:30.530Z</time>
      </trkpt>
      <trkpt lat="45.6751" lon="5.67828">
        <ele>235</ele>
        <time>2021-06-05T16:53:34.543Z</time>
      </trkpt>
      <trkpt lat="45.67516" lon="5.67828">
        <ele>235</ele>
        <time>2021-06-05T16:53:39.534Z</time>
      </trkpt>
      <trkpt lat="45.67522" lon="5.67823">
        <ele>235</ele>
        <time>2021-06-05T16:53:44.535Z</time>
      </trkpt>
      <trkpt lat="45.67523" lon="5.67825">
        <ele>235</ele>
        <time>2021-06-05T16:53:49.556Z</time>
      </trkpt>
      <trkpt lat="45.67531" lon="5.67821">
        <ele>235</ele>
        <time>2021-06-05T16:53:54.540Z</time>
      </trkpt>
      <trkpt lat="45.67537" lon="5.67819">
        <ele>237</ele>
        <time>2021-06-05T16:53:59.532Z</time>
      </trkpt>
      <trkpt lat="45.67541" lon="5.67816">
        <ele>237</ele>
        <time>2021-06-05T16:54:04.537Z</time>
      </trkpt>
      <trkpt lat="45.67545" lon="5.67812">
        <ele>236</ele>
        <time>2021-06-05T16:54:09.544Z</time>
      </trkpt>
      <trkpt lat="45.6755" lon="5.67807">
        <ele>236</ele>
        <time>2021-06-05T16:54:14.543Z</time>
      </trkpt>
      <trkpt lat="45.67555" lon="5.67802">
        <ele>236</ele>
        <time>2021-06-05T16:54:19.545Z</time>
      </trkpt>
      <trkpt lat="45.67562" lon="5.678">
        <ele>236</ele>
        <time>2021-06-05T16:54:24.574Z</time>
      </trkpt>
      <trkpt lat="45.67569" lon="5.67801">
        <ele>236</ele>
        <time>2021-06-05T16:54:29.544Z</time>
      </trkpt>
      <trkpt lat="45.67569" lon="5.67799">
        <ele>236</ele>
        <time>2021-06-05T16:54:34.536Z</time>
      </trkpt>
      <trkpt lat="45.67572" lon="5.67796">
        <ele>235</ele>
        <time>2021-06-05T16:54:39.525Z</time>
      </trkpt>
      <trkpt lat="45.67576" lon="5.67793">
        <ele>235</ele>
        <time>2021-06-05T16:54:43.543Z</time>
      </trkpt>
      <trkpt lat="45.67582" lon="5.6779">
        <ele>237</ele>
        <time>2021-06-05T16:54:48.541Z</time>
      </trkpt>
      <trkpt lat="45.67589" lon="5.67788">
        <ele>237</ele>
        <time>2021-06-05T16:54:53.547Z</time>
      </trkpt>
      <trkpt lat="45.67594" lon="5.67784">
        <ele>237</ele>
        <time>2021-06-05T16:54:58.534Z</time>
      </trkpt>
      <trkpt lat="45.676" lon="5.67782">
        <ele>235</ele>
        <time>2021-06-05T16:55:03.544Z</time>
      </trkpt>
      <trkpt lat="45.67605" lon="5.67781">
        <ele>235</ele>
        <time>2021-06-05T16:55:07.565Z</time>
      </trkpt>
      <trkpt lat="45.6761" lon="5.67779">
        <ele>235</ele>
        <time>2021-06-05T16:55:12.547Z</time>
      </trkpt>
      <trkpt lat="45.67614" lon="5.67778">
        <ele>235</ele>
        <time>2021-06-05T16:55:17.551Z</time>
      </trkpt>
      <trkpt lat="45.67619" lon="5.67776">
        <ele>235</ele>
        <time>2021-06-05T16:55:22.536Z</time>
      </trkpt>
      <trkpt lat="45.67625" lon="5.67774">
        <ele>233</ele>
        <time>2021-06-05T16:55:27.543Z</time>
      </trkpt>
      <trkpt lat="45.67628" lon="5.6777">
        <ele>233</ele>
        <time>2021-06-05T16:55:32.549Z</time>
      </trkpt>
      <trkpt lat="45.67633" lon="5.67763">
        <ele>235</ele>
        <time>2021-06-05T16:55:37.545Z</time>
      </trkpt>
      <trkpt lat="45.6764" lon="5.67764">
        <ele>233</ele>
        <time>2021-06-05T16:55:42.558Z</time>
      </trkpt>
      <trkpt lat="45.67647" lon="5.6777">
        <ele>233</ele>
        <time>2021-06-05T16:55:47.551Z</time>
      </trkpt>
      <trkpt lat="45.67652" lon="5.6777">
        <ele>233</ele>
        <time>2021-06-05T16:55:52.558Z</time>
      </trkpt>
      <trkpt lat="45.67656" lon="5.6777">
        <ele>231</ele>
        <time>2021-06-05T16:55:56.564Z</time>
      </trkpt>
      <trkpt lat="45.67665" lon="5.67775">
        <ele>231</ele>
        <time>2021-06-05T16:56:01.556Z</time>
      </trkpt>
      <trkpt lat="45.67672" lon="5.67781">
        <ele>231</ele>
        <time>2021-06-05T16:56:06.535Z</time>
      </trkpt>
      <trkpt lat="45.67677" lon="5.67784">
        <ele>231</ele>
        <time>2021-06-05T16:56:10.545Z</time>
      </trkpt>
      <trkpt lat="45.67681" lon="5.67791">
        <ele>231</ele>
        <time>2021-06-05T16:56:15.542Z</time>
      </trkpt>
      <trkpt lat="45.67681" lon="5.67798">
        <ele>231</ele>
        <time>2021-06-05T16:56:20.541Z</time>
      </trkpt>
      <trkpt lat="45.67683" lon="5.67805">
        <ele>231</ele>
        <time>2021-06-05T16:56:25.553Z</time>
      </trkpt>
      <trkpt lat="45.67683" lon="5.67813">
        <ele>231</ele>
        <time>2021-06-05T16:56:30.542Z</time>
      </trkpt>
      <trkpt lat="45.67684" lon="5.67824">
        <ele>231</ele>
        <time>2021-06-05T16:56:35.551Z</time>
      </trkpt>
      <trkpt lat="45.67687" lon="5.67831">
        <ele>231</ele>
        <time>2021-06-05T16:56:40.540Z</time>
      </trkpt>
      <trkpt lat="45.67691" lon="5.67837">
        <ele>231</ele>
        <time>2021-06-05T16:56:45.543Z</time>
      </trkpt>
      <trkpt lat="45.67693" lon="5.67845">
        <ele>231</ele>
        <time>2021-06-05T16:56:50.538Z</time>
      </trkpt>
      <trkpt lat="45.67695" lon="5.67849">
        <ele>230</ele>
        <time>2021-06-05T16:56:54.548Z</time>
      </trkpt>
      <trkpt lat="45.67697" lon="5.67856">
        <ele>230</ele>
        <time>2021-06-05T16:56:59.551Z</time>
      </trkpt>
      <trkpt lat="45.67701" lon="5.67863">
        <ele>230</ele>
        <time>2021-06-05T16:57:04.565Z</time>
      </trkpt>
      <trkpt lat="45.67703" lon="5.67871">
        <ele>230</ele>
        <time>2021-06-05T16:57:09.563Z</time>
      </trkpt>
      <trkpt lat="45.67705" lon="5.67878">
        <ele>229</ele>
        <time>2021-06-05T16:57:14.560Z</time>
      </trkpt>
      <trkpt lat="45.67709" lon="5.67885">
        <ele>228</ele>
        <time>2021-06-05T16:57:19.561Z</time>
      </trkpt>
      <trkpt lat="45.67709" lon="5.67893">
        <ele>228</ele>
        <time>2021-06-05T16:57:24.553Z</time>
      </trkpt>
      <trkpt lat="45.67709" lon="5.67893">
        <ele>228</ele>
        <time>2021-06-05T16:57:29.557Z</time>
      </trkpt>
      <trkpt lat="45.67711" lon="5.67899">
        <ele>228</ele>
        <time>2021-06-05T16:57:34.552Z</time>
      </trkpt>
      <trkpt lat="45.67714" lon="5.67905">
        <ele>226</ele>
        <time>2021-06-05T16:57:38.578Z</time>
      </trkpt>
      <trkpt lat="45.67717" lon="5.67912">
        <ele>226</ele>
        <time>2021-06-05T16:57:43.563Z</time>
      </trkpt>
      <trkpt lat="45.6772" lon="5.67917">
        <ele>226</ele>
        <time>2021-06-05T16:57:48.559Z</time>
      </trkpt>
      <trkpt lat="45.6772" lon="5.67924">
        <ele>226</ele>
        <time>2021-06-05T16:57:53.557Z</time>
      </trkpt>
      <trkpt lat="45.67719" lon="5.67928">
        <ele>226</ele>
        <time>2021-06-05T16:57:57.566Z</time>
      </trkpt>
      <trkpt lat="45.6772" lon="5.67932">
        <ele>226</ele>
        <time>2021-06-05T16:58:02.564Z</time>
      </trkpt>
      <trkpt lat="45.67722" lon="5.67936">
        <ele>226</ele>
        <time>2021-06-05T16:58:07.562Z</time>
      </trkpt>
      <trkpt lat="45.67723" lon="5.67942">
        <ele>226</ele>
        <time>2021-06-05T16:58:12.563Z</time>
      </trkpt>
      <trkpt lat="45.67722" lon="5.67948">
        <ele>226</ele>
        <time>2021-06-05T16:58:17.557Z</time>
      </trkpt>
      <trkpt lat="45.67721" lon="5.67954">
        <ele>226</ele>
        <time>2021-06-05T16:58:22.573Z</time>
      </trkpt>
      <trkpt lat="45.67719" lon="5.67961">
        <ele>225</ele>
        <time>2021-06-05T16:58:27.567Z</time>
      </trkpt>
      <trkpt lat="45.67715" lon="5.67965">
        <ele>225</ele>
        <time>2021-06-05T16:58:32.560Z</time>
      </trkpt>
      <trkpt lat="45.6771" lon="5.67968">
        <ele>225</ele>
        <time>2021-06-05T16:58:37.567Z</time>
      </trkpt>
      <trkpt lat="45.67708" lon="5.67971">
        <ele>226</ele>
        <time>2021-06-05T16:58:42.574Z</time>
      </trkpt>
      <trkpt lat="45.67704" lon="5.67973">
        <ele>226</ele>
        <time>2021-06-05T16:58:46.580Z</time>
      </trkpt>
      <trkpt lat="45.67696" lon="5.67977">
        <ele>226</ele>
        <time>2021-06-05T16:59:05.568Z</time>
      </trkpt>
      <trkpt lat="45.67696" lon="5.67977">
        <ele>226</ele>
        <time>2021-06-05T16:59:10.557Z</time>
      </trkpt>
      <trkpt lat="45.67693" lon="5.67981">
        <ele>226</ele>
        <time>2021-06-05T16:59:15.544Z</time>
      </trkpt>
      <trkpt lat="45.67693" lon="5.67983">
        <ele>226</ele>
        <time>2021-06-05T16:59:19.556Z</time>
      </trkpt>
      <trkpt lat="45.67691" lon="5.67984">
        <ele>226</ele>
        <time>2021-06-05T16:59:24.549Z</time>
      </trkpt>
      <trkpt lat="45.67688" lon="5.67985">
        <ele>226</ele>
        <time>2021-06-05T16:59:29.561Z</time>
      </trkpt>
      <trkpt lat="45.67682" lon="5.67984">
        <ele>226</ele>
        <time>2021-06-05T16:59:34.558Z</time>
      </trkpt>
      <trkpt lat="45.67677" lon="5.67986">
        <ele>224</ele>
        <time>2021-06-05T16:59:39.562Z</time>
      </trkpt>
      <trkpt lat="45.67675" lon="5.67987">
        <ele>224</ele>
        <time>2021-06-05T16:59:44.550Z</time>
      </trkpt>
      <trkpt lat="45.67672" lon="5.67984">
        <ele>225</ele>
        <time>2021-06-05T16:59:49.561Z</time>
      </trkpt>
      <trkpt lat="45.67671" lon="5.67986">
        <ele>224</ele>
        <time>2021-06-05T16:59:54.565Z</time>
      </trkpt>
      <trkpt lat="45.67666" lon="5.6799">
        <ele>224</ele>
        <time>2021-06-05T16:59:59.559Z</time>
      </trkpt>
      <trkpt lat="45.67662" lon="5.67992">
        <ele>224</ele>
        <time>2021-06-05T17:00:04.554Z</time>
      </trkpt>
      <trkpt lat="45.67657" lon="5.67991">
        <ele>224</ele>
        <time>2021-06-05T17:00:09.568Z</time>
      </trkpt>
      <trkpt lat="45.67652" lon="5.67989">
        <ele>222</ele>
        <time>2021-06-05T17:00:13.579Z</time>
      </trkpt>
      <trkpt lat="45.67645" lon="5.67987">
        <ele>222</ele>
        <time>2021-06-05T17:00:18.558Z</time>
      </trkpt>
      <trkpt lat="45.67641" lon="5.67988">
        <ele>222</ele>
        <time>2021-06-05T17:00:23.547Z</time>
      </trkpt>
    </trkseg>
  </trk>
</gpx>